<?xml version='1.0' encoding='UTF-8'?><gpx version="1.1" creator="JPX - https://github.com/jenetics/jpx" xmlns="http://www.topografix.com/GPX/1/1"><trk><trkseg><trkpt lat="44.150862" lon="10.4124311"><ele>546.0</ele><time>2026-04-11T06:46:21.896Z</time></trkpt><trkpt lat="44.1508177" lon="10.4123297"><ele>546.0</ele><time>2026-04-11T06:46:22.958Z</time></trkpt><trkpt lat="44.1508373" lon="10.4121868"><ele>546.0</ele><time>2026-04-11T06:46:24.953Z</time></trkpt><trkpt lat="44.1509018" lon="10.4121182"><ele>546.0</ele><time>2026-04-11T06:46:26.961Z</time></trkpt><trkpt lat="44.150977" lon="10.4121066"><ele>546.0</ele><time>2026-04-11T06:46:28.96Z</time></trkpt><trkpt lat="44.151043" lon="10.4120954"><ele>546.0</ele><time>2026-04-11T06:46:30.964Z</time></trkpt><trkpt lat="44.1510975" lon="10.4120462"><ele>543.5</ele><time>2026-04-11T06:46:32.958Z</time></trkpt><trkpt lat="44.151049" lon="10.4119286"><ele>541.0</ele><time>2026-04-11T06:46:35.956Z</time></trkpt><trkpt lat="44.1509673" lon="10.4118456"><ele>538.5</ele><time>2026-04-11T06:46:37.96Z</time></trkpt><trkpt lat="44.1509005" lon="10.4117897"><ele>536.0</ele><time>2026-04-11T06:46:39.958Z</time></trkpt><trkpt lat="44.1508219" lon="10.4117731"><ele>533.5</ele><time>2026-04-11T06:46:41.961Z</time></trkpt><trkpt lat="44.1507345" lon="10.4117886"><ele>531.0</ele><time>2026-04-11T06:46:43.951Z</time></trkpt><trkpt lat="44.1506194" lon="10.4117863"><ele>530.8333333333334</ele><time>2026-04-11T06:46:45.955Z</time></trkpt><trkpt lat="44.1504998" lon="10.4117518"><ele>530.6666666666666</ele><time>2026-04-11T06:46:47.961Z</time></trkpt><trkpt lat="44.1504354" lon="10.4117321"><ele>530.5</ele><time>2026-04-11T06:46:48.959Z</time></trkpt><trkpt lat="44.1503712" lon="10.4116884"><ele>530.3333333333333</ele><time>2026-04-11T06:46:49.956Z</time></trkpt><trkpt lat="44.1503051" lon="10.4116491"><ele>530.1666666666666</ele><time>2026-04-11T06:46:50.952Z</time></trkpt><trkpt lat="44.1502344" lon="10.4116143"><ele>530.0</ele><time>2026-04-11T06:46:51.951Z</time></trkpt><trkpt lat="44.1501628" lon="10.4115774"><ele>530.0</ele><time>2026-04-11T06:46:52.955Z</time></trkpt><trkpt lat="44.150092" lon="10.4115407"><ele>530.0</ele><time>2026-04-11T06:46:53.959Z</time></trkpt><trkpt lat="44.1500206" lon="10.4114964"><ele>530.0</ele><time>2026-04-11T06:46:54.958Z</time></trkpt><trkpt lat="44.149946" lon="10.4114592"><ele>530.0</ele><time>2026-04-11T06:46:55.954Z</time></trkpt><trkpt lat="44.1498746" lon="10.411423"><ele>530.0</ele><time>2026-04-11T06:46:56.957Z</time></trkpt><trkpt lat="44.1497968" lon="10.4113852"><ele>530.0</ele><time>2026-04-11T06:46:57.954Z</time></trkpt><trkpt lat="44.1497224" lon="10.4113448"><ele>531.0</ele><time>2026-04-11T06:46:58.953Z</time></trkpt><trkpt lat="44.149651" lon="10.4112998"><ele>532.0</ele><time>2026-04-11T06:46:59.961Z</time></trkpt><trkpt lat="44.1495782" lon="10.4112583"><ele>533.0</ele><time>2026-04-11T06:47:00.95Z</time></trkpt><trkpt lat="44.1495085" lon="10.4112197"><ele>534.0</ele><time>2026-04-11T06:47:01.958Z</time></trkpt><trkpt lat="44.1494384" lon="10.4111835"><ele>535.0</ele><time>2026-04-11T06:47:02.957Z</time></trkpt><trkpt lat="44.1493699" lon="10.4111489"><ele>536.0</ele><time>2026-04-11T06:47:03.959Z</time></trkpt><trkpt lat="44.1493012" lon="10.4111169"><ele>536.0</ele><time>2026-04-11T06:47:04.959Z</time></trkpt><trkpt lat="44.1492296" lon="10.4111016"><ele>536.0</ele><time>2026-04-11T06:47:05.956Z</time></trkpt><trkpt lat="44.1491577" lon="10.4110993"><ele>536.0</ele><time>2026-04-11T06:47:06.959Z</time></trkpt><trkpt lat="44.1490458" lon="10.4111786"><ele>536.0</ele><time>2026-04-11T06:47:08.959Z</time></trkpt><trkpt lat="44.1489589" lon="10.411261"><ele>536.0</ele><time>2026-04-11T06:47:10.95Z</time></trkpt><trkpt lat="44.1488637" lon="10.4112986"><ele>534.1666666666666</ele><time>2026-04-11T06:47:12.958Z</time></trkpt><trkpt lat="44.148768" lon="10.4113397"><ele>532.3333333333333</ele><time>2026-04-11T06:47:14.952Z</time></trkpt><trkpt lat="44.1486906" lon="10.4113287"><ele>530.5</ele><time>2026-04-11T06:47:16.953Z</time></trkpt><trkpt lat="44.1486354" lon="10.4112656"><ele>528.6666666666666</ele><time>2026-04-11T06:47:18.954Z</time></trkpt><trkpt lat="44.1485893" lon="10.4111908"><ele>526.8333333333334</ele><time>2026-04-11T06:47:20.961Z</time></trkpt><trkpt lat="44.1485534" lon="10.4111063"><ele>525.0</ele><time>2026-04-11T06:47:22.961Z</time></trkpt><trkpt lat="44.1485211" lon="10.4110217"><ele>525.0</ele><time>2026-04-11T06:47:24.958Z</time></trkpt><trkpt lat="44.1484853" lon="10.4109353"><ele>525.0</ele><time>2026-04-11T06:47:26.973Z</time></trkpt><trkpt lat="44.1484498" lon="10.4108397"><ele>525.0</ele><time>2026-04-11T06:47:28.96Z</time></trkpt><trkpt lat="44.148415" lon="10.410739"><ele>525.0</ele><time>2026-04-11T06:47:30.958Z</time></trkpt><trkpt lat="44.1483797" lon="10.4106359"><ele>525.0</ele><time>2026-04-11T06:47:32.959Z</time></trkpt><trkpt lat="44.1483445" lon="10.4105339"><ele>525.0</ele><time>2026-04-11T06:47:34.972Z</time></trkpt><trkpt lat="44.1483101" lon="10.4104319"><ele>525.6666666666666</ele><time>2026-04-11T06:47:36.959Z</time></trkpt><trkpt lat="44.1482829" lon="10.4103202"><ele>526.3333333333334</ele><time>2026-04-11T06:47:38.956Z</time></trkpt><trkpt lat="44.1482617" lon="10.4102077"><ele>527.0</ele><time>2026-04-11T06:47:40.965Z</time></trkpt><trkpt lat="44.1482486" lon="10.4100957"><ele>527.6666666666667</ele><time>2026-04-11T06:47:42.969Z</time></trkpt><trkpt lat="44.148234" lon="10.4099784"><ele>528.3333333333334</ele><time>2026-04-11T06:47:44.958Z</time></trkpt><trkpt lat="44.1482104" lon="10.4098555"><ele>529.0</ele><time>2026-04-11T06:47:46.961Z</time></trkpt><trkpt lat="44.1481836" lon="10.4097264"><ele>525.0</ele><time>2026-04-11T06:47:48.957Z</time></trkpt><trkpt lat="44.1481609" lon="10.4095912"><ele>521.0</ele><time>2026-04-11T06:47:50.959Z</time></trkpt><trkpt lat="44.148147" lon="10.4094425"><ele>517.0</ele><time>2026-04-11T06:47:52.965Z</time></trkpt><trkpt lat="44.1481336" lon="10.4092954"><ele>513.0</ele><time>2026-04-11T06:47:54.983Z</time></trkpt><trkpt lat="44.1481275" lon="10.40914"><ele>509.0</ele><time>2026-04-11T06:47:56.959Z</time></trkpt><trkpt lat="44.1481166" lon="10.4089856"><ele>509.0</ele><time>2026-04-11T06:47:58.963Z</time></trkpt><trkpt lat="44.1481059" lon="10.4088267"><ele>509.0</ele><time>2026-04-11T06:48:00.962Z</time></trkpt><trkpt lat="44.1480914" lon="10.4086748"><ele>509.0</ele><time>2026-04-11T06:48:02.969Z</time></trkpt><trkpt lat="44.1480796" lon="10.4085178"><ele>509.0</ele><time>2026-04-11T06:48:04.97Z</time></trkpt><trkpt lat="44.1480639" lon="10.4083508"><ele>508.8571428571428</ele><time>2026-04-11T06:48:06.97Z</time></trkpt><trkpt lat="44.1480535" lon="10.4082599"><ele>508.71428571428567</ele><time>2026-04-11T06:48:07.969Z</time></trkpt><trkpt lat="44.1480439" lon="10.4081634"><ele>508.57142857142856</ele><time>2026-04-11T06:48:08.963Z</time></trkpt><trkpt lat="44.1480351" lon="10.4080644"><ele>508.4285714285714</ele><time>2026-04-11T06:48:09.961Z</time></trkpt><trkpt lat="44.1480142" lon="10.4079649"><ele>508.2857142857142</ele><time>2026-04-11T06:48:10.963Z</time></trkpt><trkpt lat="44.147982" lon="10.4078751"><ele>508.14285714285717</ele><time>2026-04-11T06:48:11.973Z</time></trkpt><trkpt lat="44.1479217" lon="10.4078092"><ele>508.0</ele><time>2026-04-11T06:48:12.972Z</time></trkpt><trkpt lat="44.1478499" lon="10.4077714"><ele>508.00000000000006</ele><time>2026-04-11T06:48:13.965Z</time></trkpt><trkpt lat="44.1477677" lon="10.4077486"><ele>508.0</ele><time>2026-04-11T06:48:14.964Z</time></trkpt><trkpt lat="44.1476858" lon="10.4077329"><ele>508.0</ele><time>2026-04-11T06:48:15.953Z</time></trkpt><trkpt lat="44.1476027" lon="10.4077149"><ele>508.0</ele><time>2026-04-11T06:48:16.966Z</time></trkpt><trkpt lat="44.1475224" lon="10.4077053"><ele>508.00000000000006</ele><time>2026-04-11T06:48:17.955Z</time></trkpt><trkpt lat="44.1474522" lon="10.4077064"><ele>508.0</ele><time>2026-04-11T06:48:18.961Z</time></trkpt><trkpt lat="44.1473863" lon="10.4077176"><ele>506.6666666666667</ele><time>2026-04-11T06:48:19.963Z</time></trkpt><trkpt lat="44.1473195" lon="10.4077533"><ele>505.33333333333337</ele><time>2026-04-11T06:48:20.957Z</time></trkpt><trkpt lat="44.1472606" lon="10.4078017"><ele>504.0</ele><time>2026-04-11T06:48:21.955Z</time></trkpt><trkpt lat="44.1472122" lon="10.407858"><ele>502.66666666666663</ele><time>2026-04-11T06:48:22.964Z</time></trkpt><trkpt lat="44.147175" lon="10.4079923"><ele>501.3333333333333</ele><time>2026-04-11T06:48:24.969Z</time></trkpt><trkpt lat="44.1472293" lon="10.4081233"><ele>500.0</ele><time>2026-04-11T06:48:26.966Z</time></trkpt><trkpt lat="44.1472749" lon="10.4081875"><ele>499.99999999999994</ele><time>2026-04-11T06:48:27.969Z</time></trkpt><trkpt lat="44.1473224" lon="10.4082586"><ele>500.0</ele><time>2026-04-11T06:48:28.962Z</time></trkpt><trkpt lat="44.1473686" lon="10.4083399"><ele>500.0</ele><time>2026-04-11T06:48:29.969Z</time></trkpt><trkpt lat="44.1474086" lon="10.4084332"><ele>500.0</ele><time>2026-04-11T06:48:30.964Z</time></trkpt><trkpt lat="44.1474434" lon="10.4085343"><ele>499.99999999999994</ele><time>2026-04-11T06:48:31.971Z</time></trkpt><trkpt lat="44.1474703" lon="10.4086454"><ele>500.0</ele><time>2026-04-11T06:48:32.965Z</time></trkpt><trkpt lat="44.1474933" lon="10.4087599"><ele>501.8</ele><time>2026-04-11T06:48:33.961Z</time></trkpt><trkpt lat="44.1475135" lon="10.4088799"><ele>503.6</ele><time>2026-04-11T06:48:34.969Z</time></trkpt><trkpt lat="44.1475318" lon="10.4090001"><ele>505.4</ele><time>2026-04-11T06:48:35.959Z</time></trkpt><trkpt lat="44.1475518" lon="10.4091235"><ele>507.2</ele><time>2026-04-11T06:48:36.968Z</time></trkpt><trkpt lat="44.1475698" lon="10.4092489"><ele>509.0</ele><time>2026-04-11T06:48:37.969Z</time></trkpt><trkpt lat="44.1475878" lon="10.409377"><ele>509.0</ele><time>2026-04-11T06:48:38.968Z</time></trkpt><trkpt lat="44.1476051" lon="10.4095111"><ele>509.0</ele><time>2026-04-11T06:48:39.964Z</time></trkpt><trkpt lat="44.1476231" lon="10.4096486"><ele>509.0</ele><time>2026-04-11T06:48:40.967Z</time></trkpt><trkpt lat="44.1476417" lon="10.409783"><ele>509.0</ele><time>2026-04-11T06:48:41.966Z</time></trkpt><trkpt lat="44.1476593" lon="10.4099214"><ele>509.0</ele><time>2026-04-11T06:48:42.966Z</time></trkpt><trkpt lat="44.1476821" lon="10.4100579"><ele>507.0</ele><time>2026-04-11T06:48:43.969Z</time></trkpt><trkpt lat="44.1477045" lon="10.4101962"><ele>505.0</ele><time>2026-04-11T06:48:44.965Z</time></trkpt><trkpt lat="44.1477252" lon="10.4103336"><ele>503.0</ele><time>2026-04-11T06:48:45.963Z</time></trkpt><trkpt lat="44.1477442" lon="10.4104779"><ele>501.0</ele><time>2026-04-11T06:48:46.963Z</time></trkpt><trkpt lat="44.147768" lon="10.4106183"><ele>499.0</ele><time>2026-04-11T06:48:47.959Z</time></trkpt><trkpt lat="44.1477923" lon="10.4107586"><ele>498.0</ele><time>2026-04-11T06:48:48.948Z</time></trkpt><trkpt lat="44.1478188" lon="10.4109031"><ele>497.0</ele><time>2026-04-11T06:48:49.956Z</time></trkpt><trkpt lat="44.1478472" lon="10.4110465"><ele>496.0</ele><time>2026-04-11T06:48:50.968Z</time></trkpt><trkpt lat="44.1478769" lon="10.4111934"><ele>495.0</ele><time>2026-04-11T06:48:51.982Z</time></trkpt><trkpt lat="44.147906" lon="10.4113355"><ele>494.0</ele><time>2026-04-11T06:48:52.966Z</time></trkpt><trkpt lat="44.1479305" lon="10.4114852"><ele>493.4</ele><time>2026-04-11T06:48:53.959Z</time></trkpt><trkpt lat="44.1479551" lon="10.4116289"><ele>492.79999999999995</ele><time>2026-04-11T06:48:54.959Z</time></trkpt><trkpt lat="44.1479842" lon="10.4117745"><ele>492.20000000000005</ele><time>2026-04-11T06:48:55.964Z</time></trkpt><trkpt lat="44.1480104" lon="10.4119198"><ele>491.6</ele><time>2026-04-11T06:48:56.967Z</time></trkpt><trkpt lat="44.1480369" lon="10.412063"><ele>491.0</ele><time>2026-04-11T06:48:57.962Z</time></trkpt><trkpt lat="44.1480638" lon="10.4122056"><ele>491.0</ele><time>2026-04-11T06:48:58.98Z</time></trkpt><trkpt lat="44.1480893" lon="10.4123518"><ele>491.0</ele><time>2026-04-11T06:48:59.959Z</time></trkpt><trkpt lat="44.1481132" lon="10.4124939"><ele>491.0</ele><time>2026-04-11T06:49:00.96Z</time></trkpt><trkpt lat="44.1481366" lon="10.4126248"><ele>491.0</ele><time>2026-04-11T06:49:01.969Z</time></trkpt><trkpt lat="44.1481537" lon="10.4127419"><ele>491.0</ele><time>2026-04-11T06:49:02.955Z</time></trkpt><trkpt lat="44.1481739" lon="10.4128456"><ele>491.0</ele><time>2026-04-11T06:49:03.971Z</time></trkpt><trkpt lat="44.1481925" lon="10.4129313"><ele>491.0</ele><time>2026-04-11T06:49:04.956Z</time></trkpt><trkpt lat="44.1481984" lon="10.4130607"><ele>491.0</ele><time>2026-04-11T06:49:06.953Z</time></trkpt><trkpt lat="44.1481202" lon="10.4130967"><ele>491.0</ele><time>2026-04-11T06:49:08.958Z</time></trkpt><trkpt lat="44.1480458" lon="10.4130077"><ele>491.0</ele><time>2026-04-11T06:49:10.959Z</time></trkpt><trkpt lat="44.1479694" lon="10.4128902"><ele>490.99999999999994</ele><time>2026-04-11T06:49:12.952Z</time></trkpt><trkpt lat="44.1478845" lon="10.4127576"><ele>491.0</ele><time>2026-04-11T06:49:14.969Z</time></trkpt><trkpt lat="44.1478361" lon="10.4126898"><ele>491.0</ele><time>2026-04-11T06:49:15.969Z</time></trkpt><trkpt lat="44.147786" lon="10.4126215"><ele>491.0</ele><time>2026-04-11T06:49:16.958Z</time></trkpt><trkpt lat="44.1477333" lon="10.4125478"><ele>490.99999999999994</ele><time>2026-04-11T06:49:17.957Z</time></trkpt><trkpt lat="44.1476812" lon="10.4124722"><ele>491.0</ele><time>2026-04-11T06:49:18.957Z</time></trkpt><trkpt lat="44.1476281" lon="10.4124001"><ele>490.99999999999994</ele><time>2026-04-11T06:49:19.962Z</time></trkpt><trkpt lat="44.1475727" lon="10.412319"><ele>491.0</ele><time>2026-04-11T06:49:20.956Z</time></trkpt><trkpt lat="44.1475149" lon="10.4122358"><ele>491.0</ele><time>2026-04-11T06:49:21.96Z</time></trkpt><trkpt lat="44.1474588" lon="10.4121511"><ele>491.0</ele><time>2026-04-11T06:49:22.975Z</time></trkpt><trkpt lat="44.1473958" lon="10.4120642"><ele>490.99999999999994</ele><time>2026-04-11T06:49:23.956Z</time></trkpt><trkpt lat="44.1473341" lon="10.4119733"><ele>491.0</ele><time>2026-04-11T06:49:24.972Z</time></trkpt><trkpt lat="44.1472704" lon="10.4118816"><ele>490.20000000000005</ele><time>2026-04-11T06:49:25.961Z</time></trkpt><trkpt lat="44.147204" lon="10.4117911"><ele>489.40000000000003</ele><time>2026-04-11T06:49:26.977Z</time></trkpt><trkpt lat="44.1471374" lon="10.4116957"><ele>488.6</ele><time>2026-04-11T06:49:27.972Z</time></trkpt><trkpt lat="44.1470692" lon="10.4115987"><ele>487.8</ele><time>2026-04-11T06:49:28.972Z</time></trkpt><trkpt lat="44.147" lon="10.4114956"><ele>487.0</ele><time>2026-04-11T06:49:29.982Z</time></trkpt><trkpt lat="44.146932" lon="10.4113961"><ele>485.6</ele><time>2026-04-11T06:49:30.973Z</time></trkpt><trkpt lat="44.1468624" lon="10.4112935"><ele>484.20000000000005</ele><time>2026-04-11T06:49:31.967Z</time></trkpt><trkpt lat="44.1467917" lon="10.4111874"><ele>482.8</ele><time>2026-04-11T06:49:32.967Z</time></trkpt><trkpt lat="44.1467184" lon="10.4110809"><ele>481.4</ele><time>2026-04-11T06:49:33.968Z</time></trkpt><trkpt lat="44.1466413" lon="10.410984"><ele>480.0</ele><time>2026-04-11T06:49:34.954Z</time></trkpt><trkpt lat="44.146552" lon="10.4109078"><ele>479.0</ele><time>2026-04-11T06:49:35.965Z</time></trkpt><trkpt lat="44.1464536" lon="10.4108473"><ele>478.0</ele><time>2026-04-11T06:49:36.968Z</time></trkpt><trkpt lat="44.1463528" lon="10.410811"><ele>477.0</ele><time>2026-04-11T06:49:37.968Z</time></trkpt><trkpt lat="44.1462472" lon="10.4107729"><ele>476.0</ele><time>2026-04-11T06:49:38.966Z</time></trkpt><trkpt lat="44.1461429" lon="10.4107361"><ele>475.0</ele><time>2026-04-11T06:49:39.979Z</time></trkpt><trkpt lat="44.1460376" lon="10.410701"><ele>475.0</ele><time>2026-04-11T06:49:40.965Z</time></trkpt><trkpt lat="44.1459323" lon="10.4106646"><ele>475.0</ele><time>2026-04-11T06:49:41.961Z</time></trkpt><trkpt lat="44.1458258" lon="10.4106278"><ele>475.0</ele><time>2026-04-11T06:49:42.98Z</time></trkpt><trkpt lat="44.1457183" lon="10.410589"><ele>475.0</ele><time>2026-04-11T06:49:43.976Z</time></trkpt><trkpt lat="44.1456094" lon="10.4105533"><ele>475.0</ele><time>2026-04-11T06:49:44.962Z</time></trkpt><trkpt lat="44.1455019" lon="10.4105146"><ele>474.0</ele><time>2026-04-11T06:49:45.972Z</time></trkpt><trkpt lat="44.1453923" lon="10.4104765"><ele>473.0</ele><time>2026-04-11T06:49:46.962Z</time></trkpt><trkpt lat="44.1452837" lon="10.4104425"><ele>472.0</ele><time>2026-04-11T06:49:47.954Z</time></trkpt><trkpt lat="44.1450695" lon="10.4103678"><ele>471.0</ele><time>2026-04-11T06:49:49.961Z</time></trkpt><trkpt lat="44.1449613" lon="10.4103276"><ele>469.25</ele><time>2026-04-11T06:49:50.97Z</time></trkpt><trkpt lat="44.1448551" lon="10.4102881"><ele>467.5</ele><time>2026-04-11T06:49:51.969Z</time></trkpt><trkpt lat="44.1447406" lon="10.4102547"><ele>465.75</ele><time>2026-04-11T06:49:52.967Z</time></trkpt><trkpt lat="44.1446301" lon="10.4102152"><ele>464.0</ele><time>2026-04-11T06:49:53.97Z</time></trkpt><trkpt lat="44.144515" lon="10.4101758"><ele>464.0</ele><time>2026-04-11T06:49:54.967Z</time></trkpt><trkpt lat="44.1444031" lon="10.4101322"><ele>464.0</ele><time>2026-04-11T06:49:55.96Z</time></trkpt><trkpt lat="44.1442921" lon="10.4100915"><ele>464.0</ele><time>2026-04-11T06:49:56.965Z</time></trkpt><trkpt lat="44.1441814" lon="10.4100533"><ele>464.0</ele><time>2026-04-11T06:49:57.972Z</time></trkpt><trkpt lat="44.1440672" lon="10.410033"><ele>460.5</ele><time>2026-04-11T06:49:58.964Z</time></trkpt><trkpt lat="44.1439511" lon="10.4100434"><ele>457.0</ele><time>2026-04-11T06:49:59.98Z</time></trkpt><trkpt lat="44.1438376" lon="10.4100823"><ele>453.5</ele><time>2026-04-11T06:50:00.971Z</time></trkpt><trkpt lat="44.1437261" lon="10.4101355"><ele>450.0</ele><time>2026-04-11T06:50:01.975Z</time></trkpt><trkpt lat="44.1436212" lon="10.4101898"><ele>450.0</ele><time>2026-04-11T06:50:02.969Z</time></trkpt><trkpt lat="44.1435301" lon="10.4102356"><ele>450.0</ele><time>2026-04-11T06:50:03.976Z</time></trkpt><trkpt lat="44.143457" lon="10.4102778"><ele>450.0</ele><time>2026-04-11T06:50:04.972Z</time></trkpt><trkpt lat="44.1434014" lon="10.4103446"><ele>450.0</ele><time>2026-04-11T06:50:05.971Z</time></trkpt><trkpt lat="44.1433706" lon="10.4104262"><ele>450.0</ele><time>2026-04-11T06:50:06.961Z</time></trkpt><trkpt lat="44.1433701" lon="10.410523"><ele>450.0</ele><time>2026-04-11T06:50:07.972Z</time></trkpt><trkpt lat="44.1433967" lon="10.4106118"><ele>449.5</ele><time>2026-04-11T06:50:08.977Z</time></trkpt><trkpt lat="44.1434324" lon="10.4106918"><ele>449.0</ele><time>2026-04-11T06:50:09.972Z</time></trkpt><trkpt lat="44.143485" lon="10.4107533"><ele>448.5</ele><time>2026-04-11T06:50:10.963Z</time></trkpt><trkpt lat="44.1435658" lon="10.410816"><ele>448.0</ele><time>2026-04-11T06:50:11.969Z</time></trkpt><trkpt lat="44.143638" lon="10.4108723"><ele>447.5</ele><time>2026-04-11T06:50:12.967Z</time></trkpt><trkpt lat="44.1437049" lon="10.4109419"><ele>447.0</ele><time>2026-04-11T06:50:13.97Z</time></trkpt><trkpt lat="44.143773" lon="10.4110076"><ele>447.0</ele><time>2026-04-11T06:50:14.968Z</time></trkpt><trkpt lat="44.1438434" lon="10.4110771"><ele>447.00000000000006</ele><time>2026-04-11T06:50:15.967Z</time></trkpt><trkpt lat="44.1439114" lon="10.4111555"><ele>447.00000000000006</ele><time>2026-04-11T06:50:16.968Z</time></trkpt><trkpt lat="44.1439695" lon="10.4112579"><ele>447.0</ele><time>2026-04-11T06:50:17.951Z</time></trkpt><trkpt lat="44.1439945" lon="10.4113806"><ele>447.0</ele><time>2026-04-11T06:50:18.957Z</time></trkpt><trkpt lat="44.1440162" lon="10.411515"><ele>445.6</ele><time>2026-04-11T06:50:19.953Z</time></trkpt><trkpt lat="44.1439671" lon="10.4116439"><ele>444.20000000000005</ele><time>2026-04-11T06:50:20.953Z</time></trkpt><trkpt lat="44.1439271" lon="10.4117742"><ele>442.8</ele><time>2026-04-11T06:50:21.951Z</time></trkpt><trkpt lat="44.1438475" lon="10.4118659"><ele>441.4</ele><time>2026-04-11T06:50:22.951Z</time></trkpt><trkpt lat="44.1437607" lon="10.4119529"><ele>440.0</ele><time>2026-04-11T06:50:23.952Z</time></trkpt><trkpt lat="44.1436661" lon="10.4120171"><ele>440.0</ele><time>2026-04-11T06:50:24.958Z</time></trkpt><trkpt lat="44.1435698" lon="10.412058"><ele>440.0</ele><time>2026-04-11T06:50:25.953Z</time></trkpt><trkpt lat="44.1434581" lon="10.4120831"><ele>440.0</ele><time>2026-04-11T06:50:26.957Z</time></trkpt><trkpt lat="44.1433505" lon="10.4121007"><ele>440.0</ele><time>2026-04-11T06:50:27.953Z</time></trkpt><trkpt lat="44.1432468" lon="10.4121319"><ele>440.0</ele><time>2026-04-11T06:50:28.958Z</time></trkpt><trkpt lat="44.1431431" lon="10.4121773"><ele>437.8</ele><time>2026-04-11T06:50:29.953Z</time></trkpt><trkpt lat="44.1430428" lon="10.4122219"><ele>435.6</ele><time>2026-04-11T06:50:30.963Z</time></trkpt><trkpt lat="44.1429362" lon="10.4122657"><ele>433.4</ele><time>2026-04-11T06:50:31.97Z</time></trkpt><trkpt lat="44.1428381" lon="10.412313"><ele>431.2</ele><time>2026-04-11T06:50:32.967Z</time></trkpt><trkpt lat="44.1427636" lon="10.4123674"><ele>429.0</ele><time>2026-04-11T06:50:33.97Z</time></trkpt><trkpt lat="44.1427125" lon="10.4124421"><ele>429.0</ele><time>2026-04-11T06:50:34.969Z</time></trkpt><trkpt lat="44.1426875" lon="10.4125357"><ele>429.0</ele><time>2026-04-11T06:50:35.965Z</time></trkpt><trkpt lat="44.1426871" lon="10.4126387"><ele>429.0</ele><time>2026-04-11T06:50:36.964Z</time></trkpt><trkpt lat="44.1427051" lon="10.4127376"><ele>429.0</ele><time>2026-04-11T06:50:37.965Z</time></trkpt><trkpt lat="44.1427461" lon="10.4128128"><ele>429.0</ele><time>2026-04-11T06:50:38.966Z</time></trkpt><trkpt lat="44.1428087" lon="10.4128513"><ele>429.0</ele><time>2026-04-11T06:50:39.968Z</time></trkpt><trkpt lat="44.1429476" lon="10.4128821"><ele>429.0</ele><time>2026-04-11T06:50:41.974Z</time></trkpt><trkpt lat="44.1430299" lon="10.4128975"><ele>429.0</ele><time>2026-04-11T06:50:42.965Z</time></trkpt><trkpt lat="44.1431084" lon="10.4129371"><ele>429.0</ele><time>2026-04-11T06:50:43.972Z</time></trkpt><trkpt lat="44.1431803" lon="10.4130059"><ele>429.0</ele><time>2026-04-11T06:50:44.964Z</time></trkpt><trkpt lat="44.1432287" lon="10.4131166"><ele>429.0</ele><time>2026-04-11T06:50:45.961Z</time></trkpt><trkpt lat="44.1432597" lon="10.4132411"><ele>429.0</ele><time>2026-04-11T06:50:46.965Z</time></trkpt><trkpt lat="44.1432882" lon="10.4133621"><ele>429.4</ele><time>2026-04-11T06:50:47.978Z</time></trkpt><trkpt lat="44.1433181" lon="10.4134866"><ele>429.79999999999995</ele><time>2026-04-11T06:50:48.967Z</time></trkpt><trkpt lat="44.1433437" lon="10.4136081"><ele>430.20000000000005</ele><time>2026-04-11T06:50:49.967Z</time></trkpt><trkpt lat="44.1433663" lon="10.4137314"><ele>430.6</ele><time>2026-04-11T06:50:50.964Z</time></trkpt><trkpt lat="44.1433811" lon="10.4138549"><ele>431.0</ele><time>2026-04-11T06:50:51.963Z</time></trkpt><trkpt lat="44.1433842" lon="10.4139809"><ele>429.8</ele><time>2026-04-11T06:50:52.964Z</time></trkpt><trkpt lat="44.1433789" lon="10.4141113"><ele>428.6</ele><time>2026-04-11T06:50:53.96Z</time></trkpt><trkpt lat="44.1433761" lon="10.4142363"><ele>427.4</ele><time>2026-04-11T06:50:54.963Z</time></trkpt><trkpt lat="44.1433772" lon="10.4143683"><ele>426.2</ele><time>2026-04-11T06:50:55.955Z</time></trkpt><trkpt lat="44.1433967" lon="10.4144927"><ele>425.0</ele><time>2026-04-11T06:50:56.962Z</time></trkpt><trkpt lat="44.143437" lon="10.4145901"><ele>423.3333333333333</ele><time>2026-04-11T06:50:57.978Z</time></trkpt><trkpt lat="44.1434994" lon="10.4146556"><ele>421.66666666666663</ele><time>2026-04-11T06:50:58.955Z</time></trkpt><trkpt lat="44.1435654" lon="10.4146935"><ele>420.0</ele><time>2026-04-11T06:50:59.97Z</time></trkpt><trkpt lat="44.1436536" lon="10.4147089"><ele>418.33333333333337</ele><time>2026-04-11T06:51:00.968Z</time></trkpt><trkpt lat="44.1437417" lon="10.4147217"><ele>416.6666666666667</ele><time>2026-04-11T06:51:01.968Z</time></trkpt><trkpt lat="44.143833" lon="10.4147488"><ele>415.0</ele><time>2026-04-11T06:51:02.982Z</time></trkpt><trkpt lat="44.1439279" lon="10.4147858"><ele>415.0</ele><time>2026-04-11T06:51:03.966Z</time></trkpt><trkpt lat="44.1440059" lon="10.4148334"><ele>415.0</ele><time>2026-04-11T06:51:04.969Z</time></trkpt><trkpt lat="44.1440666" lon="10.4148807"><ele>415.0</ele><time>2026-04-11T06:51:05.97Z</time></trkpt><trkpt lat="44.1441168" lon="10.4149934"><ele>415.0</ele><time>2026-04-11T06:51:07.973Z</time></trkpt><trkpt lat="44.1440551" lon="10.4150866"><ele>415.0</ele><time>2026-04-11T06:51:09.971Z</time></trkpt><trkpt lat="44.1439475" lon="10.4150605"><ele>415.00000000000006</ele><time>2026-04-11T06:51:11.957Z</time></trkpt><trkpt lat="44.143822" lon="10.4150073"><ele>415.0</ele><time>2026-04-11T06:51:13.969Z</time></trkpt><trkpt lat="44.1437517" lon="10.4149825"><ele>415.0</ele><time>2026-04-11T06:51:14.966Z</time></trkpt><trkpt lat="44.1436828" lon="10.4149556"><ele>415.0</ele><time>2026-04-11T06:51:15.966Z</time></trkpt><trkpt lat="44.1436085" lon="10.4149351"><ele>415.00000000000006</ele><time>2026-04-11T06:51:16.973Z</time></trkpt><trkpt lat="44.1435317" lon="10.4149073"><ele>415.0</ele><time>2026-04-11T06:51:17.965Z</time></trkpt><trkpt lat="44.1434492" lon="10.4148877"><ele>415.0</ele><time>2026-04-11T06:51:18.959Z</time></trkpt><trkpt lat="44.1433651" lon="10.414867"><ele>415.0</ele><time>2026-04-11T06:51:19.961Z</time></trkpt><trkpt lat="44.143278" lon="10.41484"><ele>415.0</ele><time>2026-04-11T06:51:20.963Z</time></trkpt><trkpt lat="44.143186" lon="10.4148349"><ele>415.0</ele><time>2026-04-11T06:51:21.961Z</time></trkpt><trkpt lat="44.1430965" lon="10.4148414"><ele>415.0</ele><time>2026-04-11T06:51:22.969Z</time></trkpt><trkpt lat="44.1430018" lon="10.4148664"><ele>412.6</ele><time>2026-04-11T06:51:23.961Z</time></trkpt><trkpt lat="44.1429009" lon="10.4148995"><ele>410.2</ele><time>2026-04-11T06:51:24.955Z</time></trkpt><trkpt lat="44.1427996" lon="10.4149173"><ele>407.79999999999995</ele><time>2026-04-11T06:51:25.959Z</time></trkpt><trkpt lat="44.1426929" lon="10.4149281"><ele>405.4</ele><time>2026-04-11T06:51:26.962Z</time></trkpt><trkpt lat="44.1425848" lon="10.4149264"><ele>403.0</ele><time>2026-04-11T06:51:27.953Z</time></trkpt><trkpt lat="44.1424755" lon="10.4149116"><ele>401.5</ele><time>2026-04-11T06:51:28.966Z</time></trkpt><trkpt lat="44.1423646" lon="10.4148866"><ele>400.0</ele><time>2026-04-11T06:51:29.962Z</time></trkpt><trkpt lat="44.1422524" lon="10.4148595"><ele>398.5</ele><time>2026-04-11T06:51:30.954Z</time></trkpt><trkpt lat="44.1421362" lon="10.4148334"><ele>397.0</ele><time>2026-04-11T06:51:31.971Z</time></trkpt><trkpt lat="44.1420212" lon="10.4148027"><ele>397.0</ele><time>2026-04-11T06:51:32.97Z</time></trkpt><trkpt lat="44.141904" lon="10.4148027"><ele>397.0</ele><time>2026-04-11T06:51:33.964Z</time></trkpt><trkpt lat="44.1417866" lon="10.414818"><ele>397.0</ele><time>2026-04-11T06:51:34.973Z</time></trkpt><trkpt lat="44.1416734" lon="10.4148431"><ele>397.0</ele><time>2026-04-11T06:51:35.964Z</time></trkpt><trkpt lat="44.1415592" lon="10.4148712"><ele>395.0</ele><time>2026-04-11T06:51:36.971Z</time></trkpt><trkpt lat="44.1414544" lon="10.4148911"><ele>393.0</ele><time>2026-04-11T06:51:37.968Z</time></trkpt><trkpt lat="44.1413575" lon="10.4149048"><ele>391.0</ele><time>2026-04-11T06:51:38.972Z</time></trkpt><trkpt lat="44.1412721" lon="10.4148902"><ele>389.0</ele><time>2026-04-11T06:51:39.972Z</time></trkpt><trkpt lat="44.1411971" lon="10.4148333"><ele>387.0</ele><time>2026-04-11T06:51:40.968Z</time></trkpt><trkpt lat="44.1411424" lon="10.4147423"><ele>388.0</ele><time>2026-04-11T06:51:41.971Z</time></trkpt><trkpt lat="44.1411034" lon="10.4146291"><ele>389.0</ele><time>2026-04-11T06:51:42.968Z</time></trkpt><trkpt lat="44.1410862" lon="10.4145059"><ele>390.0</ele><time>2026-04-11T06:51:43.97Z</time></trkpt><trkpt lat="44.1410751" lon="10.4143793"><ele>391.0</ele><time>2026-04-11T06:51:44.968Z</time></trkpt><trkpt lat="44.1410394" lon="10.4142616"><ele>392.0</ele><time>2026-04-11T06:51:45.971Z</time></trkpt><trkpt lat="44.1409817" lon="10.4141789"><ele>393.0</ele><time>2026-04-11T06:51:46.97Z</time></trkpt><trkpt lat="44.140904" lon="10.4141369"><ele>393.0</ele><time>2026-04-11T06:51:47.967Z</time></trkpt><trkpt lat="44.1408224" lon="10.4141415"><ele>393.0</ele><time>2026-04-11T06:51:48.955Z</time></trkpt><trkpt lat="44.1407481" lon="10.4141868"><ele>393.0</ele><time>2026-04-11T06:51:49.963Z</time></trkpt><trkpt lat="44.1406934" lon="10.4142708"><ele>393.0</ele><time>2026-04-11T06:51:50.962Z</time></trkpt><trkpt lat="44.140662" lon="10.4143832"><ele>393.0</ele><time>2026-04-11T06:51:51.961Z</time></trkpt><trkpt lat="44.1406573" lon="10.4145013"><ele>393.0</ele><time>2026-04-11T06:51:52.98Z</time></trkpt><trkpt lat="44.1406605" lon="10.414623"><ele>390.5</ele><time>2026-04-11T06:51:53.976Z</time></trkpt><trkpt lat="44.1406619" lon="10.4147427"><ele>388.0</ele><time>2026-04-11T06:51:54.962Z</time></trkpt><trkpt lat="44.140667" lon="10.4148658"><ele>385.5</ele><time>2026-04-11T06:51:55.962Z</time></trkpt><trkpt lat="44.1406732" lon="10.4149864"><ele>383.0</ele><time>2026-04-11T06:51:56.97Z</time></trkpt><trkpt lat="44.140679" lon="10.4151102"><ele>380.5</ele><time>2026-04-11T06:51:57.969Z</time></trkpt><trkpt lat="44.140684" lon="10.4152318"><ele>378.0</ele><time>2026-04-11T06:51:58.966Z</time></trkpt><trkpt lat="44.1406893" lon="10.4153529"><ele>378.0</ele><time>2026-04-11T06:51:59.955Z</time></trkpt><trkpt lat="44.1406877" lon="10.4154777"><ele>378.0</ele><time>2026-04-11T06:52:00.968Z</time></trkpt><trkpt lat="44.1406847" lon="10.4155946"><ele>378.0</ele><time>2026-04-11T06:52:01.954Z</time></trkpt><trkpt lat="44.1406737" lon="10.4157101"><ele>378.0</ele><time>2026-04-11T06:52:02.959Z</time></trkpt><trkpt lat="44.1406601" lon="10.4158365"><ele>378.0</ele><time>2026-04-11T06:52:03.953Z</time></trkpt><trkpt lat="44.1406431" lon="10.4159412"><ele>378.0</ele><time>2026-04-11T06:52:04.959Z</time></trkpt><trkpt lat="44.1406285" lon="10.416048"><ele>378.0</ele><time>2026-04-11T06:52:05.95Z</time></trkpt><trkpt lat="44.1406132" lon="10.416151"><ele>378.0</ele><time>2026-04-11T06:52:06.953Z</time></trkpt><trkpt lat="44.1406004" lon="10.4162533"><ele>378.0</ele><time>2026-04-11T06:52:07.953Z</time></trkpt><trkpt lat="44.1405891" lon="10.416352"><ele>378.0</ele><time>2026-04-11T06:52:08.953Z</time></trkpt><trkpt lat="44.1405785" lon="10.4164451"><ele>378.0</ele><time>2026-04-11T06:52:09.956Z</time></trkpt><trkpt lat="44.1405653" lon="10.4165345"><ele>378.0</ele><time>2026-04-11T06:52:10.947Z</time></trkpt><trkpt lat="44.1405422" lon="10.4167017"><ele>378.0</ele><time>2026-04-11T06:52:12.955Z</time></trkpt><trkpt lat="44.1405215" lon="10.4168537"><ele>378.0</ele><time>2026-04-11T06:52:14.958Z</time></trkpt><trkpt lat="44.140502" lon="10.4170018"><ele>378.0</ele><time>2026-04-11T06:52:16.957Z</time></trkpt><trkpt lat="44.1404858" lon="10.4171399"><ele>378.0</ele><time>2026-04-11T06:52:18.951Z</time></trkpt><trkpt lat="44.140467" lon="10.4172739"><ele>378.0</ele><time>2026-04-11T06:52:20.951Z</time></trkpt><trkpt lat="44.140449" lon="10.4174029"><ele>378.8333333333333</ele><time>2026-04-11T06:52:22.966Z</time></trkpt><trkpt lat="44.1404313" lon="10.417528"><ele>379.6666666666667</ele><time>2026-04-11T06:52:24.959Z</time></trkpt><trkpt lat="44.1404096" lon="10.4176468"><ele>380.5</ele><time>2026-04-11T06:52:26.958Z</time></trkpt><trkpt lat="44.140386" lon="10.4177593"><ele>381.33333333333337</ele><time>2026-04-11T06:52:28.956Z</time></trkpt><trkpt lat="44.1403557" lon="10.4178674"><ele>382.1666666666667</ele><time>2026-04-11T06:52:30.963Z</time></trkpt><trkpt lat="44.1403125" lon="10.4179578"><ele>383.0</ele><time>2026-04-11T06:52:32.964Z</time></trkpt><trkpt lat="44.1402497" lon="10.4180289"><ele>385.59999999999997</ele><time>2026-04-11T06:52:34.965Z</time></trkpt><trkpt lat="44.1401713" lon="10.4180819"><ele>388.2</ele><time>2026-04-11T06:52:36.965Z</time></trkpt><trkpt lat="44.1400831" lon="10.4181153"><ele>390.8</ele><time>2026-04-11T06:52:38.96Z</time></trkpt><trkpt lat="44.1399896" lon="10.4181323"><ele>393.4</ele><time>2026-04-11T06:52:40.978Z</time></trkpt><trkpt lat="44.1398973" lon="10.4181465"><ele>396.0</ele><time>2026-04-11T06:52:42.963Z</time></trkpt><trkpt lat="44.1398036" lon="10.4181626"><ele>396.0</ele><time>2026-04-11T06:52:44.96Z</time></trkpt><trkpt lat="44.1397084" lon="10.4181741"><ele>396.0</ele><time>2026-04-11T06:52:46.966Z</time></trkpt><trkpt lat="44.1396134" lon="10.4181855"><ele>396.0</ele><time>2026-04-11T06:52:48.97Z</time></trkpt><trkpt lat="44.1395192" lon="10.4181924"><ele>396.0</ele><time>2026-04-11T06:52:50.954Z</time></trkpt><trkpt lat="44.1394254" lon="10.418195"><ele>396.0</ele><time>2026-04-11T06:52:52.965Z</time></trkpt><trkpt lat="44.1393305" lon="10.4181947"><ele>396.0</ele><time>2026-04-11T06:52:54.953Z</time></trkpt><trkpt lat="44.1392399" lon="10.4181773"><ele>396.0</ele><time>2026-04-11T06:52:56.968Z</time></trkpt><trkpt lat="44.1391434" lon="10.4181549"><ele>396.0</ele><time>2026-04-11T06:52:58.955Z</time></trkpt><trkpt lat="44.1390466" lon="10.4181489"><ele>396.0</ele><time>2026-04-11T06:53:00.957Z</time></trkpt><trkpt lat="44.1389671" lon="10.4181496"><ele>396.0</ele><time>2026-04-11T06:53:02.952Z</time></trkpt><trkpt lat="44.1388832" lon="10.4181633"><ele>397.1666666666667</ele><time>2026-04-11T06:53:04.96Z</time></trkpt><trkpt lat="44.1388103" lon="10.4181632"><ele>398.33333333333337</ele><time>2026-04-11T06:53:06.956Z</time></trkpt><trkpt lat="44.1387423" lon="10.4181601"><ele>399.5</ele><time>2026-04-11T06:53:08.97Z</time></trkpt><trkpt lat="44.1386504" lon="10.4181635"><ele>400.6666666666667</ele><time>2026-04-11T06:53:11.973Z</time></trkpt><trkpt lat="44.13856" lon="10.4181658"><ele>401.83333333333337</ele><time>2026-04-11T06:53:14.963Z</time></trkpt><trkpt lat="44.1384687" lon="10.4181563"><ele>403.0</ele><time>2026-04-11T06:53:17.955Z</time></trkpt><trkpt lat="44.1383773" lon="10.4181387"><ele>403.00000000000006</ele><time>2026-04-11T06:53:20.96Z</time></trkpt><trkpt lat="44.1382934" lon="10.4181018"><ele>403.0</ele><time>2026-04-11T06:53:23.966Z</time></trkpt><trkpt lat="44.1382159" lon="10.4180656"><ele>403.0</ele><time>2026-04-11T06:53:26.952Z</time></trkpt><trkpt lat="44.1381325" lon="10.4180232"><ele>403.0</ele><time>2026-04-11T06:53:29.961Z</time></trkpt><trkpt lat="44.1380513" lon="10.4179735"><ele>403.00000000000006</ele><time>2026-04-11T06:53:32.964Z</time></trkpt><trkpt lat="44.1379806" lon="10.4179029"><ele>403.0</ele><time>2026-04-11T06:53:35.973Z</time></trkpt><trkpt lat="44.1379123" lon="10.4178287"><ele>402.50000000000006</ele><time>2026-04-11T06:53:38.971Z</time></trkpt><trkpt lat="44.1378452" lon="10.417757"><ele>402.0</ele><time>2026-04-11T06:53:41.963Z</time></trkpt><trkpt lat="44.1377786" lon="10.4176848"><ele>401.5</ele><time>2026-04-11T06:53:44.963Z</time></trkpt><trkpt lat="44.1377118" lon="10.4176168"><ele>401.0</ele><time>2026-04-11T06:53:47.964Z</time></trkpt><trkpt lat="44.1376439" lon="10.4175464"><ele>400.50000000000006</ele><time>2026-04-11T06:53:50.968Z</time></trkpt><trkpt lat="44.1375731" lon="10.4174792"><ele>400.0</ele><time>2026-04-11T06:53:53.961Z</time></trkpt><trkpt lat="44.1375002" lon="10.4174142"><ele>400.00000000000006</ele><time>2026-04-11T06:53:56.96Z</time></trkpt><trkpt lat="44.1374348" lon="10.4173394"><ele>400.0</ele><time>2026-04-11T06:53:59.962Z</time></trkpt><trkpt lat="44.1373713" lon="10.4172645"><ele>400.0</ele><time>2026-04-11T06:54:02.964Z</time></trkpt><trkpt lat="44.1372968" lon="10.4171762"><ele>400.0</ele><time>2026-04-11T06:54:05.979Z</time></trkpt><trkpt lat="44.1372329" lon="10.4171044"><ele>400.00000000000006</ele><time>2026-04-11T06:54:07.966Z</time></trkpt><trkpt lat="44.1371586" lon="10.417022"><ele>400.0</ele><time>2026-04-11T06:54:09.963Z</time></trkpt><trkpt lat="44.1370801" lon="10.4169294"><ele>399.00000000000006</ele><time>2026-04-11T06:54:11.957Z</time></trkpt><trkpt lat="44.1369932" lon="10.4168341"><ele>398.0</ele><time>2026-04-11T06:54:13.963Z</time></trkpt><trkpt lat="44.1368964" lon="10.41673"><ele>397.0</ele><time>2026-04-11T06:54:15.976Z</time></trkpt><trkpt lat="44.1368444" lon="10.4166789"><ele>396.0</ele><time>2026-04-11T06:54:16.97Z</time></trkpt><trkpt lat="44.1367895" lon="10.4166252"><ele>395.00000000000006</ele><time>2026-04-11T06:54:17.971Z</time></trkpt><trkpt lat="44.136737" lon="10.4165718"><ele>394.0</ele><time>2026-04-11T06:54:18.967Z</time></trkpt><trkpt lat="44.1366817" lon="10.4165159"><ele>394.0</ele><time>2026-04-11T06:54:19.966Z</time></trkpt><trkpt lat="44.1366223" lon="10.4164591"><ele>394.0</ele><time>2026-04-11T06:54:20.97Z</time></trkpt><trkpt lat="44.136565" lon="10.4163956"><ele>394.0</ele><time>2026-04-11T06:54:21.967Z</time></trkpt><trkpt lat="44.1365064" lon="10.4163373"><ele>394.0</ele><time>2026-04-11T06:54:22.973Z</time></trkpt><trkpt lat="44.1364448" lon="10.4162786"><ele>394.0</ele><time>2026-04-11T06:54:23.972Z</time></trkpt><trkpt lat="44.1363825" lon="10.4162256"><ele>394.0</ele><time>2026-04-11T06:54:24.953Z</time></trkpt><trkpt lat="44.1363171" lon="10.4161732"><ele>394.0</ele><time>2026-04-11T06:54:25.967Z</time></trkpt><trkpt lat="44.1362485" lon="10.4161199"><ele>393.00000000000006</ele><time>2026-04-11T06:54:26.965Z</time></trkpt><trkpt lat="44.1361796" lon="10.416073"><ele>392.0</ele><time>2026-04-11T06:54:27.964Z</time></trkpt><trkpt lat="44.1361041" lon="10.4160295"><ele>391.0</ele><time>2026-04-11T06:54:28.971Z</time></trkpt><trkpt lat="44.1360278" lon="10.4159942"><ele>390.0</ele><time>2026-04-11T06:54:29.972Z</time></trkpt><trkpt lat="44.13595" lon="10.4159616"><ele>389.00000000000006</ele><time>2026-04-11T06:54:30.968Z</time></trkpt><trkpt lat="44.1358705" lon="10.415924"><ele>388.0</ele><time>2026-04-11T06:54:31.967Z</time></trkpt><trkpt lat="44.1357918" lon="10.4158892"><ele>387.33333333333337</ele><time>2026-04-11T06:54:32.958Z</time></trkpt><trkpt lat="44.1357112" lon="10.4158564"><ele>386.6666666666667</ele><time>2026-04-11T06:54:33.965Z</time></trkpt><trkpt lat="44.1356304" lon="10.4158213"><ele>386.0</ele><time>2026-04-11T06:54:34.967Z</time></trkpt><trkpt lat="44.1355485" lon="10.4157839"><ele>385.33333333333337</ele><time>2026-04-11T06:54:35.969Z</time></trkpt><trkpt lat="44.1354646" lon="10.415746"><ele>384.6666666666667</ele><time>2026-04-11T06:54:36.97Z</time></trkpt><trkpt lat="44.1353785" lon="10.4157094"><ele>384.0</ele><time>2026-04-11T06:54:37.967Z</time></trkpt><trkpt lat="44.1352944" lon="10.4156722"><ele>384.0</ele><time>2026-04-11T06:54:38.969Z</time></trkpt><trkpt lat="44.1352076" lon="10.4156309"><ele>384.0</ele><time>2026-04-11T06:54:39.963Z</time></trkpt><trkpt lat="44.1351217" lon="10.4155883"><ele>384.0</ele><time>2026-04-11T06:54:40.966Z</time></trkpt><trkpt lat="44.1350334" lon="10.4155439"><ele>384.0</ele><time>2026-04-11T06:54:41.967Z</time></trkpt><trkpt lat="44.1349468" lon="10.4154948"><ele>384.0</ele><time>2026-04-11T06:54:42.964Z</time></trkpt><trkpt lat="44.1348611" lon="10.4154427"><ele>383.6</ele><time>2026-04-11T06:54:43.968Z</time></trkpt><trkpt lat="44.1347782" lon="10.4153808"><ele>383.2</ele><time>2026-04-11T06:54:44.96Z</time></trkpt><trkpt lat="44.1347023" lon="10.4152994"><ele>382.8</ele><time>2026-04-11T06:54:45.956Z</time></trkpt><trkpt lat="44.1346279" lon="10.4152124"><ele>382.40000000000003</ele><time>2026-04-11T06:54:46.952Z</time></trkpt><trkpt lat="44.134555" lon="10.4151215"><ele>382.0</ele><time>2026-04-11T06:54:47.949Z</time></trkpt><trkpt lat="44.1344804" lon="10.4150368"><ele>382.0</ele><time>2026-04-11T06:54:48.961Z</time></trkpt><trkpt lat="44.1344031" lon="10.4149522"><ele>382.0</ele><time>2026-04-11T06:54:49.95Z</time></trkpt><trkpt lat="44.1343237" lon="10.4148736"><ele>382.0</ele><time>2026-04-11T06:54:50.948Z</time></trkpt><trkpt lat="44.1342454" lon="10.4147875"><ele>382.0</ele><time>2026-04-11T06:54:51.948Z</time></trkpt><trkpt lat="44.1341704" lon="10.4147024"><ele>382.0</ele><time>2026-04-11T06:54:52.953Z</time></trkpt><trkpt lat="44.1340956" lon="10.4146184"><ele>381.20000000000005</ele><time>2026-04-11T06:54:53.958Z</time></trkpt><trkpt lat="44.1340187" lon="10.4145358"><ele>380.4</ele><time>2026-04-11T06:54:54.962Z</time></trkpt><trkpt lat="44.1339427" lon="10.414452"><ele>379.6</ele><time>2026-04-11T06:54:55.954Z</time></trkpt><trkpt lat="44.1338674" lon="10.414368"><ele>378.79999999999995</ele><time>2026-04-11T06:54:56.953Z</time></trkpt><trkpt lat="44.1337936" lon="10.4142796"><ele>378.0</ele><time>2026-04-11T06:54:57.953Z</time></trkpt><trkpt lat="44.1337219" lon="10.4141949"><ele>378.0</ele><time>2026-04-11T06:54:58.955Z</time></trkpt><trkpt lat="44.1336509" lon="10.4141123"><ele>378.0</ele><time>2026-04-11T06:54:59.954Z</time></trkpt><trkpt lat="44.1335795" lon="10.4140248"><ele>378.0</ele><time>2026-04-11T06:55:00.959Z</time></trkpt><trkpt lat="44.1335052" lon="10.413951"><ele>378.0</ele><time>2026-04-11T06:55:01.953Z</time></trkpt><trkpt lat="44.133431" lon="10.4138929"><ele>378.0</ele><time>2026-04-11T06:55:02.954Z</time></trkpt><trkpt lat="44.1333584" lon="10.413838"><ele>378.0</ele><time>2026-04-11T06:55:03.956Z</time></trkpt><trkpt lat="44.133274" lon="10.413804"><ele>377.1666666666667</ele><time>2026-04-11T06:55:04.954Z</time></trkpt><trkpt lat="44.1331904" lon="10.4137598"><ele>376.3333333333333</ele><time>2026-04-11T06:55:05.951Z</time></trkpt><trkpt lat="44.1331031" lon="10.4137309"><ele>375.5</ele><time>2026-04-11T06:55:06.961Z</time></trkpt><trkpt lat="44.133016" lon="10.4136974"><ele>374.66666666666663</ele><time>2026-04-11T06:55:07.975Z</time></trkpt><trkpt lat="44.1329315" lon="10.4136651"><ele>373.8333333333333</ele><time>2026-04-11T06:55:08.958Z</time></trkpt><trkpt lat="44.1328458" lon="10.413631"><ele>373.0</ele><time>2026-04-11T06:55:09.96Z</time></trkpt><trkpt lat="44.1327572" lon="10.4135988"><ele>373.0</ele><time>2026-04-11T06:55:10.96Z</time></trkpt><trkpt lat="44.1326663" lon="10.413562"><ele>373.0</ele><time>2026-04-11T06:55:11.95Z</time></trkpt><trkpt lat="44.132577" lon="10.4135244"><ele>373.0</ele><time>2026-04-11T06:55:12.955Z</time></trkpt><trkpt lat="44.1324828" lon="10.4134884"><ele>373.0</ele><time>2026-04-11T06:55:13.958Z</time></trkpt><trkpt lat="44.1323903" lon="10.4134527"><ele>373.0</ele><time>2026-04-11T06:55:14.953Z</time></trkpt><trkpt lat="44.1322954" lon="10.413414"><ele>372.0</ele><time>2026-04-11T06:55:15.952Z</time></trkpt><trkpt lat="44.1322006" lon="10.413375"><ele>371.0</ele><time>2026-04-11T06:55:16.954Z</time></trkpt><trkpt lat="44.1321062" lon="10.4133333"><ele>370.0</ele><time>2026-04-11T06:55:17.959Z</time></trkpt><trkpt lat="44.132012" lon="10.4132893"><ele>369.0</ele><time>2026-04-11T06:55:18.951Z</time></trkpt><trkpt lat="44.131916" lon="10.4132468"><ele>368.0</ele><time>2026-04-11T06:55:19.952Z</time></trkpt><trkpt lat="44.1318181" lon="10.4132059"><ele>368.0</ele><time>2026-04-11T06:55:20.962Z</time></trkpt><trkpt lat="44.1317225" lon="10.4131563"><ele>368.0</ele><time>2026-04-11T06:55:21.953Z</time></trkpt><trkpt lat="44.1316262" lon="10.413109"><ele>368.0</ele><time>2026-04-11T06:55:22.955Z</time></trkpt><trkpt lat="44.1315337" lon="10.4130524"><ele>368.0</ele><time>2026-04-11T06:55:23.952Z</time></trkpt><trkpt lat="44.1314418" lon="10.4129994"><ele>368.0</ele><time>2026-04-11T06:55:24.953Z</time></trkpt><trkpt lat="44.1313505" lon="10.4129427"><ele>367.2</ele><time>2026-04-11T06:55:25.962Z</time></trkpt><trkpt lat="44.1312633" lon="10.4128804"><ele>366.4</ele><time>2026-04-11T06:55:26.951Z</time></trkpt><trkpt lat="44.1311773" lon="10.4128199"><ele>365.59999999999997</ele><time>2026-04-11T06:55:27.959Z</time></trkpt><trkpt lat="44.1310909" lon="10.4127592"><ele>364.79999999999995</ele><time>2026-04-11T06:55:28.951Z</time></trkpt><trkpt lat="44.1310026" lon="10.4127018"><ele>364.0</ele><time>2026-04-11T06:55:29.957Z</time></trkpt><trkpt lat="44.1309142" lon="10.4126439"><ele>364.0</ele><time>2026-04-11T06:55:30.952Z</time></trkpt><trkpt lat="44.1308291" lon="10.4125815"><ele>364.0</ele><time>2026-04-11T06:55:31.963Z</time></trkpt><trkpt lat="44.1307419" lon="10.4125215"><ele>364.0</ele><time>2026-04-11T06:55:32.957Z</time></trkpt><trkpt lat="44.1306568" lon="10.412458"><ele>364.0</ele><time>2026-04-11T06:55:33.958Z</time></trkpt><trkpt lat="44.1305705" lon="10.4123995"><ele>364.0</ele><time>2026-04-11T06:55:34.95Z</time></trkpt><trkpt lat="44.1304849" lon="10.4123381"><ele>363.79999999999995</ele><time>2026-04-11T06:55:35.956Z</time></trkpt><trkpt lat="44.1303998" lon="10.4122824"><ele>363.59999999999997</ele><time>2026-04-11T06:55:36.966Z</time></trkpt><trkpt lat="44.1303153" lon="10.4122193"><ele>363.4</ele><time>2026-04-11T06:55:37.954Z</time></trkpt><trkpt lat="44.1302318" lon="10.4121638"><ele>363.2</ele><time>2026-04-11T06:55:38.964Z</time></trkpt><trkpt lat="44.1301465" lon="10.4121029"><ele>363.0</ele><time>2026-04-11T06:55:39.961Z</time></trkpt><trkpt lat="44.1300603" lon="10.4120459"><ele>362.59999999999997</ele><time>2026-04-11T06:55:40.953Z</time></trkpt><trkpt lat="44.1299691" lon="10.4119947"><ele>362.2</ele><time>2026-04-11T06:55:41.962Z</time></trkpt><trkpt lat="44.1298854" lon="10.4119375"><ele>361.8</ele><time>2026-04-11T06:55:42.968Z</time></trkpt><trkpt lat="44.1298018" lon="10.4118836"><ele>361.4</ele><time>2026-04-11T06:55:43.974Z</time></trkpt><trkpt lat="44.1297124" lon="10.4118424"><ele>361.0</ele><time>2026-04-11T06:55:44.959Z</time></trkpt><trkpt lat="44.1296244" lon="10.4118047"><ele>360.0</ele><time>2026-04-11T06:55:45.962Z</time></trkpt><trkpt lat="44.1295365" lon="10.4117723"><ele>359.0</ele><time>2026-04-11T06:55:46.965Z</time></trkpt><trkpt lat="44.1294447" lon="10.4117392"><ele>358.0</ele><time>2026-04-11T06:55:47.967Z</time></trkpt><trkpt lat="44.1293596" lon="10.4117101"><ele>357.0</ele><time>2026-04-11T06:55:48.963Z</time></trkpt><trkpt lat="44.1292816" lon="10.4116807"><ele>356.0</ele><time>2026-04-11T06:55:49.965Z</time></trkpt><trkpt lat="44.1292111" lon="10.4116524"><ele>355.0</ele><time>2026-04-11T06:55:50.966Z</time></trkpt><trkpt lat="44.1291488" lon="10.4116285"><ele>354.6</ele><time>2026-04-11T06:55:51.964Z</time></trkpt><trkpt lat="44.1290362" lon="10.4115745"><ele>354.2</ele><time>2026-04-11T06:55:53.96Z</time></trkpt><trkpt lat="44.1289808" lon="10.4114323"><ele>353.79999999999995</ele><time>2026-04-11T06:55:55.956Z</time></trkpt><trkpt lat="44.1288928" lon="10.4113427"><ele>353.4</ele><time>2026-04-11T06:55:57.967Z</time></trkpt><trkpt lat="44.1287925" lon="10.4113662"><ele>353.0</ele><time>2026-04-11T06:55:59.955Z</time></trkpt><trkpt lat="44.1286874" lon="10.4113663"><ele>353.0</ele><time>2026-04-11T06:56:01.968Z</time></trkpt><trkpt lat="44.1285757" lon="10.4113573"><ele>353.0</ele><time>2026-04-11T06:56:03.961Z</time></trkpt><trkpt lat="44.1284592" lon="10.4113547"><ele>353.0</ele><time>2026-04-11T06:56:05.966Z</time></trkpt><trkpt lat="44.1283962" lon="10.4113507"><ele>353.0</ele><time>2026-04-11T06:56:06.969Z</time></trkpt><trkpt lat="44.1283335" lon="10.4113373"><ele>353.0</ele><time>2026-04-11T06:56:07.969Z</time></trkpt><trkpt lat="44.1282714" lon="10.4113213"><ele>353.0</ele><time>2026-04-11T06:56:08.967Z</time></trkpt><trkpt lat="44.1282068" lon="10.4112992"><ele>352.4</ele><time>2026-04-11T06:56:09.981Z</time></trkpt><trkpt lat="44.1280851" lon="10.4112569"><ele>351.79999999999995</ele><time>2026-04-11T06:56:11.966Z</time></trkpt><trkpt lat="44.1280222" lon="10.4112341"><ele>351.2</ele><time>2026-04-11T06:56:12.976Z</time></trkpt><trkpt lat="44.1278985" lon="10.4111941"><ele>350.6</ele><time>2026-04-11T06:56:14.982Z</time></trkpt><trkpt lat="44.1277834" lon="10.4111549"><ele>350.0</ele><time>2026-04-11T06:56:16.981Z</time></trkpt><trkpt lat="44.1276719" lon="10.4111202"><ele>350.0</ele><time>2026-04-11T06:56:18.97Z</time></trkpt><trkpt lat="44.1275825" lon="10.4110873"><ele>350.0</ele><time>2026-04-11T06:56:20.963Z</time></trkpt><trkpt lat="44.1275001" lon="10.4110576"><ele>350.0</ele><time>2026-04-11T06:56:22.96Z</time></trkpt><trkpt lat="44.1274284" lon="10.4110514"><ele>350.0</ele><time>2026-04-11T06:56:36.971Z</time></trkpt><trkpt lat="44.12736" lon="10.4110325"><ele>350.0</ele><time>2026-04-11T06:56:50.955Z</time></trkpt><trkpt lat="44.127297" lon="10.4110101"><ele>350.0</ele><time>2026-04-11T06:56:53.971Z</time></trkpt><trkpt lat="44.1272088" lon="10.4109952"><ele>349.83333333333337</ele><time>2026-04-11T06:56:56.966Z</time></trkpt><trkpt lat="44.1271445" lon="10.4109784"><ele>349.6666666666667</ele><time>2026-04-11T06:56:58.967Z</time></trkpt><trkpt lat="44.1270733" lon="10.4109554"><ele>349.5</ele><time>2026-04-11T06:57:00.96Z</time></trkpt><trkpt lat="44.1269997" lon="10.4109283"><ele>349.3333333333333</ele><time>2026-04-11T06:57:02.965Z</time></trkpt><trkpt lat="44.1269105" lon="10.4109044"><ele>349.16666666666663</ele><time>2026-04-11T06:57:04.966Z</time></trkpt><trkpt lat="44.1268159" lon="10.4108783"><ele>349.0</ele><time>2026-04-11T06:57:06.964Z</time></trkpt><trkpt lat="44.1267212" lon="10.4108482"><ele>349.0</ele><time>2026-04-11T06:57:08.959Z</time></trkpt><trkpt lat="44.1266185" lon="10.410816"><ele>349.0</ele><time>2026-04-11T06:57:10.963Z</time></trkpt><trkpt lat="44.1265036" lon="10.4107934"><ele>349.0</ele><time>2026-04-11T06:57:12.97Z</time></trkpt><trkpt lat="44.1263886" lon="10.4107567"><ele>349.0</ele><time>2026-04-11T06:57:14.972Z</time></trkpt><trkpt lat="44.1262676" lon="10.4107181"><ele>348.85714285714283</ele><time>2026-04-11T06:57:16.967Z</time></trkpt><trkpt lat="44.1262059" lon="10.4106991"><ele>348.7142857142857</ele><time>2026-04-11T06:57:17.96Z</time></trkpt><trkpt lat="44.1261442" lon="10.4106771"><ele>348.57142857142856</ele><time>2026-04-11T06:57:18.971Z</time></trkpt><trkpt lat="44.1260811" lon="10.4106585"><ele>348.42857142857144</ele><time>2026-04-11T06:57:19.96Z</time></trkpt><trkpt lat="44.1260173" lon="10.4106358"><ele>348.2857142857143</ele><time>2026-04-11T06:57:20.972Z</time></trkpt><trkpt lat="44.1259488" lon="10.4106131"><ele>348.1428571428571</ele><time>2026-04-11T06:57:21.974Z</time></trkpt><trkpt lat="44.1258813" lon="10.4105896"><ele>348.0</ele><time>2026-04-11T06:57:22.98Z</time></trkpt><trkpt lat="44.1258155" lon="10.4105666"><ele>348.0</ele><time>2026-04-11T06:57:23.958Z</time></trkpt><trkpt lat="44.1257462" lon="10.4105408"><ele>348.0</ele><time>2026-04-11T06:57:24.967Z</time></trkpt><trkpt lat="44.1256768" lon="10.410517"><ele>348.0</ele><time>2026-04-11T06:57:25.969Z</time></trkpt><trkpt lat="44.1256043" lon="10.4104874"><ele>348.0</ele><time>2026-04-11T06:57:26.966Z</time></trkpt><trkpt lat="44.1255331" lon="10.4104542"><ele>348.0</ele><time>2026-04-11T06:57:27.963Z</time></trkpt><trkpt lat="44.1254634" lon="10.4104207"><ele>348.0</ele><time>2026-04-11T06:57:28.962Z</time></trkpt><trkpt lat="44.1253944" lon="10.4103849"><ele>348.0</ele><time>2026-04-11T06:57:29.971Z</time></trkpt><trkpt lat="44.1253233" lon="10.4103504"><ele>347.3333333333333</ele><time>2026-04-11T06:57:30.982Z</time></trkpt><trkpt lat="44.1252525" lon="10.4103065"><ele>346.6666666666667</ele><time>2026-04-11T06:57:31.971Z</time></trkpt><trkpt lat="44.1251919" lon="10.41024"><ele>346.0</ele><time>2026-04-11T06:57:32.973Z</time></trkpt><trkpt lat="44.12514" lon="10.4101611"><ele>345.33333333333337</ele><time>2026-04-11T06:57:33.969Z</time></trkpt><trkpt lat="44.125098" lon="10.4100683"><ele>344.6666666666667</ele><time>2026-04-11T06:57:34.974Z</time></trkpt><trkpt lat="44.1250438" lon="10.4099929"><ele>344.0</ele><time>2026-04-11T06:57:35.983Z</time></trkpt><trkpt lat="44.1249802" lon="10.4099425"><ele>344.0</ele><time>2026-04-11T06:57:36.965Z</time></trkpt><trkpt lat="44.1249056" lon="10.4099198"><ele>344.0</ele><time>2026-04-11T06:57:37.96Z</time></trkpt><trkpt lat="44.1248308" lon="10.4099171"><ele>344.0</ele><time>2026-04-11T06:57:38.963Z</time></trkpt><trkpt lat="44.1247602" lon="10.4099308"><ele>344.0</ele><time>2026-04-11T06:57:39.962Z</time></trkpt><trkpt lat="44.1246855" lon="10.4099502"><ele>344.0</ele><time>2026-04-11T06:57:40.978Z</time></trkpt><trkpt lat="44.1246115" lon="10.4099567"><ele>344.0</ele><time>2026-04-11T06:57:41.963Z</time></trkpt><trkpt lat="44.1245335" lon="10.4099578"><ele>343.33333333333337</ele><time>2026-04-11T06:57:42.958Z</time></trkpt><trkpt lat="44.1244589" lon="10.4099218"><ele>342.6666666666667</ele><time>2026-04-11T06:57:43.968Z</time></trkpt><trkpt lat="44.1243864" lon="10.4098811"><ele>342.0</ele><time>2026-04-11T06:57:44.964Z</time></trkpt><trkpt lat="44.1243135" lon="10.409839"><ele>341.3333333333333</ele><time>2026-04-11T06:57:45.973Z</time></trkpt><trkpt lat="44.124238" lon="10.4097881"><ele>340.66666666666663</ele><time>2026-04-11T06:57:46.972Z</time></trkpt><trkpt lat="44.1241646" lon="10.4097516"><ele>340.0</ele><time>2026-04-11T06:57:47.968Z</time></trkpt><trkpt lat="44.1240866" lon="10.4097142"><ele>339.3333333333333</ele><time>2026-04-11T06:57:48.967Z</time></trkpt><trkpt lat="44.1240099" lon="10.4096861"><ele>338.66666666666663</ele><time>2026-04-11T06:57:49.975Z</time></trkpt><trkpt lat="44.1239316" lon="10.4096541"><ele>338.0</ele><time>2026-04-11T06:57:50.969Z</time></trkpt><trkpt lat="44.1238528" lon="10.4096258"><ele>337.3333333333333</ele><time>2026-04-11T06:57:51.967Z</time></trkpt><trkpt lat="44.1237738" lon="10.4095966"><ele>336.6666666666667</ele><time>2026-04-11T06:57:52.969Z</time></trkpt><trkpt lat="44.1236946" lon="10.4095744"><ele>336.0</ele><time>2026-04-11T06:57:53.963Z</time></trkpt><trkpt lat="44.1236183" lon="10.4095452"><ele>335.8333333333333</ele><time>2026-04-11T06:57:54.967Z</time></trkpt><trkpt lat="44.1235385" lon="10.4095155"><ele>335.6666666666667</ele><time>2026-04-11T06:57:55.97Z</time></trkpt><trkpt lat="44.1234586" lon="10.4094887"><ele>335.5</ele><time>2026-04-11T06:57:56.963Z</time></trkpt><trkpt lat="44.1233796" lon="10.4094637"><ele>335.33333333333337</ele><time>2026-04-11T06:57:57.96Z</time></trkpt><trkpt lat="44.1233029" lon="10.4094396"><ele>335.1666666666667</ele><time>2026-04-11T06:57:58.966Z</time></trkpt><trkpt lat="44.1232226" lon="10.4094123"><ele>335.0</ele><time>2026-04-11T06:57:59.966Z</time></trkpt><trkpt lat="44.1231483" lon="10.4093832"><ele>334.6666666666667</ele><time>2026-04-11T06:58:00.97Z</time></trkpt><trkpt lat="44.1230853" lon="10.4093595"><ele>334.33333333333337</ele><time>2026-04-11T06:58:01.972Z</time></trkpt><trkpt lat="44.1229694" lon="10.4093235"><ele>334.0</ele><time>2026-04-11T06:58:03.971Z</time></trkpt><trkpt lat="44.1228457" lon="10.409297"><ele>333.6666666666667</ele><time>2026-04-11T06:58:05.961Z</time></trkpt><trkpt lat="44.1227818" lon="10.4092875"><ele>333.3333333333333</ele><time>2026-04-11T06:58:06.979Z</time></trkpt><trkpt lat="44.1227122" lon="10.4092791"><ele>333.0</ele><time>2026-04-11T06:58:07.96Z</time></trkpt><trkpt lat="44.1226431" lon="10.4092722"><ele>333.0</ele><time>2026-04-11T06:58:08.958Z</time></trkpt><trkpt lat="44.1225771" lon="10.409261"><ele>333.0</ele><time>2026-04-11T06:58:09.953Z</time></trkpt><trkpt lat="44.1225113" lon="10.4092486"><ele>333.0</ele><time>2026-04-11T06:58:10.962Z</time></trkpt><trkpt lat="44.1224421" lon="10.4092361"><ele>333.0</ele><time>2026-04-11T06:58:11.955Z</time></trkpt><trkpt lat="44.1223697" lon="10.4092271"><ele>333.0</ele><time>2026-04-11T06:58:12.951Z</time></trkpt><trkpt lat="44.1223024" lon="10.4092125"><ele>333.0</ele><time>2026-04-11T06:58:13.966Z</time></trkpt><trkpt lat="44.122231" lon="10.4091988"><ele>333.0</ele><time>2026-04-11T06:58:14.957Z</time></trkpt><trkpt lat="44.1221651" lon="10.4091867"><ele>332.5714285714286</ele><time>2026-04-11T06:58:15.953Z</time></trkpt><trkpt lat="44.122098" lon="10.4091729"><ele>332.1428571428571</ele><time>2026-04-11T06:58:16.956Z</time></trkpt><trkpt lat="44.1220255" lon="10.4091582"><ele>331.7142857142857</ele><time>2026-04-11T06:58:17.968Z</time></trkpt><trkpt lat="44.121952" lon="10.409146"><ele>331.28571428571433</ele><time>2026-04-11T06:58:18.969Z</time></trkpt><trkpt lat="44.1218757" lon="10.4091303"><ele>330.8571428571429</ele><time>2026-04-11T06:58:19.969Z</time></trkpt><trkpt lat="44.1218028" lon="10.4091145"><ele>330.42857142857144</ele><time>2026-04-11T06:58:20.985Z</time></trkpt><trkpt lat="44.121726" lon="10.409101"><ele>330.0</ele><time>2026-04-11T06:58:21.963Z</time></trkpt><trkpt lat="44.1216507" lon="10.4090872"><ele>330.0</ele><time>2026-04-11T06:58:22.962Z</time></trkpt><trkpt lat="44.1215714" lon="10.4090747"><ele>330.0</ele><time>2026-04-11T06:58:23.956Z</time></trkpt><trkpt lat="44.1214914" lon="10.4090663"><ele>330.0</ele><time>2026-04-11T06:58:24.956Z</time></trkpt><trkpt lat="44.1214113" lon="10.4090606"><ele>330.0</ele><time>2026-04-11T06:58:25.968Z</time></trkpt><trkpt lat="44.1213315" lon="10.4090512"><ele>330.0</ele><time>2026-04-11T06:58:26.967Z</time></trkpt><trkpt lat="44.1212469" lon="10.4090466"><ele>330.0</ele><time>2026-04-11T06:58:27.963Z</time></trkpt><trkpt lat="44.1211642" lon="10.4090417"><ele>329.5</ele><time>2026-04-11T06:58:28.962Z</time></trkpt><trkpt lat="44.1210805" lon="10.4090375"><ele>329.0</ele><time>2026-04-11T06:58:29.959Z</time></trkpt><trkpt lat="44.1209891" lon="10.4090306"><ele>328.5</ele><time>2026-04-11T06:58:30.963Z</time></trkpt><trkpt lat="44.1209023" lon="10.4090217"><ele>328.0</ele><time>2026-04-11T06:58:31.966Z</time></trkpt><trkpt lat="44.1208182" lon="10.409017"><ele>327.5</ele><time>2026-04-11T06:58:32.967Z</time></trkpt><trkpt lat="44.1207453" lon="10.4090078"><ele>327.0</ele><time>2026-04-11T06:58:33.966Z</time></trkpt><trkpt lat="44.120673" lon="10.4089985"><ele>325.5</ele><time>2026-04-11T06:58:34.968Z</time></trkpt><trkpt lat="44.1205607" lon="10.4089822"><ele>324.0</ele><time>2026-04-11T06:58:36.974Z</time></trkpt><trkpt lat="44.120533" lon="10.4088916"><ele>322.5</ele><time>2026-04-11T06:58:38.975Z</time></trkpt><trkpt lat="44.120566" lon="10.4087903"><ele>321.0</ele><time>2026-04-11T06:58:40.955Z</time></trkpt><trkpt lat="44.1206181" lon="10.4087099"><ele>319.5</ele><time>2026-04-11T06:58:42.961Z</time></trkpt><trkpt lat="44.1206715" lon="10.4086312"><ele>318.0</ele><time>2026-04-11T06:58:44.963Z</time></trkpt><trkpt lat="44.120725" lon="10.4085521"><ele>319.1666666666667</ele><time>2026-04-11T06:58:46.954Z</time></trkpt><trkpt lat="44.1207766" lon="10.4084683"><ele>320.3333333333333</ele><time>2026-04-11T06:58:48.976Z</time></trkpt><trkpt lat="44.1208297" lon="10.4083841"><ele>321.5</ele><time>2026-04-11T06:58:50.958Z</time></trkpt><trkpt lat="44.1208832" lon="10.4082977"><ele>322.66666666666663</ele><time>2026-04-11T06:58:52.972Z</time></trkpt><trkpt lat="44.1209368" lon="10.4082112"><ele>323.8333333333333</ele><time>2026-04-11T06:58:54.96Z</time></trkpt><trkpt lat="44.1209916" lon="10.4081233"><ele>325.0</ele><time>2026-04-11T06:58:56.959Z</time></trkpt><trkpt lat="44.1210428" lon="10.408039"><ele>323.5</ele><time>2026-04-11T06:58:58.96Z</time></trkpt><trkpt lat="44.1210953" lon="10.4079578"><ele>322.0</ele><time>2026-04-11T06:59:00.964Z</time></trkpt><trkpt lat="44.1211495" lon="10.407878"><ele>320.5</ele><time>2026-04-11T06:59:02.963Z</time></trkpt><trkpt lat="44.1211983" lon="10.4077922"><ele>319.0</ele><time>2026-04-11T06:59:04.962Z</time></trkpt><trkpt lat="44.1212484" lon="10.4077078"><ele>317.5</ele><time>2026-04-11T06:59:06.956Z</time></trkpt><trkpt lat="44.1213024" lon="10.4076252"><ele>316.0</ele><time>2026-04-11T06:59:08.952Z</time></trkpt><trkpt lat="44.1213535" lon="10.40754"><ele>316.0</ele><time>2026-04-11T06:59:10.954Z</time></trkpt><trkpt lat="44.1214038" lon="10.4074589"><ele>316.0</ele><time>2026-04-11T06:59:12.96Z</time></trkpt><trkpt lat="44.121453" lon="10.4073748"><ele>316.0</ele><time>2026-04-11T06:59:14.966Z</time></trkpt><trkpt lat="44.1215033" lon="10.4072929"><ele>316.0</ele><time>2026-04-11T06:59:16.961Z</time></trkpt><trkpt lat="44.1215527" lon="10.4072122"><ele>316.0</ele><time>2026-04-11T06:59:18.961Z</time></trkpt><trkpt lat="44.1216038" lon="10.4071353"><ele>316.0</ele><time>2026-04-11T06:59:20.963Z</time></trkpt><trkpt lat="44.1216544" lon="10.4070546"><ele>316.8333333333333</ele><time>2026-04-11T06:59:22.964Z</time></trkpt><trkpt lat="44.1217053" lon="10.4069746"><ele>317.66666666666663</ele><time>2026-04-11T06:59:24.964Z</time></trkpt><trkpt lat="44.1217518" lon="10.4068932"><ele>318.5</ele><time>2026-04-11T06:59:26.959Z</time></trkpt><trkpt lat="44.1217982" lon="10.40681"><ele>319.3333333333333</ele><time>2026-04-11T06:59:28.969Z</time></trkpt><trkpt lat="44.1218434" lon="10.4067287"><ele>320.1666666666667</ele><time>2026-04-11T06:59:30.96Z</time></trkpt><trkpt lat="44.121893" lon="10.4066463"><ele>321.0</ele><time>2026-04-11T06:59:32.967Z</time></trkpt><trkpt lat="44.1219455" lon="10.4065741"><ele>321.0</ele><time>2026-04-11T06:59:34.956Z</time></trkpt><trkpt lat="44.1219951" lon="10.4064932"><ele>321.0</ele><time>2026-04-11T06:59:36.965Z</time></trkpt><trkpt lat="44.1220454" lon="10.4064129"><ele>321.0</ele><time>2026-04-11T06:59:38.959Z</time></trkpt><trkpt lat="44.122094" lon="10.4063317"><ele>321.0</ele><time>2026-04-11T06:59:40.963Z</time></trkpt><trkpt lat="44.1221435" lon="10.4062479"><ele>321.0</ele><time>2026-04-11T06:59:42.955Z</time></trkpt><trkpt lat="44.1221946" lon="10.406166"><ele>321.0</ele><time>2026-04-11T06:59:44.968Z</time></trkpt><trkpt lat="44.1222454" lon="10.4060817"><ele>321.5</ele><time>2026-04-11T06:59:46.97Z</time></trkpt><trkpt lat="44.1222969" lon="10.4059952"><ele>322.0</ele><time>2026-04-11T06:59:48.956Z</time></trkpt><trkpt lat="44.1223492" lon="10.4059103"><ele>322.5</ele><time>2026-04-11T06:59:50.969Z</time></trkpt><trkpt lat="44.1224021" lon="10.4058246"><ele>323.0</ele><time>2026-04-11T06:59:52.973Z</time></trkpt><trkpt lat="44.1224558" lon="10.4057374"><ele>323.5</ele><time>2026-04-11T06:59:54.962Z</time></trkpt><trkpt lat="44.1225076" lon="10.4056508"><ele>324.0</ele><time>2026-04-11T06:59:56.962Z</time></trkpt><trkpt lat="44.1225613" lon="10.4055723"><ele>323.8333333333333</ele><time>2026-04-11T06:59:58.959Z</time></trkpt><trkpt lat="44.1226118" lon="10.4054886"><ele>323.6666666666667</ele><time>2026-04-11T07:00:00.963Z</time></trkpt><trkpt lat="44.1226583" lon="10.4054045"><ele>323.5</ele><time>2026-04-11T07:00:02.968Z</time></trkpt><trkpt lat="44.1227107" lon="10.4053255"><ele>323.33333333333337</ele><time>2026-04-11T07:00:04.957Z</time></trkpt><trkpt lat="44.1227603" lon="10.4052391"><ele>323.1666666666667</ele><time>2026-04-11T07:00:06.964Z</time></trkpt><trkpt lat="44.1228103" lon="10.4051528"><ele>323.0</ele><time>2026-04-11T07:00:08.958Z</time></trkpt><trkpt lat="44.1228632" lon="10.4050714"><ele>323.0</ele><time>2026-04-11T07:00:10.969Z</time></trkpt><trkpt lat="44.1229149" lon="10.404993"><ele>323.0</ele><time>2026-04-11T07:00:12.963Z</time></trkpt><trkpt lat="44.1229639" lon="10.40491"><ele>323.0</ele><time>2026-04-11T07:00:14.958Z</time></trkpt><trkpt lat="44.1230084" lon="10.4048186"><ele>323.0</ele><time>2026-04-11T07:00:16.975Z</time></trkpt><trkpt lat="44.1230559" lon="10.4047323"><ele>323.0</ele><time>2026-04-11T07:00:18.954Z</time></trkpt><trkpt lat="44.1231102" lon="10.4046518"><ele>323.0</ele><time>2026-04-11T07:00:20.962Z</time></trkpt><trkpt lat="44.1231638" lon="10.4045686"><ele>323.1666666666667</ele><time>2026-04-11T07:00:22.966Z</time></trkpt><trkpt lat="44.1232177" lon="10.4044875"><ele>323.33333333333337</ele><time>2026-04-11T07:00:24.965Z</time></trkpt><trkpt lat="44.1232697" lon="10.4044014"><ele>323.5</ele><time>2026-04-11T07:00:26.965Z</time></trkpt><trkpt lat="44.1233191" lon="10.4043131"><ele>323.6666666666667</ele><time>2026-04-11T07:00:28.956Z</time></trkpt><trkpt lat="44.1233699" lon="10.4042302"><ele>323.8333333333333</ele><time>2026-04-11T07:00:30.952Z</time></trkpt><trkpt lat="44.1234235" lon="10.4041522"><ele>324.0</ele><time>2026-04-11T07:00:32.962Z</time></trkpt><trkpt lat="44.1234747" lon="10.4040712"><ele>324.0</ele><time>2026-04-11T07:00:34.953Z</time></trkpt><trkpt lat="44.1235256" lon="10.4039909"><ele>324.0</ele><time>2026-04-11T07:00:36.958Z</time></trkpt><trkpt lat="44.1235753" lon="10.4039064"><ele>324.0</ele><time>2026-04-11T07:00:38.961Z</time></trkpt><trkpt lat="44.1236252" lon="10.4038201"><ele>324.0</ele><time>2026-04-11T07:00:40.957Z</time></trkpt><trkpt lat="44.1236737" lon="10.403736"><ele>324.0</ele><time>2026-04-11T07:00:42.961Z</time></trkpt><trkpt lat="44.1237251" lon="10.403655"><ele>324.0</ele><time>2026-04-11T07:00:44.96Z</time></trkpt><trkpt lat="44.1237763" lon="10.4035751"><ele>324.3333333333333</ele><time>2026-04-11T07:00:46.956Z</time></trkpt><trkpt lat="44.1238238" lon="10.4034937"><ele>324.6666666666667</ele><time>2026-04-11T07:00:48.961Z</time></trkpt><trkpt lat="44.1238752" lon="10.4034107"><ele>325.0</ele><time>2026-04-11T07:00:50.955Z</time></trkpt><trkpt lat="44.1239226" lon="10.4033259"><ele>325.33333333333337</ele><time>2026-04-11T07:00:52.961Z</time></trkpt><trkpt lat="44.1239709" lon="10.4032445"><ele>325.6666666666667</ele><time>2026-04-11T07:00:54.961Z</time></trkpt><trkpt lat="44.1240199" lon="10.4031687"><ele>326.0</ele><time>2026-04-11T07:00:56.971Z</time></trkpt><trkpt lat="44.1240675" lon="10.4030868"><ele>326.0</ele><time>2026-04-11T07:00:58.96Z</time></trkpt><trkpt lat="44.1241192" lon="10.4030066"><ele>326.0</ele><time>2026-04-11T07:01:00.955Z</time></trkpt><trkpt lat="44.1241692" lon="10.402923"><ele>326.0</ele><time>2026-04-11T07:01:02.97Z</time></trkpt><trkpt lat="44.1242189" lon="10.4028394"><ele>326.0</ele><time>2026-04-11T07:01:04.966Z</time></trkpt><trkpt lat="44.1242689" lon="10.4027557"><ele>326.0</ele><time>2026-04-11T07:01:06.96Z</time></trkpt><trkpt lat="44.1243174" lon="10.4026702"><ele>326.0</ele><time>2026-04-11T07:01:08.967Z</time></trkpt><trkpt lat="44.1243634" lon="10.4025841"><ele>325.33333333333337</ele><time>2026-04-11T07:01:10.97Z</time></trkpt><trkpt lat="44.1244091" lon="10.4024997"><ele>324.6666666666667</ele><time>2026-04-11T07:01:12.96Z</time></trkpt><trkpt lat="44.1244571" lon="10.4024181"><ele>324.0</ele><time>2026-04-11T07:01:14.984Z</time></trkpt><trkpt lat="44.1245063" lon="10.402339"><ele>323.3333333333333</ele><time>2026-04-11T07:01:16.966Z</time></trkpt><trkpt lat="44.1245571" lon="10.4022623"><ele>322.66666666666663</ele><time>2026-04-11T07:01:18.981Z</time></trkpt><trkpt lat="44.1246079" lon="10.4021784"><ele>322.0</ele><time>2026-04-11T07:01:20.973Z</time></trkpt><trkpt lat="44.124656" lon="10.4020903"><ele>322.3333333333333</ele><time>2026-04-11T07:01:22.97Z</time></trkpt><trkpt lat="44.1247091" lon="10.4020057"><ele>322.66666666666663</ele><time>2026-04-11T07:01:24.964Z</time></trkpt><trkpt lat="44.1247636" lon="10.4019217"><ele>323.0</ele><time>2026-04-11T07:01:26.985Z</time></trkpt><trkpt lat="44.1248188" lon="10.4018392"><ele>323.3333333333333</ele><time>2026-04-11T07:01:28.97Z</time></trkpt><trkpt lat="44.1248717" lon="10.4017549"><ele>323.6666666666667</ele><time>2026-04-11T07:01:30.976Z</time></trkpt><trkpt lat="44.1249201" lon="10.4016695"><ele>324.0</ele><time>2026-04-11T07:01:32.96Z</time></trkpt><trkpt lat="44.1249719" lon="10.4015909"><ele>324.0</ele><time>2026-04-11T07:01:34.972Z</time></trkpt><trkpt lat="44.1250246" lon="10.4015113"><ele>324.0</ele><time>2026-04-11T07:01:36.968Z</time></trkpt><trkpt lat="44.1250766" lon="10.4014333"><ele>324.0</ele><time>2026-04-11T07:01:38.968Z</time></trkpt><trkpt lat="44.1251274" lon="10.4013562"><ele>324.0</ele><time>2026-04-11T07:01:40.963Z</time></trkpt><trkpt lat="44.1251738" lon="10.4012767"><ele>324.0</ele><time>2026-04-11T07:01:42.958Z</time></trkpt><trkpt lat="44.1252206" lon="10.4012014"><ele>324.0</ele><time>2026-04-11T07:01:44.957Z</time></trkpt><trkpt lat="44.1252622" lon="10.4011239"><ele>324.0</ele><time>2026-04-11T07:01:46.967Z</time></trkpt><trkpt lat="44.1253032" lon="10.4010439"><ele>323.3333333333333</ele><time>2026-04-11T07:01:48.977Z</time></trkpt><trkpt lat="44.1253634" lon="10.4009809"><ele>322.6666666666667</ele><time>2026-04-11T07:01:51.964Z</time></trkpt><trkpt lat="44.1254157" lon="10.4008956"><ele>322.0</ele><time>2026-04-11T07:01:55.964Z</time></trkpt><trkpt lat="44.1254737" lon="10.4008088"><ele>321.33333333333337</ele><time>2026-04-11T07:01:58.969Z</time></trkpt><trkpt lat="44.1255339" lon="10.400718"><ele>320.6666666666667</ele><time>2026-04-11T07:02:01.955Z</time></trkpt><trkpt lat="44.1255943" lon="10.4006276"><ele>320.0</ele><time>2026-04-11T07:02:04.979Z</time></trkpt><trkpt lat="44.1256418" lon="10.4005415"><ele>320.0</ele><time>2026-04-11T07:02:07.966Z</time></trkpt><trkpt lat="44.1256333" lon="10.4004416"><ele>320.0</ele><time>2026-04-11T07:02:10.966Z</time></trkpt><trkpt lat="44.125666" lon="10.4003618"><ele>320.0</ele><time>2026-04-11T07:02:15.954Z</time></trkpt><trkpt lat="44.1257426" lon="10.4003466"><ele>320.0</ele><time>2026-04-11T07:02:19.954Z</time></trkpt><trkpt lat="44.125757" lon="10.4002349"><ele>320.0</ele><time>2026-04-11T07:02:25.962Z</time></trkpt><trkpt lat="44.1257436" lon="10.4001444"><ele>320.0</ele><time>2026-04-11T07:02:27.961Z</time></trkpt><trkpt lat="44.1257294" lon="10.4000521"><ele>320.0</ele><time>2026-04-11T07:02:29.954Z</time></trkpt><trkpt lat="44.1257773" lon="10.4001393"><ele>320.0</ele><time>2026-04-11T07:02:34.954Z</time></trkpt><trkpt lat="44.1257953" lon="10.4002342"><ele>320.0</ele><time>2026-04-11T07:02:36.965Z</time></trkpt><trkpt lat="44.1258146" lon="10.4003609"><ele>320.0</ele><time>2026-04-11T07:02:38.957Z</time></trkpt><trkpt lat="44.1258391" lon="10.4004485"><ele>320.0</ele><time>2026-04-11T07:02:40.951Z</time></trkpt><trkpt lat="44.1259127" lon="10.4004446"><ele>320.0</ele><time>2026-04-11T07:02:44.958Z</time></trkpt><trkpt lat="44.125965" lon="10.4003948"><ele>320.0</ele><time>2026-04-11T07:02:49.956Z</time></trkpt><trkpt lat="44.1259257" lon="10.4002886"><ele>320.0</ele><time>2026-04-11T07:02:52.968Z</time></trkpt><trkpt lat="44.1258851" lon="10.4001977"><ele>320.0</ele><time>2026-04-11T07:02:54.964Z</time></trkpt><trkpt lat="44.1259344" lon="10.400066"><ele>320.0</ele><time>2026-04-11T07:02:56.965Z</time></trkpt><trkpt lat="44.1260312" lon="10.3999627"><ele>320.0</ele><time>2026-04-11T07:02:58.961Z</time></trkpt><trkpt lat="44.1261428" lon="10.3998868"><ele>320.0</ele><time>2026-04-11T07:03:00.962Z</time></trkpt><trkpt lat="44.1262069" lon="10.3998573"><ele>320.0</ele><time>2026-04-11T07:03:01.97Z</time></trkpt><trkpt lat="44.1262718" lon="10.3998249"><ele>320.0</ele><time>2026-04-11T07:03:02.957Z</time></trkpt><trkpt lat="44.1263368" lon="10.3997947"><ele>320.0</ele><time>2026-04-11T07:03:03.962Z</time></trkpt><trkpt lat="44.1264052" lon="10.3997667"><ele>320.0</ele><time>2026-04-11T07:03:04.963Z</time></trkpt><trkpt lat="44.1264723" lon="10.3997351"><ele>320.0</ele><time>2026-04-11T07:03:05.965Z</time></trkpt><trkpt lat="44.1265421" lon="10.3996964"><ele>320.0</ele><time>2026-04-11T07:03:06.969Z</time></trkpt><trkpt lat="44.1266146" lon="10.3996712"><ele>320.0</ele><time>2026-04-11T07:03:07.959Z</time></trkpt><trkpt lat="44.1266883" lon="10.3996408"><ele>319.1428571428571</ele><time>2026-04-11T07:03:08.963Z</time></trkpt><trkpt lat="44.1267583" lon="10.3996178"><ele>318.2857142857143</ele><time>2026-04-11T07:03:09.955Z</time></trkpt><trkpt lat="44.126831" lon="10.3995929"><ele>317.42857142857144</ele><time>2026-04-11T07:03:10.963Z</time></trkpt><trkpt lat="44.1268969" lon="10.3995467"><ele>316.57142857142856</ele><time>2026-04-11T07:03:11.966Z</time></trkpt><trkpt lat="44.1269603" lon="10.3994909"><ele>315.7142857142857</ele><time>2026-04-11T07:03:12.974Z</time></trkpt><trkpt lat="44.1270075" lon="10.3994153"><ele>314.85714285714283</ele><time>2026-04-11T07:03:13.967Z</time></trkpt><trkpt lat="44.1270325" lon="10.3993275"><ele>314.0</ele><time>2026-04-11T07:03:14.955Z</time></trkpt><trkpt lat="44.1270471" lon="10.3992387"><ele>314.0</ele><time>2026-04-11T07:03:15.981Z</time></trkpt><trkpt lat="44.1270247" lon="10.3990951"><ele>314.0</ele><time>2026-04-11T07:03:17.987Z</time></trkpt><trkpt lat="44.1269847" lon="10.3989829"><ele>314.0</ele><time>2026-04-11T07:03:19.977Z</time></trkpt><trkpt lat="44.1269459" lon="10.3988876"><ele>314.0</ele><time>2026-04-11T07:03:21.959Z</time></trkpt><trkpt lat="44.1268981" lon="10.3987725"><ele>314.0</ele><time>2026-04-11T07:03:24.969Z</time></trkpt><trkpt lat="44.1268658" lon="10.3986929"><ele>314.0</ele><time>2026-04-11T07:03:26.963Z</time></trkpt><trkpt lat="44.1268361" lon="10.3986134"><ele>315.1428571428571</ele><time>2026-04-11T07:03:28.97Z</time></trkpt><trkpt lat="44.126805" lon="10.3985368"><ele>316.2857142857143</ele><time>2026-04-11T07:03:30.956Z</time></trkpt><trkpt lat="44.1267616" lon="10.3984296"><ele>317.42857142857144</ele><time>2026-04-11T07:03:33.963Z</time></trkpt><trkpt lat="44.1267228" lon="10.3983103"><ele>318.57142857142856</ele><time>2026-04-11T07:03:36.955Z</time></trkpt><trkpt lat="44.1266913" lon="10.3982297"><ele>319.7142857142857</ele><time>2026-04-11T07:03:38.969Z</time></trkpt><trkpt lat="44.1266592" lon="10.3981485"><ele>320.85714285714283</ele><time>2026-04-11T07:03:40.962Z</time></trkpt><trkpt lat="44.12663" lon="10.3980697"><ele>322.0</ele><time>2026-04-11T07:03:42.953Z</time></trkpt><trkpt lat="44.1266006" lon="10.3979912"><ele>322.5</ele><time>2026-04-11T07:03:44.969Z</time></trkpt><trkpt lat="44.126585" lon="10.3978656"><ele>323.0</ele><time>2026-04-11T07:03:47.964Z</time></trkpt><trkpt lat="44.1266001" lon="10.3977394"><ele>323.5</ele><time>2026-04-11T07:03:50.964Z</time></trkpt><trkpt lat="44.1266414" lon="10.3976213"><ele>324.0</ele><time>2026-04-11T07:03:53.956Z</time></trkpt><trkpt lat="44.1266848" lon="10.3975504"><ele>324.5</ele><time>2026-04-11T07:03:55.973Z</time></trkpt><trkpt lat="44.1267304" lon="10.3974827"><ele>325.0</ele><time>2026-04-11T07:03:57.969Z</time></trkpt><trkpt lat="44.1267761" lon="10.3974138"><ele>325.0</ele><time>2026-04-11T07:03:59.96Z</time></trkpt><trkpt lat="44.1268169" lon="10.3973412"><ele>325.0</ele><time>2026-04-11T07:04:01.965Z</time></trkpt><trkpt lat="44.1268542" lon="10.3972651"><ele>325.0</ele><time>2026-04-11T07:04:03.962Z</time></trkpt><trkpt lat="44.1268907" lon="10.3971897"><ele>325.0</ele><time>2026-04-11T07:04:05.967Z</time></trkpt><trkpt lat="44.1269195" lon="10.3971096"><ele>325.0</ele><time>2026-04-11T07:04:07.958Z</time></trkpt><trkpt lat="44.1269459" lon="10.3970282"><ele>325.0</ele><time>2026-04-11T07:04:09.962Z</time></trkpt><trkpt lat="44.1269747" lon="10.3969485"><ele>325.0</ele><time>2026-04-11T07:04:11.96Z</time></trkpt><trkpt lat="44.1270207" lon="10.3968342"><ele>324.0</ele><time>2026-04-11T07:04:14.96Z</time></trkpt><trkpt lat="44.1270545" lon="10.3967585"><ele>323.0</ele><time>2026-04-11T07:04:16.975Z</time></trkpt><trkpt lat="44.1271141" lon="10.3966528"><ele>322.0</ele><time>2026-04-11T07:04:19.976Z</time></trkpt><trkpt lat="44.1271544" lon="10.3965807"><ele>321.0</ele><time>2026-04-11T07:04:21.961Z</time></trkpt><trkpt lat="44.1271945" lon="10.3965112"><ele>320.0</ele><time>2026-04-11T07:04:23.955Z</time></trkpt><trkpt lat="44.1272376" lon="10.3964404"><ele>319.0</ele><time>2026-04-11T07:04:25.957Z</time></trkpt><trkpt lat="44.1272813" lon="10.3963669"><ele>318.0</ele><time>2026-04-11T07:04:27.981Z</time></trkpt><trkpt lat="44.1273224" lon="10.3962952"><ele>317.7142857142857</ele><time>2026-04-11T07:04:29.96Z</time></trkpt><trkpt lat="44.1273633" lon="10.396219"><ele>317.42857142857144</ele><time>2026-04-11T07:04:31.961Z</time></trkpt><trkpt lat="44.1274024" lon="10.3961416"><ele>317.14285714285717</ele><time>2026-04-11T07:04:33.96Z</time></trkpt><trkpt lat="44.1274371" lon="10.3960614"><ele>316.8571428571429</ele><time>2026-04-11T07:04:35.967Z</time></trkpt><trkpt lat="44.1274682" lon="10.3959795"><ele>316.57142857142856</ele><time>2026-04-11T07:04:37.961Z</time></trkpt><trkpt lat="44.1274949" lon="10.395894"><ele>316.28571428571433</ele><time>2026-04-11T07:04:39.96Z</time></trkpt><trkpt lat="44.1275182" lon="10.3958113"><ele>316.0</ele><time>2026-04-11T07:04:41.96Z</time></trkpt><trkpt lat="44.127538" lon="10.3957246"><ele>317.28571428571433</ele><time>2026-04-11T07:04:43.963Z</time></trkpt><trkpt lat="44.1275537" lon="10.3956336"><ele>318.57142857142856</ele><time>2026-04-11T07:04:45.963Z</time></trkpt><trkpt lat="44.1275674" lon="10.3955461"><ele>319.8571428571429</ele><time>2026-04-11T07:04:47.957Z</time></trkpt><trkpt lat="44.1275827" lon="10.3954528"><ele>321.14285714285717</ele><time>2026-04-11T07:04:49.969Z</time></trkpt><trkpt lat="44.1275958" lon="10.3953576"><ele>322.42857142857144</ele><time>2026-04-11T07:04:51.963Z</time></trkpt><trkpt lat="44.1276051" lon="10.3952619"><ele>323.7142857142857</ele><time>2026-04-11T07:04:53.963Z</time></trkpt><trkpt lat="44.1276171" lon="10.3951709"><ele>325.0</ele><time>2026-04-11T07:04:55.961Z</time></trkpt><trkpt lat="44.1276242" lon="10.3950753"><ele>325.0</ele><time>2026-04-11T07:04:57.96Z</time></trkpt><trkpt lat="44.1276338" lon="10.3949837"><ele>325.0</ele><time>2026-04-11T07:04:59.974Z</time></trkpt><trkpt lat="44.1276411" lon="10.3948918"><ele>325.0</ele><time>2026-04-11T07:05:01.986Z</time></trkpt><trkpt lat="44.1276483" lon="10.394803"><ele>325.0</ele><time>2026-04-11T07:05:03.964Z</time></trkpt><trkpt lat="44.1276564" lon="10.394715"><ele>325.0</ele><time>2026-04-11T07:05:05.963Z</time></trkpt><trkpt lat="44.1276674" lon="10.394594"><ele>325.0</ele><time>2026-04-11T07:05:08.964Z</time></trkpt><trkpt lat="44.1276806" lon="10.3944761"><ele>325.0</ele><time>2026-04-11T07:05:11.97Z</time></trkpt><trkpt lat="44.127698" lon="10.3943599"><ele>324.8</ele><time>2026-04-11T07:05:14.973Z</time></trkpt><trkpt lat="44.1277171" lon="10.3942362"><ele>324.6</ele><time>2026-04-11T07:05:17.977Z</time></trkpt><trkpt lat="44.1277485" lon="10.3941174"><ele>324.4</ele><time>2026-04-11T07:05:20.973Z</time></trkpt><trkpt lat="44.1277969" lon="10.3940136"><ele>324.2</ele><time>2026-04-11T07:05:23.962Z</time></trkpt><trkpt lat="44.1278541" lon="10.3939193"><ele>324.0</ele><time>2026-04-11T07:05:26.963Z</time></trkpt><trkpt lat="44.127924" lon="10.3938353"><ele>323.8333333333333</ele><time>2026-04-11T07:05:29.962Z</time></trkpt><trkpt lat="44.1280008" lon="10.3937773"><ele>323.6666666666667</ele><time>2026-04-11T07:05:32.962Z</time></trkpt><trkpt lat="44.1280879" lon="10.39374"><ele>323.5</ele><time>2026-04-11T07:05:35.957Z</time></trkpt><trkpt lat="44.1281736" lon="10.3937068"><ele>323.33333333333337</ele><time>2026-04-11T07:05:38.963Z</time></trkpt><trkpt lat="44.1282562" lon="10.393677"><ele>323.1666666666667</ele><time>2026-04-11T07:05:41.968Z</time></trkpt><trkpt lat="44.1283399" lon="10.3936449"><ele>323.0</ele><time>2026-04-11T07:05:44.968Z</time></trkpt><trkpt lat="44.128423" lon="10.3936065"><ele>324.6666666666667</ele><time>2026-04-11T07:05:47.959Z</time></trkpt><trkpt lat="44.1285056" lon="10.3935673"><ele>326.33333333333337</ele><time>2026-04-11T07:05:50.979Z</time></trkpt><trkpt lat="44.1285872" lon="10.3935302"><ele>328.0</ele><time>2026-04-11T07:05:53.957Z</time></trkpt><trkpt lat="44.12867" lon="10.393494"><ele>329.6666666666667</ele><time>2026-04-11T07:05:56.961Z</time></trkpt><trkpt lat="44.1287505" lon="10.39345"><ele>331.3333333333333</ele><time>2026-04-11T07:05:59.964Z</time></trkpt><trkpt lat="44.1288269" lon="10.3933947"><ele>333.0</ele><time>2026-04-11T07:06:02.955Z</time></trkpt><trkpt lat="44.1289021" lon="10.3933401"><ele>333.0</ele><time>2026-04-11T07:06:05.962Z</time></trkpt><trkpt lat="44.1289774" lon="10.3932806"><ele>333.0</ele><time>2026-04-11T07:06:08.957Z</time></trkpt><trkpt lat="44.1290501" lon="10.3932142"><ele>333.0</ele><time>2026-04-11T07:06:11.97Z</time></trkpt><trkpt lat="44.1291217" lon="10.3931429"><ele>333.0</ele><time>2026-04-11T07:06:14.961Z</time></trkpt><trkpt lat="44.1291886" lon="10.3930659"><ele>333.0</ele><time>2026-04-11T07:06:17.971Z</time></trkpt><trkpt lat="44.1292492" lon="10.3929789"><ele>333.0</ele><time>2026-04-11T07:06:20.969Z</time></trkpt><trkpt lat="44.129306" lon="10.3928859"><ele>333.3333333333333</ele><time>2026-04-11T07:06:23.962Z</time></trkpt><trkpt lat="44.1293649" lon="10.3927953"><ele>333.6666666666667</ele><time>2026-04-11T07:06:26.954Z</time></trkpt><trkpt lat="44.1294184" lon="10.3927012"><ele>334.0</ele><time>2026-04-11T07:06:29.968Z</time></trkpt><trkpt lat="44.1294748" lon="10.3926067"><ele>334.33333333333337</ele><time>2026-04-11T07:06:32.964Z</time></trkpt><trkpt lat="44.12953" lon="10.3925118"><ele>334.6666666666667</ele><time>2026-04-11T07:06:35.966Z</time></trkpt><trkpt lat="44.1295853" lon="10.392421"><ele>335.0</ele><time>2026-04-11T07:06:38.964Z</time></trkpt><trkpt lat="44.1296468" lon="10.3923382"><ele>335.0</ele><time>2026-04-11T07:06:41.958Z</time></trkpt><trkpt lat="44.1297194" lon="10.3922698"><ele>335.0</ele><time>2026-04-11T07:06:44.977Z</time></trkpt><trkpt lat="44.1297944" lon="10.3922186"><ele>335.0</ele><time>2026-04-11T07:06:47.961Z</time></trkpt><trkpt lat="44.1298749" lon="10.3921852"><ele>335.0</ele><time>2026-04-11T07:06:50.966Z</time></trkpt><trkpt lat="44.1299566" lon="10.3921643"><ele>335.0</ele><time>2026-04-11T07:06:53.96Z</time></trkpt><trkpt lat="44.130044" lon="10.392136"><ele>335.0</ele><time>2026-04-11T07:06:56.957Z</time></trkpt><trkpt lat="44.1301343" lon="10.3921149"><ele>335.6</ele><time>2026-04-11T07:06:59.972Z</time></trkpt><trkpt lat="44.1302251" lon="10.3920926"><ele>336.2</ele><time>2026-04-11T07:07:02.973Z</time></trkpt><trkpt lat="44.1303109" lon="10.3920771"><ele>336.79999999999995</ele><time>2026-04-11T07:07:05.976Z</time></trkpt><trkpt lat="44.1303995" lon="10.3920532"><ele>337.4</ele><time>2026-04-11T07:07:08.951Z</time></trkpt><trkpt lat="44.1304893" lon="10.3920287"><ele>338.0</ele><time>2026-04-11T07:07:11.974Z</time></trkpt><trkpt lat="44.1305782" lon="10.3920029"><ele>338.0</ele><time>2026-04-11T07:07:14.967Z</time></trkpt><trkpt lat="44.1306705" lon="10.3919933"><ele>338.0</ele><time>2026-04-11T07:07:17.961Z</time></trkpt><trkpt lat="44.1307576" lon="10.3920059"><ele>338.0</ele><time>2026-04-11T07:07:20.967Z</time></trkpt><trkpt lat="44.130844" lon="10.3920313"><ele>338.0</ele><time>2026-04-11T07:07:23.971Z</time></trkpt><trkpt lat="44.1309345" lon="10.3920564"><ele>338.0</ele><time>2026-04-11T07:07:26.966Z</time></trkpt><trkpt lat="44.1310263" lon="10.3920828"><ele>338.6666666666667</ele><time>2026-04-11T07:07:29.971Z</time></trkpt><trkpt lat="44.1311167" lon="10.3921061"><ele>339.33333333333337</ele><time>2026-04-11T07:07:32.966Z</time></trkpt><trkpt lat="44.1312052" lon="10.3921289"><ele>340.0</ele><time>2026-04-11T07:07:35.964Z</time></trkpt><trkpt lat="44.1312924" lon="10.3921541"><ele>340.6666666666667</ele><time>2026-04-11T07:07:38.959Z</time></trkpt><trkpt lat="44.1313776" lon="10.3921852"><ele>341.3333333333333</ele><time>2026-04-11T07:07:41.963Z</time></trkpt><trkpt lat="44.131461" lon="10.3922272"><ele>342.0</ele><time>2026-04-11T07:07:44.966Z</time></trkpt><trkpt lat="44.1315401" lon="10.3922802"><ele>344.5</ele><time>2026-04-11T07:07:47.965Z</time></trkpt><trkpt lat="44.1316167" lon="10.3923375"><ele>347.0</ele><time>2026-04-11T07:07:50.965Z</time></trkpt><trkpt lat="44.1316934" lon="10.3924003"><ele>349.5</ele><time>2026-04-11T07:07:53.967Z</time></trkpt><trkpt lat="44.1317676" lon="10.3924666"><ele>352.0</ele><time>2026-04-11T07:07:56.96Z</time></trkpt><trkpt lat="44.1318425" lon="10.3925306"><ele>354.5</ele><time>2026-04-11T07:07:59.974Z</time></trkpt><trkpt lat="44.1319208" lon="10.3925903"><ele>357.0</ele><time>2026-04-11T07:08:02.962Z</time></trkpt><trkpt lat="44.1320022" lon="10.3926441"><ele>357.0</ele><time>2026-04-11T07:08:05.978Z</time></trkpt><trkpt lat="44.1320865" lon="10.3926914"><ele>357.0</ele><time>2026-04-11T07:08:08.972Z</time></trkpt><trkpt lat="44.1321758" lon="10.3927222"><ele>357.0</ele><time>2026-04-11T07:08:11.965Z</time></trkpt><trkpt lat="44.1322633" lon="10.3927405"><ele>357.0</ele><time>2026-04-11T07:08:14.975Z</time></trkpt><trkpt lat="44.1323517" lon="10.3927338"><ele>357.0</ele><time>2026-04-11T07:08:17.954Z</time></trkpt><trkpt lat="44.1324464" lon="10.3927148"><ele>355.7142857142857</ele><time>2026-04-11T07:08:20.968Z</time></trkpt><trkpt lat="44.1325115" lon="10.3926974"><ele>354.42857142857144</ele><time>2026-04-11T07:08:22.964Z</time></trkpt><trkpt lat="44.1325776" lon="10.392679"><ele>353.1428571428571</ele><time>2026-04-11T07:08:24.959Z</time></trkpt><trkpt lat="44.1326468" lon="10.3926641"><ele>351.8571428571429</ele><time>2026-04-11T07:08:26.967Z</time></trkpt><trkpt lat="44.1327207" lon="10.3926483"><ele>350.57142857142856</ele><time>2026-04-11T07:08:28.968Z</time></trkpt><trkpt lat="44.1327965" lon="10.3926377"><ele>349.2857142857143</ele><time>2026-04-11T07:08:30.971Z</time></trkpt><trkpt lat="44.1328734" lon="10.3926349"><ele>348.0</ele><time>2026-04-11T07:08:32.972Z</time></trkpt><trkpt lat="44.1329577" lon="10.3926538"><ele>348.0</ele><time>2026-04-11T07:08:34.976Z</time></trkpt><trkpt lat="44.1330485" lon="10.3927011"><ele>348.0</ele><time>2026-04-11T07:08:36.965Z</time></trkpt><trkpt lat="44.1331499" lon="10.3927583"><ele>348.0</ele><time>2026-04-11T07:08:38.971Z</time></trkpt><trkpt lat="44.1332553" lon="10.3928161"><ele>348.0</ele><time>2026-04-11T07:08:40.966Z</time></trkpt><trkpt lat="44.1333553" lon="10.3928743"><ele>348.0</ele><time>2026-04-11T07:08:42.965Z</time></trkpt><trkpt lat="44.1334696" lon="10.3929328"><ele>348.1666666666667</ele><time>2026-04-11T07:08:44.971Z</time></trkpt><trkpt lat="44.1335284" lon="10.3929642"><ele>348.3333333333333</ele><time>2026-04-11T07:08:45.965Z</time></trkpt><trkpt lat="44.1335889" lon="10.3929896"><ele>348.5</ele><time>2026-04-11T07:08:46.972Z</time></trkpt><trkpt lat="44.1337143" lon="10.3930362"><ele>348.66666666666663</ele><time>2026-04-11T07:08:48.972Z</time></trkpt><trkpt lat="44.1337768" lon="10.3930481"><ele>348.8333333333333</ele><time>2026-04-11T07:08:49.975Z</time></trkpt><trkpt lat="44.1338428" lon="10.3930545"><ele>349.0</ele><time>2026-04-11T07:08:50.98Z</time></trkpt><trkpt lat="44.1339085" lon="10.3930619"><ele>348.99999999999994</ele><time>2026-04-11T07:08:51.97Z</time></trkpt><trkpt lat="44.1339764" lon="10.3930765"><ele>349.0</ele><time>2026-04-11T07:08:52.974Z</time></trkpt><trkpt lat="44.1340475" lon="10.3930796"><ele>349.0</ele><time>2026-04-11T07:08:53.963Z</time></trkpt><trkpt lat="44.134118" lon="10.3930746"><ele>349.0</ele><time>2026-04-11T07:08:54.967Z</time></trkpt><trkpt lat="44.1341915" lon="10.3930631"><ele>349.0</ele><time>2026-04-11T07:08:55.969Z</time></trkpt><trkpt lat="44.1342577" lon="10.3930291"><ele>348.99999999999994</ele><time>2026-04-11T07:08:56.976Z</time></trkpt><trkpt lat="44.134331" lon="10.3929757"><ele>349.0</ele><time>2026-04-11T07:08:57.963Z</time></trkpt><trkpt lat="44.1343969" lon="10.3929099"><ele>347.0</ele><time>2026-04-11T07:08:58.972Z</time></trkpt><trkpt lat="44.1344714" lon="10.3928565"><ele>345.0</ele><time>2026-04-11T07:08:59.973Z</time></trkpt><trkpt lat="44.1345498" lon="10.392805"><ele>343.0</ele><time>2026-04-11T07:09:00.973Z</time></trkpt><trkpt lat="44.134647" lon="10.3927989"><ele>341.0</ele><time>2026-04-11T07:09:01.974Z</time></trkpt><trkpt lat="44.134738" lon="10.3927924"><ele>339.0</ele><time>2026-04-11T07:09:02.972Z</time></trkpt><trkpt lat="44.1348284" lon="10.3927897"><ele>337.0</ele><time>2026-04-11T07:09:03.968Z</time></trkpt><trkpt lat="44.1349262" lon="10.3927886"><ele>336.40000000000003</ele><time>2026-04-11T07:09:04.989Z</time></trkpt><trkpt lat="44.1350179" lon="10.3927522"><ele>335.8</ele><time>2026-04-11T07:09:05.968Z</time></trkpt><trkpt lat="44.1351014" lon="10.3926972"><ele>335.2</ele><time>2026-04-11T07:09:06.975Z</time></trkpt><trkpt lat="44.135179" lon="10.3926228"><ele>334.6</ele><time>2026-04-11T07:09:07.977Z</time></trkpt><trkpt lat="44.1352553" lon="10.3925522"><ele>334.0</ele><time>2026-04-11T07:09:08.976Z</time></trkpt><trkpt lat="44.1353248" lon="10.3924762"><ele>334.0</ele><time>2026-04-11T07:09:09.977Z</time></trkpt><trkpt lat="44.1353952" lon="10.3924055"><ele>334.0</ele><time>2026-04-11T07:09:10.965Z</time></trkpt><trkpt lat="44.1354487" lon="10.392337"><ele>334.0</ele><time>2026-04-11T07:09:11.962Z</time></trkpt><trkpt lat="44.1354906" lon="10.39226"><ele>334.0</ele><time>2026-04-11T07:09:12.965Z</time></trkpt><trkpt lat="44.1355247" lon="10.3921124"><ele>334.0</ele><time>2026-04-11T07:09:14.96Z</time></trkpt><trkpt lat="44.1355183" lon="10.3920107"><ele>334.0</ele><time>2026-04-11T07:09:16.962Z</time></trkpt><trkpt lat="44.135487" lon="10.3919116"><ele>333.85714285714283</ele><time>2026-04-11T07:09:19.965Z</time></trkpt><trkpt lat="44.1354421" lon="10.3918349"><ele>333.7142857142857</ele><time>2026-04-11T07:09:22.966Z</time></trkpt><trkpt lat="44.1353964" lon="10.3917643"><ele>333.57142857142856</ele><time>2026-04-11T07:09:25.962Z</time></trkpt><trkpt lat="44.1353635" lon="10.3916821"><ele>333.42857142857144</ele><time>2026-04-11T07:09:28.965Z</time></trkpt><trkpt lat="44.1353182" lon="10.3916062"><ele>333.2857142857143</ele><time>2026-04-11T07:09:31.976Z</time></trkpt><trkpt lat="44.1352785" lon="10.3915316"><ele>333.14285714285717</ele><time>2026-04-11T07:09:34.966Z</time></trkpt><trkpt lat="44.1352325" lon="10.391448"><ele>333.0</ele><time>2026-04-11T07:09:37.963Z</time></trkpt><trkpt lat="44.1351876" lon="10.3913674"><ele>335.0</ele><time>2026-04-11T07:09:40.966Z</time></trkpt><trkpt lat="44.1351454" lon="10.3912865"><ele>337.0</ele><time>2026-04-11T07:09:43.956Z</time></trkpt><trkpt lat="44.1351089" lon="10.391214"><ele>339.0</ele><time>2026-04-11T07:09:46.962Z</time></trkpt><trkpt lat="44.135072" lon="10.3911346"><ele>341.0</ele><time>2026-04-11T07:09:49.963Z</time></trkpt><trkpt lat="44.1350313" lon="10.3910544"><ele>343.0</ele><time>2026-04-11T07:09:52.96Z</time></trkpt><trkpt lat="44.134993" lon="10.3909738"><ele>345.0</ele><time>2026-04-11T07:09:55.965Z</time></trkpt><trkpt lat="44.1349576" lon="10.3908888"><ele>347.0</ele><time>2026-04-11T07:09:58.966Z</time></trkpt><trkpt lat="44.1349248" lon="10.3908039"><ele>347.0</ele><time>2026-04-11T07:10:01.969Z</time></trkpt><trkpt lat="44.1348952" lon="10.3907197"><ele>347.0</ele><time>2026-04-11T07:10:04.965Z</time></trkpt><trkpt lat="44.1348654" lon="10.3906355"><ele>347.0</ele><time>2026-04-11T07:10:07.968Z</time></trkpt><trkpt lat="44.134835" lon="10.3905522"><ele>347.0</ele><time>2026-04-11T07:10:10.965Z</time></trkpt><trkpt lat="44.1348014" lon="10.3904686"><ele>347.0</ele><time>2026-04-11T07:10:13.96Z</time></trkpt><trkpt lat="44.134766" lon="10.3903881"><ele>347.0</ele><time>2026-04-11T07:10:16.966Z</time></trkpt><trkpt lat="44.1347402" lon="10.390305"><ele>347.0</ele><time>2026-04-11T07:10:19.957Z</time></trkpt><trkpt lat="44.1347092" lon="10.3902206"><ele>346.14285714285717</ele><time>2026-04-11T07:10:22.966Z</time></trkpt><trkpt lat="44.1346754" lon="10.3901324"><ele>345.2857142857143</ele><time>2026-04-11T07:10:25.978Z</time></trkpt><trkpt lat="44.1346394" lon="10.3900405"><ele>344.42857142857144</ele><time>2026-04-11T07:10:28.964Z</time></trkpt><trkpt lat="44.1346181" lon="10.3899524"><ele>343.57142857142856</ele><time>2026-04-11T07:10:31.961Z</time></trkpt><trkpt lat="44.134608" lon="10.3898576"><ele>342.7142857142857</ele><time>2026-04-11T07:10:34.964Z</time></trkpt><trkpt lat="44.1346145" lon="10.3897622"><ele>341.85714285714283</ele><time>2026-04-11T07:10:37.97Z</time></trkpt><trkpt lat="44.1346375" lon="10.389665"><ele>341.0</ele><time>2026-04-11T07:10:40.968Z</time></trkpt><trkpt lat="44.1346651" lon="10.3895721"><ele>341.0</ele><time>2026-04-11T07:10:43.957Z</time></trkpt><trkpt lat="44.1347023" lon="10.3894836"><ele>341.0</ele><time>2026-04-11T07:10:46.966Z</time></trkpt><trkpt lat="44.1347331" lon="10.3893914"><ele>341.0</ele><time>2026-04-11T07:10:49.98Z</time></trkpt><trkpt lat="44.1347642" lon="10.3893012"><ele>341.0</ele><time>2026-04-11T07:10:52.97Z</time></trkpt><trkpt lat="44.1347868" lon="10.3892066"><ele>341.0</ele><time>2026-04-11T07:10:55.962Z</time></trkpt><trkpt lat="44.1348059" lon="10.3891018"><ele>341.0</ele><time>2026-04-11T07:10:58.979Z</time></trkpt><trkpt lat="44.1348207" lon="10.3889843"><ele>341.0</ele><time>2026-04-11T07:11:01.96Z</time></trkpt><trkpt lat="44.1348295" lon="10.3888638"><ele>341.0</ele><time>2026-04-11T07:11:04.963Z</time></trkpt><trkpt lat="44.1348351" lon="10.3887443"><ele>341.0</ele><time>2026-04-11T07:11:07.963Z</time></trkpt><trkpt lat="44.1348414" lon="10.3886294"><ele>341.0</ele><time>2026-04-11T07:11:10.964Z</time></trkpt><trkpt lat="44.1348566" lon="10.3885194"><ele>341.0</ele><time>2026-04-11T07:11:13.961Z</time></trkpt><trkpt lat="44.1348831" lon="10.3884116"><ele>341.0</ele><time>2026-04-11T07:11:16.974Z</time></trkpt><trkpt lat="44.1349182" lon="10.3883089"><ele>343.33333333333337</ele><time>2026-04-11T07:11:19.962Z</time></trkpt><trkpt lat="44.1349533" lon="10.3881972"><ele>345.6666666666667</ele><time>2026-04-11T07:11:22.962Z</time></trkpt><trkpt lat="44.1349911" lon="10.3880872"><ele>348.0</ele><time>2026-04-11T07:11:25.971Z</time></trkpt><trkpt lat="44.1350286" lon="10.3879778"><ele>350.3333333333333</ele><time>2026-04-11T07:11:28.967Z</time></trkpt><trkpt lat="44.1350639" lon="10.3878677"><ele>352.66666666666663</ele><time>2026-04-11T07:11:31.973Z</time></trkpt><trkpt lat="44.1351005" lon="10.3877585"><ele>355.0</ele><time>2026-04-11T07:11:34.97Z</time></trkpt><trkpt lat="44.1351366" lon="10.3876508"><ele>355.0</ele><time>2026-04-11T07:11:37.956Z</time></trkpt><trkpt lat="44.1351743" lon="10.3875433"><ele>355.0</ele><time>2026-04-11T07:11:40.965Z</time></trkpt><trkpt lat="44.135211" lon="10.3874353"><ele>355.0</ele><time>2026-04-11T07:11:43.967Z</time></trkpt><trkpt lat="44.1352506" lon="10.387328"><ele>355.0</ele><time>2026-04-11T07:11:46.964Z</time></trkpt><trkpt lat="44.1352902" lon="10.3872182"><ele>355.0</ele><time>2026-04-11T07:11:49.97Z</time></trkpt><trkpt lat="44.135332" lon="10.387113"><ele>355.0</ele><time>2026-04-11T07:11:52.968Z</time></trkpt><trkpt lat="44.1353853" lon="10.3870253"><ele>354.3333333333333</ele><time>2026-04-11T07:11:55.974Z</time></trkpt><trkpt lat="44.1354574" lon="10.3869631"><ele>353.66666666666663</ele><time>2026-04-11T07:11:58.965Z</time></trkpt><trkpt lat="44.1355333" lon="10.38692"><ele>353.0</ele><time>2026-04-11T07:12:01.965Z</time></trkpt><trkpt lat="44.1356219" lon="10.3868778"><ele>352.3333333333333</ele><time>2026-04-11T07:12:04.969Z</time></trkpt><trkpt lat="44.1357088" lon="10.386837"><ele>351.6666666666667</ele><time>2026-04-11T07:12:07.96Z</time></trkpt><trkpt lat="44.135795" lon="10.3868019"><ele>351.0</ele><time>2026-04-11T07:12:10.96Z</time></trkpt><trkpt lat="44.1358798" lon="10.3867677"><ele>352.3333333333333</ele><time>2026-04-11T07:12:13.965Z</time></trkpt><trkpt lat="44.1359626" lon="10.3867345"><ele>353.6666666666667</ele><time>2026-04-11T07:12:16.969Z</time></trkpt><trkpt lat="44.136046" lon="10.3867015"><ele>355.0</ele><time>2026-04-11T07:12:19.969Z</time></trkpt><trkpt lat="44.1361313" lon="10.3866662"><ele>356.33333333333337</ele><time>2026-04-11T07:12:22.962Z</time></trkpt><trkpt lat="44.1362194" lon="10.3866272"><ele>357.6666666666667</ele><time>2026-04-11T07:12:25.964Z</time></trkpt><trkpt lat="44.1363079" lon="10.3865876"><ele>359.0</ele><time>2026-04-11T07:12:28.961Z</time></trkpt><trkpt lat="44.136394" lon="10.3865476"><ele>359.0</ele><time>2026-04-11T07:12:31.972Z</time></trkpt><trkpt lat="44.1364548" lon="10.38652"><ele>359.0</ele><time>2026-04-11T07:12:33.956Z</time></trkpt><trkpt lat="44.1365447" lon="10.3864853"><ele>359.0</ele><time>2026-04-11T07:12:36.966Z</time></trkpt><trkpt lat="44.1366076" lon="10.3864577"><ele>359.0</ele><time>2026-04-11T07:12:38.955Z</time></trkpt><trkpt lat="44.136671" lon="10.3864293"><ele>359.0</ele><time>2026-04-11T07:12:40.967Z</time></trkpt><trkpt lat="44.1367327" lon="10.3863984"><ele>359.0</ele><time>2026-04-11T07:12:42.964Z</time></trkpt><trkpt lat="44.1367933" lon="10.3863539"><ele>359.0</ele><time>2026-04-11T07:12:44.969Z</time></trkpt><trkpt lat="44.1368373" lon="10.3862883"><ele>359.7142857142857</ele><time>2026-04-11T07:12:46.96Z</time></trkpt><trkpt lat="44.1368785" lon="10.3862059"><ele>360.42857142857144</ele><time>2026-04-11T07:12:48.979Z</time></trkpt><trkpt lat="44.1368931" lon="10.3861145"><ele>361.1428571428571</ele><time>2026-04-11T07:12:50.965Z</time></trkpt><trkpt lat="44.1368889" lon="10.3859838"><ele>361.8571428571429</ele><time>2026-04-11T07:12:53.98Z</time></trkpt><trkpt lat="44.1368768" lon="10.3858921"><ele>362.57142857142856</ele><time>2026-04-11T07:12:55.964Z</time></trkpt><trkpt lat="44.1368645" lon="10.3858016"><ele>363.2857142857143</ele><time>2026-04-11T07:12:57.972Z</time></trkpt><trkpt lat="44.1368487" lon="10.3857072"><ele>364.0</ele><time>2026-04-11T07:12:59.972Z</time></trkpt><trkpt lat="44.136836" lon="10.3856137"><ele>364.0</ele><time>2026-04-11T07:13:01.963Z</time></trkpt><trkpt lat="44.136823" lon="10.3855248"><ele>364.0</ele><time>2026-04-11T07:13:03.964Z</time></trkpt><trkpt lat="44.1368128" lon="10.3854359"><ele>364.0</ele><time>2026-04-11T07:13:05.975Z</time></trkpt><trkpt lat="44.1368022" lon="10.3853453"><ele>364.0</ele><time>2026-04-11T07:13:07.977Z</time></trkpt><trkpt lat="44.13679" lon="10.385255"><ele>364.0</ele><time>2026-04-11T07:13:09.974Z</time></trkpt><trkpt lat="44.136779" lon="10.3851641"><ele>364.0</ele><time>2026-04-11T07:13:11.966Z</time></trkpt><trkpt lat="44.1367681" lon="10.3850719"><ele>364.0</ele><time>2026-04-11T07:13:13.977Z</time></trkpt><trkpt lat="44.1367565" lon="10.3849804"><ele>364.57142857142856</ele><time>2026-04-11T07:13:15.97Z</time></trkpt><trkpt lat="44.1367439" lon="10.3848903"><ele>365.1428571428571</ele><time>2026-04-11T07:13:17.959Z</time></trkpt><trkpt lat="44.1367321" lon="10.3848011"><ele>365.7142857142857</ele><time>2026-04-11T07:13:19.954Z</time></trkpt><trkpt lat="44.1367193" lon="10.3847108"><ele>366.2857142857143</ele><time>2026-04-11T07:13:21.953Z</time></trkpt><trkpt lat="44.1367079" lon="10.3846216"><ele>366.85714285714283</ele><time>2026-04-11T07:13:23.963Z</time></trkpt><trkpt lat="44.1366957" lon="10.3845323"><ele>367.42857142857144</ele><time>2026-04-11T07:13:25.977Z</time></trkpt><trkpt lat="44.136686" lon="10.3844437"><ele>368.0</ele><time>2026-04-11T07:13:27.961Z</time></trkpt><trkpt lat="44.1366765" lon="10.3843549"><ele>368.8571428571429</ele><time>2026-04-11T07:13:29.973Z</time></trkpt><trkpt lat="44.1366657" lon="10.3842623"><ele>369.71428571428567</ele><time>2026-04-11T07:13:31.967Z</time></trkpt><trkpt lat="44.1366551" lon="10.3841697"><ele>370.57142857142856</ele><time>2026-04-11T07:13:33.975Z</time></trkpt><trkpt lat="44.1366448" lon="10.3840762"><ele>371.42857142857144</ele><time>2026-04-11T07:13:35.969Z</time></trkpt><trkpt lat="44.1366333" lon="10.3839846"><ele>372.28571428571433</ele><time>2026-04-11T07:13:37.967Z</time></trkpt><trkpt lat="44.1366221" lon="10.383893"><ele>373.1428571428571</ele><time>2026-04-11T07:13:39.968Z</time></trkpt><trkpt lat="44.1366112" lon="10.3838033"><ele>374.0</ele><time>2026-04-11T07:13:41.957Z</time></trkpt><trkpt lat="44.136601" lon="10.3837164"><ele>374.0</ele><time>2026-04-11T07:13:43.967Z</time></trkpt><trkpt lat="44.1365969" lon="10.3835895"><ele>374.0</ele><time>2026-04-11T07:13:46.962Z</time></trkpt><trkpt lat="44.1365987" lon="10.3834963"><ele>374.0</ele><time>2026-04-11T07:13:48.964Z</time></trkpt><trkpt lat="44.1366125" lon="10.383402"><ele>374.0</ele><time>2026-04-11T07:13:50.98Z</time></trkpt><trkpt lat="44.1366336" lon="10.3833132"><ele>374.0</ele><time>2026-04-11T07:13:52.961Z</time></trkpt><trkpt lat="44.1366641" lon="10.3832281"><ele>374.0</ele><time>2026-04-11T07:13:54.956Z</time></trkpt><trkpt lat="44.1366974" lon="10.3831463"><ele>374.0</ele><time>2026-04-11T07:13:56.975Z</time></trkpt><trkpt lat="44.1367377" lon="10.3830708"><ele>373.0</ele><time>2026-04-11T07:13:58.956Z</time></trkpt><trkpt lat="44.1367846" lon="10.3830046"><ele>372.0</ele><time>2026-04-11T07:14:00.953Z</time></trkpt><trkpt lat="44.1368371" lon="10.3829498"><ele>371.0</ele><time>2026-04-11T07:14:02.953Z</time></trkpt><trkpt lat="44.136894" lon="10.3829023"><ele>370.0</ele><time>2026-04-11T07:14:04.963Z</time></trkpt><trkpt lat="44.1369539" lon="10.3828609"><ele>369.0</ele><time>2026-04-11T07:14:06.963Z</time></trkpt><trkpt lat="44.1370161" lon="10.3828225"><ele>368.0</ele><time>2026-04-11T07:14:08.963Z</time></trkpt><trkpt lat="44.1370781" lon="10.3827819"><ele>367.0</ele><time>2026-04-11T07:14:10.978Z</time></trkpt><trkpt lat="44.1371406" lon="10.3827492"><ele>367.0</ele><time>2026-04-11T07:14:12.963Z</time></trkpt><trkpt lat="44.1372039" lon="10.3827124"><ele>367.0</ele><time>2026-04-11T07:14:14.962Z</time></trkpt><trkpt lat="44.1372651" lon="10.3826774"><ele>367.0</ele><time>2026-04-11T07:14:16.961Z</time></trkpt><trkpt lat="44.1373263" lon="10.3826437"><ele>367.0</ele><time>2026-04-11T07:14:18.972Z</time></trkpt><trkpt lat="44.1374153" lon="10.382594"><ele>367.0</ele><time>2026-04-11T07:14:21.965Z</time></trkpt><trkpt lat="44.1374778" lon="10.3825478"><ele>367.0</ele><time>2026-04-11T07:14:23.972Z</time></trkpt><trkpt lat="44.1375342" lon="10.3824892"><ele>367.0</ele><time>2026-04-11T07:14:25.972Z</time></trkpt><trkpt lat="44.1375842" lon="10.3824226"><ele>367.4285714285714</ele><time>2026-04-11T07:14:27.973Z</time></trkpt><trkpt lat="44.1376327" lon="10.3823485"><ele>367.8571428571429</ele><time>2026-04-11T07:14:29.98Z</time></trkpt><trkpt lat="44.1376773" lon="10.3822732"><ele>368.2857142857143</ele><time>2026-04-11T07:14:31.98Z</time></trkpt><trkpt lat="44.137719" lon="10.382195"><ele>368.71428571428567</ele><time>2026-04-11T07:14:33.965Z</time></trkpt><trkpt lat="44.1377569" lon="10.3821114"><ele>369.1428571428571</ele><time>2026-04-11T07:14:35.965Z</time></trkpt><trkpt lat="44.1377915" lon="10.3820285"><ele>369.57142857142856</ele><time>2026-04-11T07:14:37.969Z</time></trkpt><trkpt lat="44.1378284" lon="10.3819482"><ele>370.0</ele><time>2026-04-11T07:14:39.966Z</time></trkpt><trkpt lat="44.1378656" lon="10.38187"><ele>369.99999999999994</ele><time>2026-04-11T07:14:41.961Z</time></trkpt><trkpt lat="44.1379076" lon="10.3817951"><ele>370.0</ele><time>2026-04-11T07:14:43.964Z</time></trkpt><trkpt lat="44.1379606" lon="10.381734"><ele>370.0</ele><time>2026-04-11T07:14:45.965Z</time></trkpt><trkpt lat="44.1380198" lon="10.3816803"><ele>370.0</ele><time>2026-04-11T07:14:47.964Z</time></trkpt><trkpt lat="44.1380837" lon="10.3816432"><ele>370.0</ele><time>2026-04-11T07:14:49.958Z</time></trkpt><trkpt lat="44.1381466" lon="10.3815978"><ele>369.99999999999994</ele><time>2026-04-11T07:14:51.962Z</time></trkpt><trkpt lat="44.1382019" lon="10.381533"><ele>370.0</ele><time>2026-04-11T07:14:53.965Z</time></trkpt><trkpt lat="44.1382471" lon="10.3814586"><ele>371.2857142857143</ele><time>2026-04-11T07:14:55.974Z</time></trkpt><trkpt lat="44.1382954" lon="10.3813835"><ele>372.57142857142856</ele><time>2026-04-11T07:14:57.966Z</time></trkpt><trkpt lat="44.138343" lon="10.3813127"><ele>373.8571428571429</ele><time>2026-04-11T07:14:59.968Z</time></trkpt><trkpt lat="44.13839" lon="10.3812455"><ele>375.1428571428571</ele><time>2026-04-11T07:15:01.964Z</time></trkpt><trkpt lat="44.1384384" lon="10.3811787"><ele>376.42857142857144</ele><time>2026-04-11T07:15:03.971Z</time></trkpt><trkpt lat="44.1384915" lon="10.3811182"><ele>377.7142857142857</ele><time>2026-04-11T07:15:05.967Z</time></trkpt><trkpt lat="44.1385456" lon="10.3810626"><ele>379.0</ele><time>2026-04-11T07:15:07.962Z</time></trkpt><trkpt lat="44.138603" lon="10.3810046"><ele>379.00000000000006</ele><time>2026-04-11T07:15:09.967Z</time></trkpt><trkpt lat="44.1386608" lon="10.3809521"><ele>379.0</ele><time>2026-04-11T07:15:11.97Z</time></trkpt><trkpt lat="44.1387175" lon="10.3808978"><ele>379.0</ele><time>2026-04-11T07:15:13.974Z</time></trkpt><trkpt lat="44.1387759" lon="10.3808426"><ele>379.0</ele><time>2026-04-11T07:15:15.981Z</time></trkpt><trkpt lat="44.1388338" lon="10.3807878"><ele>379.0</ele><time>2026-04-11T07:15:17.952Z</time></trkpt><trkpt lat="44.1388921" lon="10.380733"><ele>379.00000000000006</ele><time>2026-04-11T07:15:19.968Z</time></trkpt><trkpt lat="44.1389498" lon="10.3806777"><ele>379.0</ele><time>2026-04-11T07:15:21.962Z</time></trkpt><trkpt lat="44.1390047" lon="10.3806178"><ele>380.5</ele><time>2026-04-11T07:15:23.965Z</time></trkpt><trkpt lat="44.1390591" lon="10.3805523"><ele>382.0</ele><time>2026-04-11T07:15:25.966Z</time></trkpt><trkpt lat="44.1391085" lon="10.3804767"><ele>383.5</ele><time>2026-04-11T07:15:27.962Z</time></trkpt><trkpt lat="44.139149" lon="10.3803911"><ele>385.0</ele><time>2026-04-11T07:15:29.959Z</time></trkpt><trkpt lat="44.1391884" lon="10.3803001"><ele>386.50000000000006</ele><time>2026-04-11T07:15:31.967Z</time></trkpt><trkpt lat="44.139225" lon="10.380202"><ele>388.0</ele><time>2026-04-11T07:15:33.963Z</time></trkpt><trkpt lat="44.1392632" lon="10.3801044"><ele>388.00000000000006</ele><time>2026-04-11T07:15:35.972Z</time></trkpt><trkpt lat="44.1393025" lon="10.3800042"><ele>388.0</ele><time>2026-04-11T07:15:37.973Z</time></trkpt><trkpt lat="44.139346" lon="10.3799092"><ele>388.0</ele><time>2026-04-11T07:15:39.958Z</time></trkpt><trkpt lat="44.1393919" lon="10.3798195"><ele>388.0</ele><time>2026-04-11T07:15:41.962Z</time></trkpt><trkpt lat="44.1394398" lon="10.3797358"><ele>388.00000000000006</ele><time>2026-04-11T07:15:43.966Z</time></trkpt><trkpt lat="44.1394902" lon="10.3796531"><ele>388.0</ele><time>2026-04-11T07:15:45.971Z</time></trkpt><trkpt lat="44.1395467" lon="10.3795756"><ele>387.1666666666667</ele><time>2026-04-11T07:15:47.98Z</time></trkpt><trkpt lat="44.1396044" lon="10.3794984"><ele>386.33333333333337</ele><time>2026-04-11T07:15:49.97Z</time></trkpt><trkpt lat="44.1396635" lon="10.3794264"><ele>385.5</ele><time>2026-04-11T07:15:51.968Z</time></trkpt><trkpt lat="44.1397221" lon="10.3793483"><ele>384.6666666666667</ele><time>2026-04-11T07:15:53.961Z</time></trkpt><trkpt lat="44.1397815" lon="10.3792718"><ele>383.83333333333337</ele><time>2026-04-11T07:15:55.968Z</time></trkpt><trkpt lat="44.1398416" lon="10.379193"><ele>383.0</ele><time>2026-04-11T07:15:57.959Z</time></trkpt><trkpt lat="44.1398955" lon="10.3791128"><ele>385.33333333333337</ele><time>2026-04-11T07:15:59.953Z</time></trkpt><trkpt lat="44.1399461" lon="10.3790281"><ele>387.6666666666667</ele><time>2026-04-11T07:16:01.966Z</time></trkpt><trkpt lat="44.1399892" lon="10.3789353"><ele>390.0</ele><time>2026-04-11T07:16:03.956Z</time></trkpt><trkpt lat="44.1400264" lon="10.378835"><ele>392.33333333333337</ele><time>2026-04-11T07:16:05.962Z</time></trkpt><trkpt lat="44.1400617" lon="10.3787369"><ele>394.6666666666667</ele><time>2026-04-11T07:16:07.972Z</time></trkpt><trkpt lat="44.1400951" lon="10.3786369"><ele>397.0</ele><time>2026-04-11T07:16:09.963Z</time></trkpt><trkpt lat="44.1401296" lon="10.3785382"><ele>397.00000000000006</ele><time>2026-04-11T07:16:11.963Z</time></trkpt><trkpt lat="44.1401655" lon="10.3784469"><ele>397.0</ele><time>2026-04-11T07:16:13.963Z</time></trkpt><trkpt lat="44.140205" lon="10.3783609"><ele>397.0</ele><time>2026-04-11T07:16:15.968Z</time></trkpt><trkpt lat="44.1402499" lon="10.37828"><ele>397.0</ele><time>2026-04-11T07:16:17.968Z</time></trkpt><trkpt lat="44.1403013" lon="10.3782008"><ele>397.00000000000006</ele><time>2026-04-11T07:16:19.973Z</time></trkpt><trkpt lat="44.1403636" lon="10.3781372"><ele>397.0</ele><time>2026-04-11T07:16:21.967Z</time></trkpt><trkpt lat="44.1404334" lon="10.3780869"><ele>397.0</ele><time>2026-04-11T07:16:23.961Z</time></trkpt><trkpt lat="44.1405048" lon="10.3780524"><ele>397.0</ele><time>2026-04-11T07:16:25.971Z</time></trkpt><trkpt lat="44.1405779" lon="10.378031"><ele>397.0</ele><time>2026-04-11T07:16:27.971Z</time></trkpt><trkpt lat="44.1406516" lon="10.3780289"><ele>397.0</ele><time>2026-04-11T07:16:29.973Z</time></trkpt><trkpt lat="44.1407238" lon="10.3780287"><ele>397.0</ele><time>2026-04-11T07:16:31.961Z</time></trkpt><trkpt lat="44.1407977" lon="10.3780239"><ele>397.0</ele><time>2026-04-11T07:16:33.964Z</time></trkpt><trkpt lat="44.1408759" lon="10.3780207"><ele>397.0</ele><time>2026-04-11T07:16:35.96Z</time></trkpt><trkpt lat="44.1409572" lon="10.3780087"><ele>397.33333333333337</ele><time>2026-04-11T07:16:37.962Z</time></trkpt><trkpt lat="44.1410307" lon="10.3779872"><ele>397.6666666666667</ele><time>2026-04-11T07:16:39.984Z</time></trkpt><trkpt lat="44.1410999" lon="10.3779526"><ele>398.0</ele><time>2026-04-11T07:16:41.964Z</time></trkpt><trkpt lat="44.141168" lon="10.3778993"><ele>398.33333333333337</ele><time>2026-04-11T07:16:43.963Z</time></trkpt><trkpt lat="44.1412363" lon="10.377837"><ele>398.6666666666667</ele><time>2026-04-11T07:16:45.971Z</time></trkpt><trkpt lat="44.1412993" lon="10.3777663"><ele>399.0</ele><time>2026-04-11T07:16:47.971Z</time></trkpt><trkpt lat="44.1413599" lon="10.3776949"><ele>399.0</ele><time>2026-04-11T07:16:49.974Z</time></trkpt><trkpt lat="44.1414221" lon="10.3776333"><ele>399.0</ele><time>2026-04-11T07:16:51.967Z</time></trkpt><trkpt lat="44.1414852" lon="10.3775721"><ele>399.0</ele><time>2026-04-11T07:16:53.961Z</time></trkpt><trkpt lat="44.1415473" lon="10.3775098"><ele>399.0</ele><time>2026-04-11T07:16:55.97Z</time></trkpt><trkpt lat="44.1416121" lon="10.3774526"><ele>399.0</ele><time>2026-04-11T07:16:57.963Z</time></trkpt><trkpt lat="44.1416798" lon="10.3774049"><ele>399.0</ele><time>2026-04-11T07:16:59.967Z</time></trkpt><trkpt lat="44.1417444" lon="10.3773468"><ele>399.0</ele><time>2026-04-11T07:17:01.957Z</time></trkpt><trkpt lat="44.1418037" lon="10.3772773"><ele>399.0</ele><time>2026-04-11T07:17:03.968Z</time></trkpt><trkpt lat="44.1418576" lon="10.3772006"><ele>399.0</ele><time>2026-04-11T07:17:05.973Z</time></trkpt><trkpt lat="44.1419057" lon="10.3771172"><ele>399.0</ele><time>2026-04-11T07:17:07.967Z</time></trkpt><trkpt lat="44.1419448" lon="10.3770262"><ele>399.0</ele><time>2026-04-11T07:17:09.974Z</time></trkpt><trkpt lat="44.1419841" lon="10.3769341"><ele>399.0</ele><time>2026-04-11T07:17:11.973Z</time></trkpt><trkpt lat="44.1420234" lon="10.3768404"><ele>399.0</ele><time>2026-04-11T07:17:13.965Z</time></trkpt><trkpt lat="44.1420626" lon="10.3767438"><ele>399.0</ele><time>2026-04-11T07:17:15.972Z</time></trkpt><trkpt lat="44.1421008" lon="10.3766483"><ele>399.0</ele><time>2026-04-11T07:17:17.977Z</time></trkpt><trkpt lat="44.1421362" lon="10.3765534"><ele>399.0</ele><time>2026-04-11T07:17:19.971Z</time></trkpt><trkpt lat="44.1421703" lon="10.3764561"><ele>399.0</ele><time>2026-04-11T07:17:21.964Z</time></trkpt><trkpt lat="44.1421977" lon="10.3763521"><ele>399.0</ele><time>2026-04-11T07:17:23.956Z</time></trkpt><trkpt lat="44.1422183" lon="10.3762495"><ele>398.3333333333333</ele><time>2026-04-11T07:17:25.962Z</time></trkpt><trkpt lat="44.1422401" lon="10.376149"><ele>397.66666666666663</ele><time>2026-04-11T07:17:27.963Z</time></trkpt><trkpt lat="44.1422573" lon="10.376048"><ele>397.0</ele><time>2026-04-11T07:17:29.973Z</time></trkpt><trkpt lat="44.1422649" lon="10.3759452"><ele>396.3333333333333</ele><time>2026-04-11T07:17:31.965Z</time></trkpt><trkpt lat="44.1422698" lon="10.375837"><ele>395.66666666666663</ele><time>2026-04-11T07:17:33.973Z</time></trkpt><trkpt lat="44.1422762" lon="10.3757325"><ele>395.0</ele><time>2026-04-11T07:17:35.969Z</time></trkpt><trkpt lat="44.142281" lon="10.3756277"><ele>395.0</ele><time>2026-04-11T07:17:37.962Z</time></trkpt><trkpt lat="44.1422815" lon="10.3755208"><ele>395.0</ele><time>2026-04-11T07:17:39.968Z</time></trkpt><trkpt lat="44.1422835" lon="10.3754156"><ele>395.0</ele><time>2026-04-11T07:17:41.971Z</time></trkpt><trkpt lat="44.1422931" lon="10.3753123"><ele>395.0</ele><time>2026-04-11T07:17:43.97Z</time></trkpt><trkpt lat="44.1423069" lon="10.3752103"><ele>395.0</ele><time>2026-04-11T07:17:45.966Z</time></trkpt><trkpt lat="44.1423269" lon="10.3751121"><ele>395.0</ele><time>2026-04-11T07:17:47.971Z</time></trkpt><trkpt lat="44.1423538" lon="10.3750155"><ele>395.0</ele><time>2026-04-11T07:17:49.975Z</time></trkpt><trkpt lat="44.1423848" lon="10.3749228"><ele>396.99999999999994</ele><time>2026-04-11T07:17:51.966Z</time></trkpt><trkpt lat="44.142417" lon="10.3748267"><ele>399.0</ele><time>2026-04-11T07:17:53.963Z</time></trkpt><trkpt lat="44.142445" lon="10.3747307"><ele>401.0</ele><time>2026-04-11T07:17:55.977Z</time></trkpt><trkpt lat="44.142477" lon="10.374637"><ele>403.0</ele><time>2026-04-11T07:17:57.978Z</time></trkpt><trkpt lat="44.1425078" lon="10.3745443"><ele>404.99999999999994</ele><time>2026-04-11T07:17:59.972Z</time></trkpt><trkpt lat="44.1425382" lon="10.374447"><ele>407.0</ele><time>2026-04-11T07:18:01.956Z</time></trkpt><trkpt lat="44.1425684" lon="10.3743502"><ele>407.49999999999994</ele><time>2026-04-11T07:18:03.96Z</time></trkpt><trkpt lat="44.1425985" lon="10.3742526"><ele>408.0</ele><time>2026-04-11T07:18:05.962Z</time></trkpt><trkpt lat="44.1426295" lon="10.3741536"><ele>408.5</ele><time>2026-04-11T07:18:07.965Z</time></trkpt><trkpt lat="44.1426576" lon="10.3740536"><ele>409.0</ele><time>2026-04-11T07:18:09.961Z</time></trkpt><trkpt lat="44.1426859" lon="10.3739536"><ele>409.49999999999994</ele><time>2026-04-11T07:18:11.955Z</time></trkpt><trkpt lat="44.1427182" lon="10.3738622"><ele>410.0</ele><time>2026-04-11T07:18:13.959Z</time></trkpt><trkpt lat="44.1427584" lon="10.3737813"><ele>410.3333333333333</ele><time>2026-04-11T07:18:15.959Z</time></trkpt><trkpt lat="44.142811" lon="10.3737043"><ele>410.66666666666663</ele><time>2026-04-11T07:18:17.955Z</time></trkpt><trkpt lat="44.142875" lon="10.3736472"><ele>411.0</ele><time>2026-04-11T07:18:19.958Z</time></trkpt><trkpt lat="44.1429472" lon="10.3736264"><ele>411.33333333333337</ele><time>2026-04-11T07:18:21.957Z</time></trkpt><trkpt lat="44.1430192" lon="10.3736331"><ele>411.6666666666667</ele><time>2026-04-11T07:18:23.971Z</time></trkpt><trkpt lat="44.1430895" lon="10.3736695"><ele>412.0</ele><time>2026-04-11T07:18:25.956Z</time></trkpt><trkpt lat="44.1431579" lon="10.3737177"><ele>412.50000000000006</ele><time>2026-04-11T07:18:27.967Z</time></trkpt><trkpt lat="44.1432276" lon="10.3737701"><ele>413.0</ele><time>2026-04-11T07:18:29.958Z</time></trkpt><trkpt lat="44.1432998" lon="10.3738241"><ele>413.5</ele><time>2026-04-11T07:18:31.954Z</time></trkpt><trkpt lat="44.1433699" lon="10.3738735"><ele>414.0</ele><time>2026-04-11T07:18:33.971Z</time></trkpt><trkpt lat="44.1434371" lon="10.3739241"><ele>414.50000000000006</ele><time>2026-04-11T07:18:35.968Z</time></trkpt><trkpt lat="44.1435082" lon="10.3739717"><ele>415.0</ele><time>2026-04-11T07:18:37.962Z</time></trkpt><trkpt lat="44.1435814" lon="10.3740098"><ele>415.00000000000006</ele><time>2026-04-11T07:18:39.97Z</time></trkpt><trkpt lat="44.1436581" lon="10.3740389"><ele>415.0</ele><time>2026-04-11T07:18:41.967Z</time></trkpt><trkpt lat="44.1437366" lon="10.374059"><ele>415.0</ele><time>2026-04-11T07:18:43.967Z</time></trkpt><trkpt lat="44.1438155" lon="10.3740693"><ele>415.0</ele><time>2026-04-11T07:18:45.961Z</time></trkpt><trkpt lat="44.143894" lon="10.3740721"><ele>415.00000000000006</ele><time>2026-04-11T07:18:47.96Z</time></trkpt><trkpt lat="44.1439725" lon="10.3740621"><ele>415.0</ele><time>2026-04-11T07:18:49.968Z</time></trkpt><trkpt lat="44.1440516" lon="10.3740407"><ele>415.6666666666667</ele><time>2026-04-11T07:18:51.967Z</time></trkpt><trkpt lat="44.1441271" lon="10.3740155"><ele>416.33333333333337</ele><time>2026-04-11T07:18:53.961Z</time></trkpt><trkpt lat="44.1442009" lon="10.3739872"><ele>417.0</ele><time>2026-04-11T07:18:55.965Z</time></trkpt><trkpt lat="44.1442749" lon="10.3739495"><ele>417.66666666666663</ele><time>2026-04-11T07:18:57.967Z</time></trkpt><trkpt lat="44.1443484" lon="10.3739032"><ele>418.3333333333333</ele><time>2026-04-11T07:18:59.968Z</time></trkpt><trkpt lat="44.1444204" lon="10.3738479"><ele>419.0</ele><time>2026-04-11T07:19:01.966Z</time></trkpt><trkpt lat="44.1444894" lon="10.3737875"><ele>418.3333333333333</ele><time>2026-04-11T07:19:03.957Z</time></trkpt><trkpt lat="44.1445621" lon="10.3737255"><ele>417.66666666666663</ele><time>2026-04-11T07:19:05.961Z</time></trkpt><trkpt lat="44.144636" lon="10.3736636"><ele>417.0</ele><time>2026-04-11T07:19:07.977Z</time></trkpt><trkpt lat="44.1447107" lon="10.3736022"><ele>416.33333333333337</ele><time>2026-04-11T07:19:09.974Z</time></trkpt><trkpt lat="44.1447837" lon="10.3735407"><ele>415.6666666666667</ele><time>2026-04-11T07:19:11.977Z</time></trkpt><trkpt lat="44.1448509" lon="10.3734808"><ele>415.0</ele><time>2026-04-11T07:19:13.969Z</time></trkpt><trkpt lat="44.1449267" lon="10.3734129"><ele>415.00000000000006</ele><time>2026-04-11T07:19:15.969Z</time></trkpt><trkpt lat="44.1449995" lon="10.3733512"><ele>415.0</ele><time>2026-04-11T07:19:17.97Z</time></trkpt><trkpt lat="44.1450688" lon="10.3732881"><ele>415.0</ele><time>2026-04-11T07:19:19.974Z</time></trkpt><trkpt lat="44.1451352" lon="10.3732209"><ele>415.0</ele><time>2026-04-11T07:19:21.969Z</time></trkpt><trkpt lat="44.1452029" lon="10.3731537"><ele>415.00000000000006</ele><time>2026-04-11T07:19:23.968Z</time></trkpt><trkpt lat="44.1452729" lon="10.3730931"><ele>415.0</ele><time>2026-04-11T07:19:25.959Z</time></trkpt><trkpt lat="44.1453437" lon="10.373035"><ele>414.6666666666667</ele><time>2026-04-11T07:19:27.965Z</time></trkpt><trkpt lat="44.1454132" lon="10.3729738"><ele>414.33333333333337</ele><time>2026-04-11T07:19:29.966Z</time></trkpt><trkpt lat="44.1454818" lon="10.3729075"><ele>414.0</ele><time>2026-04-11T07:19:31.968Z</time></trkpt><trkpt lat="44.145553" lon="10.37284"><ele>413.66666666666663</ele><time>2026-04-11T07:19:33.958Z</time></trkpt><trkpt lat="44.1456277" lon="10.3727774"><ele>413.3333333333333</ele><time>2026-04-11T07:19:35.97Z</time></trkpt><trkpt lat="44.1457022" lon="10.372715"><ele>413.0</ele><time>2026-04-11T07:19:37.962Z</time></trkpt><trkpt lat="44.1457723" lon="10.3726838"><ele>413.0</ele><time>2026-04-11T07:19:39.98Z</time></trkpt><trkpt lat="44.1458553" lon="10.3727186"><ele>413.0</ele><time>2026-04-11T07:19:41.967Z</time></trkpt><trkpt lat="44.1459428" lon="10.3727563"><ele>413.0</ele><time>2026-04-11T07:19:43.967Z</time></trkpt><trkpt lat="44.146032" lon="10.3727863"><ele>413.0</ele><time>2026-04-11T07:19:45.962Z</time></trkpt><trkpt lat="44.146122" lon="10.3728111"><ele>413.0</ele><time>2026-04-11T07:19:47.961Z</time></trkpt><trkpt lat="44.1462151" lon="10.372854"><ele>412.99999999999994</ele><time>2026-04-11T07:19:49.984Z</time></trkpt><trkpt lat="44.1463024" lon="10.3728913"><ele>413.0</ele><time>2026-04-11T07:19:51.964Z</time></trkpt><trkpt lat="44.1463865" lon="10.3729161"><ele>413.0</ele><time>2026-04-11T07:19:53.965Z</time></trkpt><trkpt lat="44.1464707" lon="10.3729393"><ele>413.0</ele><time>2026-04-11T07:19:55.955Z</time></trkpt><trkpt lat="44.146559" lon="10.3729438"><ele>412.99999999999994</ele><time>2026-04-11T07:19:57.966Z</time></trkpt><trkpt lat="44.1466512" lon="10.3729274"><ele>413.0</ele><time>2026-04-11T07:19:59.961Z</time></trkpt><trkpt lat="44.1467321" lon="10.3728813"><ele>414.0</ele><time>2026-04-11T07:20:01.958Z</time></trkpt><trkpt lat="44.1468017" lon="10.3727934"><ele>415.0</ele><time>2026-04-11T07:20:03.96Z</time></trkpt><trkpt lat="44.146854" lon="10.37269"><ele>416.0</ele><time>2026-04-11T07:20:05.96Z</time></trkpt><trkpt lat="44.14688" lon="10.3725704"><ele>417.0</ele><time>2026-04-11T07:20:07.965Z</time></trkpt><trkpt lat="44.1468854" lon="10.3724481"><ele>418.0</ele><time>2026-04-11T07:20:09.962Z</time></trkpt><trkpt lat="44.146875" lon="10.3723209"><ele>418.00000000000006</ele><time>2026-04-11T07:20:11.961Z</time></trkpt><trkpt lat="44.1468575" lon="10.3721901"><ele>418.0</ele><time>2026-04-11T07:20:13.983Z</time></trkpt><trkpt lat="44.1468514" lon="10.372075"><ele>418.0</ele><time>2026-04-11T07:20:15.966Z</time></trkpt><trkpt lat="44.1468464" lon="10.3719666"><ele>418.0</ele><time>2026-04-11T07:20:17.96Z</time></trkpt><trkpt lat="44.1468472" lon="10.3718486"><ele>418.00000000000006</ele><time>2026-04-11T07:20:19.96Z</time></trkpt><trkpt lat="44.146852" lon="10.3717346"><ele>418.0</ele><time>2026-04-11T07:20:21.959Z</time></trkpt><trkpt lat="44.1468601" lon="10.3716241"><ele>418.00000000000006</ele><time>2026-04-11T07:20:23.952Z</time></trkpt><trkpt lat="44.1468714" lon="10.3715178"><ele>418.0</ele><time>2026-04-11T07:20:25.975Z</time></trkpt><trkpt lat="44.1468916" lon="10.3714105"><ele>418.0</ele><time>2026-04-11T07:20:27.969Z</time></trkpt><trkpt lat="44.146913" lon="10.3713073"><ele>418.0</ele><time>2026-04-11T07:20:29.965Z</time></trkpt><trkpt lat="44.1469373" lon="10.3712049"><ele>418.00000000000006</ele><time>2026-04-11T07:20:31.965Z</time></trkpt><trkpt lat="44.1469681" lon="10.3711078"><ele>418.0</ele><time>2026-04-11T07:20:33.976Z</time></trkpt><trkpt lat="44.147001" lon="10.37101"><ele>417.33333333333337</ele><time>2026-04-11T07:20:35.968Z</time></trkpt><trkpt lat="44.1470405" lon="10.3709177"><ele>416.6666666666667</ele><time>2026-04-11T07:20:37.969Z</time></trkpt><trkpt lat="44.1470844" lon="10.3708296"><ele>416.0</ele><time>2026-04-11T07:20:39.969Z</time></trkpt><trkpt lat="44.1471314" lon="10.370749"><ele>415.33333333333337</ele><time>2026-04-11T07:20:41.978Z</time></trkpt><trkpt lat="44.1471829" lon="10.3706731"><ele>414.6666666666667</ele><time>2026-04-11T07:20:43.971Z</time></trkpt><trkpt lat="44.1472354" lon="10.3705967"><ele>414.0</ele><time>2026-04-11T07:20:45.975Z</time></trkpt><trkpt lat="44.1472928" lon="10.3705274"><ele>414.8333333333333</ele><time>2026-04-11T07:20:47.97Z</time></trkpt><trkpt lat="44.1473515" lon="10.3704595"><ele>415.66666666666663</ele><time>2026-04-11T07:20:49.973Z</time></trkpt><trkpt lat="44.1474105" lon="10.3703952"><ele>416.5</ele><time>2026-04-11T07:20:51.973Z</time></trkpt><trkpt lat="44.1474718" lon="10.3703313"><ele>417.3333333333333</ele><time>2026-04-11T07:20:53.97Z</time></trkpt><trkpt lat="44.147535" lon="10.3702712"><ele>418.16666666666663</ele><time>2026-04-11T07:20:55.967Z</time></trkpt><trkpt lat="44.1476011" lon="10.3702189"><ele>419.0</ele><time>2026-04-11T07:20:57.97Z</time></trkpt><trkpt lat="44.1476684" lon="10.3701741"><ele>418.99999999999994</ele><time>2026-04-11T07:20:59.964Z</time></trkpt><trkpt lat="44.1477406" lon="10.3701352"><ele>419.0</ele><time>2026-04-11T07:21:01.97Z</time></trkpt><trkpt lat="44.1478137" lon="10.3700979"><ele>419.0</ele><time>2026-04-11T07:21:03.974Z</time></trkpt><trkpt lat="44.1478903" lon="10.3700729"><ele>419.0</ele><time>2026-04-11T07:21:05.968Z</time></trkpt><trkpt lat="44.1479679" lon="10.3700565"><ele>418.99999999999994</ele><time>2026-04-11T07:21:07.958Z</time></trkpt><trkpt lat="44.1480456" lon="10.370034"><ele>419.0</ele><time>2026-04-11T07:21:09.961Z</time></trkpt><trkpt lat="44.1481215" lon="10.3700057"><ele>418.99999999999994</ele><time>2026-04-11T07:21:11.964Z</time></trkpt><trkpt lat="44.1481958" lon="10.3699758"><ele>419.0</ele><time>2026-04-11T07:21:13.959Z</time></trkpt><trkpt lat="44.1482725" lon="10.3699445"><ele>419.0</ele><time>2026-04-11T07:21:15.963Z</time></trkpt><trkpt lat="44.1483453" lon="10.369907"><ele>419.0</ele><time>2026-04-11T07:21:17.966Z</time></trkpt><trkpt lat="44.1484125" lon="10.3698586"><ele>418.99999999999994</ele><time>2026-04-11T07:21:19.962Z</time></trkpt><trkpt lat="44.1484785" lon="10.3698069"><ele>419.0</ele><time>2026-04-11T07:21:21.961Z</time></trkpt><trkpt lat="44.1485421" lon="10.3697495"><ele>418.99999999999994</ele><time>2026-04-11T07:21:23.968Z</time></trkpt><trkpt lat="44.1486013" lon="10.3696733"><ele>419.0</ele><time>2026-04-11T07:21:25.963Z</time></trkpt><trkpt lat="44.1486534" lon="10.369589"><ele>419.0</ele><time>2026-04-11T07:21:27.957Z</time></trkpt><trkpt lat="44.1486971" lon="10.3695001"><ele>419.0</ele><time>2026-04-11T07:21:29.96Z</time></trkpt><trkpt lat="44.1487317" lon="10.3694016"><ele>418.99999999999994</ele><time>2026-04-11T07:21:31.964Z</time></trkpt><trkpt lat="44.1487552" lon="10.3692942"><ele>419.0</ele><time>2026-04-11T07:21:33.993Z</time></trkpt><trkpt lat="44.1487702" lon="10.3691861"><ele>418.99999999999994</ele><time>2026-04-11T07:21:35.978Z</time></trkpt><trkpt lat="44.1487817" lon="10.3690726"><ele>419.0</ele><time>2026-04-11T07:21:37.966Z</time></trkpt><trkpt lat="44.1487888" lon="10.368967"><ele>419.0</ele><time>2026-04-11T07:21:39.961Z</time></trkpt><trkpt lat="44.148789" lon="10.3688665"><ele>419.0</ele><time>2026-04-11T07:21:41.963Z</time></trkpt><trkpt lat="44.1487781" lon="10.368771"><ele>419.0</ele><time>2026-04-11T07:21:43.961Z</time></trkpt><trkpt lat="44.1487705" lon="10.3686697"><ele>418.99999999999994</ele><time>2026-04-11T07:21:45.982Z</time></trkpt><trkpt lat="44.1487691" lon="10.3685723"><ele>419.0</ele><time>2026-04-11T07:21:47.977Z</time></trkpt><trkpt lat="44.1487656" lon="10.3684722"><ele>417.8333333333333</ele><time>2026-04-11T07:21:49.965Z</time></trkpt><trkpt lat="44.1487667" lon="10.3683684"><ele>416.66666666666663</ele><time>2026-04-11T07:21:51.973Z</time></trkpt><trkpt lat="44.148776" lon="10.3682629"><ele>415.5</ele><time>2026-04-11T07:21:53.987Z</time></trkpt><trkpt lat="44.1487904" lon="10.3681514"><ele>414.33333333333337</ele><time>2026-04-11T07:21:55.957Z</time></trkpt><trkpt lat="44.1488076" lon="10.3680517"><ele>413.1666666666667</ele><time>2026-04-11T07:21:57.958Z</time></trkpt><trkpt lat="44.1488427" lon="10.3679569"><ele>412.0</ele><time>2026-04-11T07:21:59.956Z</time></trkpt><trkpt lat="44.1488943" lon="10.3678799"><ele>411.4285714285714</ele><time>2026-04-11T07:22:01.954Z</time></trkpt><trkpt lat="44.1489596" lon="10.367837"><ele>410.85714285714283</ele><time>2026-04-11T07:22:04Z</time></trkpt><trkpt lat="44.1490325" lon="10.3678044"><ele>410.2857142857143</ele><time>2026-04-11T07:22:05.957Z</time></trkpt><trkpt lat="44.1491018" lon="10.367767"><ele>409.71428571428567</ele><time>2026-04-11T07:22:07.962Z</time></trkpt><trkpt lat="44.1491692" lon="10.3677304"><ele>409.14285714285717</ele><time>2026-04-11T07:22:09.969Z</time></trkpt><trkpt lat="44.1492403" lon="10.3676985"><ele>408.57142857142856</ele><time>2026-04-11T07:22:11.97Z</time></trkpt><trkpt lat="44.1493094" lon="10.3676652"><ele>408.0</ele><time>2026-04-11T07:22:13.974Z</time></trkpt><trkpt lat="44.1493849" lon="10.3676328"><ele>410.1666666666667</ele><time>2026-04-11T07:22:15.974Z</time></trkpt><trkpt lat="44.149456" lon="10.3675978"><ele>412.33333333333337</ele><time>2026-04-11T07:22:17.968Z</time></trkpt><trkpt lat="44.1495283" lon="10.3675634"><ele>414.5</ele><time>2026-04-11T07:22:19.968Z</time></trkpt><trkpt lat="44.149605" lon="10.3675297"><ele>416.6666666666667</ele><time>2026-04-11T07:22:21.969Z</time></trkpt><trkpt lat="44.1496799" lon="10.3674949"><ele>418.83333333333337</ele><time>2026-04-11T07:22:23.973Z</time></trkpt><trkpt lat="44.1497516" lon="10.3674589"><ele>421.0</ele><time>2026-04-11T07:22:25.966Z</time></trkpt><trkpt lat="44.1498212" lon="10.367424"><ele>422.6666666666667</ele><time>2026-04-11T07:22:27.962Z</time></trkpt><trkpt lat="44.1498911" lon="10.3673882"><ele>424.33333333333337</ele><time>2026-04-11T07:22:29.977Z</time></trkpt><trkpt lat="44.1499636" lon="10.3673533"><ele>426.0</ele><time>2026-04-11T07:22:31.959Z</time></trkpt><trkpt lat="44.1500358" lon="10.3673177"><ele>427.66666666666663</ele><time>2026-04-11T07:22:33.967Z</time></trkpt><trkpt lat="44.1501075" lon="10.367282"><ele>429.3333333333333</ele><time>2026-04-11T07:22:35.973Z</time></trkpt><trkpt lat="44.1501791" lon="10.3672485"><ele>431.0</ele><time>2026-04-11T07:22:37.971Z</time></trkpt><trkpt lat="44.1502534" lon="10.3672239"><ele>430.99999999999994</ele><time>2026-04-11T07:22:39.969Z</time></trkpt><trkpt lat="44.1503325" lon="10.3672104"><ele>431.0</ele><time>2026-04-11T07:22:41.969Z</time></trkpt><trkpt lat="44.1504109" lon="10.3672084"><ele>431.0</ele><time>2026-04-11T07:22:43.971Z</time></trkpt><trkpt lat="44.150492" lon="10.3672155"><ele>431.0</ele><time>2026-04-11T07:22:45.969Z</time></trkpt><trkpt lat="44.1505712" lon="10.3672378"><ele>430.99999999999994</ele><time>2026-04-11T07:22:47.972Z</time></trkpt><trkpt lat="44.1506443" lon="10.3672575"><ele>431.0</ele><time>2026-04-11T07:22:49.97Z</time></trkpt><trkpt lat="44.1507162" lon="10.3672611"><ele>432.3333333333333</ele><time>2026-04-11T07:22:51.977Z</time></trkpt><trkpt lat="44.1507869" lon="10.3672444"><ele>433.66666666666663</ele><time>2026-04-11T07:22:53.965Z</time></trkpt><trkpt lat="44.1508567" lon="10.3671995"><ele>435.0</ele><time>2026-04-11T07:22:55.963Z</time></trkpt><trkpt lat="44.1509278" lon="10.3671504"><ele>436.33333333333337</ele><time>2026-04-11T07:22:57.969Z</time></trkpt><trkpt lat="44.1510088" lon="10.3670986"><ele>437.6666666666667</ele><time>2026-04-11T07:22:59.97Z</time></trkpt><trkpt lat="44.1510873" lon="10.3670442"><ele>439.0</ele><time>2026-04-11T07:23:01.967Z</time></trkpt><trkpt lat="44.1511676" lon="10.3669949"><ele>437.83333333333337</ele><time>2026-04-11T07:23:03.971Z</time></trkpt><trkpt lat="44.1512505" lon="10.366958"><ele>436.6666666666667</ele><time>2026-04-11T07:23:05.966Z</time></trkpt><trkpt lat="44.151334" lon="10.3669254"><ele>435.5</ele><time>2026-04-11T07:23:07.96Z</time></trkpt><trkpt lat="44.151422" lon="10.3669081"><ele>434.33333333333337</ele><time>2026-04-11T07:23:09.963Z</time></trkpt><trkpt lat="44.1515128" lon="10.3668892"><ele>433.1666666666667</ele><time>2026-04-11T07:23:11.954Z</time></trkpt><trkpt lat="44.1515963" lon="10.3668717"><ele>432.0</ele><time>2026-04-11T07:23:13.979Z</time></trkpt><trkpt lat="44.1516833" lon="10.3668546"><ele>432.0</ele><time>2026-04-11T07:23:15.975Z</time></trkpt><trkpt lat="44.1517682" lon="10.3668488"><ele>432.0</ele><time>2026-04-11T07:23:17.977Z</time></trkpt><trkpt lat="44.1518573" lon="10.366846"><ele>432.0</ele><time>2026-04-11T07:23:19.968Z</time></trkpt><trkpt lat="44.1519465" lon="10.3668272"><ele>432.0</ele><time>2026-04-11T07:23:21.961Z</time></trkpt><trkpt lat="44.1520324" lon="10.3667757"><ele>432.0</ele><time>2026-04-11T07:23:23.976Z</time></trkpt><trkpt lat="44.1521068" lon="10.3667054"><ele>432.0</ele><time>2026-04-11T07:23:25.976Z</time></trkpt><trkpt lat="44.1521711" lon="10.3666173"><ele>432.0</ele><time>2026-04-11T07:23:27.962Z</time></trkpt><trkpt lat="44.1522355" lon="10.36653"><ele>432.0</ele><time>2026-04-11T07:23:29.954Z</time></trkpt><trkpt lat="44.1523124" lon="10.3664587"><ele>432.0</ele><time>2026-04-11T07:23:31.963Z</time></trkpt><trkpt lat="44.1523912" lon="10.3664097"><ele>432.0</ele><time>2026-04-11T07:23:33.962Z</time></trkpt><trkpt lat="44.1524777" lon="10.3663745"><ele>432.0</ele><time>2026-04-11T07:23:35.964Z</time></trkpt><trkpt lat="44.1525667" lon="10.3663623"><ele>432.0</ele><time>2026-04-11T07:23:37.969Z</time></trkpt><trkpt lat="44.1526576" lon="10.3663601"><ele>433.0</ele><time>2026-04-11T07:23:39.964Z</time></trkpt><trkpt lat="44.1527494" lon="10.3663607"><ele>434.0</ele><time>2026-04-11T07:23:41.962Z</time></trkpt><trkpt lat="44.1528403" lon="10.3663742"><ele>435.0</ele><time>2026-04-11T07:23:43.973Z</time></trkpt><trkpt lat="44.1529261" lon="10.3663815"><ele>436.0</ele><time>2026-04-11T07:23:45.97Z</time></trkpt><trkpt lat="44.1530149" lon="10.366386"><ele>437.0</ele><time>2026-04-11T07:23:47.962Z</time></trkpt><trkpt lat="44.1531019" lon="10.366394"><ele>438.0</ele><time>2026-04-11T07:23:49.961Z</time></trkpt><trkpt lat="44.1531933" lon="10.3664023"><ele>439.1666666666667</ele><time>2026-04-11T07:23:51.969Z</time></trkpt><trkpt lat="44.1532818" lon="10.3664087"><ele>440.33333333333337</ele><time>2026-04-11T07:23:53.961Z</time></trkpt><trkpt lat="44.1533687" lon="10.3664099"><ele>441.5</ele><time>2026-04-11T07:23:55.964Z</time></trkpt><trkpt lat="44.1534563" lon="10.3664169"><ele>442.6666666666667</ele><time>2026-04-11T07:23:57.956Z</time></trkpt><trkpt lat="44.1535487" lon="10.3664271"><ele>443.83333333333337</ele><time>2026-04-11T07:23:59.956Z</time></trkpt><trkpt lat="44.1536362" lon="10.3664353"><ele>445.0</ele><time>2026-04-11T07:24:01.957Z</time></trkpt><trkpt lat="44.1537217" lon="10.3664416"><ele>445.00000000000006</ele><time>2026-04-11T07:24:03.96Z</time></trkpt><trkpt lat="44.1538097" lon="10.3664476"><ele>445.0</ele><time>2026-04-11T07:24:05.97Z</time></trkpt><trkpt lat="44.1538985" lon="10.3664596"><ele>445.0</ele><time>2026-04-11T07:24:07.964Z</time></trkpt><trkpt lat="44.1539847" lon="10.3664739"><ele>445.0</ele><time>2026-04-11T07:24:09.967Z</time></trkpt><trkpt lat="44.1540741" lon="10.3664984"><ele>445.00000000000006</ele><time>2026-04-11T07:24:11.963Z</time></trkpt><trkpt lat="44.1541602" lon="10.3665261"><ele>445.0</ele><time>2026-04-11T07:24:13.962Z</time></trkpt><trkpt lat="44.1542442" lon="10.3665638"><ele>444.6</ele><time>2026-04-11T07:24:15.967Z</time></trkpt><trkpt lat="44.1543308" lon="10.3666032"><ele>444.2</ele><time>2026-04-11T07:24:17.967Z</time></trkpt><trkpt lat="44.1544173" lon="10.3666469"><ele>443.79999999999995</ele><time>2026-04-11T07:24:19.958Z</time></trkpt><trkpt lat="44.1545018" lon="10.3666948"><ele>443.4</ele><time>2026-04-11T07:24:21.962Z</time></trkpt><trkpt lat="44.1545823" lon="10.3667505"><ele>443.0</ele><time>2026-04-11T07:24:23.977Z</time></trkpt><trkpt lat="44.1546639" lon="10.366796"><ele>442.99999999999994</ele><time>2026-04-11T07:24:25.969Z</time></trkpt><trkpt lat="44.1547494" lon="10.3668267"><ele>443.0</ele><time>2026-04-11T07:24:27.977Z</time></trkpt><trkpt lat="44.1548311" lon="10.3668394"><ele>443.0</ele><time>2026-04-11T07:24:29.967Z</time></trkpt><trkpt lat="44.1549194" lon="10.3668281"><ele>443.0</ele><time>2026-04-11T07:24:31.967Z</time></trkpt><trkpt lat="44.1550025" lon="10.3667841"><ele>442.99999999999994</ele><time>2026-04-11T07:24:33.969Z</time></trkpt><trkpt lat="44.1550763" lon="10.3667119"><ele>443.0</ele><time>2026-04-11T07:24:35.962Z</time></trkpt><trkpt lat="44.1551493" lon="10.3666214"><ele>442.4</ele><time>2026-04-11T07:24:37.957Z</time></trkpt><trkpt lat="44.155219" lon="10.3665365"><ele>441.79999999999995</ele><time>2026-04-11T07:24:39.974Z</time></trkpt><trkpt lat="44.1552876" lon="10.366441"><ele>441.2</ele><time>2026-04-11T07:24:41.985Z</time></trkpt><trkpt lat="44.1553492" lon="10.3663518"><ele>440.6</ele><time>2026-04-11T07:24:43.963Z</time></trkpt><trkpt lat="44.1554186" lon="10.3662537"><ele>440.0</ele><time>2026-04-11T07:24:45.974Z</time></trkpt><trkpt lat="44.1554832" lon="10.3661744"><ele>439.66666666666663</ele><time>2026-04-11T07:24:47.968Z</time></trkpt><trkpt lat="44.1555619" lon="10.3661113"><ele>439.3333333333333</ele><time>2026-04-11T07:24:49.976Z</time></trkpt><trkpt lat="44.1556399" lon="10.3660709"><ele>439.0</ele><time>2026-04-11T07:24:51.973Z</time></trkpt><trkpt lat="44.155732" lon="10.36606"><ele>438.66666666666663</ele><time>2026-04-11T07:24:53.973Z</time></trkpt><trkpt lat="44.1558181" lon="10.366065"><ele>438.3333333333333</ele><time>2026-04-11T07:24:55.97Z</time></trkpt><trkpt lat="44.1558957" lon="10.3660806"><ele>438.0</ele><time>2026-04-11T07:24:57.969Z</time></trkpt><trkpt lat="44.1559749" lon="10.3660891"><ele>438.0</ele><time>2026-04-11T07:24:59.963Z</time></trkpt><trkpt lat="44.1560507" lon="10.3660841"><ele>438.0</ele><time>2026-04-11T07:25:01.963Z</time></trkpt><trkpt lat="44.1561204" lon="10.3660549"><ele>438.0</ele><time>2026-04-11T07:25:03.965Z</time></trkpt><trkpt lat="44.1561844" lon="10.3659994"><ele>438.0</ele><time>2026-04-11T07:25:05.958Z</time></trkpt><trkpt lat="44.1562367" lon="10.3659231"><ele>438.0</ele><time>2026-04-11T07:25:07.968Z</time></trkpt><trkpt lat="44.1562833" lon="10.3658422"><ele>438.0</ele><time>2026-04-11T07:25:09.974Z</time></trkpt><trkpt lat="44.156331" lon="10.36575"><ele>438.0</ele><time>2026-04-11T07:25:11.963Z</time></trkpt><trkpt lat="44.1563767" lon="10.3656509"><ele>438.0</ele><time>2026-04-11T07:25:13.974Z</time></trkpt><trkpt lat="44.1564214" lon="10.3655581"><ele>438.0</ele><time>2026-04-11T07:25:15.961Z</time></trkpt><trkpt lat="44.1564584" lon="10.3654724"><ele>438.0</ele><time>2026-04-11T07:25:17.964Z</time></trkpt><trkpt lat="44.1564822" lon="10.3653785"><ele>438.0</ele><time>2026-04-11T07:25:19.964Z</time></trkpt><trkpt lat="44.1564883" lon="10.365275"><ele>438.0</ele><time>2026-04-11T07:25:21.973Z</time></trkpt><trkpt lat="44.1564762" lon="10.3651694"><ele>437.5</ele><time>2026-04-11T07:25:23.962Z</time></trkpt><trkpt lat="44.1564441" lon="10.3650664"><ele>437.0</ele><time>2026-04-11T07:25:25.97Z</time></trkpt><trkpt lat="44.1564022" lon="10.3649749"><ele>436.5</ele><time>2026-04-11T07:25:27.971Z</time></trkpt><trkpt lat="44.1563513" lon="10.3648891"><ele>436.0</ele><time>2026-04-11T07:25:29.964Z</time></trkpt><trkpt lat="44.1563048" lon="10.3647987"><ele>435.5</ele><time>2026-04-11T07:25:31.974Z</time></trkpt><trkpt lat="44.15627" lon="10.3647009"><ele>435.0</ele><time>2026-04-11T07:25:33.965Z</time></trkpt><trkpt lat="44.1562457" lon="10.3645935"><ele>434.8333333333333</ele><time>2026-04-11T07:25:35.962Z</time></trkpt><trkpt lat="44.1562331" lon="10.3644834"><ele>434.66666666666663</ele><time>2026-04-11T07:25:37.958Z</time></trkpt><trkpt lat="44.1562354" lon="10.3643695"><ele>434.5</ele><time>2026-04-11T07:25:39.972Z</time></trkpt><trkpt lat="44.1562508" lon="10.3642606"><ele>434.3333333333333</ele><time>2026-04-11T07:25:41.962Z</time></trkpt><trkpt lat="44.1562738" lon="10.3641521"><ele>434.16666666666663</ele><time>2026-04-11T07:25:43.96Z</time></trkpt><trkpt lat="44.1562944" lon="10.3640425"><ele>434.0</ele><time>2026-04-11T07:25:45.964Z</time></trkpt><trkpt lat="44.1563163" lon="10.3639394"><ele>434.6</ele><time>2026-04-11T07:25:47.967Z</time></trkpt><trkpt lat="44.1563376" lon="10.3638131"><ele>435.2</ele><time>2026-04-11T07:25:49.968Z</time></trkpt><trkpt lat="44.1563605" lon="10.3636882"><ele>435.80000000000007</ele><time>2026-04-11T07:25:51.965Z</time></trkpt><trkpt lat="44.1563886" lon="10.3635628"><ele>436.40000000000003</ele><time>2026-04-11T07:25:53.961Z</time></trkpt><trkpt lat="44.1564117" lon="10.3634342"><ele>437.0</ele><time>2026-04-11T07:25:55.963Z</time></trkpt><trkpt lat="44.1564362" lon="10.3633159"><ele>436.99999999999994</ele><time>2026-04-11T07:25:57.969Z</time></trkpt><trkpt lat="44.1564625" lon="10.363198"><ele>437.0</ele><time>2026-04-11T07:25:59.956Z</time></trkpt><trkpt lat="44.1564856" lon="10.363104"><ele>437.0</ele><time>2026-04-11T07:26:01.966Z</time></trkpt><trkpt lat="44.1565056" lon="10.363019"><ele>437.0</ele><time>2026-04-11T07:26:03.964Z</time></trkpt><trkpt lat="44.1565356" lon="10.3629093"><ele>436.99999999999994</ele><time>2026-04-11T07:26:06.956Z</time></trkpt><trkpt lat="44.1565638" lon="10.3627989"><ele>437.0</ele><time>2026-04-11T07:26:09.955Z</time></trkpt><trkpt lat="44.1565917" lon="10.3626929"><ele>439.49999999999994</ele><time>2026-04-11T07:26:12.963Z</time></trkpt><trkpt lat="44.1566205" lon="10.3625865"><ele>442.0</ele><time>2026-04-11T07:26:15.973Z</time></trkpt><trkpt lat="44.1566546" lon="10.3624846"><ele>444.5</ele><time>2026-04-11T07:26:18.959Z</time></trkpt><trkpt lat="44.1566993" lon="10.3623988"><ele>447.0</ele><time>2026-04-11T07:26:21.976Z</time></trkpt><trkpt lat="44.1567671" lon="10.3623402"><ele>449.49999999999994</ele><time>2026-04-11T07:26:24.981Z</time></trkpt><trkpt lat="44.1568443" lon="10.3623213"><ele>452.0</ele><time>2026-04-11T07:26:27.969Z</time></trkpt><trkpt lat="44.156931" lon="10.3623283"><ele>451.99999999999994</ele><time>2026-04-11T07:26:30.968Z</time></trkpt><trkpt lat="44.1570145" lon="10.3623384"><ele>452.0</ele><time>2026-04-11T07:26:33.953Z</time></trkpt><trkpt lat="44.1571022" lon="10.3623448"><ele>452.0</ele><time>2026-04-11T07:26:36.974Z</time></trkpt><trkpt lat="44.1571881" lon="10.3623445"><ele>452.0</ele><time>2026-04-11T07:26:39.978Z</time></trkpt><trkpt lat="44.1572689" lon="10.3623254"><ele>451.99999999999994</ele><time>2026-04-11T07:26:42.971Z</time></trkpt><trkpt lat="44.1573462" lon="10.3622687"><ele>452.0</ele><time>2026-04-11T07:26:45.976Z</time></trkpt><trkpt lat="44.1573967" lon="10.3622088"><ele>452.66666666666663</ele><time>2026-04-11T07:26:47.969Z</time></trkpt><trkpt lat="44.1574599" lon="10.362114"><ele>453.3333333333333</ele><time>2026-04-11T07:26:50.968Z</time></trkpt><trkpt lat="44.1575262" lon="10.3620258"><ele>454.0</ele><time>2026-04-11T07:26:53.965Z</time></trkpt><trkpt lat="44.1575743" lon="10.3619675"><ele>454.66666666666663</ele><time>2026-04-11T07:26:55.967Z</time></trkpt><trkpt lat="44.157642" lon="10.3618812"><ele>455.3333333333333</ele><time>2026-04-11T07:26:58.97Z</time></trkpt><trkpt lat="44.1577095" lon="10.3617962"><ele>456.0</ele><time>2026-04-11T07:27:01.957Z</time></trkpt><trkpt lat="44.1577726" lon="10.3617098"><ele>456.0</ele><time>2026-04-11T07:27:04.966Z</time></trkpt><trkpt lat="44.1578417" lon="10.361632"><ele>456.0</ele><time>2026-04-11T07:27:07.968Z</time></trkpt><trkpt lat="44.1579072" lon="10.361542"><ele>456.0</ele><time>2026-04-11T07:27:10.97Z</time></trkpt><trkpt lat="44.157967" lon="10.3614525"><ele>456.0</ele><time>2026-04-11T07:27:13.964Z</time></trkpt><trkpt lat="44.1580258" lon="10.361345"><ele>456.0</ele><time>2026-04-11T07:27:16.966Z</time></trkpt><trkpt lat="44.1580605" lon="10.3612626"><ele>456.0</ele><time>2026-04-11T07:27:18.962Z</time></trkpt><trkpt lat="44.1580893" lon="10.3611752"><ele>456.85714285714283</ele><time>2026-04-11T07:27:20.972Z</time></trkpt><trkpt lat="44.1581079" lon="10.3610798"><ele>457.71428571428567</ele><time>2026-04-11T07:27:22.977Z</time></trkpt><trkpt lat="44.1581273" lon="10.3609864"><ele>458.57142857142856</ele><time>2026-04-11T07:27:24.98Z</time></trkpt><trkpt lat="44.1581463" lon="10.360896"><ele>459.42857142857144</ele><time>2026-04-11T07:27:26.96Z</time></trkpt><trkpt lat="44.1581652" lon="10.3608042"><ele>460.2857142857143</ele><time>2026-04-11T07:27:28.964Z</time></trkpt><trkpt lat="44.1581818" lon="10.360713"><ele>461.1428571428571</ele><time>2026-04-11T07:27:30.967Z</time></trkpt><trkpt lat="44.1582011" lon="10.3606216"><ele>462.0</ele><time>2026-04-11T07:27:32.957Z</time></trkpt><trkpt lat="44.1582219" lon="10.3605306"><ele>462.0</ele><time>2026-04-11T07:27:34.961Z</time></trkpt><trkpt lat="44.1582407" lon="10.3604426"><ele>462.0</ele><time>2026-04-11T07:27:36.97Z</time></trkpt><trkpt lat="44.1582588" lon="10.360357"><ele>462.0</ele><time>2026-04-11T07:27:38.964Z</time></trkpt><trkpt lat="44.1582791" lon="10.3602712"><ele>462.0</ele><time>2026-04-11T07:27:40.961Z</time></trkpt><trkpt lat="44.1583102" lon="10.3601836"><ele>462.0</ele><time>2026-04-11T07:27:42.965Z</time></trkpt><trkpt lat="44.1583522" lon="10.3601031"><ele>462.0</ele><time>2026-04-11T07:27:44.966Z</time></trkpt><trkpt lat="44.1584032" lon="10.3600383"><ele>462.0</ele><time>2026-04-11T07:27:46.963Z</time></trkpt><trkpt lat="44.1584617" lon="10.3599908"><ele>462.0</ele><time>2026-04-11T07:27:48.958Z</time></trkpt><trkpt lat="44.158526" lon="10.359956"><ele>462.0</ele><time>2026-04-11T07:27:50.957Z</time></trkpt><trkpt lat="44.1585915" lon="10.3599357"><ele>462.0</ele><time>2026-04-11T07:27:52.963Z</time></trkpt><trkpt lat="44.1586572" lon="10.3599202"><ele>462.0</ele><time>2026-04-11T07:27:54.959Z</time></trkpt><trkpt lat="44.1587249" lon="10.3598993"><ele>462.0</ele><time>2026-04-11T07:27:56.957Z</time></trkpt><trkpt lat="44.1587931" lon="10.3598801"><ele>462.0</ele><time>2026-04-11T07:27:58.962Z</time></trkpt><trkpt lat="44.1588619" lon="10.3598585"><ele>462.0</ele><time>2026-04-11T07:28:00.968Z</time></trkpt><trkpt lat="44.1589258" lon="10.3598406"><ele>462.0</ele><time>2026-04-11T07:28:02.965Z</time></trkpt><trkpt lat="44.1589915" lon="10.3598227"><ele>462.0</ele><time>2026-04-11T07:28:04.962Z</time></trkpt><trkpt lat="44.1590856" lon="10.3597976"><ele>462.0</ele><time>2026-04-11T07:28:07.96Z</time></trkpt><trkpt lat="44.1591555" lon="10.3597754"><ele>462.0</ele><time>2026-04-11T07:28:09.96Z</time></trkpt><trkpt lat="44.1592263" lon="10.359748"><ele>462.0</ele><time>2026-04-11T07:28:11.965Z</time></trkpt><trkpt lat="44.159294" lon="10.3597154"><ele>462.0</ele><time>2026-04-11T07:28:13.957Z</time></trkpt><trkpt lat="44.1593621" lon="10.3596889"><ele>461.7142857142857</ele><time>2026-04-11T07:28:15.983Z</time></trkpt><trkpt lat="44.1594301" lon="10.3596645"><ele>461.42857142857144</ele><time>2026-04-11T07:28:17.98Z</time></trkpt><trkpt lat="44.1594964" lon="10.359635"><ele>461.1428571428571</ele><time>2026-04-11T07:28:19.967Z</time></trkpt><trkpt lat="44.1595639" lon="10.3595993"><ele>460.85714285714283</ele><time>2026-04-11T07:28:21.973Z</time></trkpt><trkpt lat="44.1596326" lon="10.3595639"><ele>460.57142857142856</ele><time>2026-04-11T07:28:23.976Z</time></trkpt><trkpt lat="44.1597024" lon="10.3595289"><ele>460.2857142857142</ele><time>2026-04-11T07:28:25.965Z</time></trkpt><trkpt lat="44.1597673" lon="10.3594906"><ele>459.99999999999994</ele><time>2026-04-11T07:28:27.98Z</time></trkpt><trkpt lat="44.1598347" lon="10.3594448"><ele>462.6666666666667</ele><time>2026-04-11T07:28:29.966Z</time></trkpt><trkpt lat="44.1599027" lon="10.3593945"><ele>465.33333333333337</ele><time>2026-04-11T07:28:31.963Z</time></trkpt><trkpt lat="44.1599681" lon="10.3593378"><ele>468.0</ele><time>2026-04-11T07:28:33.968Z</time></trkpt><trkpt lat="44.1600287" lon="10.3592727"><ele>470.66666666666663</ele><time>2026-04-11T07:28:35.962Z</time></trkpt><trkpt lat="44.1600883" lon="10.3592041"><ele>473.3333333333333</ele><time>2026-04-11T07:28:37.962Z</time></trkpt><trkpt lat="44.1601436" lon="10.3591266"><ele>476.0</ele><time>2026-04-11T07:28:39.965Z</time></trkpt><trkpt lat="44.160196" lon="10.3590442"><ele>475.99999999999994</ele><time>2026-04-11T07:28:41.968Z</time></trkpt><trkpt lat="44.1602466" lon="10.3589612"><ele>476.0</ele><time>2026-04-11T07:28:43.971Z</time></trkpt><trkpt lat="44.1602966" lon="10.3588772"><ele>476.0</ele><time>2026-04-11T07:28:45.967Z</time></trkpt><trkpt lat="44.1603476" lon="10.3587929"><ele>476.0</ele><time>2026-04-11T07:28:47.964Z</time></trkpt><trkpt lat="44.1604016" lon="10.3587123"><ele>475.99999999999994</ele><time>2026-04-11T07:28:49.961Z</time></trkpt><trkpt lat="44.1604553" lon="10.3586304"><ele>476.0</ele><time>2026-04-11T07:28:51.967Z</time></trkpt><trkpt lat="44.1605072" lon="10.3585438"><ele>475.16666666666663</ele><time>2026-04-11T07:28:53.964Z</time></trkpt><trkpt lat="44.1605619" lon="10.3584587"><ele>474.3333333333333</ele><time>2026-04-11T07:28:55.964Z</time></trkpt><trkpt lat="44.1606154" lon="10.3583785"><ele>473.5</ele><time>2026-04-11T07:28:57.958Z</time></trkpt><trkpt lat="44.1606675" lon="10.3582953"><ele>472.66666666666663</ele><time>2026-04-11T07:28:59.962Z</time></trkpt><trkpt lat="44.1607199" lon="10.3582118"><ele>471.8333333333333</ele><time>2026-04-11T07:29:01.958Z</time></trkpt><trkpt lat="44.160776" lon="10.3581263"><ele>471.0</ele><time>2026-04-11T07:29:03.963Z</time></trkpt><trkpt lat="44.1608293" lon="10.3580357"><ele>473.0</ele><time>2026-04-11T07:29:05.96Z</time></trkpt><trkpt lat="44.1608777" lon="10.3579407"><ele>475.0</ele><time>2026-04-11T07:29:07.959Z</time></trkpt><trkpt lat="44.1609228" lon="10.3578447"><ele>477.0</ele><time>2026-04-11T07:29:09.963Z</time></trkpt><trkpt lat="44.1609624" lon="10.3577449"><ele>479.0</ele><time>2026-04-11T07:29:11.962Z</time></trkpt><trkpt lat="44.1609945" lon="10.3576375"><ele>481.0</ele><time>2026-04-11T07:29:13.966Z</time></trkpt><trkpt lat="44.161025" lon="10.3575291"><ele>483.0</ele><time>2026-04-11T07:29:15.966Z</time></trkpt><trkpt lat="44.1610555" lon="10.3574246"><ele>483.0</ele><time>2026-04-11T07:29:17.968Z</time></trkpt><trkpt lat="44.1610847" lon="10.3573204"><ele>483.0</ele><time>2026-04-11T07:29:19.967Z</time></trkpt><trkpt lat="44.1611131" lon="10.3572165"><ele>483.0</ele><time>2026-04-11T07:29:21.969Z</time></trkpt><trkpt lat="44.1611407" lon="10.3571153"><ele>483.0</ele><time>2026-04-11T07:29:23.968Z</time></trkpt><trkpt lat="44.1611691" lon="10.3570106"><ele>483.0</ele><time>2026-04-11T07:29:25.958Z</time></trkpt><trkpt lat="44.1612017" lon="10.356904"><ele>483.0</ele><time>2026-04-11T07:29:27.983Z</time></trkpt><trkpt lat="44.1612373" lon="10.3567966"><ele>483.0</ele><time>2026-04-11T07:29:29.962Z</time></trkpt><trkpt lat="44.1612655" lon="10.3566853"><ele>483.0</ele><time>2026-04-11T07:29:31.96Z</time></trkpt><trkpt lat="44.1613" lon="10.3565732"><ele>483.0</ele><time>2026-04-11T07:29:33.961Z</time></trkpt><trkpt lat="44.1613317" lon="10.3564616"><ele>483.0</ele><time>2026-04-11T07:29:35.959Z</time></trkpt><trkpt lat="44.1613631" lon="10.3563471"><ele>483.0</ele><time>2026-04-11T07:29:37.964Z</time></trkpt><trkpt lat="44.1613977" lon="10.3562308"><ele>483.0</ele><time>2026-04-11T07:29:39.979Z</time></trkpt><trkpt lat="44.1614448" lon="10.3560575"><ele>483.0</ele><time>2026-04-11T07:29:42.963Z</time></trkpt><trkpt lat="44.1614628" lon="10.3559387"><ele>483.0</ele><time>2026-04-11T07:29:44.96Z</time></trkpt><trkpt lat="44.1614544" lon="10.355821"><ele>483.0</ele><time>2026-04-11T07:29:46.968Z</time></trkpt><trkpt lat="44.1614164" lon="10.3557186"><ele>483.0</ele><time>2026-04-11T07:29:48.97Z</time></trkpt><trkpt lat="44.1613526" lon="10.3556246"><ele>483.0</ele><time>2026-04-11T07:29:50.967Z</time></trkpt><trkpt lat="44.1612838" lon="10.3555374"><ele>483.0</ele><time>2026-04-11T07:29:52.971Z</time></trkpt><trkpt lat="44.1612201" lon="10.3554521"><ele>484.5</ele><time>2026-04-11T07:29:54.968Z</time></trkpt><trkpt lat="44.1611544" lon="10.3553654"><ele>486.0</ele><time>2026-04-11T07:29:56.968Z</time></trkpt><trkpt lat="44.1610883" lon="10.3552788"><ele>487.5</ele><time>2026-04-11T07:29:58.968Z</time></trkpt><trkpt lat="44.161022" lon="10.3551888"><ele>489.0</ele><time>2026-04-11T07:30:00.962Z</time></trkpt><trkpt lat="44.1609541" lon="10.3551034"><ele>490.5</ele><time>2026-04-11T07:30:02.969Z</time></trkpt><trkpt lat="44.1608942" lon="10.3550268"><ele>492.0</ele><time>2026-04-11T07:30:04.964Z</time></trkpt><trkpt lat="44.1608363" lon="10.3549385"><ele>492.0</ele><time>2026-04-11T07:30:06.972Z</time></trkpt><trkpt lat="44.1607689" lon="10.3548592"><ele>492.0</ele><time>2026-04-11T07:30:08.981Z</time></trkpt><trkpt lat="44.1607069" lon="10.3547728"><ele>492.0</ele><time>2026-04-11T07:30:10.965Z</time></trkpt><trkpt lat="44.1606622" lon="10.3546765"><ele>492.0</ele><time>2026-04-11T07:30:12.966Z</time></trkpt><trkpt lat="44.1606413" lon="10.3545635"><ele>492.0</ele><time>2026-04-11T07:30:14.959Z</time></trkpt><trkpt lat="44.1606467" lon="10.3544549"><ele>492.0</ele><time>2026-04-11T07:30:16.984Z</time></trkpt><trkpt lat="44.1606748" lon="10.3543394"><ele>491.3333333333333</ele><time>2026-04-11T07:30:18.962Z</time></trkpt><trkpt lat="44.1607252" lon="10.3542335"><ele>490.66666666666663</ele><time>2026-04-11T07:30:20.958Z</time></trkpt><trkpt lat="44.1607746" lon="10.3541288"><ele>490.0</ele><time>2026-04-11T07:30:22.969Z</time></trkpt><trkpt lat="44.1608241" lon="10.35403"><ele>489.3333333333333</ele><time>2026-04-11T07:30:24.967Z</time></trkpt><trkpt lat="44.1608751" lon="10.3539296"><ele>488.66666666666663</ele><time>2026-04-11T07:30:26.963Z</time></trkpt><trkpt lat="44.1609211" lon="10.3538307"><ele>488.0</ele><time>2026-04-11T07:30:28.958Z</time></trkpt><trkpt lat="44.1609707" lon="10.3537488"><ele>487.99999999999994</ele><time>2026-04-11T07:30:30.971Z</time></trkpt><trkpt lat="44.1610228" lon="10.3536766"><ele>488.0</ele><time>2026-04-11T07:30:32.977Z</time></trkpt><trkpt lat="44.1610832" lon="10.3536093"><ele>488.0</ele><time>2026-04-11T07:30:34.971Z</time></trkpt><trkpt lat="44.1611506" lon="10.3535838"><ele>488.0</ele><time>2026-04-11T07:30:36.963Z</time></trkpt><trkpt lat="44.1612288" lon="10.3536038"><ele>487.99999999999994</ele><time>2026-04-11T07:30:38.958Z</time></trkpt><trkpt lat="44.1613069" lon="10.3536421"><ele>488.0</ele><time>2026-04-11T07:30:40.961Z</time></trkpt><trkpt lat="44.1613793" lon="10.3537081"><ele>487.99999999999994</ele><time>2026-04-11T07:30:42.972Z</time></trkpt><trkpt lat="44.1614488" lon="10.3537833"><ele>488.0</ele><time>2026-04-11T07:30:44.967Z</time></trkpt><trkpt lat="44.1615183" lon="10.3538504"><ele>488.0</ele><time>2026-04-11T07:30:46.96Z</time></trkpt><trkpt lat="44.1615857" lon="10.3539181"><ele>488.0</ele><time>2026-04-11T07:30:48.963Z</time></trkpt><trkpt lat="44.1616508" lon="10.35399"><ele>487.99999999999994</ele><time>2026-04-11T07:30:50.963Z</time></trkpt><trkpt lat="44.1617196" lon="10.3540598"><ele>488.0</ele><time>2026-04-11T07:30:52.972Z</time></trkpt><trkpt lat="44.1617895" lon="10.354133"><ele>490.49999999999994</ele><time>2026-04-11T07:30:54.956Z</time></trkpt><trkpt lat="44.1618562" lon="10.354204"><ele>493.0</ele><time>2026-04-11T07:30:56.964Z</time></trkpt><trkpt lat="44.1619213" lon="10.354274"><ele>495.5</ele><time>2026-04-11T07:30:58.98Z</time></trkpt><trkpt lat="44.1619946" lon="10.3543508"><ele>498.0</ele><time>2026-04-11T07:31:00.973Z</time></trkpt><trkpt lat="44.1620668" lon="10.3544245"><ele>500.49999999999994</ele><time>2026-04-11T07:31:02.967Z</time></trkpt><trkpt lat="44.1621448" lon="10.3544836"><ele>503.0</ele><time>2026-04-11T07:31:04.955Z</time></trkpt><trkpt lat="44.1622225" lon="10.3545359"><ele>502.99999999999994</ele><time>2026-04-11T07:31:06.954Z</time></trkpt><trkpt lat="44.1623059" lon="10.3545624"><ele>503.0</ele><time>2026-04-11T07:31:08.964Z</time></trkpt><trkpt lat="44.162392" lon="10.3545822"><ele>503.0</ele><time>2026-04-11T07:31:10.956Z</time></trkpt><trkpt lat="44.1624782" lon="10.354583"><ele>503.0</ele><time>2026-04-11T07:31:12.964Z</time></trkpt><trkpt lat="44.1625648" lon="10.354574"><ele>502.99999999999994</ele><time>2026-04-11T07:31:14.963Z</time></trkpt><trkpt lat="44.162648" lon="10.3545625"><ele>503.0</ele><time>2026-04-11T07:31:16.968Z</time></trkpt><trkpt lat="44.1627354" lon="10.354554"><ele>501.8333333333333</ele><time>2026-04-11T07:31:18.963Z</time></trkpt><trkpt lat="44.1628201" lon="10.3545403"><ele>500.66666666666663</ele><time>2026-04-11T07:31:20.961Z</time></trkpt><trkpt lat="44.1629039" lon="10.35453"><ele>499.5</ele><time>2026-04-11T07:31:22.964Z</time></trkpt><trkpt lat="44.16299" lon="10.3545199"><ele>498.33333333333337</ele><time>2026-04-11T07:31:24.971Z</time></trkpt><trkpt lat="44.1630765" lon="10.3545088"><ele>497.1666666666667</ele><time>2026-04-11T07:31:26.955Z</time></trkpt><trkpt lat="44.1631604" lon="10.3544863"><ele>496.0</ele><time>2026-04-11T07:31:28.961Z</time></trkpt><trkpt lat="44.1632463" lon="10.3544678"><ele>496.0</ele><time>2026-04-11T07:31:30.96Z</time></trkpt><trkpt lat="44.1633331" lon="10.3544501"><ele>496.0</ele><time>2026-04-11T07:31:32.966Z</time></trkpt><trkpt lat="44.1634209" lon="10.3544259"><ele>496.0</ele><time>2026-04-11T07:31:34.964Z</time></trkpt><trkpt lat="44.1635168" lon="10.3544088"><ele>496.0</ele><time>2026-04-11T07:31:36.957Z</time></trkpt><trkpt lat="44.1636086" lon="10.3543988"><ele>496.0</ele><time>2026-04-11T07:31:38.98Z</time></trkpt><trkpt lat="44.1636967" lon="10.3543816"><ele>496.00000000000006</ele><time>2026-04-11T07:31:40.97Z</time></trkpt><trkpt lat="44.163787" lon="10.3543678"><ele>496.0</ele><time>2026-04-11T07:31:42.967Z</time></trkpt><trkpt lat="44.1638753" lon="10.3543463"><ele>496.0</ele><time>2026-04-11T07:31:44.962Z</time></trkpt><trkpt lat="44.1639644" lon="10.3543273"><ele>496.0</ele><time>2026-04-11T07:31:46.962Z</time></trkpt><trkpt lat="44.1640486" lon="10.3542928"><ele>496.00000000000006</ele><time>2026-04-11T07:31:48.971Z</time></trkpt><trkpt lat="44.1641316" lon="10.3542479"><ele>496.0</ele><time>2026-04-11T07:31:50.973Z</time></trkpt><trkpt lat="44.1642074" lon="10.3541907"><ele>496.20000000000005</ele><time>2026-04-11T07:31:52.974Z</time></trkpt><trkpt lat="44.164277" lon="10.3541189"><ele>496.40000000000003</ele><time>2026-04-11T07:31:54.981Z</time></trkpt><trkpt lat="44.1643425" lon="10.3540345"><ele>496.6</ele><time>2026-04-11T07:31:56.962Z</time></trkpt><trkpt lat="44.1644076" lon="10.3539399"><ele>496.8</ele><time>2026-04-11T07:31:58.971Z</time></trkpt><trkpt lat="44.164471" lon="10.3538431"><ele>497.0</ele><time>2026-04-11T07:32:00.973Z</time></trkpt><trkpt lat="44.1645301" lon="10.3537451"><ele>494.6</ele><time>2026-04-11T07:32:02.967Z</time></trkpt><trkpt lat="44.1645928" lon="10.3536434"><ele>492.20000000000005</ele><time>2026-04-11T07:32:04.973Z</time></trkpt><trkpt lat="44.1646613" lon="10.35355"><ele>489.8</ele><time>2026-04-11T07:32:06.972Z</time></trkpt><trkpt lat="44.1647228" lon="10.3534568"><ele>487.4</ele><time>2026-04-11T07:32:08.969Z</time></trkpt><trkpt lat="44.1647849" lon="10.3533631"><ele>485.0</ele><time>2026-04-11T07:32:10.97Z</time></trkpt><trkpt lat="44.164846" lon="10.3532774"><ele>485.66666666666663</ele><time>2026-04-11T07:32:12.966Z</time></trkpt><trkpt lat="44.1649151" lon="10.3532031"><ele>486.3333333333333</ele><time>2026-04-11T07:32:14.962Z</time></trkpt><trkpt lat="44.1649906" lon="10.3531395"><ele>487.0</ele><time>2026-04-11T07:32:16.969Z</time></trkpt><trkpt lat="44.1650665" lon="10.3530952"><ele>487.66666666666663</ele><time>2026-04-11T07:32:18.973Z</time></trkpt><trkpt lat="44.1651527" lon="10.3530532"><ele>488.3333333333333</ele><time>2026-04-11T07:32:20.96Z</time></trkpt><trkpt lat="44.1652359" lon="10.3530238"><ele>489.0</ele><time>2026-04-11T07:32:22.961Z</time></trkpt><trkpt lat="44.1653186" lon="10.3529947"><ele>489.0</ele><time>2026-04-11T07:32:24.956Z</time></trkpt><trkpt lat="44.1653986" lon="10.3529584"><ele>489.0</ele><time>2026-04-11T07:32:26.968Z</time></trkpt><trkpt lat="44.1654835" lon="10.3529236"><ele>489.0</ele><time>2026-04-11T07:32:28.958Z</time></trkpt><trkpt lat="44.1655685" lon="10.3528918"><ele>489.0</ele><time>2026-04-11T07:32:30.972Z</time></trkpt><trkpt lat="44.1656545" lon="10.3528583"><ele>489.0</ele><time>2026-04-11T07:32:32.973Z</time></trkpt><trkpt lat="44.1657412" lon="10.352825"><ele>489.0</ele><time>2026-04-11T07:32:34.971Z</time></trkpt><trkpt lat="44.1658301" lon="10.3527879"><ele>490.2</ele><time>2026-04-11T07:32:36.972Z</time></trkpt><trkpt lat="44.1659179" lon="10.3527514"><ele>491.4</ele><time>2026-04-11T07:32:38.973Z</time></trkpt><trkpt lat="44.1660019" lon="10.3527234"><ele>492.6</ele><time>2026-04-11T07:32:40.958Z</time></trkpt><trkpt lat="44.1660876" lon="10.3526877"><ele>493.8</ele><time>2026-04-11T07:32:42.963Z</time></trkpt><trkpt lat="44.1661783" lon="10.3526571"><ele>495.0</ele><time>2026-04-11T07:32:44.957Z</time></trkpt><trkpt lat="44.166269" lon="10.3526185"><ele>495.0</ele><time>2026-04-11T07:32:46.966Z</time></trkpt><trkpt lat="44.166355" lon="10.3525834"><ele>495.0</ele><time>2026-04-11T07:32:48.969Z</time></trkpt><trkpt lat="44.1664476" lon="10.3525542"><ele>495.0</ele><time>2026-04-11T07:32:50.985Z</time></trkpt><trkpt lat="44.1665363" lon="10.3525161"><ele>495.0</ele><time>2026-04-11T07:32:52.961Z</time></trkpt><trkpt lat="44.1666295" lon="10.3524785"><ele>495.0</ele><time>2026-04-11T07:32:54.965Z</time></trkpt><trkpt lat="44.1667199" lon="10.3524372"><ele>493.4</ele><time>2026-04-11T07:32:56.97Z</time></trkpt><trkpt lat="44.1667983" lon="10.3523736"><ele>491.8</ele><time>2026-04-11T07:32:58.994Z</time></trkpt><trkpt lat="44.1668722" lon="10.3522962"><ele>490.20000000000005</ele><time>2026-04-11T07:33:00.963Z</time></trkpt><trkpt lat="44.1669417" lon="10.3522102"><ele>488.6</ele><time>2026-04-11T07:33:02.961Z</time></trkpt><trkpt lat="44.1670128" lon="10.3521242"><ele>487.0</ele><time>2026-04-11T07:33:04.968Z</time></trkpt><trkpt lat="44.1670849" lon="10.3520343"><ele>487.0</ele><time>2026-04-11T07:33:06.98Z</time></trkpt><trkpt lat="44.1671551" lon="10.3519492"><ele>487.00000000000006</ele><time>2026-04-11T07:33:08.968Z</time></trkpt><trkpt lat="44.1672278" lon="10.3518732"><ele>487.00000000000006</ele><time>2026-04-11T07:33:10.961Z</time></trkpt><trkpt lat="44.1673024" lon="10.3517922"><ele>487.0</ele><time>2026-04-11T07:33:12.98Z</time></trkpt><trkpt lat="44.1673825" lon="10.3517225"><ele>487.0</ele><time>2026-04-11T07:33:14.968Z</time></trkpt><trkpt lat="44.1674657" lon="10.3516762"><ele>491.00000000000006</ele><time>2026-04-11T07:33:16.967Z</time></trkpt><trkpt lat="44.1675448" lon="10.3516475"><ele>495.0</ele><time>2026-04-11T07:33:18.974Z</time></trkpt><trkpt lat="44.1676301" lon="10.3516511"><ele>499.0</ele><time>2026-04-11T07:33:20.97Z</time></trkpt><trkpt lat="44.1677165" lon="10.3516581"><ele>503.0</ele><time>2026-04-11T07:33:22.973Z</time></trkpt><trkpt lat="44.1678078" lon="10.3516724"><ele>507.00000000000006</ele><time>2026-04-11T07:33:24.958Z</time></trkpt><trkpt lat="44.1679" lon="10.3516852"><ele>511.0</ele><time>2026-04-11T07:33:26.955Z</time></trkpt><trkpt lat="44.1679891" lon="10.3517067"><ele>511.00000000000006</ele><time>2026-04-11T07:33:28.956Z</time></trkpt><trkpt lat="44.1680752" lon="10.3517329"><ele>511.0</ele><time>2026-04-11T07:33:30.968Z</time></trkpt><trkpt lat="44.168155" lon="10.3517584"><ele>511.0</ele><time>2026-04-11T07:33:32.955Z</time></trkpt><trkpt lat="44.168243" lon="10.351785"><ele>511.0</ele><time>2026-04-11T07:33:34.964Z</time></trkpt><trkpt lat="44.1683324" lon="10.3517949"><ele>511.00000000000006</ele><time>2026-04-11T07:33:36.961Z</time></trkpt><trkpt lat="44.1684274" lon="10.3517603"><ele>511.0</ele><time>2026-04-11T07:33:38.961Z</time></trkpt><trkpt lat="44.1685168" lon="10.3517032"><ele>509.0</ele><time>2026-04-11T07:33:40.967Z</time></trkpt><trkpt lat="44.1685742" lon="10.3516097"><ele>507.0</ele><time>2026-04-11T07:33:42.972Z</time></trkpt><trkpt lat="44.1686103" lon="10.3514902"><ele>505.0</ele><time>2026-04-11T07:33:44.976Z</time></trkpt><trkpt lat="44.1686345" lon="10.3513601"><ele>503.0</ele><time>2026-04-11T07:33:46.965Z</time></trkpt><trkpt lat="44.1686558" lon="10.3512299"><ele>501.0</ele><time>2026-04-11T07:33:48.96Z</time></trkpt><trkpt lat="44.168682" lon="10.3511008"><ele>501.0</ele><time>2026-04-11T07:33:50.969Z</time></trkpt><trkpt lat="44.1687025" lon="10.3509642"><ele>501.0</ele><time>2026-04-11T07:33:52.972Z</time></trkpt><trkpt lat="44.168718" lon="10.3508299"><ele>501.0</ele><time>2026-04-11T07:33:54.968Z</time></trkpt><trkpt lat="44.1687062" lon="10.3506982"><ele>501.0</ele><time>2026-04-11T07:33:56.975Z</time></trkpt><trkpt lat="44.1686672" lon="10.3505812"><ele>501.0</ele><time>2026-04-11T07:33:58.959Z</time></trkpt><trkpt lat="44.1686203" lon="10.3504869"><ele>502.0</ele><time>2026-04-11T07:34:00.968Z</time></trkpt><trkpt lat="44.1685811" lon="10.3504042"><ele>503.0</ele><time>2026-04-11T07:34:02.972Z</time></trkpt><trkpt lat="44.1685468" lon="10.350322"><ele>504.0</ele><time>2026-04-11T07:34:04.972Z</time></trkpt><trkpt lat="44.1685271" lon="10.3502329"><ele>505.0</ele><time>2026-04-11T07:34:06.982Z</time></trkpt><trkpt lat="44.1685132" lon="10.3501311"><ele>506.0</ele><time>2026-04-11T07:34:08.965Z</time></trkpt><trkpt lat="44.1685022" lon="10.3500172"><ele>507.0</ele><time>2026-04-11T07:34:10.967Z</time></trkpt><trkpt lat="44.1684994" lon="10.3498987"><ele>508.0</ele><time>2026-04-11T07:34:12.971Z</time></trkpt><trkpt lat="44.1685143" lon="10.3497848"><ele>508.1666666666667</ele><time>2026-04-11T07:34:14.965Z</time></trkpt><trkpt lat="44.1685402" lon="10.3496764"><ele>508.33333333333337</ele><time>2026-04-11T07:34:16.959Z</time></trkpt><trkpt lat="44.1685706" lon="10.3495717"><ele>508.5</ele><time>2026-04-11T07:34:18.964Z</time></trkpt><trkpt lat="44.1685984" lon="10.3494678"><ele>508.66666666666663</ele><time>2026-04-11T07:34:20.962Z</time></trkpt><trkpt lat="44.1686275" lon="10.3493685"><ele>508.8333333333333</ele><time>2026-04-11T07:34:22.97Z</time></trkpt><trkpt lat="44.1686391" lon="10.34926"><ele>509.0</ele><time>2026-04-11T07:34:24.969Z</time></trkpt><trkpt lat="44.1686104" lon="10.3491751"><ele>509.0</ele><time>2026-04-11T07:34:26.963Z</time></trkpt><trkpt lat="44.1685681" lon="10.3490705"><ele>509.0</ele><time>2026-04-11T07:34:28.968Z</time></trkpt><trkpt lat="44.1685236" lon="10.3489333"><ele>509.0</ele><time>2026-04-11T07:34:30.965Z</time></trkpt><trkpt lat="44.1684678" lon="10.348783"><ele>509.0</ele><time>2026-04-11T07:34:32.971Z</time></trkpt><trkpt lat="44.168436" lon="10.3486897"><ele>509.0</ele><time>2026-04-11T07:34:33.975Z</time></trkpt><trkpt lat="44.168401" lon="10.3485956"><ele>508.8333333333333</ele><time>2026-04-11T07:34:34.968Z</time></trkpt><trkpt lat="44.1683702" lon="10.3484948"><ele>508.66666666666663</ele><time>2026-04-11T07:34:35.99Z</time></trkpt><trkpt lat="44.168335" lon="10.3483892"><ele>508.5</ele><time>2026-04-11T07:34:36.968Z</time></trkpt><trkpt lat="44.1683007" lon="10.3482763"><ele>508.33333333333337</ele><time>2026-04-11T07:34:37.975Z</time></trkpt><trkpt lat="44.1682503" lon="10.3481707"><ele>508.1666666666667</ele><time>2026-04-11T07:34:38.972Z</time></trkpt><trkpt lat="44.1681762" lon="10.3480892"><ele>508.0</ele><time>2026-04-11T07:34:39.981Z</time></trkpt><trkpt lat="44.1680832" lon="10.3480404"><ele>508.0</ele><time>2026-04-11T07:34:40.962Z</time></trkpt><trkpt lat="44.1679836" lon="10.3480258"><ele>507.99999999999994</ele><time>2026-04-11T07:34:41.97Z</time></trkpt><trkpt lat="44.167881" lon="10.3480325"><ele>507.99999999999994</ele><time>2026-04-11T07:34:42.968Z</time></trkpt><trkpt lat="44.1677727" lon="10.3480354"><ele>508.0</ele><time>2026-04-11T07:34:43.968Z</time></trkpt><trkpt lat="44.1676702" lon="10.3480439"><ele>508.0</ele><time>2026-04-11T07:34:44.966Z</time></trkpt><trkpt lat="44.1675574" lon="10.3480428"><ele>506.4</ele><time>2026-04-11T07:34:45.97Z</time></trkpt><trkpt lat="44.1674571" lon="10.348046"><ele>504.79999999999995</ele><time>2026-04-11T07:34:46.983Z</time></trkpt><trkpt lat="44.1673603" lon="10.3480329"><ele>503.2</ele><time>2026-04-11T07:34:47.966Z</time></trkpt><trkpt lat="44.1672756" lon="10.3479684"><ele>501.6</ele><time>2026-04-11T07:34:48.97Z</time></trkpt><trkpt lat="44.1672043" lon="10.3478939"><ele>500.0</ele><time>2026-04-11T07:34:49.97Z</time></trkpt><trkpt lat="44.1671664" lon="10.3477829"><ele>499.0</ele><time>2026-04-11T07:34:50.965Z</time></trkpt><trkpt lat="44.1671475" lon="10.3476526"><ele>498.0</ele><time>2026-04-11T07:34:51.971Z</time></trkpt><trkpt lat="44.167164" lon="10.3475184"><ele>497.0</ele><time>2026-04-11T07:34:52.972Z</time></trkpt><trkpt lat="44.1672001" lon="10.3473837"><ele>496.0</ele><time>2026-04-11T07:34:53.972Z</time></trkpt><trkpt lat="44.1672213" lon="10.3472524"><ele>495.0</ele><time>2026-04-11T07:34:54.969Z</time></trkpt><trkpt lat="44.1672208" lon="10.3471242"><ele>495.0</ele><time>2026-04-11T07:34:55.96Z</time></trkpt><trkpt lat="44.1672027" lon="10.3470135"><ele>495.0</ele><time>2026-04-11T07:34:56.965Z</time></trkpt><trkpt lat="44.1671404" lon="10.346945"><ele>495.0</ele><time>2026-04-11T07:34:57.993Z</time></trkpt><trkpt lat="44.1670661" lon="10.3469077"><ele>495.0</ele><time>2026-04-11T07:34:58.974Z</time></trkpt><trkpt lat="44.1669805" lon="10.3469074"><ele>495.0</ele><time>2026-04-11T07:34:59.969Z</time></trkpt><trkpt lat="44.1668976" lon="10.3469252"><ele>495.0</ele><time>2026-04-11T07:35:00.971Z</time></trkpt><trkpt lat="44.1668132" lon="10.3469429"><ele>495.0</ele><time>2026-04-11T07:35:01.973Z</time></trkpt><trkpt lat="44.1667303" lon="10.3469601"><ele>495.0</ele><time>2026-04-11T07:35:02.971Z</time></trkpt><trkpt lat="44.1666447" lon="10.3469752"><ele>495.0</ele><time>2026-04-11T07:35:03.969Z</time></trkpt><trkpt lat="44.1665658" lon="10.346992"><ele>495.0</ele><time>2026-04-11T07:35:04.969Z</time></trkpt><trkpt lat="44.1664889" lon="10.3470044"><ele>495.0</ele><time>2026-04-11T07:35:05.968Z</time></trkpt><trkpt lat="44.1664105" lon="10.3470209"><ele>495.0</ele><time>2026-04-11T07:35:06.975Z</time></trkpt><trkpt lat="44.1663337" lon="10.3470398"><ele>493.99999999999994</ele><time>2026-04-11T07:35:07.977Z</time></trkpt><trkpt lat="44.1662564" lon="10.347057"><ele>493.0</ele><time>2026-04-11T07:35:08.96Z</time></trkpt><trkpt lat="44.1661819" lon="10.3470577"><ele>491.99999999999994</ele><time>2026-04-11T07:35:09.966Z</time></trkpt><trkpt lat="44.1661096" lon="10.3470498"><ele>490.99999999999994</ele><time>2026-04-11T07:35:10.965Z</time></trkpt><trkpt lat="44.1660416" lon="10.3470327"><ele>490.0</ele><time>2026-04-11T07:35:11.961Z</time></trkpt><trkpt lat="44.165976" lon="10.3470082"><ele>488.99999999999994</ele><time>2026-04-11T07:35:12.967Z</time></trkpt><trkpt lat="44.165909" lon="10.3469768"><ele>487.99999999999994</ele><time>2026-04-11T07:35:13.962Z</time></trkpt><trkpt lat="44.1658476" lon="10.346941"><ele>488.0</ele><time>2026-04-11T07:35:14.958Z</time></trkpt><trkpt lat="44.1657888" lon="10.3469059"><ele>487.99999999999994</ele><time>2026-04-11T07:35:15.963Z</time></trkpt><trkpt lat="44.1657268" lon="10.3468735"><ele>487.99999999999994</ele><time>2026-04-11T07:35:16.966Z</time></trkpt><trkpt lat="44.16562" lon="10.3467976"><ele>488.0</ele><time>2026-04-11T07:35:18.963Z</time></trkpt><trkpt lat="44.1655255" lon="10.3467036"><ele>488.0</ele><time>2026-04-11T07:35:20.961Z</time></trkpt><trkpt lat="44.1654484" lon="10.3465939"><ele>487.4</ele><time>2026-04-11T07:35:22.966Z</time></trkpt><trkpt lat="44.1653732" lon="10.346483"><ele>486.79999999999995</ele><time>2026-04-11T07:35:24.956Z</time></trkpt><trkpt lat="44.1652939" lon="10.3463761"><ele>486.2</ele><time>2026-04-11T07:35:26.978Z</time></trkpt><trkpt lat="44.165226" lon="10.3462568"><ele>485.6</ele><time>2026-04-11T07:35:28.986Z</time></trkpt><trkpt lat="44.1651501" lon="10.346139"><ele>485.0</ele><time>2026-04-11T07:35:30.966Z</time></trkpt><trkpt lat="44.1650751" lon="10.3460239"><ele>485.0</ele><time>2026-04-11T07:35:32.969Z</time></trkpt><trkpt lat="44.1650369" lon="10.34589"><ele>485.0</ele><time>2026-04-11T07:35:34.968Z</time></trkpt><trkpt lat="44.1650357" lon="10.3457331"><ele>485.0</ele><time>2026-04-11T07:35:36.972Z</time></trkpt><trkpt lat="44.1650765" lon="10.3455869"><ele>485.0</ele><time>2026-04-11T07:35:38.974Z</time></trkpt><trkpt lat="44.1651412" lon="10.3454481"><ele>485.0</ele><time>2026-04-11T07:35:40.965Z</time></trkpt><trkpt lat="44.1651758" lon="10.3453703"><ele>484.7142857142858</ele><time>2026-04-11T07:35:41.982Z</time></trkpt><trkpt lat="44.1652115" lon="10.3452933"><ele>484.42857142857144</ele><time>2026-04-11T07:35:42.963Z</time></trkpt><trkpt lat="44.1652447" lon="10.3452093"><ele>484.14285714285717</ele><time>2026-04-11T07:35:43.966Z</time></trkpt><trkpt lat="44.1652789" lon="10.3451203"><ele>483.8571428571429</ele><time>2026-04-11T07:35:44.97Z</time></trkpt><trkpt lat="44.1653082" lon="10.3450218"><ele>483.57142857142856</ele><time>2026-04-11T07:35:45.966Z</time></trkpt><trkpt lat="44.1653296" lon="10.3449124"><ele>483.2857142857143</ele><time>2026-04-11T07:35:46.968Z</time></trkpt><trkpt lat="44.1653487" lon="10.3448026"><ele>483.0</ele><time>2026-04-11T07:35:47.973Z</time></trkpt><trkpt lat="44.1653628" lon="10.3446848"><ele>482.3333333333333</ele><time>2026-04-11T07:35:48.968Z</time></trkpt><trkpt lat="44.1653727" lon="10.3445706"><ele>481.66666666666663</ele><time>2026-04-11T07:35:49.961Z</time></trkpt><trkpt lat="44.1653685" lon="10.3444589"><ele>481.0</ele><time>2026-04-11T07:35:50.96Z</time></trkpt><trkpt lat="44.1653504" lon="10.3443421"><ele>480.3333333333333</ele><time>2026-04-11T07:35:51.982Z</time></trkpt><trkpt lat="44.1653233" lon="10.3442284"><ele>479.66666666666663</ele><time>2026-04-11T07:35:52.981Z</time></trkpt><trkpt lat="44.1652891" lon="10.3441178"><ele>479.0</ele><time>2026-04-11T07:35:53.972Z</time></trkpt><trkpt lat="44.1652437" lon="10.3440138"><ele>479.0</ele><time>2026-04-11T07:35:54.96Z</time></trkpt><trkpt lat="44.1651837" lon="10.3439174"><ele>479.0</ele><time>2026-04-11T07:35:55.969Z</time></trkpt><trkpt lat="44.1651119" lon="10.3438257"><ele>479.0</ele><time>2026-04-11T07:35:56.963Z</time></trkpt><trkpt lat="44.1650329" lon="10.3437395"><ele>479.0</ele><time>2026-04-11T07:35:57.968Z</time></trkpt><trkpt lat="44.1649482" lon="10.3436647"><ele>479.0</ele><time>2026-04-11T07:35:58.979Z</time></trkpt><trkpt lat="44.1648772" lon="10.3435792"><ele>477.2</ele><time>2026-04-11T07:35:59.965Z</time></trkpt><trkpt lat="44.1648219" lon="10.3434707"><ele>475.4</ele><time>2026-04-11T07:36:00.962Z</time></trkpt><trkpt lat="44.1647909" lon="10.3433494"><ele>473.6</ele><time>2026-04-11T07:36:01.974Z</time></trkpt><trkpt lat="44.1647901" lon="10.3432112"><ele>471.8</ele><time>2026-04-11T07:36:02.963Z</time></trkpt><trkpt lat="44.1648144" lon="10.3430775"><ele>470.0</ele><time>2026-04-11T07:36:03.98Z</time></trkpt><trkpt lat="44.1648724" lon="10.3429641"><ele>469.0</ele><time>2026-04-11T07:36:04.975Z</time></trkpt><trkpt lat="44.1649539" lon="10.3428824"><ele>468.0</ele><time>2026-04-11T07:36:05.971Z</time></trkpt><trkpt lat="44.1650497" lon="10.3428254"><ele>467.0</ele><time>2026-04-11T07:36:06.98Z</time></trkpt><trkpt lat="44.1651552" lon="10.3427838"><ele>466.0</ele><time>2026-04-11T07:36:07.966Z</time></trkpt><trkpt lat="44.16527" lon="10.3427487"><ele>465.0</ele><time>2026-04-11T07:36:08.974Z</time></trkpt><trkpt lat="44.1653863" lon="10.3427164"><ele>465.0</ele><time>2026-04-11T07:36:09.963Z</time></trkpt><trkpt lat="44.1655052" lon="10.3426797"><ele>465.0</ele><time>2026-04-11T07:36:10.967Z</time></trkpt><trkpt lat="44.1656258" lon="10.3426396"><ele>465.0</ele><time>2026-04-11T07:36:11.972Z</time></trkpt><trkpt lat="44.1657485" lon="10.3425906"><ele>465.0</ele><time>2026-04-11T07:36:12.966Z</time></trkpt><trkpt lat="44.1658701" lon="10.3425372"><ele>464.75</ele><time>2026-04-11T07:36:13.959Z</time></trkpt><trkpt lat="44.1659865" lon="10.3424573"><ele>464.5</ele><time>2026-04-11T07:36:14.962Z</time></trkpt><trkpt lat="44.1660992" lon="10.3423581"><ele>464.25</ele><time>2026-04-11T07:36:15.979Z</time></trkpt><trkpt lat="44.1662034" lon="10.3422569"><ele>464.0</ele><time>2026-04-11T07:36:16.965Z</time></trkpt><trkpt lat="44.1662983" lon="10.3421642"><ele>462.5</ele><time>2026-04-11T07:36:17.988Z</time></trkpt><trkpt lat="44.1663777" lon="10.3420473"><ele>461.0</ele><time>2026-04-11T07:36:18.972Z</time></trkpt><trkpt lat="44.1664389" lon="10.3419062"><ele>459.5</ele><time>2026-04-11T07:36:19.965Z</time></trkpt><trkpt lat="44.1664901" lon="10.3417497"><ele>458.0</ele><time>2026-04-11T07:36:20.966Z</time></trkpt><trkpt lat="44.1665337" lon="10.3415825"><ele>458.0</ele><time>2026-04-11T07:36:21.967Z</time></trkpt><trkpt lat="44.1665764" lon="10.3414124"><ele>458.0</ele><time>2026-04-11T07:36:22.966Z</time></trkpt><trkpt lat="44.1666154" lon="10.3412371"><ele>458.0</ele><time>2026-04-11T07:36:23.96Z</time></trkpt><trkpt lat="44.1666326" lon="10.3410577"><ele>458.0</ele><time>2026-04-11T07:36:24.969Z</time></trkpt><trkpt lat="44.1666282" lon="10.3408744"><ele>455.75</ele><time>2026-04-11T07:36:25.98Z</time></trkpt><trkpt lat="44.1666077" lon="10.3406921"><ele>453.5</ele><time>2026-04-11T07:36:26.975Z</time></trkpt><trkpt lat="44.1665716" lon="10.3405166"><ele>451.25</ele><time>2026-04-11T07:36:27.971Z</time></trkpt><trkpt lat="44.1665206" lon="10.3403545"><ele>449.0</ele><time>2026-04-11T07:36:28.982Z</time></trkpt><trkpt lat="44.1664473" lon="10.340209"><ele>444.5</ele><time>2026-04-11T07:36:29.975Z</time></trkpt><trkpt lat="44.1663628" lon="10.3400788"><ele>440.0</ele><time>2026-04-11T07:36:30.968Z</time></trkpt><trkpt lat="44.1662797" lon="10.3399506"><ele>435.5</ele><time>2026-04-11T07:36:31.968Z</time></trkpt><trkpt lat="44.1662003" lon="10.3398343"><ele>431.0</ele><time>2026-04-11T07:36:32.968Z</time></trkpt><trkpt lat="44.1661281" lon="10.3397225"><ele>429.6</ele><time>2026-04-11T07:36:33.963Z</time></trkpt><trkpt lat="44.1660629" lon="10.3396125"><ele>428.20000000000005</ele><time>2026-04-11T07:36:34.973Z</time></trkpt><trkpt lat="44.1660175" lon="10.3395061"><ele>426.79999999999995</ele><time>2026-04-11T07:36:35.976Z</time></trkpt><trkpt lat="44.1659912" lon="10.3393949"><ele>425.4</ele><time>2026-04-11T07:36:36.969Z</time></trkpt><trkpt lat="44.165984" lon="10.3392779"><ele>424.0</ele><time>2026-04-11T07:36:37.959Z</time></trkpt><trkpt lat="44.1659928" lon="10.339151"><ele>424.00000000000006</ele><time>2026-04-11T07:36:38.969Z</time></trkpt><trkpt lat="44.1660124" lon="10.3390373"><ele>424.0</ele><time>2026-04-11T07:36:39.965Z</time></trkpt><trkpt lat="44.1660475" lon="10.3389538"><ele>424.0</ele><time>2026-04-11T07:36:40.963Z</time></trkpt><trkpt lat="44.1661594" lon="10.3389007"><ele>424.0</ele><time>2026-04-11T07:36:42.973Z</time></trkpt><trkpt lat="44.1662224" lon="10.3389396"><ele>424.00000000000006</ele><time>2026-04-11T07:36:43.965Z</time></trkpt><trkpt lat="44.1662728" lon="10.3390091"><ele>424.0</ele><time>2026-04-11T07:36:44.96Z</time></trkpt><trkpt lat="44.1663196" lon="10.3390944"><ele>424.00000000000006</ele><time>2026-04-11T07:36:45.974Z</time></trkpt><trkpt lat="44.1663672" lon="10.3391835"><ele>424.0</ele><time>2026-04-11T07:36:46.966Z</time></trkpt><trkpt lat="44.1664144" lon="10.3392772"><ele>424.0</ele><time>2026-04-11T07:36:47.969Z</time></trkpt><trkpt lat="44.1664626" lon="10.3393786"><ele>424.0</ele><time>2026-04-11T07:36:48.977Z</time></trkpt><trkpt lat="44.1665195" lon="10.3394713"><ele>424.00000000000006</ele><time>2026-04-11T07:36:49.967Z</time></trkpt><trkpt lat="44.166586" lon="10.3395228"><ele>424.0</ele><time>2026-04-11T07:36:50.963Z</time></trkpt><trkpt lat="44.1666568" lon="10.3395289"><ele>424.33333333333337</ele><time>2026-04-11T07:36:51.963Z</time></trkpt><trkpt lat="44.1667236" lon="10.3394936"><ele>424.6666666666667</ele><time>2026-04-11T07:36:52.97Z</time></trkpt><trkpt lat="44.1667709" lon="10.3394263"><ele>425.0</ele><time>2026-04-11T07:36:53.963Z</time></trkpt><trkpt lat="44.1667983" lon="10.3393318"><ele>425.33333333333337</ele><time>2026-04-11T07:36:54.963Z</time></trkpt><trkpt lat="44.1667963" lon="10.3392221"><ele>425.6666666666667</ele><time>2026-04-11T07:36:55.973Z</time></trkpt><trkpt lat="44.1667654" lon="10.3391141"><ele>426.0</ele><time>2026-04-11T07:36:56.964Z</time></trkpt><trkpt lat="44.1667138" lon="10.339017"><ele>426.0</ele><time>2026-04-11T07:36:57.964Z</time></trkpt><trkpt lat="44.1666565" lon="10.338924"><ele>426.0</ele><time>2026-04-11T07:36:58.973Z</time></trkpt><trkpt lat="44.1665938" lon="10.3388249"><ele>426.0</ele><time>2026-04-11T07:36:59.965Z</time></trkpt><trkpt lat="44.1665296" lon="10.3387191"><ele>426.0</ele><time>2026-04-11T07:37:00.961Z</time></trkpt><trkpt lat="44.1664697" lon="10.3386118"><ele>426.0</ele><time>2026-04-11T07:37:01.964Z</time></trkpt><trkpt lat="44.1664055" lon="10.3384993"><ele>424.0</ele><time>2026-04-11T07:37:02.975Z</time></trkpt><trkpt lat="44.1663404" lon="10.3383849"><ele>422.0</ele><time>2026-04-11T07:37:03.977Z</time></trkpt><trkpt lat="44.166274" lon="10.3382634"><ele>420.0</ele><time>2026-04-11T07:37:04.97Z</time></trkpt><trkpt lat="44.1662076" lon="10.3381396"><ele>418.0</ele><time>2026-04-11T07:37:05.968Z</time></trkpt><trkpt lat="44.1661422" lon="10.3380231"><ele>416.0</ele><time>2026-04-11T07:37:06.968Z</time></trkpt><trkpt lat="44.1660719" lon="10.3379263"><ele>413.0</ele><time>2026-04-11T07:37:07.963Z</time></trkpt><trkpt lat="44.1659953" lon="10.3378623"><ele>410.0</ele><time>2026-04-11T07:37:08.966Z</time></trkpt><trkpt lat="44.1659045" lon="10.3378379"><ele>407.0</ele><time>2026-04-11T07:37:09.968Z</time></trkpt><trkpt lat="44.1658074" lon="10.3378572"><ele>404.0</ele><time>2026-04-11T07:37:10.962Z</time></trkpt><trkpt lat="44.1657156" lon="10.3379094"><ele>401.0</ele><time>2026-04-11T07:37:11.977Z</time></trkpt><trkpt lat="44.1656237" lon="10.3379875"><ele>400.8</ele><time>2026-04-11T07:37:12.972Z</time></trkpt><trkpt lat="44.1655516" lon="10.3380935"><ele>400.6</ele><time>2026-04-11T07:37:13.972Z</time></trkpt><trkpt lat="44.1654878" lon="10.3382142"><ele>400.4</ele><time>2026-04-11T07:37:14.969Z</time></trkpt><trkpt lat="44.1654285" lon="10.3383435"><ele>400.2</ele><time>2026-04-11T07:37:15.967Z</time></trkpt><trkpt lat="44.1653732" lon="10.3384776"><ele>400.0</ele><time>2026-04-11T07:37:16.968Z</time></trkpt><trkpt lat="44.1653173" lon="10.3386084"><ele>400.0</ele><time>2026-04-11T07:37:17.964Z</time></trkpt><trkpt lat="44.1652533" lon="10.3387325"><ele>400.0</ele><time>2026-04-11T07:37:18.974Z</time></trkpt><trkpt lat="44.165174" lon="10.3388258"><ele>400.0</ele><time>2026-04-11T07:37:19.966Z</time></trkpt><trkpt lat="44.1650896" lon="10.3388781"><ele>400.0</ele><time>2026-04-11T07:37:20.973Z</time></trkpt><trkpt lat="44.1650001" lon="10.3388836"><ele>400.0</ele><time>2026-04-11T07:37:21.968Z</time></trkpt><trkpt lat="44.1649176" lon="10.3388504"><ele>397.6</ele><time>2026-04-11T07:37:22.973Z</time></trkpt><trkpt lat="44.1648347" lon="10.3387981"><ele>395.2</ele><time>2026-04-11T07:37:23.968Z</time></trkpt><trkpt lat="44.1647425" lon="10.3387579"><ele>392.79999999999995</ele><time>2026-04-11T07:37:24.964Z</time></trkpt><trkpt lat="44.164648" lon="10.3387302"><ele>390.4</ele><time>2026-04-11T07:37:25.972Z</time></trkpt><trkpt lat="44.1645424" lon="10.3387063"><ele>388.0</ele><time>2026-04-11T07:37:26.962Z</time></trkpt><trkpt lat="44.1644264" lon="10.3386841"><ele>388.0</ele><time>2026-04-11T07:37:27.961Z</time></trkpt><trkpt lat="44.1643101" lon="10.3386818"><ele>388.0</ele><time>2026-04-11T07:37:28.957Z</time></trkpt><trkpt lat="44.1641969" lon="10.3387017"><ele>388.0</ele><time>2026-04-11T07:37:29.976Z</time></trkpt><trkpt lat="44.1640865" lon="10.3387402"><ele>388.0</ele><time>2026-04-11T07:37:30.958Z</time></trkpt><trkpt lat="44.1639758" lon="10.3387995"><ele>387.75</ele><time>2026-04-11T07:37:31.959Z</time></trkpt><trkpt lat="44.1638661" lon="10.3388681"><ele>387.5</ele><time>2026-04-11T07:37:32.964Z</time></trkpt><trkpt lat="44.1637468" lon="10.33893"><ele>387.25</ele><time>2026-04-11T07:37:33.963Z</time></trkpt><trkpt lat="44.1636253" lon="10.3389627"><ele>387.0</ele><time>2026-04-11T07:37:34.962Z</time></trkpt><trkpt lat="44.1634957" lon="10.3389701"><ele>387.0</ele><time>2026-04-11T07:37:35.964Z</time></trkpt><trkpt lat="44.1633677" lon="10.3389473"><ele>387.0</ele><time>2026-04-11T07:37:36.963Z</time></trkpt><trkpt lat="44.163247" lon="10.3388728"><ele>387.0</ele><time>2026-04-11T07:37:37.96Z</time></trkpt><trkpt lat="44.163136" lon="10.3387789"><ele>387.0</ele><time>2026-04-11T07:37:38.965Z</time></trkpt><trkpt lat="44.1630373" lon="10.3386744"><ele>388.8</ele><time>2026-04-11T07:37:39.961Z</time></trkpt><trkpt lat="44.1629473" lon="10.3385749"><ele>390.6</ele><time>2026-04-11T07:37:40.963Z</time></trkpt><trkpt lat="44.1628712" lon="10.3384643"><ele>392.40000000000003</ele><time>2026-04-11T07:37:41.956Z</time></trkpt><trkpt lat="44.1628062" lon="10.3383406"><ele>394.20000000000005</ele><time>2026-04-11T07:37:42.965Z</time></trkpt><trkpt lat="44.1627759" lon="10.3381993"><ele>396.0</ele><time>2026-04-11T07:37:43.961Z</time></trkpt><trkpt lat="44.1627704" lon="10.3380613"><ele>397.5</ele><time>2026-04-11T07:37:44.976Z</time></trkpt><trkpt lat="44.1627909" lon="10.3379518"><ele>399.0</ele><time>2026-04-11T07:37:45.957Z</time></trkpt><trkpt lat="44.1628262" lon="10.3378589"><ele>400.5</ele><time>2026-04-11T07:37:46.965Z</time></trkpt><trkpt lat="44.1628866" lon="10.3377111"><ele>402.0</ele><time>2026-04-11T07:37:48.969Z</time></trkpt><trkpt lat="44.1629352" lon="10.3376112"><ele>403.5</ele><time>2026-04-11T07:37:50.969Z</time></trkpt><trkpt lat="44.1629679" lon="10.3375285"><ele>405.0</ele><time>2026-04-11T07:37:52.96Z</time></trkpt><trkpt lat="44.1630003" lon="10.3374303"><ele>404.99999999999994</ele><time>2026-04-11T07:37:55.969Z</time></trkpt><trkpt lat="44.1630392" lon="10.3373488"><ele>405.0</ele><time>2026-04-11T07:37:58.958Z</time></trkpt><trkpt lat="44.1630746" lon="10.3372656"><ele>405.0</ele><time>2026-04-11T07:38:01.969Z</time></trkpt><trkpt lat="44.1631044" lon="10.3371805"><ele>405.0</ele><time>2026-04-11T07:38:04.969Z</time></trkpt><trkpt lat="44.1631358" lon="10.3371016"><ele>405.0</ele><time>2026-04-11T07:38:07.968Z</time></trkpt><trkpt lat="44.1631585" lon="10.3370142"><ele>404.99999999999994</ele><time>2026-04-11T07:38:10.966Z</time></trkpt><trkpt lat="44.1631755" lon="10.3369237"><ele>405.0</ele><time>2026-04-11T07:38:13.964Z</time></trkpt><trkpt lat="44.163173" lon="10.3368286"><ele>405.71428571428567</ele><time>2026-04-11T07:38:16.969Z</time></trkpt><trkpt lat="44.1631322" lon="10.3367496"><ele>406.42857142857144</ele><time>2026-04-11T07:38:19.969Z</time></trkpt><trkpt lat="44.1630727" lon="10.3366879"><ele>407.1428571428571</ele><time>2026-04-11T07:38:22.97Z</time></trkpt><trkpt lat="44.1630035" lon="10.3366468"><ele>407.85714285714283</ele><time>2026-04-11T07:38:25.976Z</time></trkpt><trkpt lat="44.162936" lon="10.3366294"><ele>408.57142857142856</ele><time>2026-04-11T07:38:28.968Z</time></trkpt><trkpt lat="44.1628721" lon="10.3366384"><ele>409.2857142857143</ele><time>2026-04-11T07:38:31.966Z</time></trkpt><trkpt lat="44.1628072" lon="10.3366742"><ele>410.0</ele><time>2026-04-11T07:38:34.969Z</time></trkpt><trkpt lat="44.1627449" lon="10.3367201"><ele>410.0</ele><time>2026-04-11T07:38:37.964Z</time></trkpt><trkpt lat="44.1626863" lon="10.3367793"><ele>410.0</ele><time>2026-04-11T07:38:40.972Z</time></trkpt><trkpt lat="44.1626347" lon="10.3368381"><ele>410.0</ele><time>2026-04-11T07:38:43.975Z</time></trkpt><trkpt lat="44.1625902" lon="10.3369096"><ele>410.0</ele><time>2026-04-11T07:38:46.968Z</time></trkpt><trkpt lat="44.1625532" lon="10.336986"><ele>410.0</ele><time>2026-04-11T07:38:49.965Z</time></trkpt><trkpt lat="44.1625198" lon="10.3370654"><ele>410.0</ele><time>2026-04-11T07:38:52.968Z</time></trkpt><trkpt lat="44.1624664" lon="10.337156"><ele>410.0</ele><time>2026-04-11T07:38:56.969Z</time></trkpt><trkpt lat="44.1624337" lon="10.337235"><ele>409.2857142857143</ele><time>2026-04-11T07:38:59.967Z</time></trkpt><trkpt lat="44.1623968" lon="10.337313"><ele>408.57142857142856</ele><time>2026-04-11T07:39:02.968Z</time></trkpt><trkpt lat="44.162345" lon="10.3374043"><ele>407.85714285714283</ele><time>2026-04-11T07:39:06.966Z</time></trkpt><trkpt lat="44.1623009" lon="10.3374697"><ele>407.1428571428571</ele><time>2026-04-11T07:39:09.962Z</time></trkpt><trkpt lat="44.1622454" lon="10.3375265"><ele>406.42857142857144</ele><time>2026-04-11T07:39:12.964Z</time></trkpt><trkpt lat="44.1621843" lon="10.3375747"><ele>405.71428571428567</ele><time>2026-04-11T07:39:15.977Z</time></trkpt><trkpt lat="44.1621263" lon="10.337625"><ele>405.0</ele><time>2026-04-11T07:39:18.97Z</time></trkpt><trkpt lat="44.1620704" lon="10.3376692"><ele>406.71428571428567</ele><time>2026-04-11T07:39:21.983Z</time></trkpt><trkpt lat="44.1620141" lon="10.3377142"><ele>408.42857142857144</ele><time>2026-04-11T07:39:24.97Z</time></trkpt><trkpt lat="44.1619557" lon="10.3377552"><ele>410.1428571428571</ele><time>2026-04-11T07:39:27.974Z</time></trkpt><trkpt lat="44.1618946" lon="10.3377918"><ele>411.85714285714283</ele><time>2026-04-11T07:39:30.961Z</time></trkpt><trkpt lat="44.1618324" lon="10.3378253"><ele>413.57142857142856</ele><time>2026-04-11T07:39:33.977Z</time></trkpt><trkpt lat="44.1617705" lon="10.3378464"><ele>415.2857142857143</ele><time>2026-04-11T07:39:36.975Z</time></trkpt><trkpt lat="44.1616859" lon="10.3378488"><ele>417.0</ele><time>2026-04-11T07:39:40.964Z</time></trkpt><trkpt lat="44.1616212" lon="10.3378428"><ele>417.0</ele><time>2026-04-11T07:39:43.969Z</time></trkpt><trkpt lat="44.1615563" lon="10.3378191"><ele>417.0</ele><time>2026-04-11T07:39:46.968Z</time></trkpt><trkpt lat="44.1614875" lon="10.3377893"><ele>417.0</ele><time>2026-04-11T07:39:49.962Z</time></trkpt><trkpt lat="44.1614226" lon="10.3377679"><ele>417.0</ele><time>2026-04-11T07:39:52.982Z</time></trkpt><trkpt lat="44.1613558" lon="10.3377368"><ele>417.0</ele><time>2026-04-11T07:39:55.971Z</time></trkpt><trkpt lat="44.161291" lon="10.337708"><ele>417.0</ele><time>2026-04-11T07:39:58.966Z</time></trkpt><trkpt lat="44.1612263" lon="10.3376758"><ele>417.0</ele><time>2026-04-11T07:40:01.969Z</time></trkpt><trkpt lat="44.1611658" lon="10.3376328"><ele>417.2857142857143</ele><time>2026-04-11T07:40:04.987Z</time></trkpt><trkpt lat="44.1611096" lon="10.337579"><ele>417.57142857142856</ele><time>2026-04-11T07:40:07.967Z</time></trkpt><trkpt lat="44.1610483" lon="10.3375354"><ele>417.85714285714283</ele><time>2026-04-11T07:40:10.968Z</time></trkpt><trkpt lat="44.1609853" lon="10.3374896"><ele>418.1428571428571</ele><time>2026-04-11T07:40:13.971Z</time></trkpt><trkpt lat="44.1609229" lon="10.3374468"><ele>418.42857142857144</ele><time>2026-04-11T07:40:16.969Z</time></trkpt><trkpt lat="44.1608641" lon="10.3374021"><ele>418.71428571428567</ele><time>2026-04-11T07:40:19.983Z</time></trkpt><trkpt lat="44.160805" lon="10.3373593"><ele>419.0</ele><time>2026-04-11T07:40:22.97Z</time></trkpt><trkpt lat="44.1607439" lon="10.3373225"><ele>420.2857142857143</ele><time>2026-04-11T07:40:25.97Z</time></trkpt><trkpt lat="44.1606844" lon="10.3372812"><ele>421.57142857142856</ele><time>2026-04-11T07:40:28.962Z</time></trkpt><trkpt lat="44.1606269" lon="10.3372402"><ele>422.8571428571429</ele><time>2026-04-11T07:40:31.956Z</time></trkpt><trkpt lat="44.1605501" lon="10.3371896"><ele>424.1428571428571</ele><time>2026-04-11T07:40:35.98Z</time></trkpt><trkpt lat="44.1604907" lon="10.3371589"><ele>425.42857142857144</ele><time>2026-04-11T07:40:38.965Z</time></trkpt><trkpt lat="44.1604235" lon="10.3371333"><ele>426.7142857142857</ele><time>2026-04-11T07:40:41.964Z</time></trkpt><trkpt lat="44.1603584" lon="10.3371164"><ele>428.0</ele><time>2026-04-11T07:40:44.965Z</time></trkpt><trkpt lat="44.1602885" lon="10.3371139"><ele>427.99999999999994</ele><time>2026-04-11T07:40:47.967Z</time></trkpt><trkpt lat="44.1602163" lon="10.3371338"><ele>428.0</ele><time>2026-04-11T07:40:50.964Z</time></trkpt><trkpt lat="44.1601466" lon="10.3371734"><ele>428.0</ele><time>2026-04-11T07:40:53.972Z</time></trkpt><trkpt lat="44.1600758" lon="10.3372186"><ele>428.0</ele><time>2026-04-11T07:40:56.979Z</time></trkpt><trkpt lat="44.1600099" lon="10.3372635"><ele>427.99999999999994</ele><time>2026-04-11T07:40:59.959Z</time></trkpt><trkpt lat="44.1599403" lon="10.3373052"><ele>428.0</ele><time>2026-04-11T07:41:02.981Z</time></trkpt><trkpt lat="44.159879" lon="10.3373659"><ele>430.66666666666663</ele><time>2026-04-11T07:41:05.973Z</time></trkpt><trkpt lat="44.1598148" lon="10.3374327"><ele>433.3333333333333</ele><time>2026-04-11T07:41:08.968Z</time></trkpt><trkpt lat="44.1597523" lon="10.3374908"><ele>436.0</ele><time>2026-04-11T07:41:11.965Z</time></trkpt><trkpt lat="44.1596928" lon="10.3375545"><ele>438.66666666666663</ele><time>2026-04-11T07:41:14.973Z</time></trkpt><trkpt lat="44.1596335" lon="10.3376206"><ele>441.3333333333333</ele><time>2026-04-11T07:41:17.973Z</time></trkpt><trkpt lat="44.1595741" lon="10.3376823"><ele>444.0</ele><time>2026-04-11T07:41:20.968Z</time></trkpt><trkpt lat="44.1595038" lon="10.3377177"><ele>444.0</ele><time>2026-04-11T07:41:23.965Z</time></trkpt><trkpt lat="44.1594264" lon="10.3377068"><ele>444.0</ele><time>2026-04-11T07:41:26.978Z</time></trkpt><trkpt lat="44.1593656" lon="10.3376456"><ele>444.0</ele><time>2026-04-11T07:41:29.964Z</time></trkpt><trkpt lat="44.1593561" lon="10.3375471"><ele>444.0</ele><time>2026-04-11T07:41:32.967Z</time></trkpt><trkpt lat="44.1593878" lon="10.3374497"><ele>444.0</ele><time>2026-04-11T07:41:35.98Z</time></trkpt><trkpt lat="44.1594253" lon="10.3373761"><ele>444.0</ele><time>2026-04-11T07:41:38.996Z</time></trkpt><trkpt lat="44.1594656" lon="10.3373079"><ele>444.0</ele><time>2026-04-11T07:41:41.971Z</time></trkpt><trkpt lat="44.1595177" lon="10.3372214"><ele>444.0</ele><time>2026-04-11T07:41:45.973Z</time></trkpt><trkpt lat="44.1595679" lon="10.3371323"><ele>444.0</ele><time>2026-04-11T07:41:49.964Z</time></trkpt><trkpt lat="44.1596253" lon="10.3370512"><ele>444.0</ele><time>2026-04-11T07:41:53.969Z</time></trkpt><trkpt lat="44.1596805" lon="10.3369745"><ele>444.0</ele><time>2026-04-11T07:41:57.966Z</time></trkpt><trkpt lat="44.1597339" lon="10.3369253"><ele>444.0</ele><time>2026-04-11T07:42:00.968Z</time></trkpt><trkpt lat="44.1597851" lon="10.3368734"><ele>444.0</ele><time>2026-04-11T07:42:03.974Z</time></trkpt><trkpt lat="44.1598377" lon="10.3368105"><ele>444.0</ele><time>2026-04-11T07:42:06.971Z</time></trkpt><trkpt lat="44.1598803" lon="10.33674"><ele>444.0</ele><time>2026-04-11T07:42:09.967Z</time></trkpt><trkpt lat="44.1599229" lon="10.3366684"><ele>444.0</ele><time>2026-04-11T07:42:12.964Z</time></trkpt><trkpt lat="44.1599685" lon="10.3365726"><ele>444.0</ele><time>2026-04-11T07:42:16.975Z</time></trkpt><trkpt lat="44.16" lon="10.3364962"><ele>444.0</ele><time>2026-04-11T07:42:19.976Z</time></trkpt><trkpt lat="44.1600296" lon="10.336416"><ele>444.0</ele><time>2026-04-11T07:42:22.973Z</time></trkpt><trkpt lat="44.1600574" lon="10.3363351"><ele>444.0</ele><time>2026-04-11T07:42:25.969Z</time></trkpt><trkpt lat="44.1600804" lon="10.3362501"><ele>444.0</ele><time>2026-04-11T07:42:28.971Z</time></trkpt><trkpt lat="44.1600996" lon="10.3361577"><ele>445.42857142857144</ele><time>2026-04-11T07:42:31.969Z</time></trkpt><trkpt lat="44.1600982" lon="10.3360651"><ele>446.8571428571429</ele><time>2026-04-11T07:42:34.969Z</time></trkpt><trkpt lat="44.160087" lon="10.3359723"><ele>448.28571428571433</ele><time>2026-04-11T07:42:37.971Z</time></trkpt><trkpt lat="44.1600813" lon="10.3358749"><ele>449.7142857142857</ele><time>2026-04-11T07:42:41.96Z</time></trkpt><trkpt lat="44.1600686" lon="10.3357862"><ele>451.1428571428572</ele><time>2026-04-11T07:42:44.975Z</time></trkpt><trkpt lat="44.1600457" lon="10.3356755"><ele>452.5714285714286</ele><time>2026-04-11T07:42:48.98Z</time></trkpt><trkpt lat="44.1600247" lon="10.3355859"><ele>454.0</ele><time>2026-04-11T07:42:51.965Z</time></trkpt><trkpt lat="44.1599722" lon="10.3355029"><ele>454.0</ele><time>2026-04-11T07:42:55.963Z</time></trkpt><trkpt lat="44.159896" lon="10.3354919"><ele>454.00000000000006</ele><time>2026-04-11T07:42:59.984Z</time></trkpt><trkpt lat="44.1598591" lon="10.3355726"><ele>454.0</ele><time>2026-04-11T07:43:02.966Z</time></trkpt><trkpt lat="44.1598633" lon="10.335665"><ele>454.0</ele><time>2026-04-11T07:43:05.97Z</time></trkpt><trkpt lat="44.15988" lon="10.3357546"><ele>454.00000000000006</ele><time>2026-04-11T07:43:08.963Z</time></trkpt><trkpt lat="44.1598914" lon="10.3358448"><ele>454.0</ele><time>2026-04-11T07:43:11.968Z</time></trkpt><trkpt lat="44.1598844" lon="10.3359341"><ele>454.0</ele><time>2026-04-11T07:43:14.968Z</time></trkpt><trkpt lat="44.1598544" lon="10.3360166"><ele>456.8571428571429</ele><time>2026-04-11T07:43:17.966Z</time></trkpt><trkpt lat="44.1598107" lon="10.3360961"><ele>459.7142857142858</ele><time>2026-04-11T07:43:20.979Z</time></trkpt><trkpt lat="44.1597652" lon="10.3361691"><ele>462.57142857142856</ele><time>2026-04-11T07:43:23.967Z</time></trkpt><trkpt lat="44.1597083" lon="10.3362131"><ele>465.42857142857144</ele><time>2026-04-11T07:43:26.979Z</time></trkpt><trkpt lat="44.1596528" lon="10.3361367"><ele>468.2857142857143</ele><time>2026-04-11T07:43:30.966Z</time></trkpt><trkpt lat="44.1596684" lon="10.3360398"><ele>471.1428571428571</ele><time>2026-04-11T07:43:33.965Z</time></trkpt><trkpt lat="44.159716" lon="10.3359507"><ele>473.99999999999994</ele><time>2026-04-11T07:43:36.963Z</time></trkpt><trkpt lat="44.1597574" lon="10.3358642"><ele>473.99999999999994</ele><time>2026-04-11T07:43:39.981Z</time></trkpt><trkpt lat="44.1597906" lon="10.3357778"><ele>474.0</ele><time>2026-04-11T07:43:42.968Z</time></trkpt><trkpt lat="44.1597942" lon="10.3356852"><ele>473.99999999999994</ele><time>2026-04-11T07:43:45.969Z</time></trkpt><trkpt lat="44.1597801" lon="10.3355966"><ele>473.99999999999994</ele><time>2026-04-11T07:43:48.965Z</time></trkpt><trkpt lat="44.1597501" lon="10.3355115"><ele>474.0</ele><time>2026-04-11T07:43:51.963Z</time></trkpt><trkpt lat="44.1597145" lon="10.3354383"><ele>473.99999999999994</ele><time>2026-04-11T07:43:54.984Z</time></trkpt><trkpt lat="44.1596705" lon="10.3353729"><ele>473.99999999999994</ele><time>2026-04-11T07:43:57.968Z</time></trkpt><trkpt lat="44.1596158" lon="10.3352879"><ele>474.2857142857142</ele><time>2026-04-11T07:44:01.964Z</time></trkpt><trkpt lat="44.159577" lon="10.3352172"><ele>474.57142857142856</ele><time>2026-04-11T07:44:04.957Z</time></trkpt><trkpt lat="44.1595287" lon="10.3351464"><ele>474.85714285714283</ele><time>2026-04-11T07:44:07.969Z</time></trkpt><trkpt lat="44.1594808" lon="10.3350766"><ele>475.1428571428571</ele><time>2026-04-11T07:44:10.972Z</time></trkpt><trkpt lat="44.1594404" lon="10.3350021"><ele>475.42857142857144</ele><time>2026-04-11T07:44:13.965Z</time></trkpt><trkpt lat="44.1594044" lon="10.3349168"><ele>475.7142857142857</ele><time>2026-04-11T07:44:16.97Z</time></trkpt><trkpt lat="44.1593797" lon="10.3348235"><ele>476.0</ele><time>2026-04-11T07:44:19.974Z</time></trkpt><trkpt lat="44.1593593" lon="10.3347265"><ele>476.1428571428571</ele><time>2026-04-11T07:44:22.958Z</time></trkpt><trkpt lat="44.1593628" lon="10.3346355"><ele>476.2857142857143</ele><time>2026-04-11T07:44:25.965Z</time></trkpt><trkpt lat="44.1593647" lon="10.3345397"><ele>476.42857142857144</ele><time>2026-04-11T07:44:28.971Z</time></trkpt><trkpt lat="44.1593696" lon="10.3344447"><ele>476.57142857142856</ele><time>2026-04-11T07:44:31.968Z</time></trkpt><trkpt lat="44.1593782" lon="10.3343522"><ele>476.71428571428567</ele><time>2026-04-11T07:44:34.974Z</time></trkpt><trkpt lat="44.1593868" lon="10.3342613"><ele>476.85714285714283</ele><time>2026-04-11T07:44:37.983Z</time></trkpt><trkpt lat="44.1593948" lon="10.3341683"><ele>477.0</ele><time>2026-04-11T07:44:40.972Z</time></trkpt><trkpt lat="44.1594136" lon="10.3340719"><ele>477.0</ele><time>2026-04-11T07:44:43.98Z</time></trkpt><trkpt lat="44.1594227" lon="10.3339787"><ele>476.99999999999994</ele><time>2026-04-11T07:44:46.961Z</time></trkpt><trkpt lat="44.1594317" lon="10.3338903"><ele>477.0</ele><time>2026-04-11T07:44:49.969Z</time></trkpt><trkpt lat="44.1594465" lon="10.3337768"><ele>477.0</ele><time>2026-04-11T07:44:53.961Z</time></trkpt><trkpt lat="44.1594247" lon="10.3336707"><ele>476.99999999999994</ele><time>2026-04-11T07:44:57.986Z</time></trkpt><trkpt lat="44.1593931" lon="10.3335879"><ele>477.0</ele><time>2026-04-11T07:45:00.968Z</time></trkpt><trkpt lat="44.1593527" lon="10.3335046"><ele>477.0</ele><time>2026-04-11T07:45:04.983Z</time></trkpt><trkpt lat="44.1593084" lon="10.3334253"><ele>477.5</ele><time>2026-04-11T07:45:08.969Z</time></trkpt><trkpt lat="44.1592509" lon="10.3333498"><ele>478.0</ele><time>2026-04-11T07:45:12.969Z</time></trkpt><trkpt lat="44.1591894" lon="10.3333068"><ele>478.5</ele><time>2026-04-11T07:45:15.967Z</time></trkpt><trkpt lat="44.1591115" lon="10.3332836"><ele>479.0</ele><time>2026-04-11T07:45:19.977Z</time></trkpt><trkpt lat="44.1590428" lon="10.3332297"><ele>479.5</ele><time>2026-04-11T07:45:23.979Z</time></trkpt><trkpt lat="44.1589901" lon="10.3331466"><ele>480.0</ele><time>2026-04-11T07:45:27.971Z</time></trkpt><trkpt lat="44.1589492" lon="10.3330469"><ele>481.8571428571429</ele><time>2026-04-11T07:45:31.979Z</time></trkpt><trkpt lat="44.1589345" lon="10.332934"><ele>483.71428571428567</ele><time>2026-04-11T07:45:35.959Z</time></trkpt><trkpt lat="44.1589236" lon="10.3328206"><ele>485.57142857142856</ele><time>2026-04-11T07:45:39.97Z</time></trkpt><trkpt lat="44.1589071" lon="10.3327324"><ele>487.42857142857144</ele><time>2026-04-11T07:45:42.971Z</time></trkpt><trkpt lat="44.1588929" lon="10.3326188"><ele>489.28571428571433</ele><time>2026-04-11T07:45:46.978Z</time></trkpt><trkpt lat="44.1588841" lon="10.3325245"><ele>491.1428571428571</ele><time>2026-04-11T07:45:49.969Z</time></trkpt><trkpt lat="44.158877" lon="10.3324306"><ele>493.0</ele><time>2026-04-11T07:45:52.968Z</time></trkpt><trkpt lat="44.1588688" lon="10.3323246"><ele>493.0</ele><time>2026-04-11T07:45:56.981Z</time></trkpt><trkpt lat="44.1588684" lon="10.3322334"><ele>493.0</ele><time>2026-04-11T07:45:59.971Z</time></trkpt><trkpt lat="44.1588712" lon="10.3321385"><ele>493.0</ele><time>2026-04-11T07:46:02.971Z</time></trkpt><trkpt lat="44.1588699" lon="10.3320414"><ele>493.0</ele><time>2026-04-11T07:46:05.969Z</time></trkpt><trkpt lat="44.1588771" lon="10.331954"><ele>493.0</ele><time>2026-04-11T07:46:08.963Z</time></trkpt><trkpt lat="44.1588934" lon="10.3318448"><ele>493.0</ele><time>2026-04-11T07:46:12.985Z</time></trkpt><trkpt lat="44.1589049" lon="10.3317582"><ele>493.0</ele><time>2026-04-11T07:46:15.974Z</time></trkpt><trkpt lat="44.1589203" lon="10.3316719"><ele>494.1428571428571</ele><time>2026-04-11T07:46:18.985Z</time></trkpt><trkpt lat="44.1589293" lon="10.331559"><ele>495.28571428571433</ele><time>2026-04-11T07:46:22.981Z</time></trkpt><trkpt lat="44.1589542" lon="10.3314633"><ele>496.42857142857144</ele><time>2026-04-11T07:46:26.967Z</time></trkpt><trkpt lat="44.1589671" lon="10.3313771"><ele>497.57142857142856</ele><time>2026-04-11T07:46:30.976Z</time></trkpt><trkpt lat="44.1589776" lon="10.3312794"><ele>498.71428571428567</ele><time>2026-04-11T07:46:34.969Z</time></trkpt><trkpt lat="44.1589964" lon="10.3311872"><ele>499.8571428571429</ele><time>2026-04-11T07:46:38.97Z</time></trkpt><trkpt lat="44.1590163" lon="10.3310909"><ele>501.0</ele><time>2026-04-11T07:46:42.97Z</time></trkpt><trkpt lat="44.1590332" lon="10.3310059"><ele>500.42857142857144</ele><time>2026-04-11T07:46:46.97Z</time></trkpt><trkpt lat="44.1590539" lon="10.3309172"><ele>499.85714285714283</ele><time>2026-04-11T07:46:50.964Z</time></trkpt><trkpt lat="44.1590684" lon="10.3308177"><ele>499.2857142857143</ele><time>2026-04-11T07:46:54.964Z</time></trkpt><trkpt lat="44.1591047" lon="10.3307303"><ele>498.7142857142857</ele><time>2026-04-11T07:46:58.969Z</time></trkpt><trkpt lat="44.1591346" lon="10.3306467"><ele>498.1428571428571</ele><time>2026-04-11T07:47:02.963Z</time></trkpt><trkpt lat="44.1591676" lon="10.3305609"><ele>497.57142857142856</ele><time>2026-04-11T07:47:06.967Z</time></trkpt><trkpt lat="44.1591974" lon="10.330474"><ele>497.0</ele><time>2026-04-11T07:47:10.973Z</time></trkpt><trkpt lat="44.1592359" lon="10.3303929"><ele>498.1428571428571</ele><time>2026-04-11T07:47:14.961Z</time></trkpt><trkpt lat="44.1592552" lon="10.3303084"><ele>499.2857142857143</ele><time>2026-04-11T07:47:18.973Z</time></trkpt><trkpt lat="44.1592546" lon="10.3302144"><ele>500.42857142857144</ele><time>2026-04-11T07:47:22.962Z</time></trkpt><trkpt lat="44.1592406" lon="10.3301196"><ele>501.57142857142856</ele><time>2026-04-11T07:47:26.969Z</time></trkpt><trkpt lat="44.1592079" lon="10.3300361"><ele>502.71428571428567</ele><time>2026-04-11T07:47:30.976Z</time></trkpt><trkpt lat="44.1591597" lon="10.3299631"><ele>503.85714285714283</ele><time>2026-04-11T07:47:34.968Z</time></trkpt><trkpt lat="44.159093" lon="10.3299367"><ele>505.0</ele><time>2026-04-11T07:47:38.972Z</time></trkpt><trkpt lat="44.1590243" lon="10.329927"><ele>506.1428571428571</ele><time>2026-04-11T07:47:42.968Z</time></trkpt><trkpt lat="44.1589597" lon="10.3299258"><ele>507.2857142857142</ele><time>2026-04-11T07:47:46.964Z</time></trkpt><trkpt lat="44.1588863" lon="10.3299262"><ele>508.42857142857144</ele><time>2026-04-11T07:47:50.974Z</time></trkpt><trkpt lat="44.1588138" lon="10.3299336"><ele>509.57142857142856</ele><time>2026-04-11T07:47:54.971Z</time></trkpt><trkpt lat="44.1587428" lon="10.3299442"><ele>510.7142857142857</ele><time>2026-04-11T07:47:58.974Z</time></trkpt><trkpt lat="44.1586718" lon="10.3299606"><ele>511.8571428571429</ele><time>2026-04-11T07:48:02.964Z</time></trkpt><trkpt lat="44.1586012" lon="10.3299772"><ele>513.0</ele><time>2026-04-11T07:48:06.967Z</time></trkpt><trkpt lat="44.1585295" lon="10.3299992"><ele>513.0000000000001</ele><time>2026-04-11T07:48:10.975Z</time></trkpt><trkpt lat="44.1584602" lon="10.3300308"><ele>513.0</ele><time>2026-04-11T07:48:14.977Z</time></trkpt><trkpt lat="44.1583985" lon="10.3300848"><ele>513.0</ele><time>2026-04-11T07:48:18.973Z</time></trkpt><trkpt lat="44.1583372" lon="10.3301419"><ele>513.0</ele><time>2026-04-11T07:48:22.971Z</time></trkpt><trkpt lat="44.1582745" lon="10.3302056"><ele>513.0</ele><time>2026-04-11T07:48:26.972Z</time></trkpt><trkpt lat="44.1582134" lon="10.3302624"><ele>513.0000000000001</ele><time>2026-04-11T07:48:30.969Z</time></trkpt><trkpt lat="44.1581602" lon="10.3303204"><ele>513.0</ele><time>2026-04-11T07:48:34.965Z</time></trkpt><trkpt lat="44.158102" lon="10.3303799"><ele>513.2857142857143</ele><time>2026-04-11T07:48:38.956Z</time></trkpt><trkpt lat="44.1580454" lon="10.3304401"><ele>513.5714285714286</ele><time>2026-04-11T07:48:42.958Z</time></trkpt><trkpt lat="44.1579865" lon="10.3305034"><ele>513.8571428571429</ele><time>2026-04-11T07:48:46.962Z</time></trkpt><trkpt lat="44.1579278" lon="10.3305623"><ele>514.1428571428571</ele><time>2026-04-11T07:48:50.959Z</time></trkpt><trkpt lat="44.1578686" lon="10.3306204"><ele>514.4285714285714</ele><time>2026-04-11T07:48:54.971Z</time></trkpt><trkpt lat="44.1578088" lon="10.3306753"><ele>514.7142857142858</ele><time>2026-04-11T07:48:58.96Z</time></trkpt><trkpt lat="44.1577515" lon="10.3307278"><ele>515.0</ele><time>2026-04-11T07:49:02.962Z</time></trkpt><trkpt lat="44.15769" lon="10.330789"><ele>515.0</ele><time>2026-04-11T07:49:06.969Z</time></trkpt><trkpt lat="44.1576361" lon="10.3308459"><ele>515.0</ele><time>2026-04-11T07:49:10.964Z</time></trkpt><trkpt lat="44.1575753" lon="10.3309159"><ele>515.0</ele><time>2026-04-11T07:49:14.987Z</time></trkpt><trkpt lat="44.1575131" lon="10.3309723"><ele>515.0</ele><time>2026-04-11T07:49:18.965Z</time></trkpt><trkpt lat="44.1574508" lon="10.3310313"><ele>515.0</ele><time>2026-04-11T07:49:22.971Z</time></trkpt><trkpt lat="44.1573814" lon="10.3310848"><ele>515.0</ele><time>2026-04-11T07:49:26.967Z</time></trkpt><trkpt lat="44.157314" lon="10.3311184"><ele>515.0</ele><time>2026-04-11T07:49:30.97Z</time></trkpt><trkpt lat="44.1572443" lon="10.3311141"><ele>516.4285714285714</ele><time>2026-04-11T07:49:34.972Z</time></trkpt><trkpt lat="44.1571742" lon="10.3310918"><ele>517.8571428571429</ele><time>2026-04-11T07:49:38.969Z</time></trkpt><trkpt lat="44.1571137" lon="10.3310417"><ele>519.2857142857142</ele><time>2026-04-11T07:49:42.96Z</time></trkpt><trkpt lat="44.1570636" lon="10.3309728"><ele>520.7142857142858</ele><time>2026-04-11T07:49:46.966Z</time></trkpt><trkpt lat="44.157032" lon="10.3308799"><ele>522.1428571428571</ele><time>2026-04-11T07:49:50.974Z</time></trkpt><trkpt lat="44.1570201" lon="10.3307792"><ele>523.5714285714286</ele><time>2026-04-11T07:49:54.974Z</time></trkpt><trkpt lat="44.1570163" lon="10.3306834"><ele>525.0</ele><time>2026-04-11T07:49:58.968Z</time></trkpt><trkpt lat="44.1570114" lon="10.3305922"><ele>525.0</ele><time>2026-04-11T07:50:01.965Z</time></trkpt><trkpt lat="44.1569522" lon="10.3305394"><ele>525.0</ele><time>2026-04-11T07:50:05.965Z</time></trkpt><trkpt lat="44.156876" lon="10.330573"><ele>525.0</ele><time>2026-04-11T07:50:09.965Z</time></trkpt><trkpt lat="44.1568105" lon="10.3306299"><ele>525.0</ele><time>2026-04-11T07:50:13.972Z</time></trkpt><trkpt lat="44.156763" lon="10.3306892"><ele>525.0</ele><time>2026-04-11T07:50:18.966Z</time></trkpt><trkpt lat="44.156698" lon="10.3307558"><ele>525.0</ele><time>2026-04-11T07:50:22.984Z</time></trkpt><trkpt lat="44.1566477" lon="10.3308279"><ele>525.0</ele><time>2026-04-11T07:50:25.968Z</time></trkpt><trkpt lat="44.1565892" lon="10.3309139"><ele>525.0</ele><time>2026-04-11T07:50:28.979Z</time></trkpt><trkpt lat="44.1565465" lon="10.3309992"><ele>525.0</ele><time>2026-04-11T07:50:31.966Z</time></trkpt><trkpt lat="44.156495" lon="10.3310838"><ele>525.0</ele><time>2026-04-11T07:50:34.968Z</time></trkpt><trkpt lat="44.1564419" lon="10.3311688"><ele>525.0</ele><time>2026-04-11T07:50:37.965Z</time></trkpt><trkpt lat="44.1563906" lon="10.331255"><ele>525.0</ele><time>2026-04-11T07:50:40.965Z</time></trkpt><trkpt lat="44.1563346" lon="10.3313425"><ele>525.0</ele><time>2026-04-11T07:50:43.975Z</time></trkpt><trkpt lat="44.1562883" lon="10.331432"><ele>526.1666666666666</ele><time>2026-04-11T07:50:46.994Z</time></trkpt><trkpt lat="44.156246" lon="10.3315232"><ele>527.3333333333334</ele><time>2026-04-11T07:50:49.964Z</time></trkpt><trkpt lat="44.1561951" lon="10.331612"><ele>528.5</ele><time>2026-04-11T07:50:52.986Z</time></trkpt><trkpt lat="44.1561425" lon="10.3317051"><ele>529.6666666666667</ele><time>2026-04-11T07:50:55.978Z</time></trkpt><trkpt lat="44.1560882" lon="10.3317965"><ele>530.8333333333334</ele><time>2026-04-11T07:50:58.966Z</time></trkpt><trkpt lat="44.1560279" lon="10.3318947"><ele>532.0</ele><time>2026-04-11T07:51:01.96Z</time></trkpt><trkpt lat="44.1559891" lon="10.3319724"><ele>532.0</ele><time>2026-04-11T07:51:03.968Z</time></trkpt><trkpt lat="44.1559405" lon="10.3320491"><ele>532.0</ele><time>2026-04-11T07:51:05.972Z</time></trkpt><trkpt lat="44.1558771" lon="10.3321231"><ele>532.0</ele><time>2026-04-11T07:51:07.96Z</time></trkpt><trkpt lat="44.1557949" lon="10.3322073"><ele>532.0</ele><time>2026-04-11T07:51:09.965Z</time></trkpt><trkpt lat="44.155742" lon="10.3322554"><ele>532.0</ele><time>2026-04-11T07:51:10.972Z</time></trkpt><trkpt lat="44.1556843" lon="10.3323086"><ele>532.0</ele><time>2026-04-11T07:51:11.981Z</time></trkpt><trkpt lat="44.155622" lon="10.3323697"><ele>530.5</ele><time>2026-04-11T07:51:12.975Z</time></trkpt><trkpt lat="44.1555519" lon="10.33243"><ele>529.0</ele><time>2026-04-11T07:51:13.972Z</time></trkpt><trkpt lat="44.1554787" lon="10.3324802"><ele>527.5</ele><time>2026-04-11T07:51:14.971Z</time></trkpt><trkpt lat="44.1554022" lon="10.3325054"><ele>526.0</ele><time>2026-04-11T07:51:15.967Z</time></trkpt><trkpt lat="44.1553262" lon="10.3325041"><ele>524.5</ele><time>2026-04-11T07:51:16.97Z</time></trkpt><trkpt lat="44.1552558" lon="10.3324883"><ele>523.0</ele><time>2026-04-11T07:51:17.97Z</time></trkpt><trkpt lat="44.15519" lon="10.3324692"><ele>523.0</ele><time>2026-04-11T07:51:18.969Z</time></trkpt><trkpt lat="44.155073" lon="10.3324358"><ele>523.0</ele><time>2026-04-11T07:51:20.978Z</time></trkpt><trkpt lat="44.1549788" lon="10.3324161"><ele>523.0</ele><time>2026-04-11T07:51:22.977Z</time></trkpt><trkpt lat="44.1549086" lon="10.3323942"><ele>523.0</ele><time>2026-04-11T07:51:24.961Z</time></trkpt><trkpt lat="44.1548371" lon="10.3323685"><ele>523.0</ele><time>2026-04-11T07:51:27.961Z</time></trkpt><trkpt lat="44.1547649" lon="10.332349"><ele>523.0</ele><time>2026-04-11T07:51:30.976Z</time></trkpt><trkpt lat="44.1546937" lon="10.3323322"><ele>524.9999999999999</ele><time>2026-04-11T07:51:33.973Z</time></trkpt><trkpt lat="44.1546213" lon="10.3323078"><ele>527.0</ele><time>2026-04-11T07:51:36.966Z</time></trkpt><trkpt lat="44.1545496" lon="10.3322802"><ele>529.0</ele><time>2026-04-11T07:51:39.97Z</time></trkpt><trkpt lat="44.1544827" lon="10.3322502"><ele>531.0</ele><time>2026-04-11T07:51:42.973Z</time></trkpt><trkpt lat="44.1544113" lon="10.3322392"><ele>533.0</ele><time>2026-04-11T07:51:45.972Z</time></trkpt><trkpt lat="44.1543401" lon="10.3322699"><ele>534.9999999999999</ele><time>2026-04-11T07:51:48.969Z</time></trkpt><trkpt lat="44.1542896" lon="10.3323475"><ele>537.0</ele><time>2026-04-11T07:51:51.975Z</time></trkpt><trkpt lat="44.154282" lon="10.3324494"><ele>536.9999999999999</ele><time>2026-04-11T07:51:54.976Z</time></trkpt><trkpt lat="44.154293" lon="10.3325379"><ele>537.0</ele><time>2026-04-11T07:51:57.968Z</time></trkpt><trkpt lat="44.1543092" lon="10.3326399"><ele>537.0</ele><time>2026-04-11T07:52:01.967Z</time></trkpt><trkpt lat="44.154308" lon="10.3327434"><ele>537.0</ele><time>2026-04-11T07:52:05.978Z</time></trkpt><trkpt lat="44.1542833" lon="10.3328429"><ele>537.0</ele><time>2026-04-11T07:52:09.967Z</time></trkpt><trkpt lat="44.1542302" lon="10.3329124"><ele>536.9999999999999</ele><time>2026-04-11T07:52:13.972Z</time></trkpt><trkpt lat="44.1541683" lon="10.3329619"><ele>537.0</ele><time>2026-04-11T07:52:17.965Z</time></trkpt><trkpt lat="44.1541085" lon="10.3330073"><ele>536.2857142857142</ele><time>2026-04-11T07:52:21.967Z</time></trkpt><trkpt lat="44.1540547" lon="10.33307"><ele>535.5714285714286</ele><time>2026-04-11T07:52:25.966Z</time></trkpt><trkpt lat="44.1539976" lon="10.3331372"><ele>534.8571428571429</ele><time>2026-04-11T07:52:29.96Z</time></trkpt><trkpt lat="44.1539359" lon="10.3332052"><ele>534.1428571428571</ele><time>2026-04-11T07:52:33.966Z</time></trkpt><trkpt lat="44.1538756" lon="10.333273"><ele>533.4285714285714</ele><time>2026-04-11T07:52:37.959Z</time></trkpt><trkpt lat="44.1538174" lon="10.3333314"><ele>532.7142857142857</ele><time>2026-04-11T07:52:41.965Z</time></trkpt><trkpt lat="44.153757" lon="10.3333922"><ele>532.0</ele><time>2026-04-11T07:52:45.969Z</time></trkpt><trkpt lat="44.1536981" lon="10.3334568"><ele>533.2857142857143</ele><time>2026-04-11T07:52:49.972Z</time></trkpt><trkpt lat="44.1536394" lon="10.3335222"><ele>534.5714285714286</ele><time>2026-04-11T07:52:53.961Z</time></trkpt><trkpt lat="44.1535795" lon="10.3335824"><ele>535.8571428571429</ele><time>2026-04-11T07:52:57.978Z</time></trkpt><trkpt lat="44.1535221" lon="10.3336429"><ele>537.1428571428571</ele><time>2026-04-11T07:53:01.957Z</time></trkpt><trkpt lat="44.1534699" lon="10.3337079"><ele>538.4285714285714</ele><time>2026-04-11T07:53:05.962Z</time></trkpt><trkpt lat="44.1534184" lon="10.3337698"><ele>539.7142857142858</ele><time>2026-04-11T07:53:09.969Z</time></trkpt><trkpt lat="44.1533562" lon="10.3338412"><ele>541.0</ele><time>2026-04-11T07:53:13.981Z</time></trkpt><trkpt lat="44.1533011" lon="10.3339178"><ele>541.0000000000001</ele><time>2026-04-11T07:53:17.962Z</time></trkpt><trkpt lat="44.153261" lon="10.3340061"><ele>541.0</ele><time>2026-04-11T07:53:21.974Z</time></trkpt><trkpt lat="44.1532447" lon="10.3341038"><ele>541.0</ele><time>2026-04-11T07:53:25.967Z</time></trkpt><trkpt lat="44.1532325" lon="10.3342042"><ele>541.0</ele><time>2026-04-11T07:53:29.974Z</time></trkpt><trkpt lat="44.1532142" lon="10.3343029"><ele>541.0</ele><time>2026-04-11T07:53:33.975Z</time></trkpt><trkpt lat="44.1532021" lon="10.3344015"><ele>541.0000000000001</ele><time>2026-04-11T07:53:37.968Z</time></trkpt><trkpt lat="44.1531856" lon="10.3344913"><ele>541.0</ele><time>2026-04-11T07:53:41.961Z</time></trkpt><trkpt lat="44.1531758" lon="10.3345933"><ele>542.8333333333334</ele><time>2026-04-11T07:53:45.979Z</time></trkpt><trkpt lat="44.1531658" lon="10.3346881"><ele>544.6666666666667</ele><time>2026-04-11T07:53:49.967Z</time></trkpt><trkpt lat="44.1531481" lon="10.3347835"><ele>546.5</ele><time>2026-04-11T07:53:53.977Z</time></trkpt><trkpt lat="44.1531138" lon="10.3348885"><ele>548.3333333333334</ele><time>2026-04-11T07:53:57.976Z</time></trkpt><trkpt lat="44.1530531" lon="10.3349651"><ele>550.1666666666666</ele><time>2026-04-11T07:54:01.973Z</time></trkpt><trkpt lat="44.1529823" lon="10.3350245"><ele>552.0</ele><time>2026-04-11T07:54:05.969Z</time></trkpt><trkpt lat="44.1529157" lon="10.3350599"><ele>552.2857142857143</ele><time>2026-04-11T07:54:09.987Z</time></trkpt><trkpt lat="44.1528471" lon="10.3350909"><ele>552.5714285714287</ele><time>2026-04-11T07:54:13.976Z</time></trkpt><trkpt lat="44.1527851" lon="10.3351275"><ele>552.8571428571429</ele><time>2026-04-11T07:54:17.969Z</time></trkpt><trkpt lat="44.1527174" lon="10.3351492"><ele>553.1428571428571</ele><time>2026-04-11T07:54:21.965Z</time></trkpt><trkpt lat="44.1526557" lon="10.335184"><ele>553.4285714285713</ele><time>2026-04-11T07:54:25.974Z</time></trkpt><trkpt lat="44.1525882" lon="10.3352216"><ele>553.7142857142857</ele><time>2026-04-11T07:54:29.962Z</time></trkpt><trkpt lat="44.1525221" lon="10.335249"><ele>554.0</ele><time>2026-04-11T07:54:33.98Z</time></trkpt><trkpt lat="44.1524457" lon="10.3352677"><ele>554.0</ele><time>2026-04-11T07:54:37.964Z</time></trkpt><trkpt lat="44.1523785" lon="10.3352748"><ele>554.0</ele><time>2026-04-11T07:54:41.968Z</time></trkpt><trkpt lat="44.1523103" lon="10.3352726"><ele>554.0</ele><time>2026-04-11T07:54:45.977Z</time></trkpt><trkpt lat="44.1522336" lon="10.335261"><ele>554.0</ele><time>2026-04-11T07:54:49.977Z</time></trkpt><trkpt lat="44.1521635" lon="10.3352276"><ele>554.0</ele><time>2026-04-11T07:54:53.973Z</time></trkpt><trkpt lat="44.1521018" lon="10.3351975"><ele>554.0</ele><time>2026-04-11T07:54:57.97Z</time></trkpt><trkpt lat="44.1520442" lon="10.3351564"><ele>554.0</ele><time>2026-04-11T07:55:00.975Z</time></trkpt><trkpt lat="44.1519888" lon="10.3351108"><ele>555.5</ele><time>2026-04-11T07:55:03.961Z</time></trkpt><trkpt lat="44.1519322" lon="10.3350351"><ele>557.0</ele><time>2026-04-11T07:55:07.966Z</time></trkpt><trkpt lat="44.1518898" lon="10.3349493"><ele>558.5</ele><time>2026-04-11T07:55:11.973Z</time></trkpt><trkpt lat="44.1518445" lon="10.3348589"><ele>560.0</ele><time>2026-04-11T07:55:15.979Z</time></trkpt><trkpt lat="44.1518123" lon="10.3347632"><ele>561.5</ele><time>2026-04-11T07:55:19.961Z</time></trkpt><trkpt lat="44.1517715" lon="10.3346914"><ele>563.0</ele><time>2026-04-11T07:55:23.971Z</time></trkpt><trkpt lat="44.1517305" lon="10.3346011"><ele>563.0</ele><time>2026-04-11T07:55:27.969Z</time></trkpt><trkpt lat="44.1516904" lon="10.3345144"><ele>563.0</ele><time>2026-04-11T07:55:31.992Z</time></trkpt><trkpt lat="44.1516433" lon="10.3344371"><ele>563.0</ele><time>2026-04-11T07:55:35.981Z</time></trkpt><trkpt lat="44.1515958" lon="10.3343619"><ele>563.0</ele><time>2026-04-11T07:55:39.973Z</time></trkpt><trkpt lat="44.1515347" lon="10.3342995"><ele>563.0</ele><time>2026-04-11T07:55:43.971Z</time></trkpt><trkpt lat="44.1514737" lon="10.3342348"><ele>563.0</ele><time>2026-04-11T07:55:47.967Z</time></trkpt><trkpt lat="44.151428" lon="10.3341608"><ele>563.0</ele><time>2026-04-11T07:55:51.961Z</time></trkpt><trkpt lat="44.1514007" lon="10.334074"><ele>563.0</ele><time>2026-04-11T07:55:55.964Z</time></trkpt><trkpt lat="44.1513783" lon="10.3339825"><ele>563.0</ele><time>2026-04-11T07:55:59.966Z</time></trkpt><trkpt lat="44.1513628" lon="10.333886"><ele>563.0</ele><time>2026-04-11T07:56:03.976Z</time></trkpt><trkpt lat="44.1513525" lon="10.3337937"><ele>563.0</ele><time>2026-04-11T07:56:07.969Z</time></trkpt><trkpt lat="44.1513448" lon="10.333704"><ele>563.0</ele><time>2026-04-11T07:56:11.981Z</time></trkpt><trkpt lat="44.1513456" lon="10.3336"><ele>563.0</ele><time>2026-04-11T07:56:15.966Z</time></trkpt><trkpt lat="44.1513498" lon="10.3334915"><ele>563.0</ele><time>2026-04-11T07:56:19.965Z</time></trkpt><trkpt lat="44.1513434" lon="10.3333845"><ele>565.5</ele><time>2026-04-11T07:56:23.97Z</time></trkpt><trkpt lat="44.1513307" lon="10.3332763"><ele>568.0</ele><time>2026-04-11T07:56:27.972Z</time></trkpt><trkpt lat="44.1513138" lon="10.3331756"><ele>570.5</ele><time>2026-04-11T07:56:31.97Z</time></trkpt><trkpt lat="44.1512978" lon="10.3330789"><ele>573.0</ele><time>2026-04-11T07:56:35.962Z</time></trkpt><trkpt lat="44.151267" lon="10.3330021"><ele>575.5</ele><time>2026-04-11T07:56:39.967Z</time></trkpt><trkpt lat="44.151184" lon="10.3329732"><ele>578.0</ele><time>2026-04-11T07:56:45.979Z</time></trkpt><trkpt lat="44.1511032" lon="10.3329841"><ele>578.4</ele><time>2026-04-11T07:56:47.97Z</time></trkpt><trkpt lat="44.1509884" lon="10.3330067"><ele>578.8</ele><time>2026-04-11T07:56:49.979Z</time></trkpt><trkpt lat="44.1508834" lon="10.3329603"><ele>579.2</ele><time>2026-04-11T07:56:51.966Z</time></trkpt><trkpt lat="44.1508163" lon="10.332858"><ele>579.6</ele><time>2026-04-11T07:56:53.976Z</time></trkpt><trkpt lat="44.1507588" lon="10.3327662"><ele>580.0</ele><time>2026-04-11T07:56:55.973Z</time></trkpt><trkpt lat="44.1506996" lon="10.332691"><ele>580.0</ele><time>2026-04-11T07:56:57.971Z</time></trkpt><trkpt lat="44.1506384" lon="10.3326472"><ele>580.0</ele><time>2026-04-11T07:56:59.958Z</time></trkpt><trkpt lat="44.1505598" lon="10.3326065"><ele>580.0</ele><time>2026-04-11T07:57:02.965Z</time></trkpt><trkpt lat="44.1505013" lon="10.3325317"><ele>580.0</ele><time>2026-04-11T07:57:06.982Z</time></trkpt><trkpt lat="44.1504709" lon="10.3324379"><ele>580.0</ele><time>2026-04-11T07:57:10.983Z</time></trkpt><trkpt lat="44.1504638" lon="10.3323366"><ele>580.0</ele><time>2026-04-11T07:57:14.971Z</time></trkpt><trkpt lat="44.1504519" lon="10.3322258"><ele>580.5714285714286</ele><time>2026-04-11T07:57:18.973Z</time></trkpt><trkpt lat="44.1504284" lon="10.3321307"><ele>581.1428571428572</ele><time>2026-04-11T07:57:22.966Z</time></trkpt><trkpt lat="44.1503963" lon="10.3320367"><ele>581.7142857142858</ele><time>2026-04-11T07:57:26.969Z</time></trkpt><trkpt lat="44.1503683" lon="10.3319333"><ele>582.2857142857143</ele><time>2026-04-11T07:57:30.965Z</time></trkpt><trkpt lat="44.1503309" lon="10.331838"><ele>582.8571428571429</ele><time>2026-04-11T07:57:34.971Z</time></trkpt><trkpt lat="44.1502992" lon="10.3317558"><ele>583.4285714285714</ele><time>2026-04-11T07:57:38.97Z</time></trkpt><trkpt lat="44.1502474" lon="10.3316805"><ele>584.0</ele><time>2026-04-11T07:57:42.967Z</time></trkpt><trkpt lat="44.1502043" lon="10.331606"><ele>584.0</ele><time>2026-04-11T07:57:46.959Z</time></trkpt><trkpt lat="44.1501617" lon="10.3315238"><ele>584.0</ele><time>2026-04-11T07:57:50.965Z</time></trkpt><trkpt lat="44.1501221" lon="10.3314341"><ele>584.0</ele><time>2026-04-11T07:57:54.963Z</time></trkpt><trkpt lat="44.1500725" lon="10.3313636"><ele>584.0</ele><time>2026-04-11T07:57:58.968Z</time></trkpt><trkpt lat="44.1500252" lon="10.3313024"><ele>584.0</ele><time>2026-04-11T07:58:02.968Z</time></trkpt><trkpt lat="44.1499749" lon="10.3312325"><ele>584.0</ele><time>2026-04-11T07:58:06.974Z</time></trkpt><trkpt lat="44.1499101" lon="10.3311526"><ele>584.0</ele><time>2026-04-11T07:58:09.963Z</time></trkpt><trkpt lat="44.1498729" lon="10.3310727"><ele>583.6666666666666</ele><time>2026-04-11T07:58:11.97Z</time></trkpt><trkpt lat="44.1498377" lon="10.3309755"><ele>583.3333333333333</ele><time>2026-04-11T07:58:14.963Z</time></trkpt><trkpt lat="44.149818" lon="10.3308838"><ele>583.0</ele><time>2026-04-11T07:58:18.958Z</time></trkpt><trkpt lat="44.1497988" lon="10.3307739"><ele>582.6666666666666</ele><time>2026-04-11T07:58:22.97Z</time></trkpt><trkpt lat="44.1498024" lon="10.3306623"><ele>582.3333333333334</ele><time>2026-04-11T07:58:27.971Z</time></trkpt><trkpt lat="44.1497799" lon="10.3305573"><ele>582.0</ele><time>2026-04-11T07:58:31.981Z</time></trkpt><trkpt lat="44.1497676" lon="10.330443"><ele>582.0</ele><time>2026-04-11T07:58:35.968Z</time></trkpt><trkpt lat="44.1497651" lon="10.3303512"><ele>582.0</ele><time>2026-04-11T07:58:38.982Z</time></trkpt><trkpt lat="44.1497642" lon="10.3302449"><ele>582.0</ele><time>2026-04-11T07:58:42.978Z</time></trkpt><trkpt lat="44.1497771" lon="10.3301538"><ele>582.0</ele><time>2026-04-11T07:58:46.962Z</time></trkpt><trkpt lat="44.1497805" lon="10.3300483"><ele>582.0</ele><time>2026-04-11T07:58:51.975Z</time></trkpt><trkpt lat="44.1497707" lon="10.3299462"><ele>582.0</ele><time>2026-04-11T07:58:55.97Z</time></trkpt><trkpt lat="44.1497682" lon="10.3298533"><ele>582.0</ele><time>2026-04-11T07:58:58.973Z</time></trkpt><trkpt lat="44.1497564" lon="10.329748"><ele>584.3333333333334</ele><time>2026-04-11T07:59:02.983Z</time></trkpt><trkpt lat="44.1497438" lon="10.329637"><ele>586.6666666666666</ele><time>2026-04-11T07:59:06.968Z</time></trkpt><trkpt lat="44.1497398" lon="10.3295256"><ele>589.0</ele><time>2026-04-11T07:59:10.962Z</time></trkpt><trkpt lat="44.1497246" lon="10.329422"><ele>591.3333333333333</ele><time>2026-04-11T07:59:14.968Z</time></trkpt><trkpt lat="44.1497153" lon="10.3293203"><ele>593.6666666666666</ele><time>2026-04-11T07:59:18.969Z</time></trkpt><trkpt lat="44.1497183" lon="10.3292093"><ele>596.0</ele><time>2026-04-11T07:59:22.963Z</time></trkpt><trkpt lat="44.1497265" lon="10.3290965"><ele>596.0</ele><time>2026-04-11T07:59:26.958Z</time></trkpt><trkpt lat="44.1497352" lon="10.3289973"><ele>596.0</ele><time>2026-04-11T07:59:30.968Z</time></trkpt><trkpt lat="44.1497504" lon="10.3288931"><ele>596.0</ele><time>2026-04-11T07:59:34.971Z</time></trkpt><trkpt lat="44.1497719" lon="10.3287996"><ele>596.0</ele><time>2026-04-11T07:59:38.962Z</time></trkpt><trkpt lat="44.1497944" lon="10.3287081"><ele>596.0</ele><time>2026-04-11T07:59:42.964Z</time></trkpt><trkpt lat="44.1498122" lon="10.3286091"><ele>596.0</ele><time>2026-04-11T07:59:46.977Z</time></trkpt><trkpt lat="44.1498329" lon="10.3284999"><ele>596.0</ele><time>2026-04-11T07:59:51.962Z</time></trkpt><trkpt lat="44.1498632" lon="10.3284062"><ele>598.2</ele><time>2026-04-11T07:59:54.963Z</time></trkpt><trkpt lat="44.1497777" lon="10.3284013"><ele>600.4000000000001</ele><time>2026-04-11T07:59:59.996Z</time></trkpt><trkpt lat="44.1497177" lon="10.3284858"><ele>602.6</ele><time>2026-04-11T08:00:01.968Z</time></trkpt><trkpt lat="44.1496421" lon="10.3285738"><ele>604.8000000000001</ele><time>2026-04-11T08:00:03.961Z</time></trkpt><trkpt lat="44.1495858" lon="10.3286138"><ele>607.0</ele><time>2026-04-11T08:00:04.958Z</time></trkpt><trkpt lat="44.1494954" lon="10.328727"><ele>607.0</ele><time>2026-04-11T08:00:06.961Z</time></trkpt><trkpt lat="44.1494551" lon="10.3287971"><ele>607.0</ele><time>2026-04-11T08:00:07.972Z</time></trkpt><trkpt lat="44.1494153" lon="10.3288718"><ele>607.0</ele><time>2026-04-11T08:00:08.963Z</time></trkpt><trkpt lat="44.1493798" lon="10.3289694"><ele>607.0</ele><time>2026-04-11T08:00:09.965Z</time></trkpt><trkpt lat="44.1493216" lon="10.3290649"><ele>607.0</ele><time>2026-04-11T08:00:10.975Z</time></trkpt><trkpt lat="44.1492702" lon="10.3291514"><ele>607.0</ele><time>2026-04-11T08:00:11.97Z</time></trkpt><trkpt lat="44.1492193" lon="10.3292394"><ele>605.1666666666667</ele><time>2026-04-11T08:00:12.963Z</time></trkpt><trkpt lat="44.1491963" lon="10.3293607"><ele>603.3333333333334</ele><time>2026-04-11T08:00:13.966Z</time></trkpt><trkpt lat="44.1491501" lon="10.3294684"><ele>601.5</ele><time>2026-04-11T08:00:14.966Z</time></trkpt><trkpt lat="44.1491016" lon="10.329561"><ele>599.6666666666666</ele><time>2026-04-11T08:00:15.964Z</time></trkpt><trkpt lat="44.1490522" lon="10.3296406"><ele>597.8333333333333</ele><time>2026-04-11T08:00:16.958Z</time></trkpt><trkpt lat="44.1489861" lon="10.3297047"><ele>596.0</ele><time>2026-04-11T08:00:17.964Z</time></trkpt><trkpt lat="44.1489285" lon="10.3297684"><ele>593.4</ele><time>2026-04-11T08:00:18.961Z</time></trkpt><trkpt lat="44.1488633" lon="10.3298463"><ele>590.8</ele><time>2026-04-11T08:00:19.958Z</time></trkpt><trkpt lat="44.148809" lon="10.3299237"><ele>588.1999999999999</ele><time>2026-04-11T08:00:20.964Z</time></trkpt><trkpt lat="44.1487713" lon="10.3300617"><ele>585.6</ele><time>2026-04-11T08:00:22.961Z</time></trkpt><trkpt lat="44.148741" lon="10.3301846"><ele>583.0</ele><time>2026-04-11T08:00:24.96Z</time></trkpt><trkpt lat="44.1486999" lon="10.3303441"><ele>583.0</ele><time>2026-04-11T08:00:26.964Z</time></trkpt><trkpt lat="44.1486763" lon="10.3304285"><ele>583.0</ele><time>2026-04-11T08:00:27.961Z</time></trkpt><trkpt lat="44.1486242" lon="10.3305715"><ele>583.0</ele><time>2026-04-11T08:00:29.963Z</time></trkpt><trkpt lat="44.1486132" lon="10.3307066"><ele>583.0</ele><time>2026-04-11T08:00:31.972Z</time></trkpt><trkpt lat="44.1486187" lon="10.3307997"><ele>583.0</ele><time>2026-04-11T08:00:32.961Z</time></trkpt><trkpt lat="44.1486115" lon="10.3309337"><ele>583.0</ele><time>2026-04-11T08:00:34.966Z</time></trkpt><trkpt lat="44.1486207" lon="10.3310472"><ele>580.8</ele><time>2026-04-11T08:00:36.965Z</time></trkpt><trkpt lat="44.148539" lon="10.3311057"><ele>578.5999999999999</ele><time>2026-04-11T08:00:40.975Z</time></trkpt><trkpt lat="44.1484424" lon="10.3311222"><ele>576.4000000000001</ele><time>2026-04-11T08:00:42.978Z</time></trkpt><trkpt lat="44.148337" lon="10.3311657"><ele>574.2</ele><time>2026-04-11T08:00:44.969Z</time></trkpt><trkpt lat="44.148216" lon="10.3312325"><ele>572.0</ele><time>2026-04-11T08:00:46.965Z</time></trkpt><trkpt lat="44.1481529" lon="10.3312702"><ele>571.3333333333333</ele><time>2026-04-11T08:00:47.968Z</time></trkpt><trkpt lat="44.1480864" lon="10.3313186"><ele>570.6666666666666</ele><time>2026-04-11T08:00:48.966Z</time></trkpt><trkpt lat="44.1480301" lon="10.331364"><ele>570.0</ele><time>2026-04-11T08:00:49.971Z</time></trkpt><trkpt lat="44.1479757" lon="10.3314086"><ele>569.3333333333334</ele><time>2026-04-11T08:00:50.97Z</time></trkpt><trkpt lat="44.1478799" lon="10.3314987"><ele>568.6666666666667</ele><time>2026-04-11T08:00:52.964Z</time></trkpt><trkpt lat="44.1478245" lon="10.3315422"><ele>568.0</ele><time>2026-04-11T08:00:53.969Z</time></trkpt><trkpt lat="44.1477224" lon="10.3316377"><ele>566.6</ele><time>2026-04-11T08:00:55.977Z</time></trkpt><trkpt lat="44.1476252" lon="10.3317301"><ele>565.1999999999999</ele><time>2026-04-11T08:00:57.968Z</time></trkpt><trkpt lat="44.1475392" lon="10.331831"><ele>563.8</ele><time>2026-04-11T08:00:59.977Z</time></trkpt><trkpt lat="44.147463" lon="10.3319168"><ele>562.4</ele><time>2026-04-11T08:01:01.974Z</time></trkpt><trkpt lat="44.1473889" lon="10.3320079"><ele>561.0</ele><time>2026-04-11T08:01:03.971Z</time></trkpt><trkpt lat="44.1473201" lon="10.3320926"><ele>560.0</ele><time>2026-04-11T08:01:05.981Z</time></trkpt><trkpt lat="44.1472441" lon="10.3321783"><ele>559.0</ele><time>2026-04-11T08:01:07.973Z</time></trkpt><trkpt lat="44.1471649" lon="10.3322614"><ele>558.0</ele><time>2026-04-11T08:01:09.984Z</time></trkpt><trkpt lat="44.1470923" lon="10.3323634"><ele>557.0</ele><time>2026-04-11T08:01:11.974Z</time></trkpt><trkpt lat="44.147023" lon="10.332489"><ele>556.0</ele><time>2026-04-11T08:01:13.971Z</time></trkpt><trkpt lat="44.1469585" lon="10.332632"><ele>554.75</ele><time>2026-04-11T08:01:15.966Z</time></trkpt><trkpt lat="44.1468889" lon="10.3327703"><ele>553.5</ele><time>2026-04-11T08:01:17.979Z</time></trkpt><trkpt lat="44.1468184" lon="10.3329027"><ele>552.25</ele><time>2026-04-11T08:01:19.967Z</time></trkpt><trkpt lat="44.1467551" lon="10.3330382"><ele>551.0</ele><time>2026-04-11T08:01:21.966Z</time></trkpt><trkpt lat="44.1467014" lon="10.3331792"><ele>550.0</ele><time>2026-04-11T08:01:23.97Z</time></trkpt><trkpt lat="44.1466318" lon="10.333308"><ele>549.0</ele><time>2026-04-11T08:01:25.971Z</time></trkpt><trkpt lat="44.1465663" lon="10.3334238"><ele>548.0</ele><time>2026-04-11T08:01:27.967Z</time></trkpt><trkpt lat="44.1465047" lon="10.3335494"><ele>547.0</ele><time>2026-04-11T08:01:29.974Z</time></trkpt><trkpt lat="44.1464499" lon="10.3336681"><ele>546.0</ele><time>2026-04-11T08:01:31.979Z</time></trkpt><trkpt lat="44.1464007" lon="10.3337483"><ele>544.5</ele><time>2026-04-11T08:01:33.968Z</time></trkpt><trkpt lat="44.1463327" lon="10.3337466"><ele>543.0</ele><time>2026-04-11T08:01:36.974Z</time></trkpt><trkpt lat="44.1462981" lon="10.3336483"><ele>541.5</ele><time>2026-04-11T08:01:39.964Z</time></trkpt><trkpt lat="44.1462812" lon="10.3335627"><ele>540.0</ele><time>2026-04-11T08:01:41.984Z</time></trkpt><trkpt lat="44.1462228" lon="10.3335263"><ele>538.5</ele><time>2026-04-11T08:01:43.964Z</time></trkpt><trkpt lat="44.1461719" lon="10.3336042"><ele>537.0</ele><time>2026-04-11T08:01:45.968Z</time></trkpt><trkpt lat="44.1461231" lon="10.33374"><ele>537.0</ele><time>2026-04-11T08:01:47.973Z</time></trkpt><trkpt lat="44.1460961" lon="10.3338568"><ele>537.0</ele><time>2026-04-11T08:01:49.973Z</time></trkpt><trkpt lat="44.1460615" lon="10.3339672"><ele>537.0</ele><time>2026-04-11T08:01:51.966Z</time></trkpt><trkpt lat="44.1459914" lon="10.3340575"><ele>537.0</ele><time>2026-04-11T08:01:53.964Z</time></trkpt><trkpt lat="44.1459561" lon="10.3341561"><ele>537.0</ele><time>2026-04-11T08:01:55.972Z</time></trkpt><trkpt lat="44.1459821" lon="10.3342559"><ele>537.0</ele><time>2026-04-11T08:01:57.969Z</time></trkpt><trkpt lat="44.1460262" lon="10.3343472"><ele>536.2857142857142</ele><time>2026-04-11T08:01:59.97Z</time></trkpt><trkpt lat="44.1460671" lon="10.3344227"><ele>535.5714285714286</ele><time>2026-04-11T08:02:01.976Z</time></trkpt><trkpt lat="44.146118" lon="10.3344943"><ele>534.8571428571429</ele><time>2026-04-11T08:02:04.977Z</time></trkpt><trkpt lat="44.146176" lon="10.3345684"><ele>534.1428571428571</ele><time>2026-04-11T08:02:07.981Z</time></trkpt><trkpt lat="44.1462319" lon="10.3346355"><ele>533.4285714285714</ele><time>2026-04-11T08:02:10.976Z</time></trkpt><trkpt lat="44.1462892" lon="10.3347227"><ele>532.7142857142857</ele><time>2026-04-11T08:02:14.961Z</time></trkpt><trkpt lat="44.1463378" lon="10.3347865"><ele>532.0</ele><time>2026-04-11T08:02:16.97Z</time></trkpt><trkpt lat="44.1464322" lon="10.334895"><ele>530.0</ele><time>2026-04-11T08:02:18.975Z</time></trkpt><trkpt lat="44.1465229" lon="10.3349722"><ele>528.0</ele><time>2026-04-11T08:02:20.962Z</time></trkpt><trkpt lat="44.1465992" lon="10.3350377"><ele>526.0</ele><time>2026-04-11T08:02:22.959Z</time></trkpt><trkpt lat="44.1467838" lon="10.3351804"><ele>524.0</ele><time>2026-04-11T08:02:28.979Z</time></trkpt><trkpt lat="44.1467521" lon="10.3352858"><ele>524.0</ele><time>2026-04-11T08:02:31.96Z</time></trkpt><trkpt lat="44.1467157" lon="10.3353852"><ele>524.0</ele><time>2026-04-11T08:02:33.973Z</time></trkpt><trkpt lat="44.1466823" lon="10.3355135"><ele>524.0</ele><time>2026-04-11T08:02:35.977Z</time></trkpt><trkpt lat="44.1466485" lon="10.3356537"><ele>524.0</ele><time>2026-04-11T08:02:37.977Z</time></trkpt><trkpt lat="44.1466024" lon="10.3357874"><ele>524.0</ele><time>2026-04-11T08:02:39.978Z</time></trkpt><trkpt lat="44.1465396" lon="10.3358916"><ele>522.2</ele><time>2026-04-11T08:02:41.973Z</time></trkpt><trkpt lat="44.146457" lon="10.335972"><ele>520.4</ele><time>2026-04-11T08:02:43.979Z</time></trkpt><trkpt lat="44.1463498" lon="10.3360559"><ele>518.6</ele><time>2026-04-11T08:02:45.967Z</time></trkpt><trkpt lat="44.1462359" lon="10.3361232"><ele>516.8</ele><time>2026-04-11T08:02:47.97Z</time></trkpt><trkpt lat="44.1461772" lon="10.3361685"><ele>515.0</ele><time>2026-04-11T08:02:48.972Z</time></trkpt><trkpt lat="44.1461149" lon="10.3362111"><ele>515.0</ele><time>2026-04-11T08:02:49.969Z</time></trkpt><trkpt lat="44.146051" lon="10.3362565"><ele>515.0</ele><time>2026-04-11T08:02:50.969Z</time></trkpt><trkpt lat="44.1459866" lon="10.3362974"><ele>515.0</ele><time>2026-04-11T08:02:51.973Z</time></trkpt><trkpt lat="44.1459179" lon="10.3363244"><ele>515.0</ele><time>2026-04-11T08:02:52.973Z</time></trkpt><trkpt lat="44.1458507" lon="10.3363568"><ele>515.0</ele><time>2026-04-11T08:02:53.966Z</time></trkpt><trkpt lat="44.1457857" lon="10.3363914"><ele>515.0</ele><time>2026-04-11T08:02:54.973Z</time></trkpt><trkpt lat="44.1457192" lon="10.336431"><ele>515.0</ele><time>2026-04-11T08:02:55.965Z</time></trkpt><trkpt lat="44.145648" lon="10.3364663"><ele>514.4285714285714</ele><time>2026-04-11T08:02:56.981Z</time></trkpt><trkpt lat="44.145579" lon="10.3365046"><ele>513.8571428571429</ele><time>2026-04-11T08:02:57.971Z</time></trkpt><trkpt lat="44.1455086" lon="10.3365358"><ele>513.2857142857142</ele><time>2026-04-11T08:02:58.973Z</time></trkpt><trkpt lat="44.1454406" lon="10.3365724"><ele>512.7142857142858</ele><time>2026-04-11T08:02:59.979Z</time></trkpt><trkpt lat="44.1453727" lon="10.3366024"><ele>512.1428571428571</ele><time>2026-04-11T08:03:00.968Z</time></trkpt><trkpt lat="44.1453023" lon="10.3366393"><ele>511.57142857142856</ele><time>2026-04-11T08:03:01.984Z</time></trkpt><trkpt lat="44.1452316" lon="10.3366757"><ele>511.0</ele><time>2026-04-11T08:03:02.972Z</time></trkpt><trkpt lat="44.1451596" lon="10.3367127"><ele>511.00000000000006</ele><time>2026-04-11T08:03:03.967Z</time></trkpt><trkpt lat="44.1450982" lon="10.3367572"><ele>511.0</ele><time>2026-04-11T08:03:04.973Z</time></trkpt><trkpt lat="44.1450424" lon="10.3368022"><ele>511.0</ele><time>2026-04-11T08:03:05.97Z</time></trkpt><trkpt lat="44.1449563" lon="10.3368708"><ele>511.0</ele><time>2026-04-11T08:03:07.985Z</time></trkpt><trkpt lat="44.1448773" lon="10.3369305"><ele>511.00000000000006</ele><time>2026-04-11T08:03:09.982Z</time></trkpt><trkpt lat="44.1448122" lon="10.3369773"><ele>511.0</ele><time>2026-04-11T08:03:11.972Z</time></trkpt><trkpt lat="44.1447494" lon="10.3370341"><ele>509.42857142857144</ele><time>2026-04-11T08:03:14.973Z</time></trkpt><trkpt lat="44.144691" lon="10.3370959"><ele>507.8571428571429</ele><time>2026-04-11T08:03:18.963Z</time></trkpt><trkpt lat="44.1446347" lon="10.3371622"><ele>506.2857142857143</ele><time>2026-04-11T08:03:22.961Z</time></trkpt><trkpt lat="44.1445788" lon="10.3372167"><ele>504.7142857142857</ele><time>2026-04-11T08:03:26.979Z</time></trkpt><trkpt lat="44.1445172" lon="10.3372681"><ele>503.14285714285717</ele><time>2026-04-11T08:03:30.963Z</time></trkpt><trkpt lat="44.1444515" lon="10.3373136"><ele>501.57142857142856</ele><time>2026-04-11T08:03:34.969Z</time></trkpt><trkpt lat="44.1443812" lon="10.3373607"><ele>500.0</ele><time>2026-04-11T08:03:38.976Z</time></trkpt><trkpt lat="44.1443297" lon="10.3374246"><ele>503.1428571428571</ele><time>2026-04-11T08:03:42.983Z</time></trkpt><trkpt lat="44.1443219" lon="10.3375145"><ele>506.28571428571433</ele><time>2026-04-11T08:03:46.972Z</time></trkpt><trkpt lat="44.1443275" lon="10.3376165"><ele>509.42857142857144</ele><time>2026-04-11T08:03:50.97Z</time></trkpt><trkpt lat="44.1443014" lon="10.3377177"><ele>512.5714285714286</ele><time>2026-04-11T08:03:54.964Z</time></trkpt><trkpt lat="44.1442602" lon="10.3378052"><ele>515.7142857142857</ele><time>2026-04-11T08:03:58.958Z</time></trkpt><trkpt lat="44.1442342" lon="10.3378886"><ele>518.8571428571429</ele><time>2026-04-11T08:04:01.96Z</time></trkpt><trkpt lat="44.1441836" lon="10.3379863"><ele>522.0</ele><time>2026-04-11T08:04:04.961Z</time></trkpt><trkpt lat="44.1441324" lon="10.3380634"><ele>522.6666666666666</ele><time>2026-04-11T08:04:06.964Z</time></trkpt><trkpt lat="44.144096" lon="10.3381565"><ele>523.3333333333334</ele><time>2026-04-11T08:04:08.962Z</time></trkpt><trkpt lat="44.1440685" lon="10.3382585"><ele>524.0</ele><time>2026-04-11T08:04:10.959Z</time></trkpt><trkpt lat="44.1440608" lon="10.3383555"><ele>524.6666666666667</ele><time>2026-04-11T08:04:12.969Z</time></trkpt><trkpt lat="44.1439806" lon="10.3383892"><ele>525.3333333333334</ele><time>2026-04-11T08:04:15.961Z</time></trkpt><trkpt lat="44.1439089" lon="10.3382647"><ele>526.0</ele><time>2026-04-11T08:04:17.964Z</time></trkpt><trkpt lat="44.1438684" lon="10.3381863"><ele>522.6</ele><time>2026-04-11T08:04:18.962Z</time></trkpt><trkpt lat="44.1437956" lon="10.3380698"><ele>519.2</ele><time>2026-04-11T08:04:20.966Z</time></trkpt><trkpt lat="44.1437431" lon="10.3379709"><ele>515.8</ele><time>2026-04-11T08:04:22.972Z</time></trkpt><trkpt lat="44.1436704" lon="10.3379908"><ele>512.4</ele><time>2026-04-11T08:04:25.966Z</time></trkpt><trkpt lat="44.143699" lon="10.3380971"><ele>509.0</ele><time>2026-04-11T08:04:27.97Z</time></trkpt><trkpt lat="44.1437374" lon="10.3382612"><ele>508.3333333333333</ele><time>2026-04-11T08:04:29.967Z</time></trkpt><trkpt lat="44.1437431" lon="10.3383696"><ele>507.66666666666663</ele><time>2026-04-11T08:04:30.975Z</time></trkpt><trkpt lat="44.1437494" lon="10.338487"><ele>507.0</ele><time>2026-04-11T08:04:31.973Z</time></trkpt><trkpt lat="44.1437545" lon="10.3386133"><ele>506.33333333333337</ele><time>2026-04-11T08:04:32.976Z</time></trkpt><trkpt lat="44.1437608" lon="10.3387466"><ele>505.6666666666667</ele><time>2026-04-11T08:04:33.964Z</time></trkpt><trkpt lat="44.1437737" lon="10.3388847"><ele>505.0</ele><time>2026-04-11T08:04:34.971Z</time></trkpt><trkpt lat="44.1437922" lon="10.3390243"><ele>502.00000000000006</ele><time>2026-04-11T08:04:35.965Z</time></trkpt><trkpt lat="44.1438127" lon="10.3391427"><ele>499.0</ele><time>2026-04-11T08:04:36.963Z</time></trkpt><trkpt lat="44.1438329" lon="10.3392384"><ele>496.0</ele><time>2026-04-11T08:04:37.974Z</time></trkpt><trkpt lat="44.1438533" lon="10.3393354"><ele>493.0</ele><time>2026-04-11T08:04:38.973Z</time></trkpt><trkpt lat="44.1438863" lon="10.3394376"><ele>490.00000000000006</ele><time>2026-04-11T08:04:39.969Z</time></trkpt><trkpt lat="44.1439133" lon="10.339544"><ele>487.0</ele><time>2026-04-11T08:04:40.968Z</time></trkpt><trkpt lat="44.1439434" lon="10.3396832"><ele>485.0</ele><time>2026-04-11T08:04:41.975Z</time></trkpt><trkpt lat="44.1439586" lon="10.3398032"><ele>483.00000000000006</ele><time>2026-04-11T08:04:42.98Z</time></trkpt><trkpt lat="44.1439681" lon="10.3399237"><ele>481.00000000000006</ele><time>2026-04-11T08:04:43.973Z</time></trkpt><trkpt lat="44.1439703" lon="10.3400626"><ele>479.0</ele><time>2026-04-11T08:04:44.976Z</time></trkpt><trkpt lat="44.1439686" lon="10.3401964"><ele>477.0</ele><time>2026-04-11T08:04:45.962Z</time></trkpt><trkpt lat="44.1439734" lon="10.3403174"><ele>477.0</ele><time>2026-04-11T08:04:46.975Z</time></trkpt><trkpt lat="44.1439916" lon="10.3404334"><ele>477.0</ele><time>2026-04-11T08:04:47.959Z</time></trkpt><trkpt lat="44.1440221" lon="10.3405471"><ele>477.0</ele><time>2026-04-11T08:04:48.958Z</time></trkpt><trkpt lat="44.1440433" lon="10.3406441"><ele>477.0</ele><time>2026-04-11T08:04:49.964Z</time></trkpt><trkpt lat="44.1440659" lon="10.3407282"><ele>477.0</ele><time>2026-04-11T08:04:50.961Z</time></trkpt><trkpt lat="44.1440929" lon="10.3408883"><ele>477.0</ele><time>2026-04-11T08:04:52.969Z</time></trkpt><trkpt lat="44.144069" lon="10.3410208"><ele>475.5</ele><time>2026-04-11T08:04:54.964Z</time></trkpt><trkpt lat="44.1439679" lon="10.3410503"><ele>474.0</ele><time>2026-04-11T08:04:56.99Z</time></trkpt><trkpt lat="44.143862" lon="10.3410314"><ele>472.5</ele><time>2026-04-11T08:04:58.967Z</time></trkpt><trkpt lat="44.1437901" lon="10.3410555"><ele>471.0</ele><time>2026-04-11T08:05:00.963Z</time></trkpt><trkpt lat="44.1437094" lon="10.3410016"><ele>469.5</ele><time>2026-04-11T08:05:03.975Z</time></trkpt><trkpt lat="44.143645" lon="10.3409683"><ele>468.0</ele><time>2026-04-11T08:05:06.965Z</time></trkpt><trkpt lat="44.1435745" lon="10.3409441"><ele>468.0</ele><time>2026-04-11T08:05:10.969Z</time></trkpt><trkpt lat="44.1435091" lon="10.3409024"><ele>468.0</ele><time>2026-04-11T08:05:13.963Z</time></trkpt><trkpt lat="44.14348" lon="10.3408046"><ele>468.0</ele><time>2026-04-11T08:05:17.977Z</time></trkpt><trkpt lat="44.1433827" lon="10.3408125"><ele>468.0</ele><time>2026-04-11T08:05:22.957Z</time></trkpt><trkpt lat="44.1433342" lon="10.3408826"><ele>468.0</ele><time>2026-04-11T08:05:24.956Z</time></trkpt><trkpt lat="44.1433135" lon="10.3409726"><ele>468.0</ele><time>2026-04-11T08:05:27.965Z</time></trkpt><trkpt lat="44.1432792" lon="10.3408832"><ele>468.0</ele><time>2026-04-11T08:05:32.965Z</time></trkpt><trkpt lat="44.1432825" lon="10.3407724"><ele>467.99999999999994</ele><time>2026-04-11T08:05:34.972Z</time></trkpt><trkpt lat="44.1432599" lon="10.3406136"><ele>467.99999999999994</ele><time>2026-04-11T08:05:36.968Z</time></trkpt><trkpt lat="44.1432341" lon="10.3404926"><ele>468.0</ele><time>2026-04-11T08:05:38.971Z</time></trkpt><trkpt lat="44.1431898" lon="10.340331"><ele>468.0</ele><time>2026-04-11T08:05:40.956Z</time></trkpt><trkpt lat="44.1431623" lon="10.3402434"><ele>466.42857142857144</ele><time>2026-04-11T08:05:41.977Z</time></trkpt><trkpt lat="44.1431252" lon="10.3401529"><ele>464.8571428571429</ele><time>2026-04-11T08:05:42.975Z</time></trkpt><trkpt lat="44.1430879" lon="10.3400616"><ele>463.28571428571433</ele><time>2026-04-11T08:05:43.963Z</time></trkpt><trkpt lat="44.1430562" lon="10.3399721"><ele>461.7142857142858</ele><time>2026-04-11T08:05:44.984Z</time></trkpt><trkpt lat="44.1430199" lon="10.3398899"><ele>460.14285714285717</ele><time>2026-04-11T08:05:45.982Z</time></trkpt><trkpt lat="44.1429638" lon="10.3398069"><ele>458.57142857142867</ele><time>2026-04-11T08:05:46.969Z</time></trkpt><trkpt lat="44.1429188" lon="10.3397273"><ele>457.00000000000006</ele><time>2026-04-11T08:05:47.969Z</time></trkpt><trkpt lat="44.1428738" lon="10.3396478"><ele>457.0</ele><time>2026-04-11T08:05:48.959Z</time></trkpt><trkpt lat="44.1428129" lon="10.3395284"><ele>457.00000000000006</ele><time>2026-04-11T08:05:50.959Z</time></trkpt><trkpt lat="44.1427474" lon="10.3394453"><ele>457.00000000000006</ele><time>2026-04-11T08:05:52.96Z</time></trkpt><trkpt lat="44.1426781" lon="10.3393839"><ele>457.0</ele><time>2026-04-11T08:05:54.962Z</time></trkpt><trkpt lat="44.1426099" lon="10.3393509"><ele>457.0</ele><time>2026-04-11T08:05:56.984Z</time></trkpt><trkpt lat="44.1425095" lon="10.339312"><ele>457.0</ele><time>2026-04-11T08:05:58.976Z</time></trkpt><trkpt lat="44.1423884" lon="10.3392431"><ele>457.00000000000006</ele><time>2026-04-11T08:06:00.976Z</time></trkpt><trkpt lat="44.1423232" lon="10.3392038"><ele>457.00000000000006</ele><time>2026-04-11T08:06:01.988Z</time></trkpt><trkpt lat="44.1422191" lon="10.339172"><ele>457.0</ele><time>2026-04-11T08:06:03.965Z</time></trkpt><trkpt lat="44.1421186" lon="10.3390927"><ele>457.0</ele><time>2026-04-11T08:06:05.964Z</time></trkpt><trkpt lat="44.142041" lon="10.3390474"><ele>454.50000000000006</ele><time>2026-04-11T08:06:06.966Z</time></trkpt><trkpt lat="44.1419804" lon="10.3390016"><ele>452.0</ele><time>2026-04-11T08:06:07.989Z</time></trkpt><trkpt lat="44.1418984" lon="10.3388608"><ele>449.5</ele><time>2026-04-11T08:06:09.972Z</time></trkpt><trkpt lat="44.1418656" lon="10.338775"><ele>447.0</ele><time>2026-04-11T08:06:10.963Z</time></trkpt><trkpt lat="44.1418246" lon="10.3386956"><ele>444.50000000000006</ele><time>2026-04-11T08:06:11.983Z</time></trkpt><trkpt lat="44.1417915" lon="10.3386064"><ele>442.0</ele><time>2026-04-11T08:06:12.957Z</time></trkpt><trkpt lat="44.1417571" lon="10.3385236"><ele>442.0</ele><time>2026-04-11T08:06:13.972Z</time></trkpt><trkpt lat="44.1417291" lon="10.3384363"><ele>442.00000000000006</ele><time>2026-04-11T08:06:14.961Z</time></trkpt><trkpt lat="44.1416827" lon="10.3382816"><ele>442.00000000000006</ele><time>2026-04-11T08:06:16.975Z</time></trkpt><trkpt lat="44.1416533" lon="10.3381535"><ele>442.0</ele><time>2026-04-11T08:06:18.965Z</time></trkpt><trkpt lat="44.1416097" lon="10.3380071"><ele>442.0</ele><time>2026-04-11T08:06:20.975Z</time></trkpt><trkpt lat="44.1415685" lon="10.3378557"><ele>441.0</ele><time>2026-04-11T08:06:22.969Z</time></trkpt><trkpt lat="44.1415769" lon="10.3376956"><ele>440.00000000000006</ele><time>2026-04-11T08:06:24.981Z</time></trkpt><trkpt lat="44.1416331" lon="10.3375664"><ele>439.00000000000006</ele><time>2026-04-11T08:06:26.977Z</time></trkpt><trkpt lat="44.1416644" lon="10.3374566"><ele>438.0</ele><time>2026-04-11T08:06:28.972Z</time></trkpt><trkpt lat="44.1416425" lon="10.3373301"><ele>437.0</ele><time>2026-04-11T08:06:30.982Z</time></trkpt><trkpt lat="44.1415938" lon="10.3372695"><ele>434.6</ele><time>2026-04-11T08:06:31.977Z</time></trkpt><trkpt lat="44.1414827" lon="10.3371925"><ele>432.20000000000005</ele><time>2026-04-11T08:06:33.974Z</time></trkpt><trkpt lat="44.1413885" lon="10.3371481"><ele>429.8</ele><time>2026-04-11T08:06:35.977Z</time></trkpt><trkpt lat="44.1413207" lon="10.3371173"><ele>427.4</ele><time>2026-04-11T08:06:37.968Z</time></trkpt><trkpt lat="44.1412426" lon="10.3371066"><ele>425.0</ele><time>2026-04-11T08:06:41.98Z</time></trkpt><trkpt lat="44.1411677" lon="10.3370835"><ele>425.0</ele><time>2026-04-11T08:06:45.974Z</time></trkpt><trkpt lat="44.1411057" lon="10.337029"><ele>425.0</ele><time>2026-04-11T08:06:49.966Z</time></trkpt><trkpt lat="44.1410846" lon="10.3369285"><ele>425.0</ele><time>2026-04-11T08:06:53.965Z</time></trkpt><trkpt lat="44.141079" lon="10.3368178"><ele>425.0</ele><time>2026-04-11T08:06:57.972Z</time></trkpt><trkpt lat="44.141074" lon="10.3367281"><ele>425.0</ele><time>2026-04-11T08:07:00.969Z</time></trkpt><trkpt lat="44.1410674" lon="10.336634"><ele>425.0</ele><time>2026-04-11T08:07:03.977Z</time></trkpt><trkpt lat="44.1410544" lon="10.3365422"><ele>425.0</ele><time>2026-04-11T08:07:06.982Z</time></trkpt><trkpt lat="44.1410429" lon="10.3364458"><ele>425.66666666666663</ele><time>2026-04-11T08:07:09.968Z</time></trkpt><trkpt lat="44.1410357" lon="10.3363467"><ele>426.3333333333333</ele><time>2026-04-11T08:07:13.974Z</time></trkpt><trkpt lat="44.1410311" lon="10.3362322"><ele>427.0</ele><time>2026-04-11T08:07:16.971Z</time></trkpt><trkpt lat="44.1410191" lon="10.3361162"><ele>427.66666666666663</ele><time>2026-04-11T08:07:19.963Z</time></trkpt><trkpt lat="44.1410031" lon="10.336031"><ele>428.3333333333333</ele><time>2026-04-11T08:07:21.966Z</time></trkpt><trkpt lat="44.1409644" lon="10.3359198"><ele>429.0</ele><time>2026-04-11T08:07:24.962Z</time></trkpt><trkpt lat="44.1409231" lon="10.3358058"><ele>429.0</ele><time>2026-04-11T08:07:27.969Z</time></trkpt><trkpt lat="44.1408567" lon="10.3357189"><ele>429.0</ele><time>2026-04-11T08:07:30.972Z</time></trkpt><trkpt lat="44.1408061" lon="10.3356268"><ele>429.0</ele><time>2026-04-11T08:07:33.98Z</time></trkpt><trkpt lat="44.1407655" lon="10.3355316"><ele>429.0</ele><time>2026-04-11T08:07:36.969Z</time></trkpt><trkpt lat="44.1407186" lon="10.3354486"><ele>429.0</ele><time>2026-04-11T08:07:39.981Z</time></trkpt><trkpt lat="44.1406784" lon="10.3353569"><ele>429.0</ele><time>2026-04-11T08:07:42.968Z</time></trkpt><trkpt lat="44.140649" lon="10.3352595"><ele>428.5</ele><time>2026-04-11T08:07:44.963Z</time></trkpt><trkpt lat="44.1406329" lon="10.3351568"><ele>428.0</ele><time>2026-04-11T08:07:46.976Z</time></trkpt><trkpt lat="44.1406225" lon="10.3350669"><ele>427.5</ele><time>2026-04-11T08:07:48.963Z</time></trkpt><trkpt lat="44.1406232" lon="10.3349497"><ele>427.0</ele><time>2026-04-11T08:07:51.962Z</time></trkpt><trkpt lat="44.1406206" lon="10.3348403"><ele>426.5</ele><time>2026-04-11T08:07:54.97Z</time></trkpt><trkpt lat="44.1406262" lon="10.3347279"><ele>426.0</ele><time>2026-04-11T08:07:57.979Z</time></trkpt><trkpt lat="44.1406262" lon="10.3346135"><ele>426.0</ele><time>2026-04-11T08:08:00.984Z</time></trkpt><trkpt lat="44.1406146" lon="10.3345113"><ele>426.0</ele><time>2026-04-11T08:08:03.99Z</time></trkpt><trkpt lat="44.1405986" lon="10.3343977"><ele>426.0</ele><time>2026-04-11T08:08:06.977Z</time></trkpt><trkpt lat="44.1405829" lon="10.3342786"><ele>426.0</ele><time>2026-04-11T08:08:09.973Z</time></trkpt><trkpt lat="44.1405671" lon="10.3341513"><ele>426.0</ele><time>2026-04-11T08:08:12.974Z</time></trkpt><trkpt lat="44.1405592" lon="10.3340538"><ele>426.0</ele><time>2026-04-11T08:08:14.975Z</time></trkpt><trkpt lat="44.1405455" lon="10.333947"><ele>426.5</ele><time>2026-04-11T08:08:16.985Z</time></trkpt><trkpt lat="44.1405237" lon="10.3338366"><ele>427.0</ele><time>2026-04-11T08:08:18.98Z</time></trkpt><trkpt lat="44.1404947" lon="10.3337246"><ele>427.5</ele><time>2026-04-11T08:08:20.964Z</time></trkpt><trkpt lat="44.1404614" lon="10.3336235"><ele>428.0</ele><time>2026-04-11T08:08:22.966Z</time></trkpt><trkpt lat="44.1404266" lon="10.3335201"><ele>428.5</ele><time>2026-04-11T08:08:24.977Z</time></trkpt><trkpt lat="44.14039" lon="10.3334202"><ele>429.0</ele><time>2026-04-11T08:08:26.973Z</time></trkpt><trkpt lat="44.1403524" lon="10.3333252"><ele>429.0</ele><time>2026-04-11T08:08:28.961Z</time></trkpt><trkpt lat="44.140318" lon="10.3332296"><ele>429.0</ele><time>2026-04-11T08:08:30.98Z</time></trkpt><trkpt lat="44.1402844" lon="10.3331358"><ele>429.0</ele><time>2026-04-11T08:08:32.968Z</time></trkpt><trkpt lat="44.1402491" lon="10.3330513"><ele>429.0</ele><time>2026-04-11T08:08:34.981Z</time></trkpt><trkpt lat="44.1402125" lon="10.3329674"><ele>429.0</ele><time>2026-04-11T08:08:36.968Z</time></trkpt><trkpt lat="44.140178" lon="10.3328798"><ele>429.0</ele><time>2026-04-11T08:08:38.97Z</time></trkpt><trkpt lat="44.1401456" lon="10.3327853"><ele>429.0</ele><time>2026-04-11T08:08:40.98Z</time></trkpt><trkpt lat="44.140114" lon="10.3326859"><ele>429.2857142857143</ele><time>2026-04-11T08:08:42.967Z</time></trkpt><trkpt lat="44.1400869" lon="10.3325873"><ele>429.57142857142856</ele><time>2026-04-11T08:08:44.965Z</time></trkpt><trkpt lat="44.1400528" lon="10.3324958"><ele>429.8571428571429</ele><time>2026-04-11T08:08:46.97Z</time></trkpt><trkpt lat="44.1400203" lon="10.3323998"><ele>430.1428571428571</ele><time>2026-04-11T08:08:48.978Z</time></trkpt><trkpt lat="44.1399887" lon="10.3323089"><ele>430.4285714285714</ele><time>2026-04-11T08:08:50.975Z</time></trkpt><trkpt lat="44.1399512" lon="10.3322153"><ele>430.7142857142857</ele><time>2026-04-11T08:08:52.968Z</time></trkpt><trkpt lat="44.1399164" lon="10.332125"><ele>431.0</ele><time>2026-04-11T08:08:54.972Z</time></trkpt><trkpt lat="44.1398808" lon="10.3320311"><ele>431.0</ele><time>2026-04-11T08:08:56.964Z</time></trkpt><trkpt lat="44.1398479" lon="10.3319298"><ele>431.0</ele><time>2026-04-11T08:08:58.97Z</time></trkpt><trkpt lat="44.1398191" lon="10.3318388"><ele>431.0</ele><time>2026-04-11T08:09:00.964Z</time></trkpt><trkpt lat="44.1397861" lon="10.3317518"><ele>431.0</ele><time>2026-04-11T08:09:02.977Z</time></trkpt><trkpt lat="44.1397523" lon="10.3316722"><ele>431.0</ele><time>2026-04-11T08:09:04.965Z</time></trkpt><trkpt lat="44.139715" lon="10.3315972"><ele>431.0</ele><time>2026-04-11T08:09:06.976Z</time></trkpt><trkpt lat="44.1396777" lon="10.3315116"><ele>431.0</ele><time>2026-04-11T08:09:08.977Z</time></trkpt><trkpt lat="44.1396354" lon="10.3314218"><ele>432.16666666666663</ele><time>2026-04-11T08:09:10.978Z</time></trkpt><trkpt lat="44.1395789" lon="10.3313356"><ele>433.3333333333333</ele><time>2026-04-11T08:09:12.967Z</time></trkpt><trkpt lat="44.1395254" lon="10.331258"><ele>434.5</ele><time>2026-04-11T08:09:14.976Z</time></trkpt><trkpt lat="44.1394695" lon="10.3311837"><ele>435.66666666666663</ele><time>2026-04-11T08:09:16.972Z</time></trkpt><trkpt lat="44.1394233" lon="10.3311082"><ele>436.8333333333333</ele><time>2026-04-11T08:09:18.989Z</time></trkpt><trkpt lat="44.1393641" lon="10.3310331"><ele>438.0</ele><time>2026-04-11T08:09:20.977Z</time></trkpt><trkpt lat="44.139303" lon="10.3309662"><ele>438.0</ele><time>2026-04-11T08:09:22.961Z</time></trkpt><trkpt lat="44.1392488" lon="10.3309022"><ele>438.0</ele><time>2026-04-11T08:09:24.969Z</time></trkpt><trkpt lat="44.1391862" lon="10.330842"><ele>438.0</ele><time>2026-04-11T08:09:26.988Z</time></trkpt><trkpt lat="44.1391154" lon="10.3307961"><ele>438.0</ele><time>2026-04-11T08:09:28.972Z</time></trkpt><trkpt lat="44.1390447" lon="10.3307898"><ele>438.0</ele><time>2026-04-11T08:09:30.976Z</time></trkpt><trkpt lat="44.1389669" lon="10.3307994"><ele>438.0</ele><time>2026-04-11T08:09:32.962Z</time></trkpt><trkpt lat="44.13888" lon="10.3308478"><ele>436.25</ele><time>2026-04-11T08:09:34.973Z</time></trkpt><trkpt lat="44.1387835" lon="10.3309138"><ele>434.5</ele><time>2026-04-11T08:09:36.974Z</time></trkpt><trkpt lat="44.1386759" lon="10.3309772"><ele>432.75</ele><time>2026-04-11T08:09:38.969Z</time></trkpt><trkpt lat="44.138567" lon="10.3310302"><ele>431.0</ele><time>2026-04-11T08:09:40.98Z</time></trkpt><trkpt lat="44.1384655" lon="10.3310916"><ele>430.99999999999994</ele><time>2026-04-11T08:09:42.967Z</time></trkpt><trkpt lat="44.1383724" lon="10.331141"><ele>431.0</ele><time>2026-04-11T08:09:44.976Z</time></trkpt><trkpt lat="44.1382886" lon="10.3311853"><ele>431.0</ele><time>2026-04-11T08:09:46.98Z</time></trkpt><trkpt lat="44.1382098" lon="10.3312413"><ele>431.0</ele><time>2026-04-11T08:09:48.994Z</time></trkpt><trkpt lat="44.1381363" lon="10.3312753"><ele>430.99999999999994</ele><time>2026-04-11T08:09:50.964Z</time></trkpt><trkpt lat="44.138076" lon="10.3313202"><ele>431.0</ele><time>2026-04-11T08:09:52.975Z</time></trkpt><trkpt lat="44.1380127" lon="10.3313653"><ele>434.57142857142856</ele><time>2026-04-11T08:09:54.962Z</time></trkpt><trkpt lat="44.1379502" lon="10.3314129"><ele>438.1428571428571</ele><time>2026-04-11T08:09:56.972Z</time></trkpt><trkpt lat="44.1378844" lon="10.3314491"><ele>441.71428571428567</ele><time>2026-04-11T08:09:58.959Z</time></trkpt><trkpt lat="44.1378217" lon="10.3314844"><ele>445.2857142857143</ele><time>2026-04-11T08:10:00.985Z</time></trkpt><trkpt lat="44.1377614" lon="10.3315121"><ele>448.8571428571428</ele><time>2026-04-11T08:10:02.976Z</time></trkpt><trkpt lat="44.137691" lon="10.331522"><ele>452.4285714285714</ele><time>2026-04-11T08:10:05.977Z</time></trkpt><trkpt lat="44.1376233" lon="10.331481"><ele>456.0</ele><time>2026-04-11T08:10:09.973Z</time></trkpt><trkpt lat="44.137588" lon="10.3314037"><ele>455.3333333333333</ele><time>2026-04-11T08:10:12.976Z</time></trkpt><trkpt lat="44.1375853" lon="10.3313068"><ele>454.66666666666663</ele><time>2026-04-11T08:10:16.966Z</time></trkpt><trkpt lat="44.1375882" lon="10.3312025"><ele>454.0</ele><time>2026-04-11T08:10:20.967Z</time></trkpt><trkpt lat="44.1375965" lon="10.3310962"><ele>453.3333333333333</ele><time>2026-04-11T08:10:24.967Z</time></trkpt><trkpt lat="44.1376144" lon="10.3309845"><ele>452.66666666666663</ele><time>2026-04-11T08:10:28.976Z</time></trkpt><trkpt lat="44.1376273" lon="10.3308939"><ele>452.0</ele><time>2026-04-11T08:10:31.972Z</time></trkpt><trkpt lat="44.1376318" lon="10.3307773"><ele>452.0</ele><time>2026-04-11T08:10:35.967Z</time></trkpt><trkpt lat="44.1376414" lon="10.3306828"><ele>452.0</ele><time>2026-04-11T08:10:38.971Z</time></trkpt><trkpt lat="44.137655" lon="10.330571"><ele>452.0</ele><time>2026-04-11T08:10:42.978Z</time></trkpt><trkpt lat="44.1376446" lon="10.3304711"><ele>452.0</ele><time>2026-04-11T08:10:46.974Z</time></trkpt><trkpt lat="44.1376373" lon="10.3303795"><ele>452.0</ele><time>2026-04-11T08:10:49.981Z</time></trkpt><trkpt lat="44.1376069" lon="10.3302667"><ele>452.0</ele><time>2026-04-11T08:10:53.977Z</time></trkpt><trkpt lat="44.1375682" lon="10.3301909"><ele>452.0</ele><time>2026-04-11T08:10:56.967Z</time></trkpt><trkpt lat="44.1375208" lon="10.330128"><ele>451.16666666666663</ele><time>2026-04-11T08:10:59.974Z</time></trkpt><trkpt lat="44.1374634" lon="10.3300485"><ele>450.3333333333333</ele><time>2026-04-11T08:11:03.977Z</time></trkpt><trkpt lat="44.137422" lon="10.3299584"><ele>449.5</ele><time>2026-04-11T08:11:07.974Z</time></trkpt><trkpt lat="44.1373976" lon="10.3298576"><ele>448.66666666666663</ele><time>2026-04-11T08:11:11.966Z</time></trkpt><trkpt lat="44.1373763" lon="10.3297509"><ele>447.8333333333333</ele><time>2026-04-11T08:11:15.961Z</time></trkpt><trkpt lat="44.1373582" lon="10.3296542"><ele>447.0</ele><time>2026-04-11T08:11:18.972Z</time></trkpt><trkpt lat="44.1373503" lon="10.3295401"><ele>450.1666666666667</ele><time>2026-04-11T08:11:22.98Z</time></trkpt><trkpt lat="44.1373539" lon="10.3294262"><ele>453.33333333333337</ele><time>2026-04-11T08:11:26.969Z</time></trkpt><trkpt lat="44.1373501" lon="10.3293247"><ele>456.5</ele><time>2026-04-11T08:11:29.973Z</time></trkpt><trkpt lat="44.1373239" lon="10.3292123"><ele>459.6666666666667</ele><time>2026-04-11T08:11:33.97Z</time></trkpt><trkpt lat="44.1372916" lon="10.3291174"><ele>462.83333333333337</ele><time>2026-04-11T08:11:36.969Z</time></trkpt><trkpt lat="44.1372448" lon="10.3290412"><ele>466.0</ele><time>2026-04-11T08:11:39.984Z</time></trkpt><trkpt lat="44.1371623" lon="10.3290337"><ele>466.0</ele><time>2026-04-11T08:11:43.976Z</time></trkpt><trkpt lat="44.1371141" lon="10.3291221"><ele>466.0</ele><time>2026-04-11T08:11:47.972Z</time></trkpt><trkpt lat="44.1371224" lon="10.3292126"><ele>466.0</ele><time>2026-04-11T08:11:50.963Z</time></trkpt><trkpt lat="44.1371316" lon="10.3293043"><ele>466.0</ele><time>2026-04-11T08:11:53.968Z</time></trkpt><trkpt lat="44.137131" lon="10.3294166"><ele>466.0</ele><time>2026-04-11T08:11:57.965Z</time></trkpt><trkpt lat="44.1371164" lon="10.3295122"><ele>466.0</ele><time>2026-04-11T08:12:00.98Z</time></trkpt><trkpt lat="44.1370691" lon="10.3295784"><ele>466.0</ele><time>2026-04-11T08:12:03.976Z</time></trkpt><trkpt lat="44.1369833" lon="10.329585"><ele>466.0</ele><time>2026-04-11T08:12:07.968Z</time></trkpt><trkpt lat="44.136925" lon="10.3295252"><ele>466.0</ele><time>2026-04-11T08:12:11.973Z</time></trkpt><trkpt lat="44.1368875" lon="10.3294498"><ele>466.0</ele><time>2026-04-11T08:12:14.967Z</time></trkpt><trkpt lat="44.136847" lon="10.3293753"><ele>466.0</ele><time>2026-04-11T08:12:17.969Z</time></trkpt><trkpt lat="44.1367976" lon="10.3293101"><ele>466.0</ele><time>2026-04-11T08:12:20.971Z</time></trkpt><trkpt lat="44.1367359" lon="10.3292595"><ele>466.0</ele><time>2026-04-11T08:12:23.98Z</time></trkpt><trkpt lat="44.1366694" lon="10.3292317"><ele>466.0</ele><time>2026-04-11T08:12:26.978Z</time></trkpt><trkpt lat="44.1365989" lon="10.329238"><ele>466.0</ele><time>2026-04-11T08:12:29.971Z</time></trkpt><trkpt lat="44.1365575" lon="10.3293142"><ele>466.0</ele><time>2026-04-11T08:12:33.962Z</time></trkpt><trkpt lat="44.136599" lon="10.3293957"><ele>466.0</ele><time>2026-04-11T08:12:36.96Z</time></trkpt><trkpt lat="44.1366527" lon="10.3294733"><ele>466.0</ele><time>2026-04-11T08:12:39.978Z</time></trkpt><trkpt lat="44.1367162" lon="10.3295631"><ele>466.0</ele><time>2026-04-11T08:12:42.972Z</time></trkpt><trkpt lat="44.1367594" lon="10.329628"><ele>466.0</ele><time>2026-04-11T08:12:44.973Z</time></trkpt><trkpt lat="44.1367989" lon="10.3297016"><ele>466.0</ele><time>2026-04-11T08:12:46.977Z</time></trkpt><trkpt lat="44.1368386" lon="10.3297782"><ele>467.28571428571433</ele><time>2026-04-11T08:12:48.971Z</time></trkpt><trkpt lat="44.1368763" lon="10.3298627"><ele>468.57142857142856</ele><time>2026-04-11T08:12:50.964Z</time></trkpt><trkpt lat="44.136908" lon="10.3299458"><ele>469.8571428571429</ele><time>2026-04-11T08:12:52.972Z</time></trkpt><trkpt lat="44.1369364" lon="10.3300335"><ele>471.14285714285717</ele><time>2026-04-11T08:12:54.974Z</time></trkpt><trkpt lat="44.1369611" lon="10.3301202"><ele>472.42857142857144</ele><time>2026-04-11T08:12:56.968Z</time></trkpt><trkpt lat="44.1369812" lon="10.3302098"><ele>473.7142857142857</ele><time>2026-04-11T08:12:58.964Z</time></trkpt><trkpt lat="44.1369997" lon="10.3303074"><ele>475.0</ele><time>2026-04-11T08:13:00.978Z</time></trkpt><trkpt lat="44.1370143" lon="10.3304012"><ele>475.0</ele><time>2026-04-11T08:13:02.958Z</time></trkpt><trkpt lat="44.1370289" lon="10.3304966"><ele>475.00000000000006</ele><time>2026-04-11T08:13:04.972Z</time></trkpt><trkpt lat="44.1370425" lon="10.3305958"><ele>475.0</ele><time>2026-04-11T08:13:06.966Z</time></trkpt><trkpt lat="44.1370495" lon="10.3306925"><ele>475.0</ele><time>2026-04-11T08:13:08.967Z</time></trkpt><trkpt lat="44.1370529" lon="10.3307847"><ele>475.00000000000006</ele><time>2026-04-11T08:13:10.962Z</time></trkpt><trkpt lat="44.1370539" lon="10.3308886"><ele>475.0</ele><time>2026-04-11T08:13:12.968Z</time></trkpt><trkpt lat="44.1370532" lon="10.3309958"><ele>475.0</ele><time>2026-04-11T08:13:14.973Z</time></trkpt><trkpt lat="44.13705" lon="10.3311044"><ele>476.8571428571429</ele><time>2026-04-11T08:13:16.965Z</time></trkpt><trkpt lat="44.1370501" lon="10.3312022"><ele>478.7142857142858</ele><time>2026-04-11T08:13:18.959Z</time></trkpt><trkpt lat="44.1370481" lon="10.3312927"><ele>480.57142857142856</ele><time>2026-04-11T08:13:20.969Z</time></trkpt><trkpt lat="44.1370531" lon="10.3313938"><ele>482.42857142857144</ele><time>2026-04-11T08:13:22.981Z</time></trkpt><trkpt lat="44.1370671" lon="10.3314981"><ele>484.2857142857143</ele><time>2026-04-11T08:13:24.985Z</time></trkpt><trkpt lat="44.1370899" lon="10.3316042"><ele>486.1428571428571</ele><time>2026-04-11T08:13:26.97Z</time></trkpt><trkpt lat="44.1371157" lon="10.3317038"><ele>487.99999999999994</ele><time>2026-04-11T08:13:28.976Z</time></trkpt><trkpt lat="44.1371458" lon="10.3317949"><ele>490.66666666666663</ele><time>2026-04-11T08:13:30.959Z</time></trkpt><trkpt lat="44.1371815" lon="10.331883"><ele>493.3333333333333</ele><time>2026-04-11T08:13:32.966Z</time></trkpt><trkpt lat="44.1372207" lon="10.3319747"><ele>496.0</ele><time>2026-04-11T08:13:34.968Z</time></trkpt><trkpt lat="44.1372602" lon="10.3320657"><ele>498.66666666666663</ele><time>2026-04-11T08:13:36.975Z</time></trkpt><trkpt lat="44.1373029" lon="10.3321576"><ele>501.3333333333333</ele><time>2026-04-11T08:13:38.967Z</time></trkpt><trkpt lat="44.1373425" lon="10.3322537"><ele>504.0</ele><time>2026-04-11T08:13:40.965Z</time></trkpt><trkpt lat="44.1373853" lon="10.3323515"><ele>498.6666666666667</ele><time>2026-04-11T08:13:42.978Z</time></trkpt><trkpt lat="44.1374295" lon="10.33245"><ele>493.33333333333337</ele><time>2026-04-11T08:13:44.969Z</time></trkpt><trkpt lat="44.1374742" lon="10.3325493"><ele>488.0</ele><time>2026-04-11T08:13:46.967Z</time></trkpt><trkpt lat="44.1375207" lon="10.3326453"><ele>482.6666666666667</ele><time>2026-04-11T08:13:48.979Z</time></trkpt><trkpt lat="44.1375611" lon="10.3327432"><ele>477.33333333333337</ele><time>2026-04-11T08:13:50.993Z</time></trkpt><trkpt lat="44.1376034" lon="10.3328452"><ele>472.0</ele><time>2026-04-11T08:13:52.971Z</time></trkpt><trkpt lat="44.1376462" lon="10.3329451"><ele>472.00000000000006</ele><time>2026-04-11T08:13:54.98Z</time></trkpt><trkpt lat="44.1376908" lon="10.3330441"><ele>472.0</ele><time>2026-04-11T08:13:56.973Z</time></trkpt><trkpt lat="44.1377316" lon="10.3331467"><ele>472.0</ele><time>2026-04-11T08:13:58.976Z</time></trkpt><trkpt lat="44.1377713" lon="10.3332481"><ele>472.0</ele><time>2026-04-11T08:14:00.988Z</time></trkpt><trkpt lat="44.1378177" lon="10.333346"><ele>472.00000000000006</ele><time>2026-04-11T08:14:02.968Z</time></trkpt><trkpt lat="44.1378641" lon="10.3334501"><ele>472.0</ele><time>2026-04-11T08:14:04.974Z</time></trkpt><trkpt lat="44.1379091" lon="10.3335538"><ele>475.6666666666667</ele><time>2026-04-11T08:14:06.962Z</time></trkpt><trkpt lat="44.1379586" lon="10.3336545"><ele>479.33333333333337</ele><time>2026-04-11T08:14:08.972Z</time></trkpt><trkpt lat="44.1379989" lon="10.333762"><ele>483.0</ele><time>2026-04-11T08:14:10.971Z</time></trkpt><trkpt lat="44.1380304" lon="10.3338761"><ele>486.66666666666663</ele><time>2026-04-11T08:14:12.971Z</time></trkpt><trkpt lat="44.1380538" lon="10.333993"><ele>490.3333333333333</ele><time>2026-04-11T08:14:14.985Z</time></trkpt><trkpt lat="44.1380692" lon="10.3341167"><ele>494.0</ele><time>2026-04-11T08:14:16.979Z</time></trkpt><trkpt lat="44.1380752" lon="10.3342413"><ele>496.66666666666663</ele><time>2026-04-11T08:14:18.971Z</time></trkpt><trkpt lat="44.1380815" lon="10.3343628"><ele>499.3333333333333</ele><time>2026-04-11T08:14:20.963Z</time></trkpt><trkpt lat="44.1381001" lon="10.3344778"><ele>502.0</ele><time>2026-04-11T08:14:22.979Z</time></trkpt><trkpt lat="44.1381369" lon="10.3345869"><ele>504.66666666666663</ele><time>2026-04-11T08:14:24.967Z</time></trkpt><trkpt lat="44.1381868" lon="10.3346844"><ele>507.3333333333333</ele><time>2026-04-11T08:14:26.966Z</time></trkpt><trkpt lat="44.1382397" lon="10.3347808"><ele>510.0</ele><time>2026-04-11T08:14:28.963Z</time></trkpt><trkpt lat="44.1383077" lon="10.3348757"><ele>503.2</ele><time>2026-04-11T08:14:30.968Z</time></trkpt><trkpt lat="44.1383733" lon="10.3349727"><ele>496.4</ele><time>2026-04-11T08:14:32.968Z</time></trkpt><trkpt lat="44.1384371" lon="10.3350641"><ele>489.6</ele><time>2026-04-11T08:14:34.961Z</time></trkpt><trkpt lat="44.138495" lon="10.3351699"><ele>482.8</ele><time>2026-04-11T08:14:36.981Z</time></trkpt><trkpt lat="44.1385426" lon="10.3352794"><ele>476.0</ele><time>2026-04-11T08:14:38.973Z</time></trkpt><trkpt lat="44.1385964" lon="10.3353842"><ele>476.0</ele><time>2026-04-11T08:14:40.965Z</time></trkpt><trkpt lat="44.1386391" lon="10.3354995"><ele>476.0</ele><time>2026-04-11T08:14:42.965Z</time></trkpt><trkpt lat="44.1386774" lon="10.3356094"><ele>476.0</ele><time>2026-04-11T08:14:45Z</time></trkpt><trkpt lat="44.1387154" lon="10.3357244"><ele>476.0</ele><time>2026-04-11T08:14:46.967Z</time></trkpt><trkpt lat="44.1387448" lon="10.3358485"><ele>476.0</ele><time>2026-04-11T08:14:48.991Z</time></trkpt><trkpt lat="44.1387624" lon="10.3359801"><ele>480.6</ele><time>2026-04-11T08:14:50.973Z</time></trkpt><trkpt lat="44.1387816" lon="10.3361074"><ele>485.20000000000005</ele><time>2026-04-11T08:14:52.978Z</time></trkpt><trkpt lat="44.1388038" lon="10.3362291"><ele>489.79999999999995</ele><time>2026-04-11T08:14:54.976Z</time></trkpt><trkpt lat="44.1388199" lon="10.3363613"><ele>494.4</ele><time>2026-04-11T08:14:56.969Z</time></trkpt><trkpt lat="44.1388181" lon="10.3364884"><ele>499.0</ele><time>2026-04-11T08:14:58.97Z</time></trkpt><trkpt lat="44.1388234" lon="10.3366141"><ele>500.4</ele><time>2026-04-11T08:15:00.964Z</time></trkpt><trkpt lat="44.1388161" lon="10.3367434"><ele>501.79999999999995</ele><time>2026-04-11T08:15:02.967Z</time></trkpt><trkpt lat="44.1388119" lon="10.3368736"><ele>503.20000000000005</ele><time>2026-04-11T08:15:04.969Z</time></trkpt><trkpt lat="44.1388048" lon="10.3370044"><ele>504.6</ele><time>2026-04-11T08:15:06.979Z</time></trkpt><trkpt lat="44.138799" lon="10.3371305"><ele>506.0</ele><time>2026-04-11T08:15:08.974Z</time></trkpt><trkpt lat="44.1387904" lon="10.3372545"><ele>506.0</ele><time>2026-04-11T08:15:10.98Z</time></trkpt><trkpt lat="44.1387887" lon="10.3373817"><ele>506.0</ele><time>2026-04-11T08:15:12.991Z</time></trkpt><trkpt lat="44.1387841" lon="10.3375156"><ele>506.0</ele><time>2026-04-11T08:15:14.977Z</time></trkpt><trkpt lat="44.1387725" lon="10.3376578"><ele>506.0</ele><time>2026-04-11T08:15:16.984Z</time></trkpt><trkpt lat="44.1387534" lon="10.3377882"><ele>506.0</ele><time>2026-04-11T08:15:18.985Z</time></trkpt><trkpt lat="44.1387316" lon="10.3379208"><ele>506.0</ele><time>2026-04-11T08:15:20.979Z</time></trkpt><trkpt lat="44.1387024" lon="10.3380444"><ele>506.0</ele><time>2026-04-11T08:15:22.987Z</time></trkpt><trkpt lat="44.138671" lon="10.338172"><ele>506.0</ele><time>2026-04-11T08:15:24.969Z</time></trkpt><trkpt lat="44.1386735" lon="10.3383072"><ele>506.0</ele><time>2026-04-11T08:15:26.966Z</time></trkpt><trkpt lat="44.1386957" lon="10.3384411"><ele>506.0</ele><time>2026-04-11T08:15:28.984Z</time></trkpt><trkpt lat="44.1387382" lon="10.3385602"><ele>504.6</ele><time>2026-04-11T08:15:30.968Z</time></trkpt><trkpt lat="44.1387839" lon="10.3386781"><ele>503.20000000000005</ele><time>2026-04-11T08:15:32.985Z</time></trkpt><trkpt lat="44.1388327" lon="10.3387953"><ele>501.79999999999995</ele><time>2026-04-11T08:15:34.975Z</time></trkpt><trkpt lat="44.1388764" lon="10.3389152"><ele>500.4</ele><time>2026-04-11T08:15:36.975Z</time></trkpt><trkpt lat="44.138913" lon="10.3390415"><ele>499.0</ele><time>2026-04-11T08:15:38.974Z</time></trkpt><trkpt lat="44.1389344" lon="10.3391679"><ele>501.79999999999995</ele><time>2026-04-11T08:15:40.966Z</time></trkpt><trkpt lat="44.1389589" lon="10.3392967"><ele>504.59999999999997</ele><time>2026-04-11T08:15:42.98Z</time></trkpt><trkpt lat="44.1389868" lon="10.3394197"><ele>507.4</ele><time>2026-04-11T08:15:44.976Z</time></trkpt><trkpt lat="44.1390129" lon="10.3395558"><ele>510.2</ele><time>2026-04-11T08:15:46.985Z</time></trkpt><trkpt lat="44.139025" lon="10.3396849"><ele>513.0</ele><time>2026-04-11T08:15:48.986Z</time></trkpt><trkpt lat="44.1390212" lon="10.3398187"><ele>513.0</ele><time>2026-04-11T08:15:50.974Z</time></trkpt><trkpt lat="44.1390016" lon="10.3399498"><ele>513.0</ele><time>2026-04-11T08:15:52.978Z</time></trkpt><trkpt lat="44.1389671" lon="10.3400743"><ele>513.0</ele><time>2026-04-11T08:15:54.977Z</time></trkpt><trkpt lat="44.1389203" lon="10.3401962"><ele>513.0</ele><time>2026-04-11T08:15:56.987Z</time></trkpt><trkpt lat="44.1388573" lon="10.3402927"><ele>513.0</ele><time>2026-04-11T08:15:58.973Z</time></trkpt><trkpt lat="44.1388008" lon="10.3403975"><ele>513.0</ele><time>2026-04-11T08:16:00.957Z</time></trkpt><trkpt lat="44.1387329" lon="10.3404952"><ele>513.0</ele><time>2026-04-11T08:16:02.985Z</time></trkpt><trkpt lat="44.1386686" lon="10.3405898"><ele>513.0</ele><time>2026-04-11T08:16:04.98Z</time></trkpt><trkpt lat="44.1386071" lon="10.3407092"><ele>513.0</ele><time>2026-04-11T08:16:06.999Z</time></trkpt><trkpt lat="44.1385628" lon="10.3408376"><ele>513.0</ele><time>2026-04-11T08:16:08.973Z</time></trkpt><trkpt lat="44.1385625" lon="10.340953"><ele>509.0</ele><time>2026-04-11T08:16:10.981Z</time></trkpt><trkpt lat="44.1385888" lon="10.3410688"><ele>504.99999999999994</ele><time>2026-04-11T08:16:12.972Z</time></trkpt><trkpt lat="44.1386341" lon="10.3411926"><ele>500.99999999999994</ele><time>2026-04-11T08:16:14.963Z</time></trkpt><trkpt lat="44.1386992" lon="10.3412982"><ele>497.0</ele><time>2026-04-11T08:16:16.985Z</time></trkpt><trkpt lat="44.1387667" lon="10.3414029"><ele>493.0</ele><time>2026-04-11T08:16:18.975Z</time></trkpt><trkpt lat="44.1388233" lon="10.3415147"><ele>491.79999999999995</ele><time>2026-04-11T08:16:20.971Z</time></trkpt><trkpt lat="44.1388896" lon="10.3416314"><ele>490.59999999999997</ele><time>2026-04-11T08:16:22.973Z</time></trkpt><trkpt lat="44.1389542" lon="10.3417503"><ele>489.40000000000003</ele><time>2026-04-11T08:16:24.963Z</time></trkpt><trkpt lat="44.1390167" lon="10.3418694"><ele>488.20000000000005</ele><time>2026-04-11T08:16:26.977Z</time></trkpt><trkpt lat="44.1390793" lon="10.3419702"><ele>487.0</ele><time>2026-04-11T08:16:28.962Z</time></trkpt><trkpt lat="44.1391309" lon="10.3420616"><ele>484.20000000000005</ele><time>2026-04-11T08:16:30.964Z</time></trkpt><trkpt lat="44.1391757" lon="10.3421726"><ele>481.40000000000003</ele><time>2026-04-11T08:16:32.96Z</time></trkpt><trkpt lat="44.1392236" lon="10.3423"><ele>478.59999999999997</ele><time>2026-04-11T08:16:34.971Z</time></trkpt><trkpt lat="44.1392466" lon="10.3424312"><ele>475.79999999999995</ele><time>2026-04-11T08:16:36.972Z</time></trkpt><trkpt lat="44.1392655" lon="10.3425765"><ele>473.0</ele><time>2026-04-11T08:16:38.974Z</time></trkpt><trkpt lat="44.1392652" lon="10.3427137"><ele>473.0</ele><time>2026-04-11T08:16:40.979Z</time></trkpt><trkpt lat="44.1392669" lon="10.3428539"><ele>472.99999999999994</ele><time>2026-04-11T08:16:42.971Z</time></trkpt><trkpt lat="44.139246" lon="10.3429939"><ele>472.99999999999994</ele><time>2026-04-11T08:16:44.989Z</time></trkpt><trkpt lat="44.1392045" lon="10.3431238"><ele>473.0</ele><time>2026-04-11T08:16:46.975Z</time></trkpt><trkpt lat="44.1391714" lon="10.3432559"><ele>473.0</ele><time>2026-04-11T08:16:48.974Z</time></trkpt><trkpt lat="44.1391251" lon="10.3433932"><ele>473.0</ele><time>2026-04-11T08:16:50.97Z</time></trkpt><trkpt lat="44.1391042" lon="10.3435149"><ele>472.99999999999994</ele><time>2026-04-11T08:16:52.977Z</time></trkpt><trkpt lat="44.1390639" lon="10.3436438"><ele>472.99999999999994</ele><time>2026-04-11T08:16:54.966Z</time></trkpt><trkpt lat="44.1390334" lon="10.343778"><ele>473.0</ele><time>2026-04-11T08:16:56.985Z</time></trkpt><trkpt lat="44.139002" lon="10.3439034"><ele>473.0</ele><time>2026-04-11T08:16:58.99Z</time></trkpt><trkpt lat="44.1389657" lon="10.3440536"><ele>473.0</ele><time>2026-04-11T08:17:00.978Z</time></trkpt><trkpt lat="44.1389482" lon="10.3442062"><ele>472.99999999999994</ele><time>2026-04-11T08:17:02.978Z</time></trkpt><trkpt lat="44.1389701" lon="10.3443548"><ele>472.99999999999994</ele><time>2026-04-11T08:17:04.97Z</time></trkpt><trkpt lat="44.1390225" lon="10.3444785"><ele>473.0</ele><time>2026-04-11T08:17:06.976Z</time></trkpt><trkpt lat="44.1390926" lon="10.3445836"><ele>473.0</ele><time>2026-04-11T08:17:08.973Z</time></trkpt><trkpt lat="44.1391575" lon="10.3446979"><ele>473.79999999999995</ele><time>2026-04-11T08:17:10.972Z</time></trkpt><trkpt lat="44.1392371" lon="10.3448089"><ele>474.59999999999997</ele><time>2026-04-11T08:17:12.967Z</time></trkpt><trkpt lat="44.1392928" lon="10.3449286"><ele>475.40000000000003</ele><time>2026-04-11T08:17:14.986Z</time></trkpt><trkpt lat="44.1393559" lon="10.3450425"><ele>476.20000000000005</ele><time>2026-04-11T08:17:16.976Z</time></trkpt><trkpt lat="44.1394132" lon="10.3451483"><ele>477.0</ele><time>2026-04-11T08:17:18.98Z</time></trkpt><trkpt lat="44.1394791" lon="10.3452568"><ele>477.0</ele><time>2026-04-11T08:17:20.976Z</time></trkpt><trkpt lat="44.13954" lon="10.3453665"><ele>477.00000000000006</ele><time>2026-04-11T08:17:22.972Z</time></trkpt><trkpt lat="44.1395985" lon="10.3454814"><ele>477.00000000000006</ele><time>2026-04-11T08:17:24.971Z</time></trkpt><trkpt lat="44.1396764" lon="10.345584"><ele>477.0</ele><time>2026-04-11T08:17:26.979Z</time></trkpt><trkpt lat="44.1397573" lon="10.3456608"><ele>477.0</ele><time>2026-04-11T08:17:28.97Z</time></trkpt><trkpt lat="44.1398543" lon="10.3457215"><ele>477.8</ele><time>2026-04-11T08:17:30.981Z</time></trkpt><trkpt lat="44.1399545" lon="10.3457786"><ele>478.6</ele><time>2026-04-11T08:17:32.981Z</time></trkpt><trkpt lat="44.1400479" lon="10.3458349"><ele>479.40000000000003</ele><time>2026-04-11T08:17:34.972Z</time></trkpt><trkpt lat="44.140154" lon="10.3458976"><ele>480.20000000000005</ele><time>2026-04-11T08:17:36.977Z</time></trkpt><trkpt lat="44.1402564" lon="10.3459644"><ele>481.0</ele><time>2026-04-11T08:17:38.975Z</time></trkpt><trkpt lat="44.1403555" lon="10.3460254"><ele>481.0</ele><time>2026-04-11T08:17:40.975Z</time></trkpt><trkpt lat="44.1404611" lon="10.3460917"><ele>481.0</ele><time>2026-04-11T08:17:42.973Z</time></trkpt><trkpt lat="44.1405537" lon="10.3461739"><ele>481.0</ele><time>2026-04-11T08:17:44.971Z</time></trkpt><trkpt lat="44.1406278" lon="10.3462587"><ele>481.0</ele><time>2026-04-11T08:17:46.981Z</time></trkpt><trkpt lat="44.1407002" lon="10.3463733"><ele>481.0</ele><time>2026-04-11T08:17:48.974Z</time></trkpt><trkpt lat="44.1407656" lon="10.3464881"><ele>479.4</ele><time>2026-04-11T08:17:50.977Z</time></trkpt><trkpt lat="44.1408168" lon="10.3466053"><ele>477.8</ele><time>2026-04-11T08:17:52.981Z</time></trkpt><trkpt lat="44.140865" lon="10.3467265"><ele>476.19999999999993</ele><time>2026-04-11T08:17:54.976Z</time></trkpt><trkpt lat="44.140913" lon="10.3468545"><ele>474.59999999999997</ele><time>2026-04-11T08:17:56.981Z</time></trkpt><trkpt lat="44.1409564" lon="10.3469876"><ele>473.0</ele><time>2026-04-11T08:17:58.969Z</time></trkpt><trkpt lat="44.1410045" lon="10.3471206"><ele>477.0</ele><time>2026-04-11T08:18:00.972Z</time></trkpt><trkpt lat="44.1410481" lon="10.3472447"><ele>480.99999999999994</ele><time>2026-04-11T08:18:02.975Z</time></trkpt><trkpt lat="44.1411007" lon="10.3473694"><ele>484.99999999999994</ele><time>2026-04-11T08:18:04.97Z</time></trkpt><trkpt lat="44.1411486" lon="10.3474971"><ele>489.0</ele><time>2026-04-11T08:18:06.976Z</time></trkpt><trkpt lat="44.1411979" lon="10.3476261"><ele>493.0</ele><time>2026-04-11T08:18:08.967Z</time></trkpt><trkpt lat="44.1412494" lon="10.3477546"><ele>493.0</ele><time>2026-04-11T08:18:10.97Z</time></trkpt><trkpt lat="44.1413171" lon="10.3478751"><ele>492.99999999999994</ele><time>2026-04-11T08:18:12.973Z</time></trkpt><trkpt lat="44.1413888" lon="10.3479892"><ele>492.99999999999994</ele><time>2026-04-11T08:18:14.973Z</time></trkpt><trkpt lat="44.141466" lon="10.3480946"><ele>493.0</ele><time>2026-04-11T08:18:16.961Z</time></trkpt><trkpt lat="44.141545" lon="10.3482003"><ele>493.0</ele><time>2026-04-11T08:18:18.971Z</time></trkpt><trkpt lat="44.1416219" lon="10.3483121"><ele>490.0</ele><time>2026-04-11T08:18:20.96Z</time></trkpt><trkpt lat="44.1417038" lon="10.3484273"><ele>487.0</ele><time>2026-04-11T08:18:22.975Z</time></trkpt><trkpt lat="44.1417887" lon="10.3485446"><ele>484.0</ele><time>2026-04-11T08:18:24.973Z</time></trkpt><trkpt lat="44.1418755" lon="10.3486642"><ele>481.0</ele><time>2026-04-11T08:18:26.979Z</time></trkpt><trkpt lat="44.1419597" lon="10.3487799"><ele>487.25</ele><time>2026-04-11T08:18:28.975Z</time></trkpt><trkpt lat="44.1420408" lon="10.3488963"><ele>493.5</ele><time>2026-04-11T08:18:30.974Z</time></trkpt><trkpt lat="44.1421235" lon="10.3490162"><ele>499.75</ele><time>2026-04-11T08:18:32.974Z</time></trkpt><trkpt lat="44.1422102" lon="10.3491334"><ele>506.0</ele><time>2026-04-11T08:18:34.97Z</time></trkpt><trkpt lat="44.1423096" lon="10.3492321"><ele>506.0</ele><time>2026-04-11T08:18:36.971Z</time></trkpt><trkpt lat="44.1423663" lon="10.3492777"><ele>506.0</ele><time>2026-04-11T08:18:37.968Z</time></trkpt><trkpt lat="44.1424695" lon="10.3493437"><ele>506.0</ele><time>2026-04-11T08:18:39.972Z</time></trkpt><trkpt lat="44.1425863" lon="10.3494001"><ele>506.0</ele><time>2026-04-11T08:18:41.972Z</time></trkpt><trkpt lat="44.1426992" lon="10.3494549"><ele>506.0</ele><time>2026-04-11T08:18:43.977Z</time></trkpt><trkpt lat="44.142813" lon="10.3495202"><ele>505.5</ele><time>2026-04-11T08:18:45.968Z</time></trkpt><trkpt lat="44.1429238" lon="10.349589"><ele>505.0</ele><time>2026-04-11T08:18:47.968Z</time></trkpt><trkpt lat="44.1430273" lon="10.3496733"><ele>504.5</ele><time>2026-04-11T08:18:49.972Z</time></trkpt><trkpt lat="44.1431215" lon="10.3497692"><ele>504.0</ele><time>2026-04-11T08:18:51.963Z</time></trkpt><trkpt lat="44.1432196" lon="10.349859"><ele>497.4</ele><time>2026-04-11T08:18:53.979Z</time></trkpt><trkpt lat="44.1433192" lon="10.349949"><ele>490.79999999999995</ele><time>2026-04-11T08:18:55.973Z</time></trkpt><trkpt lat="44.1433734" lon="10.3499951"><ele>484.20000000000005</ele><time>2026-04-11T08:18:56.972Z</time></trkpt><trkpt lat="44.1434747" lon="10.3500833"><ele>477.6</ele><time>2026-04-11T08:18:58.981Z</time></trkpt><trkpt lat="44.1435791" lon="10.3501798"><ele>471.0</ele><time>2026-04-11T08:19:00.982Z</time></trkpt><trkpt lat="44.1436748" lon="10.3502888"><ele>471.0</ele><time>2026-04-11T08:19:02.986Z</time></trkpt><trkpt lat="44.1437511" lon="10.3504174"><ele>471.0</ele><time>2026-04-11T08:19:04.978Z</time></trkpt><trkpt lat="44.1438197" lon="10.3505455"><ele>471.0</ele><time>2026-04-11T08:19:06.983Z</time></trkpt><trkpt lat="44.1438867" lon="10.3506852"><ele>471.0</ele><time>2026-04-11T08:19:08.98Z</time></trkpt><trkpt lat="44.1439486" lon="10.3508263"><ele>467.75</ele><time>2026-04-11T08:19:10.968Z</time></trkpt><trkpt lat="44.1440144" lon="10.3509557"><ele>464.5</ele><time>2026-04-11T08:19:12.974Z</time></trkpt><trkpt lat="44.1440785" lon="10.3510949"><ele>461.25</ele><time>2026-04-11T08:19:14.972Z</time></trkpt><trkpt lat="44.1441492" lon="10.3512367"><ele>458.0</ele><time>2026-04-11T08:19:16.979Z</time></trkpt><trkpt lat="44.1442267" lon="10.3513577"><ele>464.0</ele><time>2026-04-11T08:19:18.974Z</time></trkpt><trkpt lat="44.1443129" lon="10.3514632"><ele>470.0</ele><time>2026-04-11T08:19:20.961Z</time></trkpt><trkpt lat="44.1444067" lon="10.3515654"><ele>476.0</ele><time>2026-04-11T08:19:22.967Z</time></trkpt><trkpt lat="44.144495" lon="10.35168"><ele>482.0</ele><time>2026-04-11T08:19:24.965Z</time></trkpt><trkpt lat="44.1445803" lon="10.3517979"><ele>482.0</ele><time>2026-04-11T08:19:26.961Z</time></trkpt><trkpt lat="44.144659" lon="10.3519223"><ele>482.00000000000006</ele><time>2026-04-11T08:19:28.962Z</time></trkpt><trkpt lat="44.1447347" lon="10.3520604"><ele>482.00000000000006</ele><time>2026-04-11T08:19:30.959Z</time></trkpt><trkpt lat="44.1447722" lon="10.3521321"><ele>482.0</ele><time>2026-04-11T08:19:31.98Z</time></trkpt><trkpt lat="44.1448314" lon="10.3522799"><ele>482.0</ele><time>2026-04-11T08:19:33.981Z</time></trkpt><trkpt lat="44.1448959" lon="10.3524138"><ele>476.75</ele><time>2026-04-11T08:19:35.959Z</time></trkpt><trkpt lat="44.1449887" lon="10.3525155"><ele>471.5</ele><time>2026-04-11T08:19:37.962Z</time></trkpt><trkpt lat="44.1450925" lon="10.3525898"><ele>466.25</ele><time>2026-04-11T08:19:39.967Z</time></trkpt><trkpt lat="44.1451942" lon="10.3526617"><ele>461.0</ele><time>2026-04-11T08:19:41.971Z</time></trkpt><trkpt lat="44.1453012" lon="10.35273"><ele>461.0</ele><time>2026-04-11T08:19:43.973Z</time></trkpt><trkpt lat="44.1454015" lon="10.3528023"><ele>461.0</ele><time>2026-04-11T08:19:45.977Z</time></trkpt><trkpt lat="44.1455034" lon="10.3528772"><ele>461.0</ele><time>2026-04-11T08:19:47.961Z</time></trkpt><trkpt lat="44.145604" lon="10.3529513"><ele>461.0</ele><time>2026-04-11T08:19:49.972Z</time></trkpt><trkpt lat="44.1457035" lon="10.3530128"><ele>461.4</ele><time>2026-04-11T08:19:51.97Z</time></trkpt><trkpt lat="44.1458114" lon="10.3530731"><ele>461.8</ele><time>2026-04-11T08:19:53.971Z</time></trkpt><trkpt lat="44.1459125" lon="10.3531064"><ele>462.19999999999993</ele><time>2026-04-11T08:19:55.974Z</time></trkpt><trkpt lat="44.1460119" lon="10.3531503"><ele>462.59999999999997</ele><time>2026-04-11T08:19:57.975Z</time></trkpt><trkpt lat="44.1461031" lon="10.3531939"><ele>463.0</ele><time>2026-04-11T08:19:59.97Z</time></trkpt><trkpt lat="44.146192" lon="10.3532111"><ele>463.0</ele><time>2026-04-11T08:20:01.966Z</time></trkpt><trkpt lat="44.1462853" lon="10.3532216"><ele>462.99999999999994</ele><time>2026-04-11T08:20:03.961Z</time></trkpt><trkpt lat="44.1463775" lon="10.3532456"><ele>462.99999999999994</ele><time>2026-04-11T08:20:05.965Z</time></trkpt><trkpt lat="44.1464746" lon="10.353258"><ele>463.0</ele><time>2026-04-11T08:20:07.959Z</time></trkpt><trkpt lat="44.1465776" lon="10.3532614"><ele>463.0</ele><time>2026-04-11T08:20:09.972Z</time></trkpt><trkpt lat="44.1466874" lon="10.3533059"><ele>461.4</ele><time>2026-04-11T08:20:11.978Z</time></trkpt><trkpt lat="44.1467741" lon="10.3533963"><ele>459.79999999999995</ele><time>2026-04-11T08:20:13.966Z</time></trkpt><trkpt lat="44.1468322" lon="10.3534882"><ele>458.2</ele><time>2026-04-11T08:20:15.961Z</time></trkpt><trkpt lat="44.1469025" lon="10.353533"><ele>456.6</ele><time>2026-04-11T08:20:17.964Z</time></trkpt><trkpt lat="44.1469845" lon="10.3535627"><ele>455.0</ele><time>2026-04-11T08:20:19.962Z</time></trkpt><trkpt lat="44.1470763" lon="10.35355"><ele>455.0</ele><time>2026-04-11T08:20:21.961Z</time></trkpt><trkpt lat="44.14717" lon="10.3535276"><ele>455.0</ele><time>2026-04-11T08:20:23.975Z</time></trkpt><trkpt lat="44.1472548" lon="10.3534813"><ele>455.0</ele><time>2026-04-11T08:20:25.973Z</time></trkpt><trkpt lat="44.1473452" lon="10.3534424"><ele>455.0</ele><time>2026-04-11T08:20:27.964Z</time></trkpt><trkpt lat="44.1474367" lon="10.3534278"><ele>455.0</ele><time>2026-04-11T08:20:29.98Z</time></trkpt><trkpt lat="44.1475289" lon="10.3534185"><ele>455.0</ele><time>2026-04-11T08:20:31.974Z</time></trkpt><trkpt lat="44.1476128" lon="10.3534302"><ele>455.0</ele><time>2026-04-11T08:20:33.971Z</time></trkpt><trkpt lat="44.1476952" lon="10.353455"><ele>455.0</ele><time>2026-04-11T08:20:35.973Z</time></trkpt><trkpt lat="44.1477945" lon="10.3534821"><ele>455.0</ele><time>2026-04-11T08:20:37.976Z</time></trkpt><trkpt lat="44.1478921" lon="10.3535326"><ele>455.0</ele><time>2026-04-11T08:20:39.97Z</time></trkpt><trkpt lat="44.1479811" lon="10.3536002"><ele>454.99999999999994</ele><time>2026-04-11T08:20:41.97Z</time></trkpt><trkpt lat="44.1480425" lon="10.3537011"><ele>455.0</ele><time>2026-04-11T08:20:43.967Z</time></trkpt><trkpt lat="44.1480247" lon="10.3538228"><ele>455.0</ele><time>2026-04-11T08:20:45.963Z</time></trkpt><trkpt lat="44.1479412" lon="10.35391"><ele>455.0</ele><time>2026-04-11T08:20:47.971Z</time></trkpt><trkpt lat="44.1478696" lon="10.3539163"><ele>454.99999999999994</ele><time>2026-04-11T08:20:48.972Z</time></trkpt><trkpt lat="44.1477937" lon="10.3539129"><ele>455.0</ele><time>2026-04-11T08:20:49.963Z</time></trkpt><trkpt lat="44.1477198" lon="10.3539105"><ele>454.3333333333333</ele><time>2026-04-11T08:20:50.979Z</time></trkpt><trkpt lat="44.147645" lon="10.3539023"><ele>453.66666666666663</ele><time>2026-04-11T08:20:51.974Z</time></trkpt><trkpt lat="44.147562" lon="10.3538993"><ele>453.0</ele><time>2026-04-11T08:20:52.979Z</time></trkpt><trkpt lat="44.1474766" lon="10.3539146"><ele>452.33333333333337</ele><time>2026-04-11T08:20:53.979Z</time></trkpt><trkpt lat="44.1473978" lon="10.3539472"><ele>451.6666666666667</ele><time>2026-04-11T08:20:54.978Z</time></trkpt><trkpt lat="44.14731" lon="10.3539936"><ele>451.0</ele><time>2026-04-11T08:20:55.972Z</time></trkpt><trkpt lat="44.1472316" lon="10.3540454"><ele>451.0</ele><time>2026-04-11T08:20:56.977Z</time></trkpt><trkpt lat="44.1471498" lon="10.3541096"><ele>451.0</ele><time>2026-04-11T08:20:57.974Z</time></trkpt><trkpt lat="44.1470701" lon="10.3541713"><ele>451.0</ele><time>2026-04-11T08:20:58.966Z</time></trkpt><trkpt lat="44.1469856" lon="10.3542385"><ele>451.0</ele><time>2026-04-11T08:20:59.972Z</time></trkpt><trkpt lat="44.1469013" lon="10.3543067"><ele>451.0</ele><time>2026-04-11T08:21:00.979Z</time></trkpt><trkpt lat="44.1468189" lon="10.3543773"><ele>451.0</ele><time>2026-04-11T08:21:01.978Z</time></trkpt><trkpt lat="44.1467271" lon="10.3544477"><ele>451.0</ele><time>2026-04-11T08:21:02.978Z</time></trkpt><trkpt lat="44.1466381" lon="10.3545286"><ele>451.0</ele><time>2026-04-11T08:21:03.971Z</time></trkpt><trkpt lat="44.1465625" lon="10.3546347"><ele>451.0</ele><time>2026-04-11T08:21:04.973Z</time></trkpt><trkpt lat="44.1465023" lon="10.3547586"><ele>451.0</ele><time>2026-04-11T08:21:05.969Z</time></trkpt><trkpt lat="44.1464556" lon="10.3548937"><ele>451.4</ele><time>2026-04-11T08:21:06.991Z</time></trkpt><trkpt lat="44.1464058" lon="10.3550264"><ele>451.8</ele><time>2026-04-11T08:21:07.976Z</time></trkpt><trkpt lat="44.1463553" lon="10.3551635"><ele>452.19999999999993</ele><time>2026-04-11T08:21:08.974Z</time></trkpt><trkpt lat="44.1463006" lon="10.3553013"><ele>452.59999999999997</ele><time>2026-04-11T08:21:09.972Z</time></trkpt><trkpt lat="44.1462388" lon="10.3554347"><ele>453.0</ele><time>2026-04-11T08:21:10.972Z</time></trkpt><trkpt lat="44.1461803" lon="10.355562"><ele>450.0</ele><time>2026-04-11T08:21:11.973Z</time></trkpt><trkpt lat="44.146113" lon="10.3556883"><ele>447.0</ele><time>2026-04-11T08:21:12.967Z</time></trkpt><trkpt lat="44.1460472" lon="10.3558154"><ele>444.0</ele><time>2026-04-11T08:21:13.971Z</time></trkpt><trkpt lat="44.1459801" lon="10.3559412"><ele>441.0</ele><time>2026-04-11T08:21:14.971Z</time></trkpt><trkpt lat="44.1459116" lon="10.3560742"><ele>441.0</ele><time>2026-04-11T08:21:15.999Z</time></trkpt><trkpt lat="44.1458425" lon="10.3562075"><ele>441.0</ele><time>2026-04-11T08:21:16.966Z</time></trkpt><trkpt lat="44.1457731" lon="10.3563428"><ele>441.0</ele><time>2026-04-11T08:21:17.98Z</time></trkpt><trkpt lat="44.1457015" lon="10.3564633"><ele>441.0</ele><time>2026-04-11T08:21:18.978Z</time></trkpt><trkpt lat="44.1456262" lon="10.3565646"><ele>441.8</ele><time>2026-04-11T08:21:19.972Z</time></trkpt><trkpt lat="44.1455362" lon="10.3566205"><ele>442.6</ele><time>2026-04-11T08:21:20.965Z</time></trkpt><trkpt lat="44.1454379" lon="10.3566506"><ele>443.4</ele><time>2026-04-11T08:21:21.972Z</time></trkpt><trkpt lat="44.1453372" lon="10.3566511"><ele>444.2</ele><time>2026-04-11T08:21:22.976Z</time></trkpt><trkpt lat="44.1452349" lon="10.3566614"><ele>445.0</ele><time>2026-04-11T08:21:23.975Z</time></trkpt><trkpt lat="44.1451354" lon="10.3567064"><ele>445.0</ele><time>2026-04-11T08:21:24.984Z</time></trkpt><trkpt lat="44.1450406" lon="10.3567824"><ele>445.0</ele><time>2026-04-11T08:21:25.973Z</time></trkpt><trkpt lat="44.1449562" lon="10.3569054"><ele>445.0</ele><time>2026-04-11T08:21:26.974Z</time></trkpt><trkpt lat="44.14493" lon="10.3570648"><ele>445.0</ele><time>2026-04-11T08:21:27.981Z</time></trkpt><trkpt lat="44.144861" lon="10.3572037"><ele>444.8</ele><time>2026-04-11T08:21:28.971Z</time></trkpt><trkpt lat="44.144813" lon="10.3573329"><ele>444.6</ele><time>2026-04-11T08:21:29.973Z</time></trkpt><trkpt lat="44.1447679" lon="10.3574611"><ele>444.4</ele><time>2026-04-11T08:21:30.978Z</time></trkpt><trkpt lat="44.1447109" lon="10.3575691"><ele>444.2</ele><time>2026-04-11T08:21:31.976Z</time></trkpt><trkpt lat="44.144653" lon="10.3576875"><ele>444.0</ele><time>2026-04-11T08:21:32.976Z</time></trkpt><trkpt lat="44.1446005" lon="10.357819"><ele>444.0</ele><time>2026-04-11T08:21:33.971Z</time></trkpt><trkpt lat="44.1445283" lon="10.3579329"><ele>444.0</ele><time>2026-04-11T08:21:34.975Z</time></trkpt><trkpt lat="44.1444404" lon="10.3580379"><ele>444.0</ele><time>2026-04-11T08:21:35.964Z</time></trkpt><trkpt lat="44.1443455" lon="10.3581316"><ele>444.0</ele><time>2026-04-11T08:21:36.974Z</time></trkpt><trkpt lat="44.14425" lon="10.3582114"><ele>443.0</ele><time>2026-04-11T08:21:37.963Z</time></trkpt><trkpt lat="44.1441517" lon="10.3582908"><ele>442.0</ele><time>2026-04-11T08:21:38.966Z</time></trkpt><trkpt lat="44.1440693" lon="10.3583665"><ele>441.0</ele><time>2026-04-11T08:21:39.964Z</time></trkpt><trkpt lat="44.1440002" lon="10.3584764"><ele>440.0</ele><time>2026-04-11T08:21:40.963Z</time></trkpt><trkpt lat="44.143939" lon="10.358597"><ele>439.0</ele><time>2026-04-11T08:21:41.975Z</time></trkpt><trkpt lat="44.1438889" lon="10.3587293"><ele>435.5</ele><time>2026-04-11T08:21:42.973Z</time></trkpt><trkpt lat="44.1438518" lon="10.3588732"><ele>432.0</ele><time>2026-04-11T08:21:43.966Z</time></trkpt><trkpt lat="44.1438125" lon="10.3590218"><ele>428.5</ele><time>2026-04-11T08:21:44.983Z</time></trkpt><trkpt lat="44.1437739" lon="10.3591707"><ele>425.0</ele><time>2026-04-11T08:21:45.964Z</time></trkpt><trkpt lat="44.1437355" lon="10.3593196"><ele>425.0</ele><time>2026-04-11T08:21:46.981Z</time></trkpt><trkpt lat="44.1436968" lon="10.3594716"><ele>425.0</ele><time>2026-04-11T08:21:47.963Z</time></trkpt><trkpt lat="44.1436611" lon="10.3596198"><ele>425.0</ele><time>2026-04-11T08:21:48.985Z</time></trkpt><trkpt lat="44.1436272" lon="10.3597532"><ele>425.0</ele><time>2026-04-11T08:21:49.963Z</time></trkpt><trkpt lat="44.1435906" lon="10.359881"><ele>425.0</ele><time>2026-04-11T08:21:50.975Z</time></trkpt><trkpt lat="44.1435329" lon="10.3599826"><ele>426.3333333333333</ele><time>2026-04-11T08:21:51.973Z</time></trkpt><trkpt lat="44.1434609" lon="10.3600618"><ele>427.66666666666663</ele><time>2026-04-11T08:21:52.977Z</time></trkpt><trkpt lat="44.1433915" lon="10.3601138"><ele>429.0</ele><time>2026-04-11T08:21:53.981Z</time></trkpt><trkpt lat="44.1433105" lon="10.3601311"><ele>430.33333333333337</ele><time>2026-04-11T08:21:54.971Z</time></trkpt><trkpt lat="44.1432284" lon="10.360118"><ele>431.6666666666667</ele><time>2026-04-11T08:21:55.977Z</time></trkpt><trkpt lat="44.143158" lon="10.3601009"><ele>433.0</ele><time>2026-04-11T08:21:56.976Z</time></trkpt><trkpt lat="44.1430951" lon="10.3601078"><ele>433.00000000000006</ele><time>2026-04-11T08:21:57.971Z</time></trkpt><trkpt lat="44.1430185" lon="10.3602436"><ele>433.0</ele><time>2026-04-11T08:21:59.976Z</time></trkpt><trkpt lat="44.1430203" lon="10.3603398"><ele>433.0</ele><time>2026-04-11T08:22:00.977Z</time></trkpt><trkpt lat="44.1430423" lon="10.3604293"><ele>433.0</ele><time>2026-04-11T08:22:01.971Z</time></trkpt><trkpt lat="44.1430731" lon="10.3605192"><ele>433.00000000000006</ele><time>2026-04-11T08:22:02.978Z</time></trkpt><trkpt lat="44.1430938" lon="10.360622"><ele>433.0</ele><time>2026-04-11T08:22:03.975Z</time></trkpt><trkpt lat="44.1430747" lon="10.3607472"><ele>430.79999999999995</ele><time>2026-04-11T08:22:04.975Z</time></trkpt><trkpt lat="44.143044" lon="10.3608603"><ele>428.59999999999997</ele><time>2026-04-11T08:22:05.968Z</time></trkpt><trkpt lat="44.1429569" lon="10.3609686"><ele>426.4</ele><time>2026-04-11T08:22:06.972Z</time></trkpt><trkpt lat="44.1429042" lon="10.3610816"><ele>424.20000000000005</ele><time>2026-04-11T08:22:07.98Z</time></trkpt><trkpt lat="44.1428384" lon="10.361198"><ele>422.0</ele><time>2026-04-11T08:22:08.968Z</time></trkpt><trkpt lat="44.1427779" lon="10.361317"><ele>417.40000000000003</ele><time>2026-04-11T08:22:09.969Z</time></trkpt><trkpt lat="44.1427082" lon="10.3614417"><ele>412.8</ele><time>2026-04-11T08:22:10.969Z</time></trkpt><trkpt lat="44.1426437" lon="10.361565"><ele>408.2</ele><time>2026-04-11T08:22:11.958Z</time></trkpt><trkpt lat="44.1425705" lon="10.3616794"><ele>403.6</ele><time>2026-04-11T08:22:12.974Z</time></trkpt><trkpt lat="44.142489" lon="10.3617734"><ele>399.0</ele><time>2026-04-11T08:22:13.972Z</time></trkpt><trkpt lat="44.1424097" lon="10.3618356"><ele>402.6</ele><time>2026-04-11T08:22:14.965Z</time></trkpt><trkpt lat="44.1423131" lon="10.3618572"><ele>406.2</ele><time>2026-04-11T08:22:15.968Z</time></trkpt><trkpt lat="44.1422159" lon="10.3618503"><ele>409.8</ele><time>2026-04-11T08:22:16.968Z</time></trkpt><trkpt lat="44.1421203" lon="10.3618552"><ele>413.40000000000003</ele><time>2026-04-11T08:22:17.978Z</time></trkpt><trkpt lat="44.142025" lon="10.3618861"><ele>417.0</ele><time>2026-04-11T08:22:18.983Z</time></trkpt><trkpt lat="44.1419382" lon="10.3619562"><ele>417.0</ele><time>2026-04-11T08:22:19.961Z</time></trkpt><trkpt lat="44.1418654" lon="10.3620572"><ele>417.0</ele><time>2026-04-11T08:22:20.966Z</time></trkpt><trkpt lat="44.1417989" lon="10.3621796"><ele>417.0</ele><time>2026-04-11T08:22:21.98Z</time></trkpt><trkpt lat="44.1417443" lon="10.3623087"><ele>417.0</ele><time>2026-04-11T08:22:22.962Z</time></trkpt><trkpt lat="44.1417146" lon="10.3624438"><ele>417.0</ele><time>2026-04-11T08:22:23.958Z</time></trkpt><trkpt lat="44.1417174" lon="10.3625725"><ele>413.0</ele><time>2026-04-11T08:22:24.966Z</time></trkpt><trkpt lat="44.1417325" lon="10.3626836"><ele>409.0</ele><time>2026-04-11T08:22:25.969Z</time></trkpt><trkpt lat="44.141744" lon="10.3627702"><ele>405.0</ele><time>2026-04-11T08:22:26.974Z</time></trkpt><trkpt lat="44.1417523" lon="10.362934"><ele>401.0</ele><time>2026-04-11T08:22:28.977Z</time></trkpt><trkpt lat="44.141742" lon="10.3630221"><ele>397.0</ele><time>2026-04-11T08:22:29.967Z</time></trkpt><trkpt lat="44.1417229" lon="10.3631164"><ele>393.0</ele><time>2026-04-11T08:22:30.964Z</time></trkpt><trkpt lat="44.1416935" lon="10.3632054"><ele>391.1666666666667</ele><time>2026-04-11T08:22:31.976Z</time></trkpt><trkpt lat="44.1416549" lon="10.363296"><ele>389.3333333333333</ele><time>2026-04-11T08:22:32.964Z</time></trkpt><trkpt lat="44.1416045" lon="10.3633825"><ele>387.5</ele><time>2026-04-11T08:22:33.965Z</time></trkpt><trkpt lat="44.1415482" lon="10.3634657"><ele>385.66666666666663</ele><time>2026-04-11T08:22:34.965Z</time></trkpt><trkpt lat="44.1414841" lon="10.3635322"><ele>383.8333333333333</ele><time>2026-04-11T08:22:35.963Z</time></trkpt><trkpt lat="44.1414203" lon="10.363603"><ele>382.0</ele><time>2026-04-11T08:22:36.981Z</time></trkpt><trkpt lat="44.1413508" lon="10.3636745"><ele>381.3333333333333</ele><time>2026-04-11T08:22:37.964Z</time></trkpt><trkpt lat="44.1412817" lon="10.3637484"><ele>380.66666666666663</ele><time>2026-04-11T08:22:38.96Z</time></trkpt><trkpt lat="44.1412096" lon="10.3638261"><ele>380.0</ele><time>2026-04-11T08:22:39.972Z</time></trkpt><trkpt lat="44.1411394" lon="10.3639048"><ele>379.3333333333333</ele><time>2026-04-11T08:22:40.972Z</time></trkpt><trkpt lat="44.1410708" lon="10.3639757"><ele>378.6666666666667</ele><time>2026-04-11T08:22:41.978Z</time></trkpt><trkpt lat="44.1410034" lon="10.3640552"><ele>378.0</ele><time>2026-04-11T08:22:42.966Z</time></trkpt><trkpt lat="44.1409359" lon="10.3641338"><ele>378.0</ele><time>2026-04-11T08:22:43.976Z</time></trkpt><trkpt lat="44.1408712" lon="10.3642172"><ele>378.0</ele><time>2026-04-11T08:22:44.971Z</time></trkpt><trkpt lat="44.1408024" lon="10.3643013"><ele>378.0</ele><time>2026-04-11T08:22:45.973Z</time></trkpt><trkpt lat="44.1407399" lon="10.3643776"><ele>378.0</ele><time>2026-04-11T08:22:46.966Z</time></trkpt><trkpt lat="44.1406725" lon="10.364454"><ele>378.0</ele><time>2026-04-11T08:22:47.974Z</time></trkpt><trkpt lat="44.1406054" lon="10.3645289"><ele>378.0</ele><time>2026-04-11T08:22:48.972Z</time></trkpt><trkpt lat="44.1405361" lon="10.3646095"><ele>377.2</ele><time>2026-04-11T08:22:49.977Z</time></trkpt><trkpt lat="44.1404635" lon="10.3646906"><ele>376.4</ele><time>2026-04-11T08:22:50.973Z</time></trkpt><trkpt lat="44.1403945" lon="10.3647802"><ele>375.59999999999997</ele><time>2026-04-11T08:22:51.976Z</time></trkpt><trkpt lat="44.1403257" lon="10.364868"><ele>374.79999999999995</ele><time>2026-04-11T08:22:52.975Z</time></trkpt><trkpt lat="44.1402541" lon="10.364957"><ele>374.0</ele><time>2026-04-11T08:22:53.968Z</time></trkpt><trkpt lat="44.1401805" lon="10.3650486"><ele>374.0</ele><time>2026-04-11T08:22:54.965Z</time></trkpt><trkpt lat="44.1401084" lon="10.3651327"><ele>374.0</ele><time>2026-04-11T08:22:55.974Z</time></trkpt><trkpt lat="44.1400383" lon="10.3652173"><ele>374.0</ele><time>2026-04-11T08:22:56.972Z</time></trkpt><trkpt lat="44.1399719" lon="10.3653011"><ele>374.0</ele><time>2026-04-11T08:22:57.969Z</time></trkpt><trkpt lat="44.1399012" lon="10.3653814"><ele>374.0</ele><time>2026-04-11T08:22:58.973Z</time></trkpt><trkpt lat="44.1398276" lon="10.3654482"><ele>373.6666666666667</ele><time>2026-04-11T08:22:59.974Z</time></trkpt><trkpt lat="44.139756" lon="10.3655001"><ele>373.33333333333337</ele><time>2026-04-11T08:23:00.98Z</time></trkpt><trkpt lat="44.1396923" lon="10.3655469"><ele>373.0</ele><time>2026-04-11T08:23:01.977Z</time></trkpt><trkpt lat="44.1396287" lon="10.3655825"><ele>372.6666666666667</ele><time>2026-04-11T08:23:02.974Z</time></trkpt><trkpt lat="44.1395687" lon="10.3656111"><ele>372.3333333333333</ele><time>2026-04-11T08:23:03.972Z</time></trkpt><trkpt lat="44.1394705" lon="10.365635"><ele>372.0</ele><time>2026-04-11T08:23:05.97Z</time></trkpt><trkpt lat="44.1393915" lon="10.365654"><ele>372.0</ele><time>2026-04-11T08:23:07.966Z</time></trkpt><trkpt lat="44.1393149" lon="10.3657052"><ele>372.0</ele><time>2026-04-11T08:23:09.963Z</time></trkpt><trkpt lat="44.1392423" lon="10.3657783"><ele>372.0</ele><time>2026-04-11T08:23:11.966Z</time></trkpt><trkpt lat="44.1391803" lon="10.3658618"><ele>372.0</ele><time>2026-04-11T08:23:13.965Z</time></trkpt><trkpt lat="44.139121" lon="10.3659486"><ele>372.0</ele><time>2026-04-11T08:23:15.966Z</time></trkpt><trkpt lat="44.1390637" lon="10.3660297"><ele>372.0</ele><time>2026-04-11T08:23:17.984Z</time></trkpt><trkpt lat="44.1390144" lon="10.3661181"><ele>372.0</ele><time>2026-04-11T08:23:19.978Z</time></trkpt><trkpt lat="44.1389646" lon="10.3662045"><ele>372.0</ele><time>2026-04-11T08:23:21.972Z</time></trkpt><trkpt lat="44.138909" lon="10.3662886"><ele>372.0</ele><time>2026-04-11T08:23:23.967Z</time></trkpt><trkpt lat="44.1388452" lon="10.366365"><ele>372.0</ele><time>2026-04-11T08:23:25.982Z</time></trkpt><trkpt lat="44.138786" lon="10.3664381"><ele>372.0</ele><time>2026-04-11T08:23:27.971Z</time></trkpt><trkpt lat="44.1387262" lon="10.3665079"><ele>372.0</ele><time>2026-04-11T08:23:29.977Z</time></trkpt><trkpt lat="44.1386655" lon="10.3665801"><ele>372.0</ele><time>2026-04-11T08:23:31.969Z</time></trkpt><trkpt lat="44.1386067" lon="10.3666504"><ele>372.0</ele><time>2026-04-11T08:23:33.963Z</time></trkpt><trkpt lat="44.1385452" lon="10.3667217"><ele>372.0</ele><time>2026-04-11T08:23:35.962Z</time></trkpt><trkpt lat="44.1384805" lon="10.3667935"><ele>372.0</ele><time>2026-04-11T08:23:37.978Z</time></trkpt><trkpt lat="44.1384103" lon="10.3668583"><ele>372.0</ele><time>2026-04-11T08:23:39.974Z</time></trkpt><trkpt lat="44.1383292" lon="10.3669057"><ele>372.0</ele><time>2026-04-11T08:23:41.969Z</time></trkpt><trkpt lat="44.1382393" lon="10.3669246"><ele>373.6</ele><time>2026-04-11T08:23:43.973Z</time></trkpt><trkpt lat="44.138146" lon="10.3669306"><ele>375.20000000000005</ele><time>2026-04-11T08:23:45.972Z</time></trkpt><trkpt lat="44.1380378" lon="10.3669445"><ele>376.8</ele><time>2026-04-11T08:23:47.981Z</time></trkpt><trkpt lat="44.1379123" lon="10.3669814"><ele>378.4</ele><time>2026-04-11T08:23:49.98Z</time></trkpt><trkpt lat="44.1378468" lon="10.3670208"><ele>380.0</ele><time>2026-04-11T08:23:50.978Z</time></trkpt><trkpt lat="44.1377864" lon="10.3670763"><ele>380.0</ele><time>2026-04-11T08:23:51.971Z</time></trkpt><trkpt lat="44.1377269" lon="10.3671411"><ele>380.0</ele><time>2026-04-11T08:23:52.985Z</time></trkpt><trkpt lat="44.1376674" lon="10.3672128"><ele>380.0</ele><time>2026-04-11T08:23:53.974Z</time></trkpt><trkpt lat="44.1376109" lon="10.3672798"><ele>380.0</ele><time>2026-04-11T08:23:54.971Z</time></trkpt><trkpt lat="44.1375522" lon="10.3673514"><ele>380.0</ele><time>2026-04-11T08:23:55.975Z</time></trkpt><trkpt lat="44.1374923" lon="10.3674246"><ele>380.0</ele><time>2026-04-11T08:23:56.974Z</time></trkpt><trkpt lat="44.1374279" lon="10.3675072"><ele>379.1666666666667</ele><time>2026-04-11T08:23:57.97Z</time></trkpt><trkpt lat="44.1373649" lon="10.3675792"><ele>378.33333333333337</ele><time>2026-04-11T08:23:58.975Z</time></trkpt><trkpt lat="44.137296" lon="10.3676574"><ele>377.5</ele><time>2026-04-11T08:23:59.971Z</time></trkpt><trkpt lat="44.137226" lon="10.3677377"><ele>376.6666666666667</ele><time>2026-04-11T08:24:00.975Z</time></trkpt><trkpt lat="44.1371522" lon="10.3678157"><ele>375.8333333333333</ele><time>2026-04-11T08:24:01.976Z</time></trkpt><trkpt lat="44.1370796" lon="10.3678911"><ele>375.0</ele><time>2026-04-11T08:24:02.974Z</time></trkpt><trkpt lat="44.1370052" lon="10.3679652"><ele>372.6</ele><time>2026-04-11T08:24:03.972Z</time></trkpt><trkpt lat="44.1369355" lon="10.3680387"><ele>370.2</ele><time>2026-04-11T08:24:04.969Z</time></trkpt><trkpt lat="44.136864" lon="10.3681155"><ele>367.79999999999995</ele><time>2026-04-11T08:24:05.979Z</time></trkpt><trkpt lat="44.1367993" lon="10.3682019"><ele>365.4</ele><time>2026-04-11T08:24:06.981Z</time></trkpt><trkpt lat="44.136747" lon="10.3683069"><ele>363.0</ele><time>2026-04-11T08:24:07.96Z</time></trkpt><trkpt lat="44.1367065" lon="10.3684199"><ele>363.0</ele><time>2026-04-11T08:24:08.974Z</time></trkpt><trkpt lat="44.1366711" lon="10.3685417"><ele>363.0</ele><time>2026-04-11T08:24:09.976Z</time></trkpt><trkpt lat="44.1366338" lon="10.3686559"><ele>363.0</ele><time>2026-04-11T08:24:10.973Z</time></trkpt><trkpt lat="44.1365924" lon="10.368766"><ele>363.0</ele><time>2026-04-11T08:24:11.966Z</time></trkpt><trkpt lat="44.1365566" lon="10.368872"><ele>363.0</ele><time>2026-04-11T08:24:12.968Z</time></trkpt><trkpt lat="44.1365209" lon="10.3689741"><ele>363.0</ele><time>2026-04-11T08:24:13.973Z</time></trkpt><trkpt lat="44.1364788" lon="10.369072"><ele>362.5</ele><time>2026-04-11T08:24:14.973Z</time></trkpt><trkpt lat="44.1364321" lon="10.3691573"><ele>362.0</ele><time>2026-04-11T08:24:15.976Z</time></trkpt><trkpt lat="44.13636" lon="10.3692275"><ele>361.5</ele><time>2026-04-11T08:24:16.971Z</time></trkpt><trkpt lat="44.1362845" lon="10.3692542"><ele>361.0</ele><time>2026-04-11T08:24:17.973Z</time></trkpt><trkpt lat="44.1362032" lon="10.3692569"><ele>360.5</ele><time>2026-04-11T08:24:18.97Z</time></trkpt><trkpt lat="44.1361219" lon="10.369262"><ele>360.0</ele><time>2026-04-11T08:24:19.966Z</time></trkpt><trkpt lat="44.1360478" lon="10.3692673"><ele>360.0</ele><time>2026-04-11T08:24:20.974Z</time></trkpt><trkpt lat="44.1359741" lon="10.3692829"><ele>360.0</ele><time>2026-04-11T08:24:21.966Z</time></trkpt><trkpt lat="44.1359125" lon="10.3693125"><ele>360.0</ele><time>2026-04-11T08:24:22.987Z</time></trkpt><trkpt lat="44.135855" lon="10.3693521"><ele>360.0</ele><time>2026-04-11T08:24:23.965Z</time></trkpt><trkpt lat="44.135799" lon="10.3694003"><ele>360.0</ele><time>2026-04-11T08:24:24.972Z</time></trkpt><trkpt lat="44.1357524" lon="10.3694594"><ele>360.0</ele><time>2026-04-11T08:24:25.969Z</time></trkpt><trkpt lat="44.1356586" lon="10.3695608"><ele>360.0</ele><time>2026-04-11T08:24:27.966Z</time></trkpt><trkpt lat="44.1355778" lon="10.3696456"><ele>360.0</ele><time>2026-04-11T08:24:29.975Z</time></trkpt><trkpt lat="44.1354996" lon="10.3697227"><ele>360.0</ele><time>2026-04-11T08:24:31.98Z</time></trkpt><trkpt lat="44.1354139" lon="10.3697987"><ele>360.0</ele><time>2026-04-11T08:24:33.977Z</time></trkpt><trkpt lat="44.135332" lon="10.3698786"><ele>360.0</ele><time>2026-04-11T08:24:35.962Z</time></trkpt><trkpt lat="44.1352458" lon="10.3699607"><ele>360.0</ele><time>2026-04-11T08:24:37.978Z</time></trkpt><trkpt lat="44.1351598" lon="10.3700504"><ele>360.0</ele><time>2026-04-11T08:24:39.967Z</time></trkpt><trkpt lat="44.1350762" lon="10.3701339"><ele>360.0</ele><time>2026-04-11T08:24:41.971Z</time></trkpt><trkpt lat="44.1349915" lon="10.3702221"><ele>360.0</ele><time>2026-04-11T08:24:43.968Z</time></trkpt><trkpt lat="44.1349108" lon="10.3703055"><ele>360.0</ele><time>2026-04-11T08:24:45.973Z</time></trkpt><trkpt lat="44.134821" lon="10.3703877"><ele>360.25</ele><time>2026-04-11T08:24:47.977Z</time></trkpt><trkpt lat="44.1347186" lon="10.370476"><ele>360.5</ele><time>2026-04-11T08:24:49.975Z</time></trkpt><trkpt lat="44.134618" lon="10.3705581"><ele>360.75</ele><time>2026-04-11T08:24:51.985Z</time></trkpt><trkpt lat="44.1345193" lon="10.3706497"><ele>361.0</ele><time>2026-04-11T08:24:53.983Z</time></trkpt><trkpt lat="44.1344395" lon="10.3707569"><ele>361.0</ele><time>2026-04-11T08:24:55.976Z</time></trkpt><trkpt lat="44.1343637" lon="10.3708711"><ele>361.0</ele><time>2026-04-11T08:24:57.977Z</time></trkpt><trkpt lat="44.1342989" lon="10.3709924"><ele>361.0</ele><time>2026-04-11T08:24:59.975Z</time></trkpt><trkpt lat="44.1342374" lon="10.3711258"><ele>361.0</ele><time>2026-04-11T08:25:01.983Z</time></trkpt><trkpt lat="44.1341788" lon="10.3712521"><ele>361.0</ele><time>2026-04-11T08:25:03.983Z</time></trkpt><trkpt lat="44.1341183" lon="10.3713742"><ele>363.0</ele><time>2026-04-11T08:25:05.978Z</time></trkpt><trkpt lat="44.1340549" lon="10.3714968"><ele>365.0</ele><time>2026-04-11T08:25:07.985Z</time></trkpt><trkpt lat="44.1339949" lon="10.3716205"><ele>367.0</ele><time>2026-04-11T08:25:09.972Z</time></trkpt><trkpt lat="44.1339415" lon="10.3717436"><ele>369.0</ele><time>2026-04-11T08:25:11.977Z</time></trkpt><trkpt lat="44.1338868" lon="10.3718676"><ele>371.0</ele><time>2026-04-11T08:25:13.973Z</time></trkpt><trkpt lat="44.1338312" lon="10.3719786"><ele>371.0</ele><time>2026-04-11T08:25:15.961Z</time></trkpt><trkpt lat="44.1337674" lon="10.372098"><ele>371.0</ele><time>2026-04-11T08:25:17.994Z</time></trkpt><trkpt lat="44.1337155" lon="10.3722142"><ele>371.0</ele><time>2026-04-11T08:25:19.968Z</time></trkpt><trkpt lat="44.1336573" lon="10.3723273"><ele>371.0</ele><time>2026-04-11T08:25:21.97Z</time></trkpt><trkpt lat="44.1335864" lon="10.3724275"><ele>371.0</ele><time>2026-04-11T08:25:23.986Z</time></trkpt><trkpt lat="44.1335064" lon="10.3725233"><ele>371.4</ele><time>2026-04-11T08:25:25.97Z</time></trkpt><trkpt lat="44.133423" lon="10.3726184"><ele>371.8</ele><time>2026-04-11T08:25:27.977Z</time></trkpt><trkpt lat="44.1333439" lon="10.3727142"><ele>372.2</ele><time>2026-04-11T08:25:29.972Z</time></trkpt><trkpt lat="44.1332718" lon="10.3728253"><ele>372.59999999999997</ele><time>2026-04-11T08:25:31.975Z</time></trkpt><trkpt lat="44.1332096" lon="10.3729425"><ele>373.0</ele><time>2026-04-11T08:25:33.966Z</time></trkpt><trkpt lat="44.1331589" lon="10.3730759"><ele>373.0</ele><time>2026-04-11T08:25:35.977Z</time></trkpt><trkpt lat="44.1331172" lon="10.3732274"><ele>373.0</ele><time>2026-04-11T08:25:37.985Z</time></trkpt><trkpt lat="44.1330759" lon="10.3733721"><ele>373.0</ele><time>2026-04-11T08:25:39.984Z</time></trkpt><trkpt lat="44.1330397" lon="10.3735071"><ele>373.0</ele><time>2026-04-11T08:25:41.967Z</time></trkpt><trkpt lat="44.1329986" lon="10.373614"><ele>373.0</ele><time>2026-04-11T08:25:43.983Z</time></trkpt><trkpt lat="44.1329598" lon="10.3737108"><ele>373.0</ele><time>2026-04-11T08:25:45.972Z</time></trkpt><trkpt lat="44.1329157" lon="10.3737926"><ele>373.0</ele><time>2026-04-11T08:25:47.972Z</time></trkpt><trkpt lat="44.1328632" lon="10.3738613"><ele>373.0</ele><time>2026-04-11T08:25:49.98Z</time></trkpt><trkpt lat="44.1328063" lon="10.3739176"><ele>373.0</ele><time>2026-04-11T08:25:51.975Z</time></trkpt><trkpt lat="44.132746" lon="10.3739582"><ele>373.0</ele><time>2026-04-11T08:25:53.971Z</time></trkpt><trkpt lat="44.1326845" lon="10.3739968"><ele>373.0</ele><time>2026-04-11T08:25:55.973Z</time></trkpt><trkpt lat="44.1326198" lon="10.3740266"><ele>373.0</ele><time>2026-04-11T08:25:57.976Z</time></trkpt><trkpt lat="44.1325557" lon="10.3740506"><ele>373.7142857142857</ele><time>2026-04-11T08:25:59.976Z</time></trkpt><trkpt lat="44.1324902" lon="10.37407"><ele>374.42857142857144</ele><time>2026-04-11T08:26:01.984Z</time></trkpt><trkpt lat="44.1324234" lon="10.3740906"><ele>375.1428571428571</ele><time>2026-04-11T08:26:03.983Z</time></trkpt><trkpt lat="44.1323542" lon="10.3741153"><ele>375.8571428571429</ele><time>2026-04-11T08:26:05.964Z</time></trkpt><trkpt lat="44.1322827" lon="10.3741378"><ele>376.57142857142856</ele><time>2026-04-11T08:26:07.961Z</time></trkpt><trkpt lat="44.1322055" lon="10.3741622"><ele>377.2857142857143</ele><time>2026-04-11T08:26:09.973Z</time></trkpt><trkpt lat="44.1321284" lon="10.3741871"><ele>378.0</ele><time>2026-04-11T08:26:11.974Z</time></trkpt><trkpt lat="44.1320477" lon="10.3742159"><ele>378.0</ele><time>2026-04-11T08:26:13.966Z</time></trkpt><trkpt lat="44.1319744" lon="10.374255"><ele>378.0</ele><time>2026-04-11T08:26:15.985Z</time></trkpt><trkpt lat="44.1319025" lon="10.3743031"><ele>378.0</ele><time>2026-04-11T08:26:17.978Z</time></trkpt><trkpt lat="44.1318418" lon="10.3743733"><ele>378.0</ele><time>2026-04-11T08:26:19.985Z</time></trkpt><trkpt lat="44.1317851" lon="10.3744534"><ele>378.0</ele><time>2026-04-11T08:26:21.97Z</time></trkpt><trkpt lat="44.1317232" lon="10.374524"><ele>378.0</ele><time>2026-04-11T08:26:23.965Z</time></trkpt><trkpt lat="44.131671" lon="10.3746031"><ele>378.0</ele><time>2026-04-11T08:26:25.975Z</time></trkpt><trkpt lat="44.1316199" lon="10.3746864"><ele>378.0</ele><time>2026-04-11T08:26:27.974Z</time></trkpt><trkpt lat="44.1315604" lon="10.374755"><ele>378.0</ele><time>2026-04-11T08:26:29.97Z</time></trkpt><trkpt lat="44.1315062" lon="10.3748331"><ele>378.0</ele><time>2026-04-11T08:26:31.962Z</time></trkpt><trkpt lat="44.1314455" lon="10.3749236"><ele>378.0</ele><time>2026-04-11T08:26:33.97Z</time></trkpt><trkpt lat="44.1313849" lon="10.3750121"><ele>378.0</ele><time>2026-04-11T08:26:35.963Z</time></trkpt><trkpt lat="44.1313386" lon="10.3750965"><ele>378.3333333333333</ele><time>2026-04-11T08:26:37.968Z</time></trkpt><trkpt lat="44.1312922" lon="10.3751839"><ele>378.6666666666667</ele><time>2026-04-11T08:26:39.979Z</time></trkpt><trkpt lat="44.1312363" lon="10.3752606"><ele>379.0</ele><time>2026-04-11T08:26:41.962Z</time></trkpt><trkpt lat="44.1311791" lon="10.3753354"><ele>379.33333333333337</ele><time>2026-04-11T08:26:43.959Z</time></trkpt><trkpt lat="44.1311243" lon="10.3754155"><ele>379.6666666666667</ele><time>2026-04-11T08:26:45.969Z</time></trkpt><trkpt lat="44.1310728" lon="10.3754961"><ele>380.0</ele><time>2026-04-11T08:26:47.967Z</time></trkpt><trkpt lat="44.1310205" lon="10.3755813"><ele>381.1666666666667</ele><time>2026-04-11T08:26:49.979Z</time></trkpt><trkpt lat="44.1309648" lon="10.3756625"><ele>382.33333333333337</ele><time>2026-04-11T08:26:51.961Z</time></trkpt><trkpt lat="44.1309069" lon="10.3757357"><ele>383.5</ele><time>2026-04-11T08:26:53.962Z</time></trkpt><trkpt lat="44.1308488" lon="10.3758051"><ele>384.6666666666667</ele><time>2026-04-11T08:26:55.972Z</time></trkpt><trkpt lat="44.1307912" lon="10.3758683"><ele>385.8333333333333</ele><time>2026-04-11T08:26:57.97Z</time></trkpt><trkpt lat="44.1307256" lon="10.3759469"><ele>387.0</ele><time>2026-04-11T08:26:59.963Z</time></trkpt><trkpt lat="44.1306563" lon="10.3760216"><ele>387.0</ele><time>2026-04-11T08:27:01.97Z</time></trkpt><trkpt lat="44.1305824" lon="10.3760984"><ele>387.0</ele><time>2026-04-11T08:27:03.978Z</time></trkpt><trkpt lat="44.1305092" lon="10.3761677"><ele>387.0</ele><time>2026-04-11T08:27:05.973Z</time></trkpt><trkpt lat="44.1304326" lon="10.3762285"><ele>387.0</ele><time>2026-04-11T08:27:07.97Z</time></trkpt><trkpt lat="44.1303554" lon="10.3762829"><ele>387.0</ele><time>2026-04-11T08:27:09.961Z</time></trkpt><trkpt lat="44.1302861" lon="10.3763348"><ele>387.0</ele><time>2026-04-11T08:27:11.978Z</time></trkpt><trkpt lat="44.1302274" lon="10.3763918"><ele>385.3333333333333</ele><time>2026-04-11T08:27:13.972Z</time></trkpt><trkpt lat="44.1301788" lon="10.3764645"><ele>383.6666666666667</ele><time>2026-04-11T08:27:15.978Z</time></trkpt><trkpt lat="44.1301341" lon="10.3765541"><ele>382.0</ele><time>2026-04-11T08:27:17.985Z</time></trkpt><trkpt lat="44.1300931" lon="10.3766418"><ele>380.33333333333337</ele><time>2026-04-11T08:27:19.972Z</time></trkpt><trkpt lat="44.1300496" lon="10.3767355"><ele>378.6666666666667</ele><time>2026-04-11T08:27:21.978Z</time></trkpt><trkpt lat="44.1300006" lon="10.3768378"><ele>377.0</ele><time>2026-04-11T08:27:23.963Z</time></trkpt><trkpt lat="44.1299428" lon="10.3769618"><ele>375.5</ele><time>2026-04-11T08:27:25.982Z</time></trkpt><trkpt lat="44.1298861" lon="10.3770815"><ele>374.0</ele><time>2026-04-11T08:27:27.971Z</time></trkpt><trkpt lat="44.1298121" lon="10.3772022"><ele>372.5</ele><time>2026-04-11T08:27:29.964Z</time></trkpt><trkpt lat="44.1297268" lon="10.3773159"><ele>371.0</ele><time>2026-04-11T08:27:31.98Z</time></trkpt><trkpt lat="44.129611" lon="10.3773757"><ele>371.0</ele><time>2026-04-11T08:27:33.977Z</time></trkpt><trkpt lat="44.1295447" lon="10.377391"><ele>371.0</ele><time>2026-04-11T08:27:34.974Z</time></trkpt><trkpt lat="44.1294765" lon="10.3773945"><ele>371.0</ele><time>2026-04-11T08:27:35.967Z</time></trkpt><trkpt lat="44.129409" lon="10.3774003"><ele>371.0</ele><time>2026-04-11T08:27:36.974Z</time></trkpt><trkpt lat="44.1293372" lon="10.3774083"><ele>371.0</ele><time>2026-04-11T08:27:37.978Z</time></trkpt><trkpt lat="44.1292713" lon="10.3774137"><ele>371.0</ele><time>2026-04-11T08:27:38.981Z</time></trkpt><trkpt lat="44.1292077" lon="10.3774205"><ele>371.0</ele><time>2026-04-11T08:27:39.973Z</time></trkpt><trkpt lat="44.1290948" lon="10.3774526"><ele>370.6</ele><time>2026-04-11T08:27:41.964Z</time></trkpt><trkpt lat="44.1290137" lon="10.3775383"><ele>370.20000000000005</ele><time>2026-04-11T08:27:43.983Z</time></trkpt><trkpt lat="44.1289669" lon="10.3776664"><ele>369.79999999999995</ele><time>2026-04-11T08:27:45.977Z</time></trkpt><trkpt lat="44.1289604" lon="10.3778253"><ele>369.4</ele><time>2026-04-11T08:27:47.978Z</time></trkpt><trkpt lat="44.1289942" lon="10.3779776"><ele>369.0</ele><time>2026-04-11T08:27:49.972Z</time></trkpt><trkpt lat="44.1290747" lon="10.3781065"><ele>369.0</ele><time>2026-04-11T08:27:51.974Z</time></trkpt><trkpt lat="44.1291198" lon="10.3781828"><ele>369.0</ele><time>2026-04-11T08:27:52.977Z</time></trkpt><trkpt lat="44.1291638" lon="10.3782617"><ele>369.0</ele><time>2026-04-11T08:27:53.975Z</time></trkpt><trkpt lat="44.1292049" lon="10.3783486"><ele>369.0</ele><time>2026-04-11T08:27:54.969Z</time></trkpt><trkpt lat="44.1292405" lon="10.378444"><ele>369.0</ele><time>2026-04-11T08:27:55.974Z</time></trkpt><trkpt lat="44.1292615" lon="10.3785456"><ele>369.0</ele><time>2026-04-11T08:27:56.969Z</time></trkpt><trkpt lat="44.1292725" lon="10.378648"><ele>369.0</ele><time>2026-04-11T08:27:57.974Z</time></trkpt><trkpt lat="44.1292796" lon="10.3787499"><ele>369.7142857142857</ele><time>2026-04-11T08:27:58.971Z</time></trkpt><trkpt lat="44.1292821" lon="10.3788611"><ele>370.42857142857144</ele><time>2026-04-11T08:27:59.978Z</time></trkpt><trkpt lat="44.1292786" lon="10.3789629"><ele>371.1428571428571</ele><time>2026-04-11T08:28:00.976Z</time></trkpt><trkpt lat="44.1292822" lon="10.3790635"><ele>371.8571428571429</ele><time>2026-04-11T08:28:01.977Z</time></trkpt><trkpt lat="44.1292867" lon="10.3791663"><ele>372.5714285714286</ele><time>2026-04-11T08:28:02.978Z</time></trkpt><trkpt lat="44.1292977" lon="10.3792604"><ele>373.2857142857143</ele><time>2026-04-11T08:28:03.982Z</time></trkpt><trkpt lat="44.1293183" lon="10.3793444"><ele>374.0</ele><time>2026-04-11T08:28:04.985Z</time></trkpt><trkpt lat="44.1293551" lon="10.3795137"><ele>374.0</ele><time>2026-04-11T08:28:06.974Z</time></trkpt><trkpt lat="44.1293741" lon="10.3796003"><ele>374.0</ele><time>2026-04-11T08:28:07.978Z</time></trkpt><trkpt lat="44.1293934" lon="10.3796917"><ele>374.0</ele><time>2026-04-11T08:28:08.977Z</time></trkpt><trkpt lat="44.1294128" lon="10.3797792"><ele>374.0</ele><time>2026-04-11T08:28:09.985Z</time></trkpt><trkpt lat="44.1294348" lon="10.3798718"><ele>374.0</ele><time>2026-04-11T08:28:10.973Z</time></trkpt><trkpt lat="44.1294621" lon="10.3799646"><ele>374.0</ele><time>2026-04-11T08:28:11.976Z</time></trkpt><trkpt lat="44.1294886" lon="10.3800523"><ele>374.0</ele><time>2026-04-11T08:28:12.976Z</time></trkpt><trkpt lat="44.1295277" lon="10.380138"><ele>373.7142857142857</ele><time>2026-04-11T08:28:13.982Z</time></trkpt><trkpt lat="44.1295729" lon="10.3802211"><ele>373.42857142857144</ele><time>2026-04-11T08:28:14.965Z</time></trkpt><trkpt lat="44.1296214" lon="10.3802991"><ele>373.14285714285717</ele><time>2026-04-11T08:28:15.975Z</time></trkpt><trkpt lat="44.1296671" lon="10.3803785"><ele>372.8571428571429</ele><time>2026-04-11T08:28:16.973Z</time></trkpt><trkpt lat="44.1297141" lon="10.3804559"><ele>372.57142857142856</ele><time>2026-04-11T08:28:17.978Z</time></trkpt><trkpt lat="44.1297582" lon="10.380541"><ele>372.28571428571433</ele><time>2026-04-11T08:28:18.969Z</time></trkpt><trkpt lat="44.129784" lon="10.3806387"><ele>372.0</ele><time>2026-04-11T08:28:19.973Z</time></trkpt><trkpt lat="44.1297959" lon="10.3807406"><ele>372.0</ele><time>2026-04-11T08:28:20.973Z</time></trkpt><trkpt lat="44.1297909" lon="10.380847"><ele>372.0</ele><time>2026-04-11T08:28:21.98Z</time></trkpt><trkpt lat="44.129776" lon="10.3809519"><ele>372.0</ele><time>2026-04-11T08:28:22.971Z</time></trkpt><trkpt lat="44.1297503" lon="10.3810497"><ele>372.0</ele><time>2026-04-11T08:28:23.977Z</time></trkpt><trkpt lat="44.1297268" lon="10.3811457"><ele>372.0</ele><time>2026-04-11T08:28:24.966Z</time></trkpt><trkpt lat="44.1297021" lon="10.3812504"><ele>372.0</ele><time>2026-04-11T08:28:25.965Z</time></trkpt><trkpt lat="44.1296767" lon="10.381354"><ele>370.8333333333333</ele><time>2026-04-11T08:28:26.962Z</time></trkpt><trkpt lat="44.1296582" lon="10.3814604"><ele>369.6666666666667</ele><time>2026-04-11T08:28:27.974Z</time></trkpt><trkpt lat="44.1296349" lon="10.3815655"><ele>368.5</ele><time>2026-04-11T08:28:28.973Z</time></trkpt><trkpt lat="44.1296131" lon="10.3816739"><ele>367.33333333333337</ele><time>2026-04-11T08:28:29.971Z</time></trkpt><trkpt lat="44.1295899" lon="10.3817832"><ele>366.1666666666667</ele><time>2026-04-11T08:28:30.969Z</time></trkpt><trkpt lat="44.1295697" lon="10.3818904"><ele>365.0</ele><time>2026-04-11T08:28:31.972Z</time></trkpt><trkpt lat="44.1295433" lon="10.3820002"><ele>365.0</ele><time>2026-04-11T08:28:32.976Z</time></trkpt><trkpt lat="44.1295124" lon="10.3821015"><ele>365.0</ele><time>2026-04-11T08:28:33.975Z</time></trkpt><trkpt lat="44.1294746" lon="10.3822009"><ele>365.0</ele><time>2026-04-11T08:28:34.97Z</time></trkpt><trkpt lat="44.1294241" lon="10.3822897"><ele>365.0</ele><time>2026-04-11T08:28:35.978Z</time></trkpt><trkpt lat="44.1293684" lon="10.3823726"><ele>365.0</ele><time>2026-04-11T08:28:36.967Z</time></trkpt><trkpt lat="44.1293075" lon="10.3824406"><ele>365.0</ele><time>2026-04-11T08:28:37.979Z</time></trkpt><trkpt lat="44.1292455" lon="10.3825143"><ele>365.83333333333337</ele><time>2026-04-11T08:28:38.978Z</time></trkpt><trkpt lat="44.1291842" lon="10.3825886"><ele>366.6666666666667</ele><time>2026-04-11T08:28:39.976Z</time></trkpt><trkpt lat="44.1291186" lon="10.3826672"><ele>367.5</ele><time>2026-04-11T08:28:40.974Z</time></trkpt><trkpt lat="44.1290547" lon="10.382736"><ele>368.3333333333333</ele><time>2026-04-11T08:28:41.986Z</time></trkpt><trkpt lat="44.1289914" lon="10.3828068"><ele>369.16666666666663</ele><time>2026-04-11T08:28:42.981Z</time></trkpt><trkpt lat="44.1289284" lon="10.3828749"><ele>370.0</ele><time>2026-04-11T08:28:43.977Z</time></trkpt><trkpt lat="44.1288701" lon="10.3829458"><ele>368.57142857142856</ele><time>2026-04-11T08:28:44.965Z</time></trkpt><trkpt lat="44.1288059" lon="10.3830192"><ele>367.1428571428571</ele><time>2026-04-11T08:28:45.976Z</time></trkpt><trkpt lat="44.1287463" lon="10.3830859"><ele>365.71428571428567</ele><time>2026-04-11T08:28:46.964Z</time></trkpt><trkpt lat="44.1286902" lon="10.3831538"><ele>364.2857142857143</ele><time>2026-04-11T08:28:47.977Z</time></trkpt><trkpt lat="44.1286345" lon="10.3832187"><ele>362.8571428571429</ele><time>2026-04-11T08:28:48.98Z</time></trkpt><trkpt lat="44.1285887" lon="10.3832816"><ele>361.4285714285714</ele><time>2026-04-11T08:28:49.975Z</time></trkpt><trkpt lat="44.128543" lon="10.3833448"><ele>360.0</ele><time>2026-04-11T08:28:50.972Z</time></trkpt><trkpt lat="44.1284993" lon="10.3834124"><ele>360.0</ele><time>2026-04-11T08:28:51.975Z</time></trkpt><trkpt lat="44.1284577" lon="10.3834792"><ele>360.0</ele><time>2026-04-11T08:28:52.976Z</time></trkpt><trkpt lat="44.1284146" lon="10.3835542"><ele>360.0</ele><time>2026-04-11T08:28:53.968Z</time></trkpt><trkpt lat="44.1283717" lon="10.3836259"><ele>360.0</ele><time>2026-04-11T08:28:54.972Z</time></trkpt><trkpt lat="44.1283306" lon="10.3837"><ele>360.0</ele><time>2026-04-11T08:28:55.975Z</time></trkpt><trkpt lat="44.1282904" lon="10.3837782"><ele>360.0</ele><time>2026-04-11T08:28:56.961Z</time></trkpt><trkpt lat="44.128251" lon="10.3838559"><ele>360.0</ele><time>2026-04-11T08:28:57.965Z</time></trkpt><trkpt lat="44.1282153" lon="10.3839312"><ele>359.7142857142857</ele><time>2026-04-11T08:28:58.975Z</time></trkpt><trkpt lat="44.128176" lon="10.3840127"><ele>359.42857142857144</ele><time>2026-04-11T08:28:59.97Z</time></trkpt><trkpt lat="44.1281306" lon="10.384087"><ele>359.14285714285717</ele><time>2026-04-11T08:29:00.978Z</time></trkpt><trkpt lat="44.1280779" lon="10.3841501"><ele>358.8571428571429</ele><time>2026-04-11T08:29:01.981Z</time></trkpt><trkpt lat="44.1280214" lon="10.3842105"><ele>358.57142857142856</ele><time>2026-04-11T08:29:02.977Z</time></trkpt><trkpt lat="44.1279621" lon="10.3842623"><ele>358.28571428571433</ele><time>2026-04-11T08:29:03.979Z</time></trkpt><trkpt lat="44.1278919" lon="10.3843057"><ele>358.0</ele><time>2026-04-11T08:29:04.984Z</time></trkpt><trkpt lat="44.1278196" lon="10.3843426"><ele>358.0</ele><time>2026-04-11T08:29:05.971Z</time></trkpt><trkpt lat="44.1277413" lon="10.3843703"><ele>358.0</ele><time>2026-04-11T08:29:06.98Z</time></trkpt><trkpt lat="44.1276582" lon="10.3843935"><ele>358.0</ele><time>2026-04-11T08:29:07.974Z</time></trkpt><trkpt lat="44.127577" lon="10.3844324"><ele>358.0</ele><time>2026-04-11T08:29:08.976Z</time></trkpt><trkpt lat="44.1274948" lon="10.384494"><ele>358.0</ele><time>2026-04-11T08:29:09.972Z</time></trkpt><trkpt lat="44.127416" lon="10.3845653"><ele>358.0</ele><time>2026-04-11T08:29:10.978Z</time></trkpt><trkpt lat="44.1273442" lon="10.3846447"><ele>358.5</ele><time>2026-04-11T08:29:11.98Z</time></trkpt><trkpt lat="44.1272764" lon="10.384727"><ele>359.0</ele><time>2026-04-11T08:29:12.97Z</time></trkpt><trkpt lat="44.1272169" lon="10.384807"><ele>359.5</ele><time>2026-04-11T08:29:13.97Z</time></trkpt><trkpt lat="44.1271594" lon="10.3848828"><ele>360.0</ele><time>2026-04-11T08:29:14.978Z</time></trkpt><trkpt lat="44.1271092" lon="10.3849517"><ele>360.5</ele><time>2026-04-11T08:29:15.985Z</time></trkpt><trkpt lat="44.127065" lon="10.3850236"><ele>361.0</ele><time>2026-04-11T08:29:16.969Z</time></trkpt><trkpt lat="44.1270241" lon="10.385092"><ele>361.0</ele><time>2026-04-11T08:29:17.979Z</time></trkpt><trkpt lat="44.1269848" lon="10.3851653"><ele>361.0</ele><time>2026-04-11T08:29:18.97Z</time></trkpt><trkpt lat="44.1269464" lon="10.3852439"><ele>361.0</ele><time>2026-04-11T08:29:19.981Z</time></trkpt><trkpt lat="44.1269091" lon="10.3853286"><ele>361.0</ele><time>2026-04-11T08:29:20.972Z</time></trkpt><trkpt lat="44.1268729" lon="10.3854144"><ele>361.0</ele><time>2026-04-11T08:29:21.976Z</time></trkpt><trkpt lat="44.1268411" lon="10.3855042"><ele>361.0</ele><time>2026-04-11T08:29:22.965Z</time></trkpt><trkpt lat="44.1268088" lon="10.3856013"><ele>361.0</ele><time>2026-04-11T08:29:23.972Z</time></trkpt><trkpt lat="44.126768" lon="10.385701"><ele>360.4</ele><time>2026-04-11T08:29:24.968Z</time></trkpt><trkpt lat="44.1267234" lon="10.3858083"><ele>359.8</ele><time>2026-04-11T08:29:25.972Z</time></trkpt><trkpt lat="44.1266782" lon="10.3859236"><ele>359.2</ele><time>2026-04-11T08:29:26.971Z</time></trkpt><trkpt lat="44.1266285" lon="10.3860393"><ele>358.59999999999997</ele><time>2026-04-11T08:29:27.967Z</time></trkpt><trkpt lat="44.1265688" lon="10.386148"><ele>358.0</ele><time>2026-04-11T08:29:28.97Z</time></trkpt><trkpt lat="44.1265023" lon="10.3862538"><ele>355.79999999999995</ele><time>2026-04-11T08:29:29.972Z</time></trkpt><trkpt lat="44.126425" lon="10.3863576"><ele>353.6</ele><time>2026-04-11T08:29:30.98Z</time></trkpt><trkpt lat="44.1263435" lon="10.3864528"><ele>351.4</ele><time>2026-04-11T08:29:31.973Z</time></trkpt><trkpt lat="44.1262588" lon="10.3865383"><ele>349.20000000000005</ele><time>2026-04-11T08:29:32.965Z</time></trkpt><trkpt lat="44.1261723" lon="10.3866092"><ele>347.0</ele><time>2026-04-11T08:29:33.981Z</time></trkpt><trkpt lat="44.1260841" lon="10.3866803"><ele>347.0</ele><time>2026-04-11T08:29:34.976Z</time></trkpt><trkpt lat="44.1259902" lon="10.3867455"><ele>347.0</ele><time>2026-04-11T08:29:35.974Z</time></trkpt><trkpt lat="44.1258927" lon="10.386809"><ele>347.0</ele><time>2026-04-11T08:29:36.98Z</time></trkpt><trkpt lat="44.1258004" lon="10.3868797"><ele>347.0</ele><time>2026-04-11T08:29:37.977Z</time></trkpt><trkpt lat="44.1257072" lon="10.386948"><ele>347.0</ele><time>2026-04-11T08:29:38.982Z</time></trkpt><trkpt lat="44.1256145" lon="10.3870102"><ele>346.20000000000005</ele><time>2026-04-11T08:29:39.984Z</time></trkpt><trkpt lat="44.1255206" lon="10.3870603"><ele>345.4</ele><time>2026-04-11T08:29:40.964Z</time></trkpt><trkpt lat="44.1254188" lon="10.3871039"><ele>344.6</ele><time>2026-04-11T08:29:41.974Z</time></trkpt><trkpt lat="44.1253151" lon="10.3871464"><ele>343.79999999999995</ele><time>2026-04-11T08:29:42.965Z</time></trkpt><trkpt lat="44.1252193" lon="10.387199"><ele>343.0</ele><time>2026-04-11T08:29:43.987Z</time></trkpt><trkpt lat="44.1251269" lon="10.3872646"><ele>343.0</ele><time>2026-04-11T08:29:44.966Z</time></trkpt><trkpt lat="44.1250452" lon="10.3873363"><ele>343.0</ele><time>2026-04-11T08:29:45.972Z</time></trkpt><trkpt lat="44.1249697" lon="10.3874025"><ele>343.0</ele><time>2026-04-11T08:29:46.969Z</time></trkpt><trkpt lat="44.1248948" lon="10.3874745"><ele>343.0</ele><time>2026-04-11T08:29:47.966Z</time></trkpt><trkpt lat="44.1248264" lon="10.3875467"><ele>343.0</ele><time>2026-04-11T08:29:48.966Z</time></trkpt><trkpt lat="44.1247619" lon="10.3876213"><ele>343.0</ele><time>2026-04-11T08:29:49.975Z</time></trkpt><trkpt lat="44.1247057" lon="10.3877078"><ele>345.8333333333333</ele><time>2026-04-11T08:29:50.969Z</time></trkpt><trkpt lat="44.1246705" lon="10.3878025"><ele>348.66666666666663</ele><time>2026-04-11T08:29:51.983Z</time></trkpt><trkpt lat="44.1246396" lon="10.3879019"><ele>351.5</ele><time>2026-04-11T08:29:52.972Z</time></trkpt><trkpt lat="44.1246211" lon="10.3879941"><ele>354.3333333333333</ele><time>2026-04-11T08:29:53.969Z</time></trkpt><trkpt lat="44.1246016" lon="10.3880817"><ele>357.1666666666667</ele><time>2026-04-11T08:29:54.98Z</time></trkpt><trkpt lat="44.1245825" lon="10.3881659"><ele>360.0</ele><time>2026-04-11T08:29:55.969Z</time></trkpt><trkpt lat="44.1245452" lon="10.3883182"><ele>360.0</ele><time>2026-04-11T08:29:57.971Z</time></trkpt><trkpt lat="44.1245139" lon="10.3884626"><ele>360.0</ele><time>2026-04-11T08:29:59.968Z</time></trkpt><trkpt lat="44.1244781" lon="10.3885835"><ele>360.0</ele><time>2026-04-11T08:30:01.967Z</time></trkpt><trkpt lat="44.1244512" lon="10.3887085"><ele>360.0</ele><time>2026-04-11T08:30:03.984Z</time></trkpt><trkpt lat="44.1244226" lon="10.3888314"><ele>360.0</ele><time>2026-04-11T08:30:05.967Z</time></trkpt><trkpt lat="44.1244101" lon="10.3889527"><ele>359.3333333333333</ele><time>2026-04-11T08:30:07.975Z</time></trkpt><trkpt lat="44.1243992" lon="10.3890702"><ele>358.6666666666667</ele><time>2026-04-11T08:30:09.988Z</time></trkpt><trkpt lat="44.1243874" lon="10.3891893"><ele>358.0</ele><time>2026-04-11T08:30:11.974Z</time></trkpt><trkpt lat="44.1243711" lon="10.3893085"><ele>357.33333333333337</ele><time>2026-04-11T08:30:13.964Z</time></trkpt><trkpt lat="44.1243535" lon="10.3894311"><ele>356.6666666666667</ele><time>2026-04-11T08:30:15.964Z</time></trkpt><trkpt lat="44.1243324" lon="10.3895506"><ele>356.0</ele><time>2026-04-11T08:30:17.987Z</time></trkpt><trkpt lat="44.1242963" lon="10.3896588"><ele>354.6</ele><time>2026-04-11T08:30:19.978Z</time></trkpt><trkpt lat="44.1242428" lon="10.3897578"><ele>353.20000000000005</ele><time>2026-04-11T08:30:21.977Z</time></trkpt><trkpt lat="44.1241747" lon="10.389849"><ele>351.79999999999995</ele><time>2026-04-11T08:30:23.964Z</time></trkpt><trkpt lat="44.1241083" lon="10.3899316"><ele>350.4</ele><time>2026-04-11T08:30:25.975Z</time></trkpt><trkpt lat="44.1240375" lon="10.3900207"><ele>349.0</ele><time>2026-04-11T08:30:27.96Z</time></trkpt><trkpt lat="44.1239744" lon="10.3901091"><ele>350.79999999999995</ele><time>2026-04-11T08:30:29.98Z</time></trkpt><trkpt lat="44.1239172" lon="10.3902125"><ele>352.59999999999997</ele><time>2026-04-11T08:30:31.98Z</time></trkpt><trkpt lat="44.1238701" lon="10.390322"><ele>354.4</ele><time>2026-04-11T08:30:33.962Z</time></trkpt><trkpt lat="44.1238511" lon="10.3904456"><ele>356.2</ele><time>2026-04-11T08:30:35.965Z</time></trkpt><trkpt lat="44.12386" lon="10.3905751"><ele>358.0</ele><time>2026-04-11T08:30:37.972Z</time></trkpt><trkpt lat="44.1238863" lon="10.390706"><ele>358.0</ele><time>2026-04-11T08:30:39.973Z</time></trkpt><trkpt lat="44.1239185" lon="10.3908315"><ele>358.0</ele><time>2026-04-11T08:30:41.979Z</time></trkpt><trkpt lat="44.1239581" lon="10.3909525"><ele>358.0</ele><time>2026-04-11T08:30:43.975Z</time></trkpt><trkpt lat="44.1239895" lon="10.3910817"><ele>358.0</ele><time>2026-04-11T08:30:45.977Z</time></trkpt><trkpt lat="44.1240322" lon="10.3911999"><ele>358.0</ele><time>2026-04-11T08:30:47.976Z</time></trkpt><trkpt lat="44.1240769" lon="10.3913197"><ele>357.66666666666663</ele><time>2026-04-11T08:30:49.98Z</time></trkpt><trkpt lat="44.1241391" lon="10.3914226"><ele>357.3333333333333</ele><time>2026-04-11T08:30:51.967Z</time></trkpt><trkpt lat="44.124207" lon="10.3915175"><ele>357.0</ele><time>2026-04-11T08:30:53.976Z</time></trkpt><trkpt lat="44.124267" lon="10.3915985"><ele>356.6666666666667</ele><time>2026-04-11T08:30:55.985Z</time></trkpt><trkpt lat="44.1243275" lon="10.3916862"><ele>356.33333333333337</ele><time>2026-04-11T08:30:57.968Z</time></trkpt><trkpt lat="44.1243886" lon="10.3917636"><ele>356.0</ele><time>2026-04-11T08:30:59.97Z</time></trkpt><trkpt lat="44.1244374" lon="10.3918505"><ele>356.0</ele><time>2026-04-11T08:31:01.973Z</time></trkpt><trkpt lat="44.1244888" lon="10.3919569"><ele>356.0</ele><time>2026-04-11T08:31:03.973Z</time></trkpt><trkpt lat="44.1244884" lon="10.3921073"><ele>356.0</ele><time>2026-04-11T08:31:05.972Z</time></trkpt><trkpt lat="44.1244041" lon="10.3922272"><ele>356.0</ele><time>2026-04-11T08:31:07.969Z</time></trkpt><trkpt lat="44.1243431" lon="10.3922605"><ele>356.0</ele><time>2026-04-11T08:31:08.969Z</time></trkpt><trkpt lat="44.1242759" lon="10.3922655"><ele>354.2857142857143</ele><time>2026-04-11T08:31:09.97Z</time></trkpt><trkpt lat="44.1242082" lon="10.3922577"><ele>352.57142857142856</ele><time>2026-04-11T08:31:10.972Z</time></trkpt><trkpt lat="44.1241382" lon="10.3922497"><ele>350.8571428571429</ele><time>2026-04-11T08:31:11.97Z</time></trkpt><trkpt lat="44.1240664" lon="10.3922408"><ele>349.1428571428571</ele><time>2026-04-11T08:31:12.982Z</time></trkpt><trkpt lat="44.1239922" lon="10.3922311"><ele>347.42857142857144</ele><time>2026-04-11T08:31:13.986Z</time></trkpt><trkpt lat="44.1239158" lon="10.3922188"><ele>345.7142857142857</ele><time>2026-04-11T08:31:14.98Z</time></trkpt><trkpt lat="44.1238322" lon="10.3922097"><ele>344.0</ele><time>2026-04-11T08:31:15.973Z</time></trkpt><trkpt lat="44.1237477" lon="10.3921965"><ele>343.1666666666667</ele><time>2026-04-11T08:31:16.974Z</time></trkpt><trkpt lat="44.1236633" lon="10.3921872"><ele>342.33333333333337</ele><time>2026-04-11T08:31:17.989Z</time></trkpt><trkpt lat="44.1235768" lon="10.392174"><ele>341.5</ele><time>2026-04-11T08:31:18.967Z</time></trkpt><trkpt lat="44.1234888" lon="10.3921621"><ele>340.6666666666667</ele><time>2026-04-11T08:31:19.964Z</time></trkpt><trkpt lat="44.1233985" lon="10.3921367"><ele>339.8333333333333</ele><time>2026-04-11T08:31:20.983Z</time></trkpt><trkpt lat="44.1233159" lon="10.3920888"><ele>339.0</ele><time>2026-04-11T08:31:21.973Z</time></trkpt><trkpt lat="44.1232435" lon="10.3920225"><ele>341.0</ele><time>2026-04-11T08:31:22.97Z</time></trkpt><trkpt lat="44.1231713" lon="10.3919545"><ele>343.0</ele><time>2026-04-11T08:31:23.966Z</time></trkpt><trkpt lat="44.1230941" lon="10.3919053"><ele>345.0</ele><time>2026-04-11T08:31:24.966Z</time></trkpt><trkpt lat="44.1230122" lon="10.3918802"><ele>347.0</ele><time>2026-04-11T08:31:25.973Z</time></trkpt><trkpt lat="44.1229375" lon="10.3918728"><ele>349.0</ele><time>2026-04-11T08:31:26.971Z</time></trkpt><trkpt lat="44.1228533" lon="10.3918814"><ele>351.0</ele><time>2026-04-11T08:31:27.969Z</time></trkpt><trkpt lat="44.1227785" lon="10.3919083"><ele>351.0</ele><time>2026-04-11T08:31:28.976Z</time></trkpt><trkpt lat="44.1227028" lon="10.3919451"><ele>351.0</ele><time>2026-04-11T08:31:29.968Z</time></trkpt><trkpt lat="44.1226323" lon="10.3919863"><ele>351.0</ele><time>2026-04-11T08:31:30.974Z</time></trkpt><trkpt lat="44.1225575" lon="10.3920528"><ele>351.0</ele><time>2026-04-11T08:31:31.971Z</time></trkpt><trkpt lat="44.1224928" lon="10.3921313"><ele>351.0</ele><time>2026-04-11T08:31:32.981Z</time></trkpt><trkpt lat="44.1224309" lon="10.3922318"><ele>351.0</ele><time>2026-04-11T08:31:33.963Z</time></trkpt><trkpt lat="44.1223676" lon="10.3923291"><ele>350.4</ele><time>2026-04-11T08:31:34.973Z</time></trkpt><trkpt lat="44.1223049" lon="10.3924313"><ele>349.8</ele><time>2026-04-11T08:31:35.967Z</time></trkpt><trkpt lat="44.1222437" lon="10.3925302"><ele>349.2</ele><time>2026-04-11T08:31:36.982Z</time></trkpt><trkpt lat="44.1221879" lon="10.3926319"><ele>348.59999999999997</ele><time>2026-04-11T08:31:37.969Z</time></trkpt><trkpt lat="44.1221258" lon="10.3927331"><ele>348.0</ele><time>2026-04-11T08:31:38.974Z</time></trkpt><trkpt lat="44.1220675" lon="10.3928249"><ele>348.0</ele><time>2026-04-11T08:31:39.98Z</time></trkpt><trkpt lat="44.1220104" lon="10.3929153"><ele>348.0</ele><time>2026-04-11T08:31:40.985Z</time></trkpt><trkpt lat="44.121952" lon="10.393002"><ele>348.0</ele><time>2026-04-11T08:31:41.981Z</time></trkpt><trkpt lat="44.1218961" lon="10.3930974"><ele>348.0</ele><time>2026-04-11T08:31:42.974Z</time></trkpt><trkpt lat="44.1218211" lon="10.3931846"><ele>348.0</ele><time>2026-04-11T08:31:43.98Z</time></trkpt><trkpt lat="44.1217415" lon="10.3932619"><ele>347.0</ele><time>2026-04-11T08:31:44.986Z</time></trkpt><trkpt lat="44.1216527" lon="10.3933393"><ele>346.0</ele><time>2026-04-11T08:31:45.985Z</time></trkpt><trkpt lat="44.1215606" lon="10.3934165"><ele>345.0</ele><time>2026-04-11T08:31:46.986Z</time></trkpt><trkpt lat="44.1214754" lon="10.3935005"><ele>344.0</ele><time>2026-04-11T08:31:47.967Z</time></trkpt><trkpt lat="44.1213745" lon="10.3935933"><ele>343.0</ele><time>2026-04-11T08:31:48.968Z</time></trkpt><trkpt lat="44.121277" lon="10.3936706"><ele>343.0</ele><time>2026-04-11T08:31:49.975Z</time></trkpt><trkpt lat="44.1211761" lon="10.3937398"><ele>343.0</ele><time>2026-04-11T08:31:50.966Z</time></trkpt><trkpt lat="44.1210708" lon="10.3938024"><ele>343.0</ele><time>2026-04-11T08:31:51.967Z</time></trkpt><trkpt lat="44.1209589" lon="10.3938397"><ele>343.0</ele><time>2026-04-11T08:31:52.961Z</time></trkpt><trkpt lat="44.1208427" lon="10.3938595"><ele>341.75</ele><time>2026-04-11T08:31:53.964Z</time></trkpt><trkpt lat="44.1207314" lon="10.3938513"><ele>340.5</ele><time>2026-04-11T08:31:54.971Z</time></trkpt><trkpt lat="44.1206197" lon="10.3938255"><ele>339.25</ele><time>2026-04-11T08:31:55.975Z</time></trkpt><trkpt lat="44.1205082" lon="10.39379"><ele>338.0</ele><time>2026-04-11T08:31:56.97Z</time></trkpt><trkpt lat="44.1204021" lon="10.3937443"><ele>338.0</ele><time>2026-04-11T08:31:57.965Z</time></trkpt><trkpt lat="44.1202957" lon="10.3936986"><ele>338.0</ele><time>2026-04-11T08:31:58.968Z</time></trkpt><trkpt lat="44.1201875" lon="10.3936556"><ele>338.0</ele><time>2026-04-11T08:31:59.965Z</time></trkpt><trkpt lat="44.1200877" lon="10.3936067"><ele>338.0</ele><time>2026-04-11T08:32:00.962Z</time></trkpt><trkpt lat="44.1199894" lon="10.3935648"><ele>338.0</ele><time>2026-04-11T08:32:01.97Z</time></trkpt><trkpt lat="44.1198954" lon="10.3935258"><ele>337.5</ele><time>2026-04-11T08:32:02.973Z</time></trkpt><trkpt lat="44.1198013" lon="10.3934888"><ele>337.0</ele><time>2026-04-11T08:32:03.975Z</time></trkpt><trkpt lat="44.1197145" lon="10.3934796"><ele>336.5</ele><time>2026-04-11T08:32:04.966Z</time></trkpt><trkpt lat="44.1196315" lon="10.3934974"><ele>336.0</ele><time>2026-04-11T08:32:05.964Z</time></trkpt><trkpt lat="44.1195532" lon="10.3935482"><ele>335.5</ele><time>2026-04-11T08:32:06.971Z</time></trkpt><trkpt lat="44.1194758" lon="10.3936006"><ele>335.0</ele><time>2026-04-11T08:32:07.973Z</time></trkpt><trkpt lat="44.119402" lon="10.3936463"><ele>335.0</ele><time>2026-04-11T08:32:08.975Z</time></trkpt><trkpt lat="44.1193236" lon="10.3936969"><ele>335.0</ele><time>2026-04-11T08:32:09.972Z</time></trkpt><trkpt lat="44.1192457" lon="10.3937501"><ele>335.0</ele><time>2026-04-11T08:32:10.97Z</time></trkpt><trkpt lat="44.1191709" lon="10.3938058"><ele>335.0</ele><time>2026-04-11T08:32:11.972Z</time></trkpt><trkpt lat="44.1190972" lon="10.3938625"><ele>335.0</ele><time>2026-04-11T08:32:12.98Z</time></trkpt><trkpt lat="44.1190281" lon="10.3939278"><ele>335.0</ele><time>2026-04-11T08:32:13.975Z</time></trkpt><trkpt lat="44.1189665" lon="10.3940099"><ele>332.1666666666667</ele><time>2026-04-11T08:32:14.973Z</time></trkpt><trkpt lat="44.1189131" lon="10.3941071"><ele>329.33333333333337</ele><time>2026-04-11T08:32:15.965Z</time></trkpt><trkpt lat="44.1188665" lon="10.3942046"><ele>326.5</ele><time>2026-04-11T08:32:16.975Z</time></trkpt><trkpt lat="44.118821" lon="10.3943057"><ele>323.6666666666667</ele><time>2026-04-11T08:32:17.979Z</time></trkpt><trkpt lat="44.1187818" lon="10.3944113"><ele>320.8333333333333</ele><time>2026-04-11T08:32:18.967Z</time></trkpt><trkpt lat="44.1187438" lon="10.3945133"><ele>318.0</ele><time>2026-04-11T08:32:19.969Z</time></trkpt><trkpt lat="44.1187" lon="10.3946166"><ele>317.4</ele><time>2026-04-11T08:32:20.973Z</time></trkpt><trkpt lat="44.1186488" lon="10.3947107"><ele>316.8</ele><time>2026-04-11T08:32:21.967Z</time></trkpt><trkpt lat="44.1185877" lon="10.3947955"><ele>316.2</ele><time>2026-04-11T08:32:22.965Z</time></trkpt><trkpt lat="44.1185102" lon="10.3948554"><ele>315.6</ele><time>2026-04-11T08:32:23.977Z</time></trkpt><trkpt lat="44.1184214" lon="10.3948907"><ele>315.0</ele><time>2026-04-11T08:32:24.968Z</time></trkpt><trkpt lat="44.1183233" lon="10.3948873"><ele>316.4</ele><time>2026-04-11T08:32:25.967Z</time></trkpt><trkpt lat="44.118228" lon="10.3948494"><ele>317.8</ele><time>2026-04-11T08:32:26.974Z</time></trkpt><trkpt lat="44.1181365" lon="10.394775"><ele>319.20000000000005</ele><time>2026-04-11T08:32:27.963Z</time></trkpt><trkpt lat="44.1180521" lon="10.3946931"><ele>320.6</ele><time>2026-04-11T08:32:28.962Z</time></trkpt><trkpt lat="44.1179611" lon="10.394615"><ele>322.0</ele><time>2026-04-11T08:32:29.962Z</time></trkpt><trkpt lat="44.1178635" lon="10.3945509"><ele>322.0</ele><time>2026-04-11T08:32:30.974Z</time></trkpt><trkpt lat="44.1177569" lon="10.3945477"><ele>322.0</ele><time>2026-04-11T08:32:31.982Z</time></trkpt><trkpt lat="44.1176641" lon="10.3945822"><ele>322.0</ele><time>2026-04-11T08:32:32.977Z</time></trkpt><trkpt lat="44.1175871" lon="10.3946589"><ele>322.0</ele><time>2026-04-11T08:32:33.976Z</time></trkpt><trkpt lat="44.1175373" lon="10.3947713"><ele>322.0</ele><time>2026-04-11T08:32:34.977Z</time></trkpt><trkpt lat="44.1175093" lon="10.3948904"><ele>322.0</ele><time>2026-04-11T08:32:35.964Z</time></trkpt><trkpt lat="44.1174947" lon="10.3950069"><ele>322.0</ele><time>2026-04-11T08:32:36.973Z</time></trkpt><trkpt lat="44.1174855" lon="10.3951223"><ele>322.0</ele><time>2026-04-11T08:32:37.973Z</time></trkpt><trkpt lat="44.1174787" lon="10.3952278"><ele>322.0</ele><time>2026-04-11T08:32:38.976Z</time></trkpt><trkpt lat="44.1174696" lon="10.3953285"><ele>322.0</ele><time>2026-04-11T08:32:39.968Z</time></trkpt><trkpt lat="44.1174621" lon="10.3954265"><ele>322.0</ele><time>2026-04-11T08:32:40.99Z</time></trkpt><trkpt lat="44.1174518" lon="10.3955142"><ele>321.20000000000005</ele><time>2026-04-11T08:32:41.981Z</time></trkpt><trkpt lat="44.1174326" lon="10.39566"><ele>320.40000000000003</ele><time>2026-04-11T08:32:43.965Z</time></trkpt><trkpt lat="44.1174144" lon="10.3957962"><ele>319.6</ele><time>2026-04-11T08:32:45.979Z</time></trkpt><trkpt lat="44.1174055" lon="10.3959138"><ele>318.8</ele><time>2026-04-11T08:32:47.963Z</time></trkpt><trkpt lat="44.1173917" lon="10.3960245"><ele>318.0</ele><time>2026-04-11T08:32:49.959Z</time></trkpt><trkpt lat="44.1173823" lon="10.3961383"><ele>319.3333333333333</ele><time>2026-04-11T08:32:51.961Z</time></trkpt><trkpt lat="44.1173652" lon="10.396228"><ele>320.6666666666667</ele><time>2026-04-11T08:32:53.966Z</time></trkpt><trkpt lat="44.1173382" lon="10.3963075"><ele>322.0</ele><time>2026-04-11T08:32:55.959Z</time></trkpt><trkpt lat="44.1172889" lon="10.3964157"><ele>323.33333333333337</ele><time>2026-04-11T08:32:58.973Z</time></trkpt><trkpt lat="44.1172152" lon="10.3964917"><ele>324.6666666666667</ele><time>2026-04-11T08:33:01.969Z</time></trkpt><trkpt lat="44.1171293" lon="10.3965394"><ele>326.0</ele><time>2026-04-11T08:33:04.965Z</time></trkpt><trkpt lat="44.1170391" lon="10.3965706"><ele>326.0</ele><time>2026-04-11T08:33:07.971Z</time></trkpt><trkpt lat="44.1169531" lon="10.3966209"><ele>326.0</ele><time>2026-04-11T08:33:10.974Z</time></trkpt><trkpt lat="44.1168725" lon="10.3966795"><ele>326.0</ele><time>2026-04-11T08:33:13.968Z</time></trkpt><trkpt lat="44.1167911" lon="10.3967421"><ele>326.0</ele><time>2026-04-11T08:33:16.958Z</time></trkpt><trkpt lat="44.1167402" lon="10.3967957"><ele>326.0</ele><time>2026-04-11T08:33:18.964Z</time></trkpt><trkpt lat="44.1166899" lon="10.3968511"><ele>326.0</ele><time>2026-04-11T08:33:20.976Z</time></trkpt><trkpt lat="44.1166382" lon="10.3969075"><ele>326.0</ele><time>2026-04-11T08:33:22.967Z</time></trkpt><trkpt lat="44.1165848" lon="10.3969688"><ele>326.0</ele><time>2026-04-11T08:33:24.974Z</time></trkpt><trkpt lat="44.1165266" lon="10.3970277"><ele>326.0</ele><time>2026-04-11T08:33:26.974Z</time></trkpt><trkpt lat="44.1164632" lon="10.3970937"><ele>326.0</ele><time>2026-04-11T08:33:28.972Z</time></trkpt><trkpt lat="44.1164004" lon="10.39716"><ele>326.0</ele><time>2026-04-11T08:33:30.985Z</time></trkpt><trkpt lat="44.1163206" lon="10.3972156"><ele>326.0</ele><time>2026-04-11T08:33:32.97Z</time></trkpt><trkpt lat="44.1162509" lon="10.3972347"><ele>324.8</ele><time>2026-04-11T08:33:34.971Z</time></trkpt><trkpt lat="44.1161759" lon="10.3972129"><ele>323.6</ele><time>2026-04-11T08:33:36.977Z</time></trkpt><trkpt lat="44.1160744" lon="10.3971769"><ele>322.4</ele><time>2026-04-11T08:33:38.973Z</time></trkpt><trkpt lat="44.1159988" lon="10.3971585"><ele>321.2</ele><time>2026-04-11T08:33:40.982Z</time></trkpt><trkpt lat="44.1159124" lon="10.3971811"><ele>320.0</ele><time>2026-04-11T08:33:42.97Z</time></trkpt><trkpt lat="44.1158174" lon="10.3972443"><ele>324.6</ele><time>2026-04-11T08:33:44.979Z</time></trkpt><trkpt lat="44.1157212" lon="10.3973445"><ele>329.2</ele><time>2026-04-11T08:33:46.973Z</time></trkpt><trkpt lat="44.1156305" lon="10.3974528"><ele>333.79999999999995</ele><time>2026-04-11T08:33:48.96Z</time></trkpt><trkpt lat="44.1155568" lon="10.3975376"><ele>338.4</ele><time>2026-04-11T08:33:50.97Z</time></trkpt><trkpt lat="44.1154832" lon="10.3976145"><ele>343.0</ele><time>2026-04-11T08:33:52.964Z</time></trkpt><trkpt lat="44.1153162" lon="10.397813"><ele>343.0</ele><time>2026-04-11T08:33:54.958Z</time></trkpt><trkpt lat="44.1152704" lon="10.3978793"><ele>343.0</ele><time>2026-04-11T08:33:55.984Z</time></trkpt><trkpt lat="44.1152269" lon="10.3979511"><ele>343.0</ele><time>2026-04-11T08:33:56.976Z</time></trkpt><trkpt lat="44.1151365" lon="10.3980773"><ele>343.0</ele><time>2026-04-11T08:33:58.974Z</time></trkpt><trkpt lat="44.1150454" lon="10.398202"><ele>343.0</ele><time>2026-04-11T08:34:00.972Z</time></trkpt><trkpt lat="44.1149525" lon="10.3983324"><ele>341.66666666666663</ele><time>2026-04-11T08:34:02.984Z</time></trkpt><trkpt lat="44.1149097" lon="10.3984011"><ele>340.3333333333333</ele><time>2026-04-11T08:34:03.989Z</time></trkpt><trkpt lat="44.1148638" lon="10.3984645"><ele>339.0</ele><time>2026-04-11T08:34:04.982Z</time></trkpt><trkpt lat="44.1148167" lon="10.3985315"><ele>337.6666666666667</ele><time>2026-04-11T08:34:05.97Z</time></trkpt><trkpt lat="44.1147371" lon="10.3986641"><ele>336.33333333333337</ele><time>2026-04-11T08:34:07.977Z</time></trkpt><trkpt lat="44.1146916" lon="10.3987418"><ele>335.0</ele><time>2026-04-11T08:34:08.98Z</time></trkpt><trkpt lat="44.1146537" lon="10.3988127"><ele>332.85714285714283</ele><time>2026-04-11T08:34:09.972Z</time></trkpt><trkpt lat="44.1146169" lon="10.3988853"><ele>330.7142857142857</ele><time>2026-04-11T08:34:10.982Z</time></trkpt><trkpt lat="44.1145784" lon="10.3989581"><ele>328.57142857142856</ele><time>2026-04-11T08:34:11.971Z</time></trkpt><trkpt lat="44.1145362" lon="10.3990335"><ele>326.42857142857144</ele><time>2026-04-11T08:34:12.974Z</time></trkpt><trkpt lat="44.1144994" lon="10.3991086"><ele>324.2857142857143</ele><time>2026-04-11T08:34:13.991Z</time></trkpt><trkpt lat="44.1144587" lon="10.3991818"><ele>322.1428571428571</ele><time>2026-04-11T08:34:14.98Z</time></trkpt><trkpt lat="44.1144082" lon="10.3992525"><ele>320.0</ele><time>2026-04-11T08:34:15.977Z</time></trkpt><trkpt lat="44.1143489" lon="10.3993106"><ele>320.0</ele><time>2026-04-11T08:34:16.971Z</time></trkpt><trkpt lat="44.1142867" lon="10.3993536"><ele>320.0</ele><time>2026-04-11T08:34:17.965Z</time></trkpt><trkpt lat="44.1142191" lon="10.3993949"><ele>320.0</ele><time>2026-04-11T08:34:18.976Z</time></trkpt><trkpt lat="44.1141535" lon="10.3994323"><ele>320.0</ele><time>2026-04-11T08:34:19.975Z</time></trkpt><trkpt lat="44.1140825" lon="10.3994656"><ele>320.0</ele><time>2026-04-11T08:34:20.973Z</time></trkpt><trkpt lat="44.1140164" lon="10.3994914"><ele>320.0</ele><time>2026-04-11T08:34:21.976Z</time></trkpt><trkpt lat="44.1139533" lon="10.3995238"><ele>320.0</ele><time>2026-04-11T08:34:22.962Z</time></trkpt><trkpt lat="44.1138937" lon="10.3995607"><ele>320.0</ele><time>2026-04-11T08:34:23.978Z</time></trkpt><trkpt lat="44.1138356" lon="10.3996086"><ele>320.0</ele><time>2026-04-11T08:34:24.975Z</time></trkpt><trkpt lat="44.1137865" lon="10.3996691"><ele>320.0</ele><time>2026-04-11T08:34:25.969Z</time></trkpt><trkpt lat="44.1137446" lon="10.3997379"><ele>320.0</ele><time>2026-04-11T08:34:26.979Z</time></trkpt><trkpt lat="44.1137098" lon="10.3998188"><ele>320.0</ele><time>2026-04-11T08:34:27.982Z</time></trkpt><trkpt lat="44.1136733" lon="10.3998998"><ele>320.0</ele><time>2026-04-11T08:34:28.98Z</time></trkpt><trkpt lat="44.1136437" lon="10.3999836"><ele>320.0</ele><time>2026-04-11T08:34:29.97Z</time></trkpt><trkpt lat="44.1136081" lon="10.40007"><ele>320.0</ele><time>2026-04-11T08:34:30.981Z</time></trkpt><trkpt lat="44.113572" lon="10.4001529"><ele>320.0</ele><time>2026-04-11T08:34:31.973Z</time></trkpt><trkpt lat="44.1135371" lon="10.4002347"><ele>320.0</ele><time>2026-04-11T08:34:32.977Z</time></trkpt><trkpt lat="44.1135025" lon="10.4003223"><ele>320.0</ele><time>2026-04-11T08:34:33.981Z</time></trkpt><trkpt lat="44.1134714" lon="10.4004139"><ele>320.0</ele><time>2026-04-11T08:34:34.972Z</time></trkpt><trkpt lat="44.1134349" lon="10.4005007"><ele>320.0</ele><time>2026-04-11T08:34:35.976Z</time></trkpt><trkpt lat="44.1133994" lon="10.4005881"><ele>320.0</ele><time>2026-04-11T08:34:36.98Z</time></trkpt><trkpt lat="44.1133628" lon="10.4006747"><ele>320.85714285714283</ele><time>2026-04-11T08:34:37.969Z</time></trkpt><trkpt lat="44.113321" lon="10.4007557"><ele>321.7142857142857</ele><time>2026-04-11T08:34:38.987Z</time></trkpt><trkpt lat="44.113279" lon="10.4008379"><ele>322.57142857142856</ele><time>2026-04-11T08:34:39.971Z</time></trkpt><trkpt lat="44.1132399" lon="10.4009219"><ele>323.42857142857144</ele><time>2026-04-11T08:34:40.977Z</time></trkpt><trkpt lat="44.1132011" lon="10.4010084"><ele>324.2857142857143</ele><time>2026-04-11T08:34:41.981Z</time></trkpt><trkpt lat="44.1131601" lon="10.4010915"><ele>325.14285714285717</ele><time>2026-04-11T08:34:42.981Z</time></trkpt><trkpt lat="44.113122" lon="10.4011718"><ele>326.0</ele><time>2026-04-11T08:34:43.971Z</time></trkpt><trkpt lat="44.1130806" lon="10.4012577"><ele>324.0</ele><time>2026-04-11T08:34:44.98Z</time></trkpt><trkpt lat="44.1130406" lon="10.4013438"><ele>322.0</ele><time>2026-04-11T08:34:45.978Z</time></trkpt><trkpt lat="44.1130068" lon="10.4014268"><ele>320.0</ele><time>2026-04-11T08:34:46.98Z</time></trkpt><trkpt lat="44.1129676" lon="10.4015156"><ele>318.0</ele><time>2026-04-11T08:34:47.99Z</time></trkpt><trkpt lat="44.1129302" lon="10.4016006"><ele>316.0</ele><time>2026-04-11T08:34:48.969Z</time></trkpt><trkpt lat="44.1128901" lon="10.4016828"><ele>314.0</ele><time>2026-04-11T08:34:49.974Z</time></trkpt><trkpt lat="44.1128556" lon="10.4017699"><ele>312.0</ele><time>2026-04-11T08:34:50.974Z</time></trkpt><trkpt lat="44.1128172" lon="10.401852"><ele>312.0</ele><time>2026-04-11T08:34:51.977Z</time></trkpt><trkpt lat="44.1127805" lon="10.4019356"><ele>312.0</ele><time>2026-04-11T08:34:52.979Z</time></trkpt><trkpt lat="44.1127375" lon="10.4020186"><ele>312.0</ele><time>2026-04-11T08:34:53.971Z</time></trkpt><trkpt lat="44.1126965" lon="10.4021007"><ele>312.0</ele><time>2026-04-11T08:34:54.974Z</time></trkpt><trkpt lat="44.1126604" lon="10.4021808"><ele>312.0</ele><time>2026-04-11T08:34:55.985Z</time></trkpt><trkpt lat="44.1126218" lon="10.4022645"><ele>312.0</ele><time>2026-04-11T08:34:56.971Z</time></trkpt><trkpt lat="44.1125774" lon="10.4023355"><ele>312.0</ele><time>2026-04-11T08:34:57.976Z</time></trkpt><trkpt lat="44.1124794" lon="10.4024481"><ele>311.0</ele><time>2026-04-11T08:34:59.977Z</time></trkpt><trkpt lat="44.1124238" lon="10.4025034"><ele>310.0</ele><time>2026-04-11T08:35:00.972Z</time></trkpt><trkpt lat="44.1123673" lon="10.4025588"><ele>309.0</ele><time>2026-04-11T08:35:01.982Z</time></trkpt><trkpt lat="44.1123129" lon="10.4026102"><ele>308.0</ele><time>2026-04-11T08:35:02.985Z</time></trkpt><trkpt lat="44.1122553" lon="10.402661"><ele>307.0</ele><time>2026-04-11T08:35:03.974Z</time></trkpt><trkpt lat="44.1121991" lon="10.4027165"><ele>306.0</ele><time>2026-04-11T08:35:04.979Z</time></trkpt><trkpt lat="44.112143" lon="10.4027676"><ele>305.0</ele><time>2026-04-11T08:35:05.979Z</time></trkpt><trkpt lat="44.1120879" lon="10.4028267"><ele>305.1666666666667</ele><time>2026-04-11T08:35:06.982Z</time></trkpt><trkpt lat="44.1120309" lon="10.4028836"><ele>305.33333333333337</ele><time>2026-04-11T08:35:07.982Z</time></trkpt><trkpt lat="44.1119774" lon="10.4029385"><ele>305.5</ele><time>2026-04-11T08:35:08.982Z</time></trkpt><trkpt lat="44.1119249" lon="10.402996"><ele>305.6666666666667</ele><time>2026-04-11T08:35:09.97Z</time></trkpt><trkpt lat="44.1118757" lon="10.4030588"><ele>305.8333333333333</ele><time>2026-04-11T08:35:10.977Z</time></trkpt><trkpt lat="44.1118038" lon="10.4032073"><ele>306.0</ele><time>2026-04-11T08:35:12.984Z</time></trkpt><trkpt lat="44.1117763" lon="10.4032949"><ele>306.0</ele><time>2026-04-11T08:35:13.975Z</time></trkpt><trkpt lat="44.111749" lon="10.4033846"><ele>306.0</ele><time>2026-04-11T08:35:14.977Z</time></trkpt><trkpt lat="44.1117224" lon="10.4034763"><ele>306.0</ele><time>2026-04-11T08:35:15.977Z</time></trkpt><trkpt lat="44.1116956" lon="10.4035657"><ele>306.0</ele><time>2026-04-11T08:35:16.98Z</time></trkpt><trkpt lat="44.1116694" lon="10.4036574"><ele>306.0</ele><time>2026-04-11T08:35:17.979Z</time></trkpt><trkpt lat="44.1116456" lon="10.4037494"><ele>306.0</ele><time>2026-04-11T08:35:18.976Z</time></trkpt><trkpt lat="44.1116224" lon="10.403839"><ele>306.0</ele><time>2026-04-11T08:35:19.974Z</time></trkpt><trkpt lat="44.1115948" lon="10.4039234"><ele>306.7142857142857</ele><time>2026-04-11T08:35:20.98Z</time></trkpt><trkpt lat="44.1115655" lon="10.4040065"><ele>307.42857142857144</ele><time>2026-04-11T08:35:21.976Z</time></trkpt><trkpt lat="44.1115358" lon="10.404091"><ele>308.1428571428571</ele><time>2026-04-11T08:35:22.98Z</time></trkpt><trkpt lat="44.1115047" lon="10.4041755"><ele>308.8571428571429</ele><time>2026-04-11T08:35:23.983Z</time></trkpt><trkpt lat="44.111477" lon="10.4042619"><ele>309.5714285714286</ele><time>2026-04-11T08:35:24.974Z</time></trkpt><trkpt lat="44.1114488" lon="10.4043565"><ele>310.2857142857143</ele><time>2026-04-11T08:35:25.983Z</time></trkpt><trkpt lat="44.1114087" lon="10.4044332"><ele>311.0</ele><time>2026-04-11T08:35:26.97Z</time></trkpt><trkpt lat="44.1113689" lon="10.4045037"><ele>311.0</ele><time>2026-04-11T08:35:27.978Z</time></trkpt><trkpt lat="44.1113223" lon="10.404581"><ele>311.0</ele><time>2026-04-11T08:35:28.975Z</time></trkpt><trkpt lat="44.1112817" lon="10.4046501"><ele>311.0</ele><time>2026-04-11T08:35:29.977Z</time></trkpt><trkpt lat="44.11121" lon="10.4047703"><ele>311.0</ele><time>2026-04-11T08:35:31.98Z</time></trkpt><trkpt lat="44.1112439" lon="10.4049064"><ele>311.0</ele><time>2026-04-11T08:35:33.98Z</time></trkpt><trkpt lat="44.111299" lon="10.4049649"><ele>311.0</ele><time>2026-04-11T08:35:34.982Z</time></trkpt><trkpt lat="44.1114154" lon="10.4050246"><ele>310.1428571428571</ele><time>2026-04-11T08:35:36.962Z</time></trkpt><trkpt lat="44.1114768" lon="10.404997"><ele>309.28571428571433</ele><time>2026-04-11T08:35:37.961Z</time></trkpt><trkpt lat="44.1115355" lon="10.4049319"><ele>308.42857142857144</ele><time>2026-04-11T08:35:38.98Z</time></trkpt><trkpt lat="44.1115875" lon="10.4048554"><ele>307.57142857142856</ele><time>2026-04-11T08:35:39.961Z</time></trkpt><trkpt lat="44.1116366" lon="10.4047707"><ele>306.71428571428567</ele><time>2026-04-11T08:35:40.963Z</time></trkpt><trkpt lat="44.1116884" lon="10.4046953"><ele>305.8571428571429</ele><time>2026-04-11T08:35:41.968Z</time></trkpt><trkpt lat="44.1117417" lon="10.404625"><ele>305.0</ele><time>2026-04-11T08:35:42.962Z</time></trkpt><trkpt lat="44.1117951" lon="10.4045492"><ele>303.6666666666667</ele><time>2026-04-11T08:35:43.988Z</time></trkpt><trkpt lat="44.1118473" lon="10.4044774"><ele>302.33333333333337</ele><time>2026-04-11T08:35:44.96Z</time></trkpt><trkpt lat="44.111904" lon="10.4044109"><ele>301.0</ele><time>2026-04-11T08:35:45.964Z</time></trkpt><trkpt lat="44.1119593" lon="10.4043412"><ele>299.6666666666667</ele><time>2026-04-11T08:35:46.966Z</time></trkpt><trkpt lat="44.1120186" lon="10.4042677"><ele>298.3333333333333</ele><time>2026-04-11T08:35:47.971Z</time></trkpt><trkpt lat="44.1120807" lon="10.4041871"><ele>297.0</ele><time>2026-04-11T08:35:48.963Z</time></trkpt><trkpt lat="44.1121456" lon="10.4041193"><ele>297.0</ele><time>2026-04-11T08:35:49.963Z</time></trkpt><trkpt lat="44.1122105" lon="10.4040466"><ele>297.0</ele><time>2026-04-11T08:35:50.971Z</time></trkpt><trkpt lat="44.1122793" lon="10.4039693"><ele>297.0</ele><time>2026-04-11T08:35:51.97Z</time></trkpt><trkpt lat="44.1123439" lon="10.4038815"><ele>297.0</ele><time>2026-04-11T08:35:52.978Z</time></trkpt><trkpt lat="44.1124127" lon="10.4037879"><ele>297.0</ele><time>2026-04-11T08:35:53.973Z</time></trkpt><trkpt lat="44.112479" lon="10.4036897"><ele>296.6</ele><time>2026-04-11T08:35:54.972Z</time></trkpt><trkpt lat="44.1125466" lon="10.4035815"><ele>296.2</ele><time>2026-04-11T08:35:55.965Z</time></trkpt><trkpt lat="44.1126188" lon="10.4034709"><ele>295.8</ele><time>2026-04-11T08:35:56.965Z</time></trkpt><trkpt lat="44.1126821" lon="10.4033747"><ele>295.4</ele><time>2026-04-11T08:35:57.959Z</time></trkpt><trkpt lat="44.1127468" lon="10.4032811"><ele>295.0</ele><time>2026-04-11T08:35:58.975Z</time></trkpt><trkpt lat="44.1128125" lon="10.4032045"><ele>295.0</ele><time>2026-04-11T08:35:59.974Z</time></trkpt><trkpt lat="44.1128793" lon="10.4031398"><ele>295.0</ele><time>2026-04-11T08:36:00.979Z</time></trkpt><trkpt lat="44.1129472" lon="10.4030844"><ele>295.0</ele><time>2026-04-11T08:36:01.967Z</time></trkpt><trkpt lat="44.1130212" lon="10.4030373"><ele>295.0</ele><time>2026-04-11T08:36:02.979Z</time></trkpt><trkpt lat="44.1130954" lon="10.4029886"><ele>295.0</ele><time>2026-04-11T08:36:03.975Z</time></trkpt><trkpt lat="44.1131746" lon="10.4029409"><ele>295.0</ele><time>2026-04-11T08:36:04.979Z</time></trkpt><trkpt lat="44.1132472" lon="10.4028955"><ele>293.3333333333333</ele><time>2026-04-11T08:36:05.971Z</time></trkpt><trkpt lat="44.1133239" lon="10.402848"><ele>291.66666666666663</ele><time>2026-04-11T08:36:06.973Z</time></trkpt><trkpt lat="44.1134065" lon="10.4028019"><ele>290.0</ele><time>2026-04-11T08:36:07.979Z</time></trkpt><trkpt lat="44.1134948" lon="10.4027474"><ele>288.3333333333333</ele><time>2026-04-11T08:36:08.976Z</time></trkpt><trkpt lat="44.1135747" lon="10.4026857"><ele>286.6666666666667</ele><time>2026-04-11T08:36:09.981Z</time></trkpt><trkpt lat="44.1136498" lon="10.4026324"><ele>285.0</ele><time>2026-04-11T08:36:10.968Z</time></trkpt><trkpt lat="44.113716" lon="10.4025748"><ele>285.0</ele><time>2026-04-11T08:36:11.972Z</time></trkpt><trkpt lat="44.1137763" lon="10.4025272"><ele>285.0</ele><time>2026-04-11T08:36:12.967Z</time></trkpt><trkpt lat="44.1138342" lon="10.4024873"><ele>285.0</ele><time>2026-04-11T08:36:13.98Z</time></trkpt><trkpt lat="44.1138966" lon="10.4024578"><ele>285.0</ele><time>2026-04-11T08:36:14.982Z</time></trkpt><trkpt lat="44.1140058" lon="10.4024549"><ele>285.0</ele><time>2026-04-11T08:36:16.982Z</time></trkpt><trkpt lat="44.1140671" lon="10.4025035"><ele>285.0</ele><time>2026-04-11T08:36:18.964Z</time></trkpt><trkpt lat="44.1141243" lon="10.4025614"><ele>283.3333333333333</ele><time>2026-04-11T08:36:20.973Z</time></trkpt><trkpt lat="44.1141686" lon="10.4026415"><ele>281.6666666666667</ele><time>2026-04-11T08:36:22.975Z</time></trkpt><trkpt lat="44.1142056" lon="10.4027437"><ele>280.0</ele><time>2026-04-11T08:36:24.971Z</time></trkpt><trkpt lat="44.1142527" lon="10.4028452"><ele>278.33333333333337</ele><time>2026-04-11T08:36:26.982Z</time></trkpt><trkpt lat="44.1143346" lon="10.4028916"><ele>276.6666666666667</ele><time>2026-04-11T08:36:28.962Z</time></trkpt><trkpt lat="44.1144227" lon="10.4028558"><ele>275.0</ele><time>2026-04-11T08:36:30.964Z</time></trkpt><trkpt lat="44.1144999" lon="10.402789"><ele>275.0</ele><time>2026-04-11T08:36:32.973Z</time></trkpt><trkpt lat="44.1145683" lon="10.4027147"><ele>275.0</ele><time>2026-04-11T08:36:34.969Z</time></trkpt><trkpt lat="44.114634" lon="10.4026322"><ele>275.0</ele><time>2026-04-11T08:36:36.978Z</time></trkpt><trkpt lat="44.1147019" lon="10.4025602"><ele>275.0</ele><time>2026-04-11T08:36:38.972Z</time></trkpt><trkpt lat="44.114778" lon="10.4024878"><ele>275.0</ele><time>2026-04-11T08:36:40.985Z</time></trkpt><trkpt lat="44.1148499" lon="10.4024189"><ele>275.0</ele><time>2026-04-11T08:36:42.969Z</time></trkpt><trkpt lat="44.1149168" lon="10.4023559"><ele>274.83333333333337</ele><time>2026-04-11T08:36:44.973Z</time></trkpt><trkpt lat="44.1149833" lon="10.4022909"><ele>274.6666666666667</ele><time>2026-04-11T08:36:46.984Z</time></trkpt><trkpt lat="44.1150445" lon="10.4022239"><ele>274.5</ele><time>2026-04-11T08:36:48.962Z</time></trkpt><trkpt lat="44.1151037" lon="10.402158"><ele>274.3333333333333</ele><time>2026-04-11T08:36:50.968Z</time></trkpt><trkpt lat="44.1151691" lon="10.4020864"><ele>274.16666666666663</ele><time>2026-04-11T08:36:52.971Z</time></trkpt><trkpt lat="44.1152402" lon="10.4020065"><ele>274.0</ele><time>2026-04-11T08:36:54.977Z</time></trkpt><trkpt lat="44.1153245" lon="10.4019286"><ele>274.8</ele><time>2026-04-11T08:36:56.968Z</time></trkpt><trkpt lat="44.1154059" lon="10.4018336"><ele>275.59999999999997</ele><time>2026-04-11T08:36:58.968Z</time></trkpt><trkpt lat="44.1154887" lon="10.4017378"><ele>276.4</ele><time>2026-04-11T08:37:00.971Z</time></trkpt><trkpt lat="44.1155706" lon="10.4016528"><ele>277.2</ele><time>2026-04-11T08:37:02.988Z</time></trkpt><trkpt lat="44.1156521" lon="10.4015683"><ele>278.0</ele><time>2026-04-11T08:37:04.98Z</time></trkpt><trkpt lat="44.1157318" lon="10.4014878"><ele>277.8</ele><time>2026-04-11T08:37:06.963Z</time></trkpt><trkpt lat="44.1158116" lon="10.4014216"><ele>277.6</ele><time>2026-04-11T08:37:08.969Z</time></trkpt><trkpt lat="44.1159017" lon="10.4013938"><ele>277.4</ele><time>2026-04-11T08:37:10.966Z</time></trkpt><trkpt lat="44.1159954" lon="10.4014078"><ele>277.2</ele><time>2026-04-11T08:37:12.972Z</time></trkpt><trkpt lat="44.1160811" lon="10.4014732"><ele>277.0</ele><time>2026-04-11T08:37:14.985Z</time></trkpt><trkpt lat="44.1161532" lon="10.4015701"><ele>277.0</ele><time>2026-04-11T08:37:16.982Z</time></trkpt><trkpt lat="44.1162121" lon="10.4016698"><ele>277.0</ele><time>2026-04-11T08:37:18.971Z</time></trkpt><trkpt lat="44.1162566" lon="10.4017772"><ele>277.0</ele><time>2026-04-11T08:37:20.987Z</time></trkpt><trkpt lat="44.1163065" lon="10.401885"><ele>277.0</ele><time>2026-04-11T08:37:22.964Z</time></trkpt><trkpt lat="44.1163545" lon="10.4019819"><ele>277.0</ele><time>2026-04-11T08:37:24.979Z</time></trkpt><trkpt lat="44.1164022" lon="10.4020679"><ele>277.0</ele><time>2026-04-11T08:37:26.972Z</time></trkpt><trkpt lat="44.1164544" lon="10.4021555"><ele>277.0</ele><time>2026-04-11T08:37:28.962Z</time></trkpt><trkpt lat="44.1165097" lon="10.4022404"><ele>277.0</ele><time>2026-04-11T08:37:30.961Z</time></trkpt><trkpt lat="44.1165652" lon="10.4023239"><ele>277.0</ele><time>2026-04-11T08:37:32.964Z</time></trkpt><trkpt lat="44.116618" lon="10.4024049"><ele>277.0</ele><time>2026-04-11T08:37:34.985Z</time></trkpt><trkpt lat="44.1166707" lon="10.4024833"><ele>277.0</ele><time>2026-04-11T08:37:36.983Z</time></trkpt><trkpt lat="44.1167229" lon="10.4025594"><ele>277.0</ele><time>2026-04-11T08:37:38.974Z</time></trkpt><trkpt lat="44.1167758" lon="10.4026434"><ele>277.0</ele><time>2026-04-11T08:37:40.969Z</time></trkpt><trkpt lat="44.1168302" lon="10.4027306"><ele>277.0</ele><time>2026-04-11T08:37:42.973Z</time></trkpt><trkpt lat="44.1168814" lon="10.4028174"><ele>277.0</ele><time>2026-04-11T08:37:44.966Z</time></trkpt><trkpt lat="44.1169349" lon="10.4029018"><ele>277.0</ele><time>2026-04-11T08:37:46.96Z</time></trkpt><trkpt lat="44.1169902" lon="10.4029872"><ele>277.0</ele><time>2026-04-11T08:37:48.959Z</time></trkpt><trkpt lat="44.1170457" lon="10.4030736"><ele>277.0</ele><time>2026-04-11T08:37:50.971Z</time></trkpt><trkpt lat="44.1171001" lon="10.4031563"><ele>276.8333333333333</ele><time>2026-04-11T08:37:52.964Z</time></trkpt><trkpt lat="44.1171568" lon="10.40324"><ele>276.66666666666663</ele><time>2026-04-11T08:37:54.972Z</time></trkpt><trkpt lat="44.1172102" lon="10.4033261"><ele>276.5</ele><time>2026-04-11T08:37:56.979Z</time></trkpt><trkpt lat="44.117264" lon="10.40341"><ele>276.3333333333333</ele><time>2026-04-11T08:37:58.972Z</time></trkpt><trkpt lat="44.1173202" lon="10.4034955"><ele>276.1666666666667</ele><time>2026-04-11T08:38:00.978Z</time></trkpt><trkpt lat="44.1173758" lon="10.4035819"><ele>276.0</ele><time>2026-04-11T08:38:02.981Z</time></trkpt><trkpt lat="44.1174295" lon="10.4036666"><ele>276.0</ele><time>2026-04-11T08:38:04.959Z</time></trkpt><trkpt lat="44.1174837" lon="10.4037601"><ele>276.0</ele><time>2026-04-11T08:38:06.962Z</time></trkpt><trkpt lat="44.1175444" lon="10.4038578"><ele>276.0</ele><time>2026-04-11T08:38:08.965Z</time></trkpt><trkpt lat="44.1176121" lon="10.4039713"><ele>276.0</ele><time>2026-04-11T08:38:10.969Z</time></trkpt><trkpt lat="44.1176924" lon="10.4040885"><ele>276.0</ele><time>2026-04-11T08:38:12.984Z</time></trkpt><trkpt lat="44.1177759" lon="10.4042149"><ele>276.5</ele><time>2026-04-11T08:38:14.983Z</time></trkpt><trkpt lat="44.1178595" lon="10.4043401"><ele>277.0</ele><time>2026-04-11T08:38:16.978Z</time></trkpt><trkpt lat="44.117943" lon="10.4044681"><ele>277.5</ele><time>2026-04-11T08:38:18.971Z</time></trkpt><trkpt lat="44.1180296" lon="10.4045897"><ele>278.0</ele><time>2026-04-11T08:38:20.971Z</time></trkpt><trkpt lat="44.1181136" lon="10.4046986"><ele>278.0</ele><time>2026-04-11T08:38:22.962Z</time></trkpt><trkpt lat="44.1181888" lon="10.4048067"><ele>278.0</ele><time>2026-04-11T08:38:24.957Z</time></trkpt><trkpt lat="44.118252" lon="10.4049155"><ele>278.0</ele><time>2026-04-11T08:38:26.972Z</time></trkpt><trkpt lat="44.1183141" lon="10.4050241"><ele>278.0</ele><time>2026-04-11T08:38:28.977Z</time></trkpt><trkpt lat="44.1183764" lon="10.4051189"><ele>278.0</ele><time>2026-04-11T08:38:30.982Z</time></trkpt><trkpt lat="44.1184334" lon="10.405221"><ele>277.8</ele><time>2026-04-11T08:38:32.975Z</time></trkpt><trkpt lat="44.1184957" lon="10.4053358"><ele>277.6</ele><time>2026-04-11T08:38:34.961Z</time></trkpt><trkpt lat="44.118559" lon="10.4054418"><ele>277.4</ele><time>2026-04-11T08:38:36.969Z</time></trkpt><trkpt lat="44.1186256" lon="10.4055553"><ele>277.2</ele><time>2026-04-11T08:38:38.968Z</time></trkpt><trkpt lat="44.1186947" lon="10.405672"><ele>277.0</ele><time>2026-04-11T08:38:40.963Z</time></trkpt><trkpt lat="44.1187622" lon="10.4057894"><ele>277.0</ele><time>2026-04-11T08:38:42.973Z</time></trkpt><trkpt lat="44.1188286" lon="10.4059082"><ele>277.0</ele><time>2026-04-11T08:38:44.966Z</time></trkpt><trkpt lat="44.1188952" lon="10.4060201"><ele>277.0</ele><time>2026-04-11T08:38:46.961Z</time></trkpt><trkpt lat="44.1189545" lon="10.4061314"><ele>277.0</ele><time>2026-04-11T08:38:48.962Z</time></trkpt><trkpt lat="44.1190097" lon="10.406238"><ele>277.0</ele><time>2026-04-11T08:38:50.981Z</time></trkpt><trkpt lat="44.1190218" lon="10.4063316"><ele>276.6</ele><time>2026-04-11T08:38:52.964Z</time></trkpt><trkpt lat="44.1189586" lon="10.4064323"><ele>276.2</ele><time>2026-04-11T08:38:54.979Z</time></trkpt><trkpt lat="44.1188743" lon="10.4065127"><ele>275.8</ele><time>2026-04-11T08:38:56.964Z</time></trkpt><trkpt lat="44.1187876" lon="10.406593"><ele>275.4</ele><time>2026-04-11T08:38:58.963Z</time></trkpt><trkpt lat="44.1186985" lon="10.4066597"><ele>275.0</ele><time>2026-04-11T08:39:00.966Z</time></trkpt><trkpt lat="44.1186094" lon="10.4067346"><ele>275.0</ele><time>2026-04-11T08:39:02.98Z</time></trkpt><trkpt lat="44.1185222" lon="10.4068083"><ele>275.0</ele><time>2026-04-11T08:39:04.972Z</time></trkpt><trkpt lat="44.1184306" lon="10.4068759"><ele>275.0</ele><time>2026-04-11T08:39:06.976Z</time></trkpt><trkpt lat="44.118343" lon="10.4069535"><ele>275.0</ele><time>2026-04-11T08:39:08.976Z</time></trkpt><trkpt lat="44.1182509" lon="10.4070356"><ele>275.0</ele><time>2026-04-11T08:39:10.977Z</time></trkpt><trkpt lat="44.1181621" lon="10.4071232"><ele>274.8</ele><time>2026-04-11T08:39:12.984Z</time></trkpt><trkpt lat="44.1180725" lon="10.4072098"><ele>274.6</ele><time>2026-04-11T08:39:14.978Z</time></trkpt><trkpt lat="44.117985" lon="10.4072995"><ele>274.4</ele><time>2026-04-11T08:39:16.987Z</time></trkpt><trkpt lat="44.1178928" lon="10.4073946"><ele>274.2</ele><time>2026-04-11T08:39:18.984Z</time></trkpt><trkpt lat="44.1178396" lon="10.4074428"><ele>274.0</ele><time>2026-04-11T08:39:19.977Z</time></trkpt><trkpt lat="44.1177844" lon="10.407491"><ele>274.0</ele><time>2026-04-11T08:39:20.962Z</time></trkpt><trkpt lat="44.1176821" lon="10.4075896"><ele>274.0</ele><time>2026-04-11T08:39:22.984Z</time></trkpt><trkpt lat="44.1176327" lon="10.4076483"><ele>274.0</ele><time>2026-04-11T08:39:23.984Z</time></trkpt><trkpt lat="44.1175832" lon="10.4077046"><ele>274.0</ele><time>2026-04-11T08:39:24.97Z</time></trkpt><trkpt lat="44.1175331" lon="10.4077592"><ele>274.0</ele><time>2026-04-11T08:39:25.981Z</time></trkpt><trkpt lat="44.1174832" lon="10.4078151"><ele>274.0</ele><time>2026-04-11T08:39:26.971Z</time></trkpt><trkpt lat="44.1173868" lon="10.4079239"><ele>274.0</ele><time>2026-04-11T08:39:28.989Z</time></trkpt><trkpt lat="44.1172873" lon="10.4080159"><ele>274.0</ele><time>2026-04-11T08:39:30.972Z</time></trkpt><trkpt lat="44.1172336" lon="10.4080639"><ele>274.0</ele><time>2026-04-11T08:39:31.966Z</time></trkpt><trkpt lat="44.1171239" lon="10.4081306"><ele>274.0</ele><time>2026-04-11T08:39:33.974Z</time></trkpt><trkpt lat="44.1170096" lon="10.4081451"><ele>274.0</ele><time>2026-04-11T08:39:35.973Z</time></trkpt><trkpt lat="44.1168986" lon="10.4081947"><ele>274.00000000000006</ele><time>2026-04-11T08:39:37.986Z</time></trkpt><trkpt lat="44.1168443" lon="10.4082463"><ele>274.0</ele><time>2026-04-11T08:39:38.982Z</time></trkpt><trkpt lat="44.1167879" lon="10.4083007"><ele>274.0</ele><time>2026-04-11T08:39:39.966Z</time></trkpt><trkpt lat="44.1167385" lon="10.408358"><ele>274.0</ele><time>2026-04-11T08:39:40.969Z</time></trkpt><trkpt lat="44.1166632" lon="10.4084413"><ele>274.0</ele><time>2026-04-11T08:39:42.969Z</time></trkpt><trkpt lat="44.1166058" lon="10.4084963"><ele>274.00000000000006</ele><time>2026-04-11T08:39:44.971Z</time></trkpt><trkpt lat="44.1165478" lon="10.4085414"><ele>274.0</ele><time>2026-04-11T08:39:46.98Z</time></trkpt><trkpt lat="44.1164919" lon="10.4085827"><ele>274.14285714285717</ele><time>2026-04-11T08:39:48.969Z</time></trkpt><trkpt lat="44.1164278" lon="10.4086168"><ele>274.2857142857143</ele><time>2026-04-11T08:39:50.973Z</time></trkpt><trkpt lat="44.1163636" lon="10.4086498"><ele>274.42857142857144</ele><time>2026-04-11T08:39:52.964Z</time></trkpt><trkpt lat="44.1162974" lon="10.4086881"><ele>274.57142857142856</ele><time>2026-04-11T08:39:54.969Z</time></trkpt><trkpt lat="44.1162315" lon="10.408728"><ele>274.7142857142857</ele><time>2026-04-11T08:39:56.966Z</time></trkpt><trkpt lat="44.1161656" lon="10.4087673"><ele>274.8571428571429</ele><time>2026-04-11T08:39:58.971Z</time></trkpt><trkpt lat="44.1160957" lon="10.4088027"><ele>275.0</ele><time>2026-04-11T08:40:00.965Z</time></trkpt><trkpt lat="44.1160206" lon="10.4088374"><ele>275.2857142857143</ele><time>2026-04-11T08:40:02.97Z</time></trkpt><trkpt lat="44.1159486" lon="10.4088623"><ele>275.57142857142856</ele><time>2026-04-11T08:40:04.985Z</time></trkpt><trkpt lat="44.1158785" lon="10.4088795"><ele>275.85714285714283</ele><time>2026-04-11T08:40:06.98Z</time></trkpt><trkpt lat="44.1158034" lon="10.4089031"><ele>276.1428571428571</ele><time>2026-04-11T08:40:08.974Z</time></trkpt><trkpt lat="44.115732" lon="10.4089349"><ele>276.4285714285714</ele><time>2026-04-11T08:40:10.962Z</time></trkpt><trkpt lat="44.1156689" lon="10.4089791"><ele>276.7142857142857</ele><time>2026-04-11T08:40:12.969Z</time></trkpt><trkpt lat="44.1156185" lon="10.4090484"><ele>277.0</ele><time>2026-04-11T08:40:14.974Z</time></trkpt><trkpt lat="44.1155835" lon="10.4091331"><ele>277.0</ele><time>2026-04-11T08:40:16.962Z</time></trkpt><trkpt lat="44.1155643" lon="10.4092234"><ele>277.0</ele><time>2026-04-11T08:40:18.974Z</time></trkpt><trkpt lat="44.1155596" lon="10.4093143"><ele>277.0</ele><time>2026-04-11T08:40:20.971Z</time></trkpt><trkpt lat="44.1155684" lon="10.4094103"><ele>277.0</ele><time>2026-04-11T08:40:22.983Z</time></trkpt><trkpt lat="44.1155892" lon="10.4095003"><ele>277.0</ele><time>2026-04-11T08:40:24.981Z</time></trkpt><trkpt lat="44.1156242" lon="10.4095832"><ele>277.0</ele><time>2026-04-11T08:40:26.973Z</time></trkpt><trkpt lat="44.1156585" lon="10.4096688"><ele>277.0</ele><time>2026-04-11T08:40:28.988Z</time></trkpt><trkpt lat="44.1156927" lon="10.4097619"><ele>277.42857142857144</ele><time>2026-04-11T08:40:30.973Z</time></trkpt><trkpt lat="44.1157305" lon="10.4098516"><ele>277.85714285714283</ele><time>2026-04-11T08:40:32.99Z</time></trkpt><trkpt lat="44.1157824" lon="10.4099196"><ele>278.2857142857143</ele><time>2026-04-11T08:40:34.971Z</time></trkpt><trkpt lat="44.1158437" lon="10.4099622"><ele>278.7142857142857</ele><time>2026-04-11T08:40:36.979Z</time></trkpt><trkpt lat="44.1159114" lon="10.4099789"><ele>279.1428571428571</ele><time>2026-04-11T08:40:38.978Z</time></trkpt><trkpt lat="44.1159828" lon="10.4099709"><ele>279.57142857142856</ele><time>2026-04-11T08:40:40.978Z</time></trkpt><trkpt lat="44.1160511" lon="10.4099413"><ele>280.0</ele><time>2026-04-11T08:40:42.962Z</time></trkpt><trkpt lat="44.1161184" lon="10.4098945"><ele>281.16666666666663</ele><time>2026-04-11T08:40:44.967Z</time></trkpt><trkpt lat="44.1161886" lon="10.409852"><ele>282.3333333333333</ele><time>2026-04-11T08:40:46.963Z</time></trkpt><trkpt lat="44.116266" lon="10.4098192"><ele>283.5</ele><time>2026-04-11T08:40:48.964Z</time></trkpt><trkpt lat="44.1163472" lon="10.4097951"><ele>284.6666666666667</ele><time>2026-04-11T08:40:50.968Z</time></trkpt><trkpt lat="44.1164145" lon="10.4098616"><ele>285.83333333333337</ele><time>2026-04-11T08:40:52.967Z</time></trkpt><trkpt lat="44.1164693" lon="10.409933"><ele>287.0</ele><time>2026-04-11T08:40:54.973Z</time></trkpt><trkpt lat="44.1165297" lon="10.4099728"><ele>287.57142857142856</ele><time>2026-04-11T08:40:56.967Z</time></trkpt><trkpt lat="44.1165999" lon="10.4099594"><ele>288.1428571428571</ele><time>2026-04-11T08:40:58.969Z</time></trkpt><trkpt lat="44.1166705" lon="10.4099309"><ele>288.7142857142857</ele><time>2026-04-11T08:41:00.972Z</time></trkpt><trkpt lat="44.1167385" lon="10.4099177"><ele>289.2857142857143</ele><time>2026-04-11T08:41:02.974Z</time></trkpt><trkpt lat="44.1168093" lon="10.4099045"><ele>289.85714285714283</ele><time>2026-04-11T08:41:04.98Z</time></trkpt><trkpt lat="44.1168809" lon="10.4098837"><ele>290.42857142857144</ele><time>2026-04-11T08:41:06.971Z</time></trkpt><trkpt lat="44.1169563" lon="10.4098625"><ele>291.0</ele><time>2026-04-11T08:41:08.973Z</time></trkpt><trkpt lat="44.1170314" lon="10.4098401"><ele>291.0</ele><time>2026-04-11T08:41:10.974Z</time></trkpt><trkpt lat="44.1171049" lon="10.4098173"><ele>291.0</ele><time>2026-04-11T08:41:12.969Z</time></trkpt><trkpt lat="44.1171765" lon="10.409791"><ele>291.0</ele><time>2026-04-11T08:41:14.979Z</time></trkpt><trkpt lat="44.1172453" lon="10.4097659"><ele>291.0</ele><time>2026-04-11T08:41:16.974Z</time></trkpt><trkpt lat="44.1173174" lon="10.409745"><ele>291.0</ele><time>2026-04-11T08:41:18.975Z</time></trkpt><trkpt lat="44.1173927" lon="10.4097196"><ele>291.0</ele><time>2026-04-11T08:41:20.972Z</time></trkpt><trkpt lat="44.1174708" lon="10.4097002"><ele>290.57142857142856</ele><time>2026-04-11T08:41:22.979Z</time></trkpt><trkpt lat="44.1175452" lon="10.4096781"><ele>290.1428571428571</ele><time>2026-04-11T08:41:24.974Z</time></trkpt><trkpt lat="44.1176124" lon="10.409652"><ele>289.7142857142857</ele><time>2026-04-11T08:41:26.966Z</time></trkpt><trkpt lat="44.1176739" lon="10.4096294"><ele>289.2857142857143</ele><time>2026-04-11T08:41:28.971Z</time></trkpt><trkpt lat="44.1177474" lon="10.4096254"><ele>288.8571428571429</ele><time>2026-04-11T08:41:31.969Z</time></trkpt><trkpt lat="44.1178209" lon="10.4096382"><ele>288.42857142857144</ele><time>2026-04-11T08:41:34.985Z</time></trkpt><trkpt lat="44.1178972" lon="10.4096773"><ele>288.0</ele><time>2026-04-11T08:41:37.979Z</time></trkpt><trkpt lat="44.1179674" lon="10.4097289"><ele>288.0</ele><time>2026-04-11T08:41:40.979Z</time></trkpt><trkpt lat="44.1180416" lon="10.4097738"><ele>288.0</ele><time>2026-04-11T08:41:43.974Z</time></trkpt><trkpt lat="44.1181107" lon="10.4098294"><ele>288.0</ele><time>2026-04-11T08:41:46.984Z</time></trkpt><trkpt lat="44.1181802" lon="10.4098795"><ele>288.0</ele><time>2026-04-11T08:41:49.972Z</time></trkpt><trkpt lat="44.1182383" lon="10.4099493"><ele>288.0</ele><time>2026-04-11T08:41:52.983Z</time></trkpt><trkpt lat="44.1182838" lon="10.4100244"><ele>288.0</ele><time>2026-04-11T08:41:55.969Z</time></trkpt><trkpt lat="44.1183157" lon="10.4101165"><ele>289.14285714285717</ele><time>2026-04-11T08:41:58.985Z</time></trkpt><trkpt lat="44.118336" lon="10.410205"><ele>290.2857142857143</ele><time>2026-04-11T08:42:01.974Z</time></trkpt><trkpt lat="44.1183553" lon="10.4103035"><ele>291.42857142857144</ele><time>2026-04-11T08:42:04.97Z</time></trkpt><trkpt lat="44.1183705" lon="10.4104074"><ele>292.57142857142856</ele><time>2026-04-11T08:42:07.974Z</time></trkpt><trkpt lat="44.1183852" lon="10.4105084"><ele>293.7142857142857</ele><time>2026-04-11T08:42:10.974Z</time></trkpt><trkpt lat="44.1184097" lon="10.4106044"><ele>294.8571428571429</ele><time>2026-04-11T08:42:13.97Z</time></trkpt><trkpt lat="44.1184497" lon="10.4107075"><ele>296.0</ele><time>2026-04-11T08:42:16.98Z</time></trkpt><trkpt lat="44.1185024" lon="10.4108047"><ele>297.5</ele><time>2026-04-11T08:42:19.973Z</time></trkpt><trkpt lat="44.1185625" lon="10.4108824"><ele>299.0</ele><time>2026-04-11T08:42:22.974Z</time></trkpt><trkpt lat="44.1186153" lon="10.4109624"><ele>300.5</ele><time>2026-04-11T08:42:25.986Z</time></trkpt><trkpt lat="44.1186667" lon="10.4110406"><ele>302.0</ele><time>2026-04-11T08:42:28.981Z</time></trkpt><trkpt lat="44.1187314" lon="10.4110949"><ele>303.5</ele><time>2026-04-11T08:42:31.969Z</time></trkpt><trkpt lat="44.1188078" lon="10.4111189"><ele>305.0</ele><time>2026-04-11T08:42:34.971Z</time></trkpt><trkpt lat="44.1188884" lon="10.4111217"><ele>305.0</ele><time>2026-04-11T08:42:37.974Z</time></trkpt><trkpt lat="44.1189733" lon="10.4111208"><ele>305.0</ele><time>2026-04-11T08:42:40.971Z</time></trkpt><trkpt lat="44.1190533" lon="10.4111121"><ele>305.0</ele><time>2026-04-11T08:42:43.972Z</time></trkpt><trkpt lat="44.1191376" lon="10.4111067"><ele>305.0</ele><time>2026-04-11T08:42:46.967Z</time></trkpt><trkpt lat="44.1192215" lon="10.4111033"><ele>305.0</ele><time>2026-04-11T08:42:49.963Z</time></trkpt><trkpt lat="44.1193013" lon="10.4110913"><ele>305.0</ele><time>2026-04-11T08:42:52.975Z</time></trkpt><trkpt lat="44.1193781" lon="10.4110871"><ele>305.83333333333337</ele><time>2026-04-11T08:42:55.975Z</time></trkpt><trkpt lat="44.1194599" lon="10.4110898"><ele>306.6666666666667</ele><time>2026-04-11T08:42:58.965Z</time></trkpt><trkpt lat="44.1195424" lon="10.4110957"><ele>307.5</ele><time>2026-04-11T08:43:01.977Z</time></trkpt><trkpt lat="44.1196219" lon="10.4111131"><ele>308.3333333333333</ele><time>2026-04-11T08:43:04.979Z</time></trkpt><trkpt lat="44.1196993" lon="10.4111623"><ele>309.16666666666663</ele><time>2026-04-11T08:43:07.976Z</time></trkpt><trkpt lat="44.119766" lon="10.4112311"><ele>310.0</ele><time>2026-04-11T08:43:10.975Z</time></trkpt><trkpt lat="44.1198066" lon="10.4113328"><ele>310.0</ele><time>2026-04-11T08:43:13.976Z</time></trkpt><trkpt lat="44.1198238" lon="10.4114496"><ele>310.0</ele><time>2026-04-11T08:43:16.972Z</time></trkpt><trkpt lat="44.1198255" lon="10.411555"><ele>310.0</ele><time>2026-04-11T08:43:19.977Z</time></trkpt><trkpt lat="44.1198378" lon="10.4116745"><ele>310.0</ele><time>2026-04-11T08:43:22.987Z</time></trkpt><trkpt lat="44.1198882" lon="10.4117644"><ele>310.0</ele><time>2026-04-11T08:43:25.965Z</time></trkpt><trkpt lat="44.1199607" lon="10.4117351"><ele>310.0</ele><time>2026-04-11T08:43:28.963Z</time></trkpt><trkpt lat="44.1199966" lon="10.4116481"><ele>312.0</ele><time>2026-04-11T08:43:31.977Z</time></trkpt><trkpt lat="44.1200131" lon="10.4115573"><ele>314.0</ele><time>2026-04-11T08:43:34.972Z</time></trkpt><trkpt lat="44.1200175" lon="10.4114629"><ele>316.0</ele><time>2026-04-11T08:43:37.973Z</time></trkpt><trkpt lat="44.1200078" lon="10.4113446"><ele>318.0</ele><time>2026-04-11T08:43:40.977Z</time></trkpt><trkpt lat="44.1199866" lon="10.411241"><ele>320.0</ele><time>2026-04-11T08:43:43.988Z</time></trkpt><trkpt lat="44.1199564" lon="10.4111499"><ele>322.0</ele><time>2026-04-11T08:43:46.975Z</time></trkpt><trkpt lat="44.1199111" lon="10.411053"><ele>320.0</ele><time>2026-04-11T08:43:49.975Z</time></trkpt><trkpt lat="44.1198444" lon="10.4109636"><ele>318.0</ele><time>2026-04-11T08:43:52.97Z</time></trkpt><trkpt lat="44.1197921" lon="10.4109107"><ele>316.0</ele><time>2026-04-11T08:43:54.969Z</time></trkpt><trkpt lat="44.1197094" lon="10.410857"><ele>314.0</ele><time>2026-04-11T08:43:57.983Z</time></trkpt><trkpt lat="44.1196239" lon="10.410826"><ele>312.0</ele><time>2026-04-11T08:44:00.973Z</time></trkpt><trkpt lat="44.1195415" lon="10.4108059"><ele>310.0</ele><time>2026-04-11T08:44:03.974Z</time></trkpt><trkpt lat="44.1194577" lon="10.4107883"><ele>310.0</ele><time>2026-04-11T08:44:06.97Z</time></trkpt><trkpt lat="44.1193796" lon="10.4107697"><ele>310.0</ele><time>2026-04-11T08:44:09.976Z</time></trkpt><trkpt lat="44.1192953" lon="10.4107392"><ele>310.0</ele><time>2026-04-11T08:44:12.982Z</time></trkpt><trkpt lat="44.1192183" lon="10.4106828"><ele>310.0</ele><time>2026-04-11T08:44:15.968Z</time></trkpt><trkpt lat="44.1191548" lon="10.4105932"><ele>310.0</ele><time>2026-04-11T08:44:18.986Z</time></trkpt><trkpt lat="44.11912" lon="10.4104787"><ele>310.0</ele><time>2026-04-11T08:44:21.992Z</time></trkpt><trkpt lat="44.119109" lon="10.4103548"><ele>310.7142857142857</ele><time>2026-04-11T08:44:24.981Z</time></trkpt><trkpt lat="44.119121" lon="10.4102652"><ele>311.42857142857144</ele><time>2026-04-11T08:44:26.969Z</time></trkpt><trkpt lat="44.119146" lon="10.4101809"><ele>312.1428571428571</ele><time>2026-04-11T08:44:28.979Z</time></trkpt><trkpt lat="44.1191833" lon="10.4101039"><ele>312.8571428571429</ele><time>2026-04-11T08:44:30.981Z</time></trkpt><trkpt lat="44.1192305" lon="10.4100386"><ele>313.57142857142856</ele><time>2026-04-11T08:44:32.973Z</time></trkpt><trkpt lat="44.1192827" lon="10.4099794"><ele>314.2857142857143</ele><time>2026-04-11T08:44:34.97Z</time></trkpt><trkpt lat="44.119363" lon="10.4099039"><ele>315.0</ele><time>2026-04-11T08:44:37.965Z</time></trkpt><trkpt lat="44.119419" lon="10.4098544"><ele>315.0</ele><time>2026-04-11T08:44:39.977Z</time></trkpt><trkpt lat="44.1194781" lon="10.4098086"><ele>315.0</ele><time>2026-04-11T08:44:41.976Z</time></trkpt><trkpt lat="44.119537" lon="10.4097586"><ele>315.0</ele><time>2026-04-11T08:44:43.976Z</time></trkpt><trkpt lat="44.1196002" lon="10.4097094"><ele>315.0</ele><time>2026-04-11T08:44:45.983Z</time></trkpt><trkpt lat="44.1196619" lon="10.4096603"><ele>315.0</ele><time>2026-04-11T08:44:47.973Z</time></trkpt><trkpt lat="44.119725" lon="10.4096069"><ele>315.0</ele><time>2026-04-11T08:44:49.975Z</time></trkpt><trkpt lat="44.1197895" lon="10.409557"><ele>315.0</ele><time>2026-04-11T08:44:51.979Z</time></trkpt><trkpt lat="44.1198552" lon="10.4095087"><ele>315.5</ele><time>2026-04-11T08:44:53.965Z</time></trkpt><trkpt lat="44.1199175" lon="10.4094664"><ele>316.0</ele><time>2026-04-11T08:44:55.977Z</time></trkpt><trkpt lat="44.1199806" lon="10.4094174"><ele>316.5</ele><time>2026-04-11T08:44:57.966Z</time></trkpt><trkpt lat="44.1200443" lon="10.4093598"><ele>317.0</ele><time>2026-04-11T08:44:59.972Z</time></trkpt><trkpt lat="44.120108" lon="10.4093071"><ele>317.5</ele><time>2026-04-11T08:45:01.977Z</time></trkpt><trkpt lat="44.1201796" lon="10.4092555"><ele>318.0</ele><time>2026-04-11T08:45:03.981Z</time></trkpt><trkpt lat="44.1202508" lon="10.409209"><ele>318.0</ele><time>2026-04-11T08:45:05.978Z</time></trkpt><trkpt lat="44.1203257" lon="10.4091607"><ele>318.0</ele><time>2026-04-11T08:45:07.98Z</time></trkpt><trkpt lat="44.120406" lon="10.4091187"><ele>318.0</ele><time>2026-04-11T08:45:09.959Z</time></trkpt><trkpt lat="44.1204843" lon="10.4090847"><ele>318.0</ele><time>2026-04-11T08:45:11.973Z</time></trkpt><trkpt lat="44.1205597" lon="10.4090609"><ele>318.0</ele><time>2026-04-11T08:45:13.967Z</time></trkpt><trkpt lat="44.1206428" lon="10.4090489"><ele>318.0</ele><time>2026-04-11T08:45:15.98Z</time></trkpt><trkpt lat="44.1207257" lon="10.4090417"><ele>319.5</ele><time>2026-04-11T08:45:17.981Z</time></trkpt><trkpt lat="44.1208065" lon="10.4090461"><ele>321.0</ele><time>2026-04-11T08:45:19.977Z</time></trkpt><trkpt lat="44.1208888" lon="10.4090569"><ele>322.5</ele><time>2026-04-11T08:45:21.987Z</time></trkpt><trkpt lat="44.1209713" lon="10.4090746"><ele>324.0</ele><time>2026-04-11T08:45:23.977Z</time></trkpt><trkpt lat="44.1210547" lon="10.4090896"><ele>325.5</ele><time>2026-04-11T08:45:25.972Z</time></trkpt><trkpt lat="44.1211346" lon="10.4091041"><ele>327.0</ele><time>2026-04-11T08:45:27.981Z</time></trkpt><trkpt lat="44.1212188" lon="10.4091156"><ele>327.0</ele><time>2026-04-11T08:45:29.98Z</time></trkpt><trkpt lat="44.1213055" lon="10.4091298"><ele>327.0</ele><time>2026-04-11T08:45:31.976Z</time></trkpt><trkpt lat="44.121393" lon="10.409143"><ele>327.0</ele><time>2026-04-11T08:45:33.972Z</time></trkpt><trkpt lat="44.1214819" lon="10.4091522"><ele>327.0</ele><time>2026-04-11T08:45:35.988Z</time></trkpt><trkpt lat="44.1215733" lon="10.409159"><ele>327.0</ele><time>2026-04-11T08:45:37.971Z</time></trkpt><trkpt lat="44.1216622" lon="10.4091668"><ele>327.0</ele><time>2026-04-11T08:45:39.984Z</time></trkpt><trkpt lat="44.1217503" lon="10.4091794"><ele>327.5</ele><time>2026-04-11T08:45:41.968Z</time></trkpt><trkpt lat="44.1218357" lon="10.4091922"><ele>328.0</ele><time>2026-04-11T08:45:43.971Z</time></trkpt><trkpt lat="44.1219227" lon="10.4092051"><ele>328.5</ele><time>2026-04-11T08:45:45.978Z</time></trkpt><trkpt lat="44.1220072" lon="10.4092222"><ele>329.0</ele><time>2026-04-11T08:45:47.982Z</time></trkpt><trkpt lat="44.122094" lon="10.4092396"><ele>329.5</ele><time>2026-04-11T08:45:49.975Z</time></trkpt><trkpt lat="44.1221801" lon="10.4092545"><ele>330.0</ele><time>2026-04-11T08:45:51.979Z</time></trkpt><trkpt lat="44.1222666" lon="10.4092674"><ele>330.0</ele><time>2026-04-11T08:45:53.984Z</time></trkpt><trkpt lat="44.1223564" lon="10.4092789"><ele>330.0</ele><time>2026-04-11T08:45:55.973Z</time></trkpt><trkpt lat="44.1224472" lon="10.4092934"><ele>330.0</ele><time>2026-04-11T08:45:57.963Z</time></trkpt><trkpt lat="44.1225356" lon="10.4093043"><ele>330.0</ele><time>2026-04-11T08:45:59.986Z</time></trkpt><trkpt lat="44.1226252" lon="10.409321"><ele>330.0</ele><time>2026-04-11T08:46:01.988Z</time></trkpt><trkpt lat="44.1227154" lon="10.4093338"><ele>330.5</ele><time>2026-04-11T08:46:03.972Z</time></trkpt><trkpt lat="44.1228033" lon="10.4093431"><ele>331.0</ele><time>2026-04-11T08:46:05.975Z</time></trkpt><trkpt lat="44.1228906" lon="10.4093623"><ele>331.5</ele><time>2026-04-11T08:46:07.965Z</time></trkpt><trkpt lat="44.1229776" lon="10.4093794"><ele>332.0</ele><time>2026-04-11T08:46:09.974Z</time></trkpt><trkpt lat="44.1230637" lon="10.409411"><ele>332.5</ele><time>2026-04-11T08:46:11.986Z</time></trkpt><trkpt lat="44.1231505" lon="10.4094463"><ele>333.0</ele><time>2026-04-11T08:46:13.973Z</time></trkpt><trkpt lat="44.1232412" lon="10.4094747"><ele>333.3333333333333</ele><time>2026-04-11T08:46:15.98Z</time></trkpt><trkpt lat="44.1233355" lon="10.4095013"><ele>333.6666666666667</ele><time>2026-04-11T08:46:17.984Z</time></trkpt><trkpt lat="44.1234185" lon="10.4095348"><ele>334.0</ele><time>2026-04-11T08:46:19.968Z</time></trkpt><trkpt lat="44.1235067" lon="10.4095669"><ele>334.33333333333337</ele><time>2026-04-11T08:46:21.963Z</time></trkpt><trkpt lat="44.1235884" lon="10.4095919"><ele>334.6666666666667</ele><time>2026-04-11T08:46:23.98Z</time></trkpt><trkpt lat="44.123677" lon="10.4096188"><ele>335.0</ele><time>2026-04-11T08:46:25.976Z</time></trkpt><trkpt lat="44.1237696" lon="10.4096479"><ele>335.1666666666667</ele><time>2026-04-11T08:46:27.983Z</time></trkpt><trkpt lat="44.1238553" lon="10.4096752"><ele>335.33333333333337</ele><time>2026-04-11T08:46:29.973Z</time></trkpt><trkpt lat="44.1239408" lon="10.4097027"><ele>335.5</ele><time>2026-04-11T08:46:31.982Z</time></trkpt><trkpt lat="44.1240272" lon="10.4097297"><ele>335.6666666666667</ele><time>2026-04-11T08:46:33.978Z</time></trkpt><trkpt lat="44.1241129" lon="10.4097618"><ele>335.8333333333333</ele><time>2026-04-11T08:46:35.976Z</time></trkpt><trkpt lat="44.1241947" lon="10.4097993"><ele>336.0</ele><time>2026-04-11T08:46:37.979Z</time></trkpt><trkpt lat="44.1242728" lon="10.4098437"><ele>336.6666666666667</ele><time>2026-04-11T08:46:39.987Z</time></trkpt><trkpt lat="44.1243534" lon="10.4098857"><ele>337.3333333333333</ele><time>2026-04-11T08:46:41.973Z</time></trkpt><trkpt lat="44.1244339" lon="10.4099312"><ele>338.0</ele><time>2026-04-11T08:46:43.983Z</time></trkpt><trkpt lat="44.1245159" lon="10.4099757"><ele>338.66666666666663</ele><time>2026-04-11T08:46:45.964Z</time></trkpt><trkpt lat="44.1245957" lon="10.4100227"><ele>339.3333333333333</ele><time>2026-04-11T08:46:47.981Z</time></trkpt><trkpt lat="44.1246628" lon="10.4101153"><ele>340.0</ele><time>2026-04-11T08:46:49.983Z</time></trkpt><trkpt lat="44.1247128" lon="10.4102311"><ele>340.0</ele><time>2026-04-11T08:46:51.976Z</time></trkpt><trkpt lat="44.1247703" lon="10.4103319"><ele>340.0</ele><time>2026-04-11T08:46:53.964Z</time></trkpt><trkpt lat="44.1248415" lon="10.410399"><ele>340.0</ele><time>2026-04-11T08:46:55.972Z</time></trkpt><trkpt lat="44.1249317" lon="10.4104265"><ele>340.0</ele><time>2026-04-11T08:46:57.977Z</time></trkpt><trkpt lat="44.1250216" lon="10.4104188"><ele>340.0</ele><time>2026-04-11T08:46:59.97Z</time></trkpt><trkpt lat="44.1251067" lon="10.4103862"><ele>340.0</ele><time>2026-04-11T08:47:01.965Z</time></trkpt><trkpt lat="44.1251912" lon="10.4103665"><ele>340.8</ele><time>2026-04-11T08:47:03.974Z</time></trkpt><trkpt lat="44.1252839" lon="10.4103801"><ele>341.6</ele><time>2026-04-11T08:47:05.973Z</time></trkpt><trkpt lat="44.1253754" lon="10.4104179"><ele>342.4</ele><time>2026-04-11T08:47:07.968Z</time></trkpt><trkpt lat="44.1254592" lon="10.4104596"><ele>343.2</ele><time>2026-04-11T08:47:09.983Z</time></trkpt><trkpt lat="44.125547" lon="10.4104942"><ele>344.0</ele><time>2026-04-11T08:47:11.966Z</time></trkpt><trkpt lat="44.1256271" lon="10.4105343"><ele>344.33333333333337</ele><time>2026-04-11T08:47:13.96Z</time></trkpt><trkpt lat="44.1257084" lon="10.4105714"><ele>344.6666666666667</ele><time>2026-04-11T08:47:15.982Z</time></trkpt><trkpt lat="44.125784" lon="10.4106045"><ele>345.0</ele><time>2026-04-11T08:47:17.965Z</time></trkpt><trkpt lat="44.1258528" lon="10.4106363"><ele>345.3333333333333</ele><time>2026-04-11T08:47:19.962Z</time></trkpt><trkpt lat="44.1259275" lon="10.4106632"><ele>345.66666666666663</ele><time>2026-04-11T08:47:21.962Z</time></trkpt><trkpt lat="44.1260043" lon="10.4106865"><ele>346.0</ele><time>2026-04-11T08:47:23.974Z</time></trkpt><trkpt lat="44.1260806" lon="10.4107061"><ele>346.3333333333333</ele><time>2026-04-11T08:47:25.97Z</time></trkpt><trkpt lat="44.1261544" lon="10.4107254"><ele>346.66666666666663</ele><time>2026-04-11T08:47:27.981Z</time></trkpt><trkpt lat="44.1262259" lon="10.4107461"><ele>347.0</ele><time>2026-04-11T08:47:29.977Z</time></trkpt><trkpt lat="44.126298" lon="10.4107685"><ele>347.3333333333333</ele><time>2026-04-11T08:47:31.978Z</time></trkpt><trkpt lat="44.1263713" lon="10.4107914"><ele>347.6666666666667</ele><time>2026-04-11T08:47:33.974Z</time></trkpt><trkpt lat="44.1264487" lon="10.410811"><ele>348.0</ele><time>2026-04-11T08:47:35.976Z</time></trkpt><trkpt lat="44.1265256" lon="10.4108351"><ele>348.1428571428571</ele><time>2026-04-11T08:47:37.966Z</time></trkpt><trkpt lat="44.1266046" lon="10.4108587"><ele>348.2857142857143</ele><time>2026-04-11T08:47:39.976Z</time></trkpt><trkpt lat="44.1266777" lon="10.4108847"><ele>348.42857142857144</ele><time>2026-04-11T08:47:41.969Z</time></trkpt><trkpt lat="44.1267481" lon="10.4109146"><ele>348.57142857142856</ele><time>2026-04-11T08:47:43.973Z</time></trkpt><trkpt lat="44.12682" lon="10.4109374"><ele>348.7142857142857</ele><time>2026-04-11T08:47:45.963Z</time></trkpt><trkpt lat="44.1268842" lon="10.4109487"><ele>348.85714285714283</ele><time>2026-04-11T08:47:47.97Z</time></trkpt><trkpt lat="44.1269596" lon="10.4109652"><ele>349.0</ele><time>2026-04-11T08:47:49.976Z</time></trkpt><trkpt lat="44.1270352" lon="10.4109857"><ele>349.0</ele><time>2026-04-11T08:47:51.972Z</time></trkpt><trkpt lat="44.1271114" lon="10.4110007"><ele>349.0</ele><time>2026-04-11T08:47:53.969Z</time></trkpt><trkpt lat="44.1271918" lon="10.4110214"><ele>349.0</ele><time>2026-04-11T08:47:55.968Z</time></trkpt><trkpt lat="44.1272676" lon="10.4110402"><ele>349.0</ele><time>2026-04-11T08:47:57.972Z</time></trkpt><trkpt lat="44.1273415" lon="10.4110639"><ele>349.0</ele><time>2026-04-11T08:47:59.961Z</time></trkpt><trkpt lat="44.1274179" lon="10.4110957"><ele>349.0</ele><time>2026-04-11T08:48:01.96Z</time></trkpt><trkpt lat="44.1274939" lon="10.4111296"><ele>349.16666666666663</ele><time>2026-04-11T08:48:03.962Z</time></trkpt><trkpt lat="44.1275631" lon="10.4111603"><ele>349.3333333333333</ele><time>2026-04-11T08:48:05.965Z</time></trkpt><trkpt lat="44.1276326" lon="10.4111903"><ele>349.5</ele><time>2026-04-11T08:48:07.985Z</time></trkpt><trkpt lat="44.1277062" lon="10.4112175"><ele>349.6666666666667</ele><time>2026-04-11T08:48:09.966Z</time></trkpt><trkpt lat="44.127784" lon="10.4112339"><ele>349.83333333333337</ele><time>2026-04-11T08:48:11.967Z</time></trkpt><trkpt lat="44.1278632" lon="10.4112572"><ele>350.0</ele><time>2026-04-11T08:48:13.978Z</time></trkpt><trkpt lat="44.1279369" lon="10.411283"><ele>350.0</ele><time>2026-04-11T08:48:15.98Z</time></trkpt><trkpt lat="44.128009" lon="10.411306"><ele>350.0</ele><time>2026-04-11T08:48:17.99Z</time></trkpt><trkpt lat="44.1280808" lon="10.4113267"><ele>350.0</ele><time>2026-04-11T08:48:19.977Z</time></trkpt><trkpt lat="44.1281502" lon="10.4113491"><ele>350.0</ele><time>2026-04-11T08:48:21.967Z</time></trkpt><trkpt lat="44.1282233" lon="10.4113729"><ele>350.0</ele><time>2026-04-11T08:48:23.973Z</time></trkpt><trkpt lat="44.1282967" lon="10.411397"><ele>350.0</ele><time>2026-04-11T08:48:25.964Z</time></trkpt><trkpt lat="44.1283693" lon="10.4114168"><ele>350.0</ele><time>2026-04-11T08:48:27.966Z</time></trkpt><trkpt lat="44.1284391" lon="10.4114326"><ele>350.5</ele><time>2026-04-11T08:48:29.975Z</time></trkpt><trkpt lat="44.1285154" lon="10.4114445"><ele>351.0</ele><time>2026-04-11T08:48:31.961Z</time></trkpt><trkpt lat="44.128597" lon="10.4114533"><ele>351.5</ele><time>2026-04-11T08:48:33.964Z</time></trkpt><trkpt lat="44.1286803" lon="10.4114677"><ele>352.0</ele><time>2026-04-11T08:48:35.965Z</time></trkpt><trkpt lat="44.1287586" lon="10.4114948"><ele>352.5</ele><time>2026-04-11T08:48:37.964Z</time></trkpt><trkpt lat="44.1288283" lon="10.4115383"><ele>353.0</ele><time>2026-04-11T08:48:39.962Z</time></trkpt><trkpt lat="44.128891" lon="10.4115928"><ele>353.0</ele><time>2026-04-11T08:48:41.963Z</time></trkpt><trkpt lat="44.1289596" lon="10.411631"><ele>353.0</ele><time>2026-04-11T08:48:43.966Z</time></trkpt><trkpt lat="44.1290239" lon="10.4116575"><ele>353.0</ele><time>2026-04-11T08:48:45.971Z</time></trkpt><trkpt lat="44.1291101" lon="10.4116852"><ele>353.0</ele><time>2026-04-11T08:48:48.981Z</time></trkpt><trkpt lat="44.1291824" lon="10.4117028"><ele>353.0</ele><time>2026-04-11T08:48:50.996Z</time></trkpt><trkpt lat="44.1292556" lon="10.4117269"><ele>353.0</ele><time>2026-04-11T08:48:52.973Z</time></trkpt><trkpt lat="44.1293275" lon="10.4117537"><ele>353.33333333333337</ele><time>2026-04-11T08:48:54.982Z</time></trkpt><trkpt lat="44.1294005" lon="10.4117826"><ele>353.6666666666667</ele><time>2026-04-11T08:48:56.974Z</time></trkpt><trkpt lat="44.1294706" lon="10.4118053"><ele>354.0</ele><time>2026-04-11T08:48:58.973Z</time></trkpt><trkpt lat="44.1295434" lon="10.4118313"><ele>354.3333333333333</ele><time>2026-04-11T08:49:00.966Z</time></trkpt><trkpt lat="44.1296194" lon="10.4118588"><ele>354.66666666666663</ele><time>2026-04-11T08:49:02.966Z</time></trkpt><trkpt lat="44.1296955" lon="10.4118849"><ele>355.0</ele><time>2026-04-11T08:49:04.972Z</time></trkpt><trkpt lat="44.1297681" lon="10.411923"><ele>355.0</ele><time>2026-04-11T08:49:06.974Z</time></trkpt><trkpt lat="44.1298403" lon="10.4119655"><ele>355.0</ele><time>2026-04-11T08:49:08.987Z</time></trkpt><trkpt lat="44.1299145" lon="10.4120096"><ele>355.0</ele><time>2026-04-11T08:49:10.962Z</time></trkpt><trkpt lat="44.1299857" lon="10.4120548"><ele>355.0</ele><time>2026-04-11T08:49:12.97Z</time></trkpt><trkpt lat="44.1300555" lon="10.4120984"><ele>355.0</ele><time>2026-04-11T08:49:14.965Z</time></trkpt><trkpt lat="44.1301208" lon="10.4121406"><ele>355.0</ele><time>2026-04-11T08:49:16.965Z</time></trkpt><trkpt lat="44.1301888" lon="10.4121849"><ele>356.3333333333333</ele><time>2026-04-11T08:49:18.982Z</time></trkpt><trkpt lat="44.1302602" lon="10.412233"><ele>357.66666666666663</ele><time>2026-04-11T08:49:20.976Z</time></trkpt><trkpt lat="44.1303295" lon="10.4122803"><ele>359.0</ele><time>2026-04-11T08:49:22.986Z</time></trkpt><trkpt lat="44.1303989" lon="10.4123275"><ele>360.3333333333333</ele><time>2026-04-11T08:49:24.96Z</time></trkpt><trkpt lat="44.130466" lon="10.4123736"><ele>361.6666666666667</ele><time>2026-04-11T08:49:26.98Z</time></trkpt><trkpt lat="44.1305329" lon="10.412418"><ele>363.0</ele><time>2026-04-11T08:49:28.981Z</time></trkpt><trkpt lat="44.1305938" lon="10.4124672"><ele>363.0</ele><time>2026-04-11T08:49:30.973Z</time></trkpt><trkpt lat="44.1306655" lon="10.4125232"><ele>363.0</ele><time>2026-04-11T08:49:32.966Z</time></trkpt><trkpt lat="44.130739" lon="10.4125769"><ele>363.0</ele><time>2026-04-11T08:49:34.964Z</time></trkpt><trkpt lat="44.1308141" lon="10.4126274"><ele>363.0</ele><time>2026-04-11T08:49:36.966Z</time></trkpt><trkpt lat="44.13089" lon="10.4126761"><ele>363.0</ele><time>2026-04-11T08:49:38.977Z</time></trkpt><trkpt lat="44.1309621" lon="10.4127258"><ele>363.0</ele><time>2026-04-11T08:49:40.972Z</time></trkpt><trkpt lat="44.1310335" lon="10.4127728"><ele>363.1666666666667</ele><time>2026-04-11T08:49:42.968Z</time></trkpt><trkpt lat="44.1311036" lon="10.4128211"><ele>363.3333333333333</ele><time>2026-04-11T08:49:44.963Z</time></trkpt><trkpt lat="44.1311673" lon="10.4128631"><ele>363.5</ele><time>2026-04-11T08:49:46.967Z</time></trkpt><trkpt lat="44.1312436" lon="10.4129124"><ele>363.66666666666663</ele><time>2026-04-11T08:49:48.975Z</time></trkpt><trkpt lat="44.1313166" lon="10.4129654"><ele>363.8333333333333</ele><time>2026-04-11T08:49:50.979Z</time></trkpt><trkpt lat="44.1313826" lon="10.4130158"><ele>364.0</ele><time>2026-04-11T08:49:52.969Z</time></trkpt><trkpt lat="44.1314546" lon="10.4130671"><ele>364.3333333333333</ele><time>2026-04-11T08:49:54.968Z</time></trkpt><trkpt lat="44.1315249" lon="10.4131134"><ele>364.66666666666663</ele><time>2026-04-11T08:49:56.962Z</time></trkpt><trkpt lat="44.1316011" lon="10.4131552"><ele>365.0</ele><time>2026-04-11T08:49:58.967Z</time></trkpt><trkpt lat="44.1316648" lon="10.4131891"><ele>365.3333333333333</ele><time>2026-04-11T08:50:00.962Z</time></trkpt><trkpt lat="44.1317411" lon="10.4132232"><ele>365.6666666666667</ele><time>2026-04-11T08:50:02.961Z</time></trkpt><trkpt lat="44.1318181" lon="10.413257"><ele>366.0</ele><time>2026-04-11T08:50:04.961Z</time></trkpt><trkpt lat="44.1318949" lon="10.4132885"><ele>366.3333333333333</ele><time>2026-04-11T08:50:06.975Z</time></trkpt><trkpt lat="44.1319715" lon="10.4133252"><ele>366.6666666666667</ele><time>2026-04-11T08:50:08.972Z</time></trkpt><trkpt lat="44.1320462" lon="10.4133582"><ele>367.0</ele><time>2026-04-11T08:50:10.971Z</time></trkpt><trkpt lat="44.13212" lon="10.4133905"><ele>367.33333333333337</ele><time>2026-04-11T08:50:12.96Z</time></trkpt><trkpt lat="44.1321928" lon="10.4134228"><ele>367.6666666666667</ele><time>2026-04-11T08:50:14.973Z</time></trkpt><trkpt lat="44.1322619" lon="10.4134537"><ele>368.0</ele><time>2026-04-11T08:50:16.964Z</time></trkpt><trkpt lat="44.1323341" lon="10.4134802"><ele>368.83333333333337</ele><time>2026-04-11T08:50:18.965Z</time></trkpt><trkpt lat="44.1324043" lon="10.4135144"><ele>369.6666666666667</ele><time>2026-04-11T08:50:20.982Z</time></trkpt><trkpt lat="44.1324787" lon="10.4135466"><ele>370.5</ele><time>2026-04-11T08:50:22.971Z</time></trkpt><trkpt lat="44.1325514" lon="10.4135771"><ele>371.3333333333333</ele><time>2026-04-11T08:50:24.97Z</time></trkpt><trkpt lat="44.1326264" lon="10.4136091"><ele>372.16666666666663</ele><time>2026-04-11T08:50:26.965Z</time></trkpt><trkpt lat="44.1327" lon="10.4136416"><ele>373.0</ele><time>2026-04-11T08:50:28.976Z</time></trkpt><trkpt lat="44.1327735" lon="10.41367"><ele>373.0</ele><time>2026-04-11T08:50:30.976Z</time></trkpt><trkpt lat="44.1328461" lon="10.4136968"><ele>373.0</ele><time>2026-04-11T08:50:32.97Z</time></trkpt><trkpt lat="44.1329197" lon="10.4137234"><ele>373.0</ele><time>2026-04-11T08:50:34.964Z</time></trkpt><trkpt lat="44.1329933" lon="10.4137547"><ele>373.0</ele><time>2026-04-11T08:50:36.962Z</time></trkpt><trkpt lat="44.133066" lon="10.4137826"><ele>373.0</ele><time>2026-04-11T08:50:38.965Z</time></trkpt><trkpt lat="44.1331378" lon="10.4138126"><ele>373.0</ele><time>2026-04-11T08:50:40.987Z</time></trkpt><trkpt lat="44.1332082" lon="10.4138482"><ele>373.7142857142857</ele><time>2026-04-11T08:50:42.976Z</time></trkpt><trkpt lat="44.1332791" lon="10.4138833"><ele>374.42857142857144</ele><time>2026-04-11T08:50:44.964Z</time></trkpt><trkpt lat="44.1333467" lon="10.413921"><ele>375.1428571428571</ele><time>2026-04-11T08:50:46.974Z</time></trkpt><trkpt lat="44.1334199" lon="10.4139695"><ele>375.8571428571429</ele><time>2026-04-11T08:50:48.967Z</time></trkpt><trkpt lat="44.1334876" lon="10.4140205"><ele>376.57142857142856</ele><time>2026-04-11T08:50:50.974Z</time></trkpt><trkpt lat="44.1335495" lon="10.4140765"><ele>377.2857142857143</ele><time>2026-04-11T08:50:52.972Z</time></trkpt><trkpt lat="44.1336083" lon="10.4141284"><ele>378.0</ele><time>2026-04-11T08:50:54.961Z</time></trkpt><trkpt lat="44.1336721" lon="10.4141878"><ele>378.0</ele><time>2026-04-11T08:50:56.991Z</time></trkpt><trkpt lat="44.1337388" lon="10.4142498"><ele>378.0</ele><time>2026-04-11T08:50:58.974Z</time></trkpt><trkpt lat="44.1337981" lon="10.4143102"><ele>378.0</ele><time>2026-04-11T08:51:00.96Z</time></trkpt><trkpt lat="44.1338629" lon="10.4143803"><ele>378.0</ele><time>2026-04-11T08:51:02.961Z</time></trkpt><trkpt lat="44.1339299" lon="10.4144464"><ele>378.0</ele><time>2026-04-11T08:51:04.967Z</time></trkpt><trkpt lat="44.1339843" lon="10.4145134"><ele>378.0</ele><time>2026-04-11T08:51:06.97Z</time></trkpt><trkpt lat="44.1340396" lon="10.4145934"><ele>378.6666666666667</ele><time>2026-04-11T08:51:08.966Z</time></trkpt><trkpt lat="44.1340937" lon="10.4146677"><ele>379.3333333333333</ele><time>2026-04-11T08:51:10.959Z</time></trkpt><trkpt lat="44.1341508" lon="10.4147393"><ele>380.0</ele><time>2026-04-11T08:51:12.959Z</time></trkpt><trkpt lat="44.1342109" lon="10.4148061"><ele>380.66666666666663</ele><time>2026-04-11T08:51:14.969Z</time></trkpt><trkpt lat="44.1342695" lon="10.414872"><ele>381.3333333333333</ele><time>2026-04-11T08:51:16.963Z</time></trkpt><trkpt lat="44.1343246" lon="10.4149391"><ele>382.0</ele><time>2026-04-11T08:51:18.959Z</time></trkpt><trkpt lat="44.1343766" lon="10.4150081"><ele>382.0</ele><time>2026-04-11T08:51:20.966Z</time></trkpt><trkpt lat="44.1344354" lon="10.4150753"><ele>382.0</ele><time>2026-04-11T08:51:22.96Z</time></trkpt><trkpt lat="44.134494" lon="10.41514"><ele>382.0</ele><time>2026-04-11T08:51:24.959Z</time></trkpt><trkpt lat="44.1345542" lon="10.4152034"><ele>382.0</ele><time>2026-04-11T08:51:26.959Z</time></trkpt><trkpt lat="44.1346164" lon="10.4152688"><ele>382.0</ele><time>2026-04-11T08:51:28.966Z</time></trkpt><trkpt lat="44.1346766" lon="10.4153328"><ele>382.0</ele><time>2026-04-11T08:51:30.977Z</time></trkpt><trkpt lat="44.1347355" lon="10.4153957"><ele>382.0</ele><time>2026-04-11T08:51:32.989Z</time></trkpt><trkpt lat="44.1347961" lon="10.4154555"><ele>382.0</ele><time>2026-04-11T08:51:34.964Z</time></trkpt><trkpt lat="44.1348611" lon="10.4155118"><ele>382.0</ele><time>2026-04-11T08:51:36.97Z</time></trkpt><trkpt lat="44.134931" lon="10.4155506"><ele>382.0</ele><time>2026-04-11T08:51:38.959Z</time></trkpt><trkpt lat="44.1350045" lon="10.4155854"><ele>382.0</ele><time>2026-04-11T08:51:40.972Z</time></trkpt><trkpt lat="44.1350767" lon="10.4156185"><ele>382.0</ele><time>2026-04-11T08:51:42.965Z</time></trkpt><trkpt lat="44.1351485" lon="10.4156498"><ele>382.2857142857143</ele><time>2026-04-11T08:51:44.978Z</time></trkpt><trkpt lat="44.1352193" lon="10.4156857"><ele>382.57142857142856</ele><time>2026-04-11T08:51:46.967Z</time></trkpt><trkpt lat="44.1352883" lon="10.4157163"><ele>382.85714285714283</ele><time>2026-04-11T08:51:48.984Z</time></trkpt><trkpt lat="44.1353593" lon="10.4157459"><ele>383.1428571428571</ele><time>2026-04-11T08:51:50.969Z</time></trkpt><trkpt lat="44.1354285" lon="10.4157782"><ele>383.42857142857144</ele><time>2026-04-11T08:51:52.979Z</time></trkpt><trkpt lat="44.135501" lon="10.4158103"><ele>383.71428571428567</ele><time>2026-04-11T08:51:54.975Z</time></trkpt><trkpt lat="44.1355707" lon="10.415842"><ele>384.0</ele><time>2026-04-11T08:51:56.977Z</time></trkpt><trkpt lat="44.1356423" lon="10.41587"><ele>383.99999999999994</ele><time>2026-04-11T08:51:58.966Z</time></trkpt><trkpt lat="44.1357156" lon="10.4159046"><ele>384.0</ele><time>2026-04-11T08:52:00.973Z</time></trkpt><trkpt lat="44.1357868" lon="10.4159346"><ele>384.0</ele><time>2026-04-11T08:52:02.963Z</time></trkpt><trkpt lat="44.1358535" lon="10.4159637"><ele>384.0</ele><time>2026-04-11T08:52:04.97Z</time></trkpt><trkpt lat="44.1359255" lon="10.4159967"><ele>384.0</ele><time>2026-04-11T08:52:06.969Z</time></trkpt><trkpt lat="44.1359969" lon="10.4160288"><ele>383.99999999999994</ele><time>2026-04-11T08:52:08.967Z</time></trkpt><trkpt lat="44.1360696" lon="10.4160576"><ele>384.0</ele><time>2026-04-11T08:52:10.992Z</time></trkpt><trkpt lat="44.1361416" lon="10.4160849"><ele>384.57142857142856</ele><time>2026-04-11T08:52:12.975Z</time></trkpt><trkpt lat="44.1362081" lon="10.4161244"><ele>385.1428571428571</ele><time>2026-04-11T08:52:14.971Z</time></trkpt><trkpt lat="44.1362724" lon="10.4161765"><ele>385.71428571428567</ele><time>2026-04-11T08:52:16.965Z</time></trkpt><trkpt lat="44.1363338" lon="10.416236"><ele>386.2857142857143</ele><time>2026-04-11T08:52:18.981Z</time></trkpt><trkpt lat="44.1363963" lon="10.4162919"><ele>386.8571428571429</ele><time>2026-04-11T08:52:20.977Z</time></trkpt><trkpt lat="44.1364557" lon="10.4163529"><ele>387.4285714285714</ele><time>2026-04-11T08:52:22.974Z</time></trkpt><trkpt lat="44.1365202" lon="10.4164076"><ele>388.0</ele><time>2026-04-11T08:52:24.979Z</time></trkpt><trkpt lat="44.1365811" lon="10.4164673"><ele>388.85714285714283</ele><time>2026-04-11T08:52:26.966Z</time></trkpt><trkpt lat="44.1366432" lon="10.416529"><ele>389.7142857142857</ele><time>2026-04-11T08:52:28.976Z</time></trkpt><trkpt lat="44.1367042" lon="10.4165895"><ele>390.57142857142856</ele><time>2026-04-11T08:52:30.973Z</time></trkpt><trkpt lat="44.1367633" lon="10.4166476"><ele>391.42857142857144</ele><time>2026-04-11T08:52:32.986Z</time></trkpt><trkpt lat="44.1368163" lon="10.4167029"><ele>392.28571428571433</ele><time>2026-04-11T08:52:34.975Z</time></trkpt><trkpt lat="44.136872" lon="10.4167599"><ele>393.14285714285717</ele><time>2026-04-11T08:52:36.971Z</time></trkpt><trkpt lat="44.1369286" lon="10.4168201"><ele>394.0</ele><time>2026-04-11T08:52:38.969Z</time></trkpt><trkpt lat="44.1369833" lon="10.4168801"><ele>394.0</ele><time>2026-04-11T08:52:40.966Z</time></trkpt><trkpt lat="44.1370373" lon="10.4169403"><ele>394.0</ele><time>2026-04-11T08:52:42.986Z</time></trkpt><trkpt lat="44.1370937" lon="10.4169956"><ele>394.0</ele><time>2026-04-11T08:52:44.979Z</time></trkpt><trkpt lat="44.1371483" lon="10.4170542"><ele>394.0</ele><time>2026-04-11T08:52:46.977Z</time></trkpt><trkpt lat="44.1372014" lon="10.4171174"><ele>394.0</ele><time>2026-04-11T08:52:48.974Z</time></trkpt><trkpt lat="44.1372573" lon="10.4171779"><ele>394.0</ele><time>2026-04-11T08:52:50.97Z</time></trkpt><trkpt lat="44.1373137" lon="10.4172358"><ele>394.0</ele><time>2026-04-11T08:52:52.988Z</time></trkpt><trkpt lat="44.1373669" lon="10.4172984"><ele>394.8571428571429</ele><time>2026-04-11T08:52:54.977Z</time></trkpt><trkpt lat="44.1374205" lon="10.4173603"><ele>395.7142857142857</ele><time>2026-04-11T08:52:56.972Z</time></trkpt><trkpt lat="44.1374765" lon="10.4174204"><ele>396.57142857142856</ele><time>2026-04-11T08:52:58.969Z</time></trkpt><trkpt lat="44.1375366" lon="10.417485"><ele>397.42857142857144</ele><time>2026-04-11T08:53:00.963Z</time></trkpt><trkpt lat="44.137598" lon="10.4175476"><ele>398.2857142857143</ele><time>2026-04-11T08:53:02.98Z</time></trkpt><trkpt lat="44.1376557" lon="10.417611"><ele>399.14285714285717</ele><time>2026-04-11T08:53:04.982Z</time></trkpt><trkpt lat="44.1377148" lon="10.4176685"><ele>400.0</ele><time>2026-04-11T08:53:06.974Z</time></trkpt><trkpt lat="44.1377711" lon="10.4177281"><ele>400.00000000000006</ele><time>2026-04-11T08:53:08.971Z</time></trkpt><trkpt lat="44.1378259" lon="10.4177904"><ele>400.0</ele><time>2026-04-11T08:53:10.976Z</time></trkpt><trkpt lat="44.1378817" lon="10.4178478"><ele>400.0</ele><time>2026-04-11T08:53:12.989Z</time></trkpt><trkpt lat="44.137935" lon="10.4179066"><ele>400.0</ele><time>2026-04-11T08:53:14.983Z</time></trkpt><trkpt lat="44.13799" lon="10.4179659"><ele>400.0</ele><time>2026-04-11T08:53:16.97Z</time></trkpt><trkpt lat="44.1380484" lon="10.4180238"><ele>400.00000000000006</ele><time>2026-04-11T08:53:18.978Z</time></trkpt><trkpt lat="44.1381122" lon="10.4180759"><ele>400.0</ele><time>2026-04-11T08:53:20.973Z</time></trkpt><trkpt lat="44.1381932" lon="10.4181174"><ele>400.6</ele><time>2026-04-11T08:53:22.972Z</time></trkpt><trkpt lat="44.1382909" lon="10.4181608"><ele>401.2</ele><time>2026-04-11T08:53:24.974Z</time></trkpt><trkpt lat="44.1383951" lon="10.4182082"><ele>401.79999999999995</ele><time>2026-04-11T08:53:26.967Z</time></trkpt><trkpt lat="44.1384994" lon="10.41824"><ele>402.4</ele><time>2026-04-11T08:53:28.968Z</time></trkpt><trkpt lat="44.1386153" lon="10.4182445"><ele>403.0</ele><time>2026-04-11T08:53:30.97Z</time></trkpt><trkpt lat="44.1386783" lon="10.4182393"><ele>403.00000000000006</ele><time>2026-04-11T08:53:31.97Z</time></trkpt><trkpt lat="44.1388016" lon="10.418229"><ele>403.0</ele><time>2026-04-11T08:53:33.968Z</time></trkpt><trkpt lat="44.13887" lon="10.4182245"><ele>403.0</ele><time>2026-04-11T08:53:34.975Z</time></trkpt><trkpt lat="44.1389392" lon="10.4182179"><ele>403.0</ele><time>2026-04-11T08:53:35.98Z</time></trkpt><trkpt lat="44.139006" lon="10.4182167"><ele>403.00000000000006</ele><time>2026-04-11T08:53:36.976Z</time></trkpt><trkpt lat="44.1390766" lon="10.4182195"><ele>403.0</ele><time>2026-04-11T08:53:37.975Z</time></trkpt><trkpt lat="44.1391467" lon="10.4182274"><ele>402.0</ele><time>2026-04-11T08:53:38.972Z</time></trkpt><trkpt lat="44.1392164" lon="10.4182362"><ele>401.0</ele><time>2026-04-11T08:53:39.977Z</time></trkpt><trkpt lat="44.1392851" lon="10.4182429"><ele>400.0</ele><time>2026-04-11T08:53:40.977Z</time></trkpt><trkpt lat="44.1393568" lon="10.4182453"><ele>399.0</ele><time>2026-04-11T08:53:41.973Z</time></trkpt><trkpt lat="44.1394271" lon="10.4182484"><ele>398.0</ele><time>2026-04-11T08:53:42.98Z</time></trkpt><trkpt lat="44.1395022" lon="10.418244"><ele>397.0</ele><time>2026-04-11T08:53:43.984Z</time></trkpt><trkpt lat="44.1395774" lon="10.4182344"><ele>396.0</ele><time>2026-04-11T08:53:44.984Z</time></trkpt><trkpt lat="44.139643" lon="10.4182248"><ele>396.0</ele><time>2026-04-11T08:53:45.974Z</time></trkpt><trkpt lat="44.1397152" lon="10.4182198"><ele>396.0</ele><time>2026-04-11T08:53:46.976Z</time></trkpt><trkpt lat="44.1397895" lon="10.4182109"><ele>396.0</ele><time>2026-04-11T08:53:47.972Z</time></trkpt><trkpt lat="44.1398633" lon="10.4181984"><ele>396.0</ele><time>2026-04-11T08:53:48.975Z</time></trkpt><trkpt lat="44.1399403" lon="10.4181876"><ele>396.0</ele><time>2026-04-11T08:53:49.981Z</time></trkpt><trkpt lat="44.1400179" lon="10.4181804"><ele>396.0</ele><time>2026-04-11T08:53:50.973Z</time></trkpt><trkpt lat="44.1400902" lon="10.4181801"><ele>396.0</ele><time>2026-04-11T08:53:51.979Z</time></trkpt><trkpt lat="44.1401691" lon="10.4181656"><ele>396.0</ele><time>2026-04-11T08:53:52.981Z</time></trkpt><trkpt lat="44.1402359" lon="10.4181313"><ele>396.0</ele><time>2026-04-11T08:53:53.977Z</time></trkpt><trkpt lat="44.1402913" lon="10.4180703"><ele>396.0</ele><time>2026-04-11T08:53:54.97Z</time></trkpt><trkpt lat="44.1403417" lon="10.4179959"><ele>396.0</ele><time>2026-04-11T08:53:55.98Z</time></trkpt><trkpt lat="44.1403771" lon="10.4179117"><ele>396.0</ele><time>2026-04-11T08:53:56.98Z</time></trkpt><trkpt lat="44.1404086" lon="10.417808"><ele>396.0</ele><time>2026-04-11T08:53:57.975Z</time></trkpt><trkpt lat="44.140431" lon="10.4177062"><ele>396.0</ele><time>2026-04-11T08:53:58.969Z</time></trkpt><trkpt lat="44.1404407" lon="10.4175995"><ele>394.14285714285717</ele><time>2026-04-11T08:53:59.976Z</time></trkpt><trkpt lat="44.1404548" lon="10.4174945"><ele>392.2857142857143</ele><time>2026-04-11T08:54:00.976Z</time></trkpt><trkpt lat="44.1404694" lon="10.417393"><ele>390.42857142857144</ele><time>2026-04-11T08:54:01.966Z</time></trkpt><trkpt lat="44.1404832" lon="10.4172945"><ele>388.57142857142856</ele><time>2026-04-11T08:54:02.967Z</time></trkpt><trkpt lat="44.1404998" lon="10.4172024"><ele>386.71428571428567</ele><time>2026-04-11T08:54:03.976Z</time></trkpt><trkpt lat="44.1405174" lon="10.4171077"><ele>384.85714285714283</ele><time>2026-04-11T08:54:04.975Z</time></trkpt><trkpt lat="44.1405263" lon="10.4170152"><ele>383.0</ele><time>2026-04-11T08:54:05.981Z</time></trkpt><trkpt lat="44.1405501" lon="10.4168548"><ele>382.0</ele><time>2026-04-11T08:54:07.976Z</time></trkpt><trkpt lat="44.1405698" lon="10.4166894"><ele>381.0</ele><time>2026-04-11T08:54:09.971Z</time></trkpt><trkpt lat="44.1405875" lon="10.4165356"><ele>380.0</ele><time>2026-04-11T08:54:11.976Z</time></trkpt><trkpt lat="44.1406069" lon="10.4163872"><ele>379.0</ele><time>2026-04-11T08:54:13.979Z</time></trkpt><trkpt lat="44.1406231" lon="10.4162408"><ele>378.0</ele><time>2026-04-11T08:54:15.991Z</time></trkpt><trkpt lat="44.1406417" lon="10.4161141"><ele>377.8333333333333</ele><time>2026-04-11T08:54:17.978Z</time></trkpt><trkpt lat="44.140663" lon="10.415997"><ele>377.6666666666667</ele><time>2026-04-11T08:54:19.981Z</time></trkpt><trkpt lat="44.1406813" lon="10.4158862"><ele>377.5</ele><time>2026-04-11T08:54:21.967Z</time></trkpt><trkpt lat="44.1406903" lon="10.4157826"><ele>377.33333333333337</ele><time>2026-04-11T08:54:23.979Z</time></trkpt><trkpt lat="44.1407001" lon="10.4156832"><ele>377.1666666666667</ele><time>2026-04-11T08:54:25.986Z</time></trkpt><trkpt lat="44.1407122" lon="10.4155869"><ele>377.0</ele><time>2026-04-11T08:54:27.976Z</time></trkpt><trkpt lat="44.1407212" lon="10.4154917"><ele>377.1428571428571</ele><time>2026-04-11T08:54:29.974Z</time></trkpt><trkpt lat="44.1407201" lon="10.4153991"><ele>377.2857142857143</ele><time>2026-04-11T08:54:31.982Z</time></trkpt><trkpt lat="44.1407208" lon="10.4153045"><ele>377.42857142857144</ele><time>2026-04-11T08:54:33.975Z</time></trkpt><trkpt lat="44.1407183" lon="10.4152087"><ele>377.57142857142856</ele><time>2026-04-11T08:54:35.982Z</time></trkpt><trkpt lat="44.1407109" lon="10.4151187"><ele>377.7142857142857</ele><time>2026-04-11T08:54:37.972Z</time></trkpt><trkpt lat="44.1407028" lon="10.4150294"><ele>377.85714285714283</ele><time>2026-04-11T08:54:39.974Z</time></trkpt><trkpt lat="44.140704" lon="10.4149413"><ele>378.0</ele><time>2026-04-11T08:54:41.971Z</time></trkpt><trkpt lat="44.1407014" lon="10.4148493"><ele>378.0</ele><time>2026-04-11T08:54:43.979Z</time></trkpt><trkpt lat="44.1406922" lon="10.4147595"><ele>378.0</ele><time>2026-04-11T08:54:45.976Z</time></trkpt><trkpt lat="44.1406878" lon="10.4146589"><ele>378.0</ele><time>2026-04-11T08:54:47.98Z</time></trkpt><trkpt lat="44.1406776" lon="10.4145398"><ele>378.0</ele><time>2026-04-11T08:54:50.979Z</time></trkpt><trkpt lat="44.1406789" lon="10.414428"><ele>378.0</ele><time>2026-04-11T08:54:53.976Z</time></trkpt><trkpt lat="44.140693" lon="10.414321"><ele>378.0</ele><time>2026-04-11T08:54:56.972Z</time></trkpt><trkpt lat="44.1407364" lon="10.4142322"><ele>380.5</ele><time>2026-04-11T08:54:59.976Z</time></trkpt><trkpt lat="44.1408049" lon="10.4141796"><ele>383.0</ele><time>2026-04-11T08:55:02.964Z</time></trkpt><trkpt lat="44.1408807" lon="10.4141575"><ele>385.5</ele><time>2026-04-11T08:55:05.973Z</time></trkpt><trkpt lat="44.1409575" lon="10.4141862"><ele>388.0</ele><time>2026-04-11T08:55:08.972Z</time></trkpt><trkpt lat="44.1410182" lon="10.4142614"><ele>390.5</ele><time>2026-04-11T08:55:11.956Z</time></trkpt><trkpt lat="44.1410544" lon="10.4143631"><ele>393.0</ele><time>2026-04-11T08:55:14.961Z</time></trkpt><trkpt lat="44.1410661" lon="10.4144823"><ele>393.0</ele><time>2026-04-11T08:55:17.967Z</time></trkpt><trkpt lat="44.1410827" lon="10.4145837"><ele>393.0</ele><time>2026-04-11T08:55:20.974Z</time></trkpt><trkpt lat="44.141102" lon="10.4146946"><ele>393.0</ele><time>2026-04-11T08:55:23.975Z</time></trkpt><trkpt lat="44.1411361" lon="10.4147943"><ele>393.0</ele><time>2026-04-11T08:55:26.973Z</time></trkpt><trkpt lat="44.1411929" lon="10.4148699"><ele>393.0</ele><time>2026-04-11T08:55:29.966Z</time></trkpt><trkpt lat="44.1412694" lon="10.4149212"><ele>393.0</ele><time>2026-04-11T08:55:32.968Z</time></trkpt><trkpt lat="44.1413541" lon="10.4149439"><ele>393.6666666666667</ele><time>2026-04-11T08:55:35.976Z</time></trkpt><trkpt lat="44.1414366" lon="10.4149376"><ele>394.33333333333337</ele><time>2026-04-11T08:55:38.964Z</time></trkpt><trkpt lat="44.1415153" lon="10.4149148"><ele>395.0</ele><time>2026-04-11T08:55:41.966Z</time></trkpt><trkpt lat="44.141594" lon="10.4148899"><ele>395.6666666666667</ele><time>2026-04-11T08:55:44.975Z</time></trkpt><trkpt lat="44.1416705" lon="10.4148731"><ele>396.33333333333337</ele><time>2026-04-11T08:55:47.968Z</time></trkpt><trkpt lat="44.1417494" lon="10.4148597"><ele>397.0</ele><time>2026-04-11T08:55:50.976Z</time></trkpt><trkpt lat="44.1418251" lon="10.4148433"><ele>397.0</ele><time>2026-04-11T08:55:53.972Z</time></trkpt><trkpt lat="44.1419033" lon="10.4148291"><ele>397.0</ele><time>2026-04-11T08:55:56.974Z</time></trkpt><trkpt lat="44.1419831" lon="10.4148296"><ele>397.0</ele><time>2026-04-11T08:55:59.973Z</time></trkpt><trkpt lat="44.1420591" lon="10.4148363"><ele>397.0</ele><time>2026-04-11T08:56:02.982Z</time></trkpt><trkpt lat="44.1421299" lon="10.414849"><ele>397.0</ele><time>2026-04-11T08:56:05.973Z</time></trkpt><trkpt lat="44.1421988" lon="10.4148556"><ele>397.0</ele><time>2026-04-11T08:56:08.968Z</time></trkpt><trkpt lat="44.1422611" lon="10.4148707"><ele>397.0</ele><time>2026-04-11T08:56:11.965Z</time></trkpt><trkpt lat="44.1423421" lon="10.414889"><ele>398.00000000000006</ele><time>2026-04-11T08:56:14.971Z</time></trkpt><trkpt lat="44.1424238" lon="10.414906"><ele>399.0</ele><time>2026-04-11T08:56:17.982Z</time></trkpt><trkpt lat="44.1424936" lon="10.4149215"><ele>400.0</ele><time>2026-04-11T08:56:20.982Z</time></trkpt><trkpt lat="44.1425693" lon="10.4149349"><ele>401.0</ele><time>2026-04-11T08:56:23.978Z</time></trkpt><trkpt lat="44.1426527" lon="10.4149456"><ele>402.00000000000006</ele><time>2026-04-11T08:56:26.978Z</time></trkpt><trkpt lat="44.1427316" lon="10.4149489"><ele>403.0</ele><time>2026-04-11T08:56:29.975Z</time></trkpt><trkpt lat="44.1428091" lon="10.4149388"><ele>403.00000000000006</ele><time>2026-04-11T08:56:32.969Z</time></trkpt><trkpt lat="44.1428911" lon="10.4149302"><ele>403.0</ele><time>2026-04-11T08:56:35.978Z</time></trkpt><trkpt lat="44.1429753" lon="10.4149118"><ele>403.0</ele><time>2026-04-11T08:56:38.975Z</time></trkpt><trkpt lat="44.1430587" lon="10.4148925"><ele>403.0</ele><time>2026-04-11T08:56:41.977Z</time></trkpt><trkpt lat="44.1431402" lon="10.4148791"><ele>403.00000000000006</ele><time>2026-04-11T08:56:44.972Z</time></trkpt><trkpt lat="44.1432193" lon="10.4148702"><ele>403.0</ele><time>2026-04-11T08:56:47.976Z</time></trkpt><trkpt lat="44.1432962" lon="10.4148815"><ele>405.00000000000006</ele><time>2026-04-11T08:56:50.977Z</time></trkpt><trkpt lat="44.1433743" lon="10.4149001"><ele>407.0</ele><time>2026-04-11T08:56:53.972Z</time></trkpt><trkpt lat="44.1434514" lon="10.4149226"><ele>409.0</ele><time>2026-04-11T08:56:56.961Z</time></trkpt><trkpt lat="44.1435269" lon="10.4149465"><ele>411.0</ele><time>2026-04-11T08:56:59.961Z</time></trkpt><trkpt lat="44.1436004" lon="10.4149692"><ele>413.00000000000006</ele><time>2026-04-11T08:57:02.964Z</time></trkpt><trkpt lat="44.1436773" lon="10.4149954"><ele>415.0</ele><time>2026-04-11T08:57:05.973Z</time></trkpt><trkpt lat="44.1437502" lon="10.4150302"><ele>415.00000000000006</ele><time>2026-04-11T08:57:08.96Z</time></trkpt><trkpt lat="44.1438233" lon="10.4150591"><ele>415.0</ele><time>2026-04-11T08:57:11.976Z</time></trkpt><trkpt lat="44.1438962" lon="10.4150923"><ele>415.0</ele><time>2026-04-11T08:57:14.978Z</time></trkpt><trkpt lat="44.1439648" lon="10.4151166"><ele>415.0</ele><time>2026-04-11T08:57:17.969Z</time></trkpt><trkpt lat="44.1440448" lon="10.415133"><ele>415.00000000000006</ele><time>2026-04-11T08:57:20.971Z</time></trkpt><trkpt lat="44.1441241" lon="10.4150963"><ele>415.0</ele><time>2026-04-11T08:57:23.964Z</time></trkpt><trkpt lat="44.1441695" lon="10.4149941"><ele>415.00000000000006</ele><time>2026-04-11T08:57:26.965Z</time></trkpt><trkpt lat="44.1441441" lon="10.4148792"><ele>415.0</ele><time>2026-04-11T08:57:29.97Z</time></trkpt><trkpt lat="44.1440736" lon="10.4148052"><ele>415.0</ele><time>2026-04-11T08:57:32.971Z</time></trkpt><trkpt lat="44.1439957" lon="10.4147545"><ele>415.0</ele><time>2026-04-11T08:57:35.977Z</time></trkpt><trkpt lat="44.1439232" lon="10.4147182"><ele>415.00000000000006</ele><time>2026-04-11T08:57:38.969Z</time></trkpt><trkpt lat="44.143844" lon="10.4146889"><ele>415.0</ele><time>2026-04-11T08:57:41.976Z</time></trkpt><trkpt lat="44.1437626" lon="10.4146724"><ele>415.00000000000006</ele><time>2026-04-11T08:57:44.971Z</time></trkpt><trkpt lat="44.1436822" lon="10.414661"><ele>415.0</ele><time>2026-04-11T08:57:47.963Z</time></trkpt><trkpt lat="44.1436005" lon="10.4146374"><ele>415.0</ele><time>2026-04-11T08:57:50.979Z</time></trkpt><trkpt lat="44.143523" lon="10.4146022"><ele>415.0</ele><time>2026-04-11T08:57:53.977Z</time></trkpt><trkpt lat="44.1434582" lon="10.4145309"><ele>415.00000000000006</ele><time>2026-04-11T08:57:56.973Z</time></trkpt><trkpt lat="44.143419" lon="10.4144293"><ele>415.0</ele><time>2026-04-11T08:57:59.989Z</time></trkpt><trkpt lat="44.1434058" lon="10.4143156"><ele>416.6666666666667</ele><time>2026-04-11T08:58:02.975Z</time></trkpt><trkpt lat="44.1434122" lon="10.4141963"><ele>418.33333333333337</ele><time>2026-04-11T08:58:05.982Z</time></trkpt><trkpt lat="44.1434151" lon="10.4140785"><ele>420.0</ele><time>2026-04-11T08:58:08.976Z</time></trkpt><trkpt lat="44.143417" lon="10.4139556"><ele>421.66666666666663</ele><time>2026-04-11T08:58:11.965Z</time></trkpt><trkpt lat="44.1434166" lon="10.4138258"><ele>423.3333333333333</ele><time>2026-04-11T08:58:14.981Z</time></trkpt><trkpt lat="44.1434032" lon="10.4136984"><ele>425.0</ele><time>2026-04-11T08:58:17.982Z</time></trkpt><trkpt lat="44.1433873" lon="10.4135767"><ele>425.85714285714283</ele><time>2026-04-11T08:58:20.97Z</time></trkpt><trkpt lat="44.1433701" lon="10.4134916"><ele>426.71428571428567</ele><time>2026-04-11T08:58:22.976Z</time></trkpt><trkpt lat="44.1433497" lon="10.4134084"><ele>427.57142857142856</ele><time>2026-04-11T08:58:24.97Z</time></trkpt><trkpt lat="44.1433224" lon="10.4132843"><ele>428.42857142857144</ele><time>2026-04-11T08:58:27.982Z</time></trkpt><trkpt lat="44.1433091" lon="10.4131966"><ele>429.2857142857143</ele><time>2026-04-11T08:58:29.967Z</time></trkpt><trkpt lat="44.1432916" lon="10.4131104"><ele>430.14285714285717</ele><time>2026-04-11T08:58:31.98Z</time></trkpt><trkpt lat="44.1432669" lon="10.4130277"><ele>431.0</ele><time>2026-04-11T08:58:33.963Z</time></trkpt><trkpt lat="44.1432308" lon="10.4129527"><ele>430.66666666666663</ele><time>2026-04-11T08:58:35.98Z</time></trkpt><trkpt lat="44.143181" lon="10.4128962"><ele>430.3333333333333</ele><time>2026-04-11T08:58:37.966Z</time></trkpt><trkpt lat="44.143121" lon="10.4128667"><ele>430.0</ele><time>2026-04-11T08:58:39.971Z</time></trkpt><trkpt lat="44.1430275" lon="10.4128402"><ele>429.66666666666663</ele><time>2026-04-11T08:58:42.967Z</time></trkpt><trkpt lat="44.1429637" lon="10.412828"><ele>429.3333333333333</ele><time>2026-04-11T08:58:44.97Z</time></trkpt><trkpt lat="44.1428704" lon="10.4128076"><ele>429.0</ele><time>2026-04-11T08:58:47.964Z</time></trkpt><trkpt lat="44.1427847" lon="10.4127582"><ele>429.0</ele><time>2026-04-11T08:58:50.969Z</time></trkpt><trkpt lat="44.1427429" lon="10.4126925"><ele>429.0</ele><time>2026-04-11T08:58:52.971Z</time></trkpt><trkpt lat="44.1427257" lon="10.412605"><ele>429.0</ele><time>2026-04-11T08:58:54.975Z</time></trkpt><trkpt lat="44.1427338" lon="10.4125129"><ele>429.0</ele><time>2026-04-11T08:58:56.978Z</time></trkpt><trkpt lat="44.142769" lon="10.4124299"><ele>429.0</ele><time>2026-04-11T08:58:58.967Z</time></trkpt><trkpt lat="44.1428222" lon="10.4123733"><ele>429.0</ele><time>2026-04-11T08:59:00.965Z</time></trkpt><trkpt lat="44.1428792" lon="10.41233"><ele>429.0</ele><time>2026-04-11T08:59:02.968Z</time></trkpt><trkpt lat="44.1429409" lon="10.4123017"><ele>429.0</ele><time>2026-04-11T08:59:04.99Z</time></trkpt><trkpt lat="44.1430316" lon="10.4122637"><ele>429.0</ele><time>2026-04-11T08:59:07.982Z</time></trkpt><trkpt lat="44.1431203" lon="10.4122252"><ele>429.0</ele><time>2026-04-11T08:59:10.977Z</time></trkpt><trkpt lat="44.143182" lon="10.4122039"><ele>429.0</ele><time>2026-04-11T08:59:12.974Z</time></trkpt><trkpt lat="44.1432709" lon="10.4121642"><ele>429.0</ele><time>2026-04-11T08:59:15.975Z</time></trkpt><trkpt lat="44.1433302" lon="10.412133"><ele>429.0</ele><time>2026-04-11T08:59:17.98Z</time></trkpt><trkpt lat="44.1433921" lon="10.4121161"><ele>430.8333333333333</ele><time>2026-04-11T08:59:19.966Z</time></trkpt><trkpt lat="44.143484" lon="10.4121014"><ele>432.66666666666663</ele><time>2026-04-11T08:59:22.969Z</time></trkpt><trkpt lat="44.1435758" lon="10.4120829"><ele>434.5</ele><time>2026-04-11T08:59:25.98Z</time></trkpt><trkpt lat="44.1436649" lon="10.4120527"><ele>436.3333333333333</ele><time>2026-04-11T08:59:28.976Z</time></trkpt><trkpt lat="44.1437492" lon="10.4120014"><ele>438.16666666666663</ele><time>2026-04-11T08:59:31.965Z</time></trkpt><trkpt lat="44.1437978" lon="10.4119452"><ele>440.0</ele><time>2026-04-11T08:59:33.964Z</time></trkpt><trkpt lat="44.1438429" lon="10.4118835"><ele>439.99999999999994</ele><time>2026-04-11T08:59:35.966Z</time></trkpt><trkpt lat="44.1439056" lon="10.4117926"><ele>440.0</ele><time>2026-04-11T08:59:38.967Z</time></trkpt><trkpt lat="44.1439685" lon="10.4116937"><ele>440.0</ele><time>2026-04-11T08:59:41.97Z</time></trkpt><trkpt lat="44.1440025" lon="10.4116172"><ele>440.0</ele><time>2026-04-11T08:59:43.963Z</time></trkpt><trkpt lat="44.1440232" lon="10.4115298"><ele>439.99999999999994</ele><time>2026-04-11T08:59:45.986Z</time></trkpt><trkpt lat="44.1440241" lon="10.4114404"><ele>440.0</ele><time>2026-04-11T08:59:47.978Z</time></trkpt><trkpt lat="44.1440083" lon="10.411311"><ele>440.99999999999994</ele><time>2026-04-11T08:59:50.966Z</time></trkpt><trkpt lat="44.143984" lon="10.4112268"><ele>442.0</ele><time>2026-04-11T08:59:52.983Z</time></trkpt><trkpt lat="44.1439483" lon="10.4111513"><ele>443.0</ele><time>2026-04-11T08:59:54.969Z</time></trkpt><trkpt lat="44.1438822" lon="10.4110627"><ele>444.0</ele><time>2026-04-11T08:59:57.977Z</time></trkpt><trkpt lat="44.1438272" lon="10.4110168"><ele>445.0</ele><time>2026-04-11T08:59:59.973Z</time></trkpt><trkpt lat="44.143777" lon="10.4109638"><ele>445.99999999999994</ele><time>2026-04-11T09:00:01.962Z</time></trkpt><trkpt lat="44.1437275" lon="10.4109081"><ele>447.0</ele><time>2026-04-11T09:00:03.985Z</time></trkpt><trkpt lat="44.1436517" lon="10.4108387"><ele>447.0</ele><time>2026-04-11T09:00:06.975Z</time></trkpt><trkpt lat="44.1435776" lon="10.4107619"><ele>447.0</ele><time>2026-04-11T09:00:09.966Z</time></trkpt><trkpt lat="44.1435009" lon="10.4106844"><ele>447.0</ele><time>2026-04-11T09:00:12.961Z</time></trkpt><trkpt lat="44.1434487" lon="10.4106314"><ele>447.0</ele><time>2026-04-11T09:00:14.967Z</time></trkpt><trkpt lat="44.1434076" lon="10.4105637"><ele>447.0</ele><time>2026-04-11T09:00:16.961Z</time></trkpt><trkpt lat="44.1433986" lon="10.4104728"><ele>447.0</ele><time>2026-04-11T09:00:18.971Z</time></trkpt><trkpt lat="44.1434273" lon="10.4103831"><ele>447.4285714285714</ele><time>2026-04-11T09:00:20.981Z</time></trkpt><trkpt lat="44.1434782" lon="10.4103205"><ele>447.8571428571429</ele><time>2026-04-11T09:00:22.968Z</time></trkpt><trkpt lat="44.1435391" lon="10.4102834"><ele>448.28571428571433</ele><time>2026-04-11T09:00:24.964Z</time></trkpt><trkpt lat="44.1436016" lon="10.4102533"><ele>448.7142857142857</ele><time>2026-04-11T09:00:26.973Z</time></trkpt><trkpt lat="44.1436635" lon="10.4102266"><ele>449.14285714285717</ele><time>2026-04-11T09:00:28.974Z</time></trkpt><trkpt lat="44.1437233" lon="10.4101938"><ele>449.5714285714286</ele><time>2026-04-11T09:00:30.977Z</time></trkpt><trkpt lat="44.1437833" lon="10.4101561"><ele>450.00000000000006</ele><time>2026-04-11T09:00:32.963Z</time></trkpt><trkpt lat="44.1438485" lon="10.4101303"><ele>450.00000000000006</ele><time>2026-04-11T09:00:34.963Z</time></trkpt><trkpt lat="44.1439102" lon="10.410098"><ele>450.0</ele><time>2026-04-11T09:00:36.969Z</time></trkpt><trkpt lat="44.1439727" lon="10.4100777"><ele>450.00000000000006</ele><time>2026-04-11T09:00:38.977Z</time></trkpt><trkpt lat="44.1440384" lon="10.4100727"><ele>450.00000000000006</ele><time>2026-04-11T09:00:40.973Z</time></trkpt><trkpt lat="44.1441298" lon="10.410093"><ele>450.0</ele><time>2026-04-11T09:00:43.965Z</time></trkpt><trkpt lat="44.1441913" lon="10.4101168"><ele>450.00000000000006</ele><time>2026-04-11T09:00:45.986Z</time></trkpt><trkpt lat="44.1442543" lon="10.410138"><ele>450.00000000000006</ele><time>2026-04-11T09:00:47.969Z</time></trkpt><trkpt lat="44.1443163" lon="10.410161"><ele>452.3333333333333</ele><time>2026-04-11T09:00:49.973Z</time></trkpt><trkpt lat="44.1443789" lon="10.4101799"><ele>454.66666666666663</ele><time>2026-04-11T09:00:51.981Z</time></trkpt><trkpt lat="44.1444433" lon="10.4102007"><ele>457.0</ele><time>2026-04-11T09:00:53.969Z</time></trkpt><trkpt lat="44.1445363" lon="10.4102343"><ele>459.3333333333333</ele><time>2026-04-11T09:00:56.977Z</time></trkpt><trkpt lat="44.1446276" lon="10.4102652"><ele>461.66666666666663</ele><time>2026-04-11T09:00:59.978Z</time></trkpt><trkpt lat="44.1446898" lon="10.4102905"><ele>464.0</ele><time>2026-04-11T09:01:01.98Z</time></trkpt><trkpt lat="44.1447723" lon="10.410323"><ele>464.00000000000006</ele><time>2026-04-11T09:01:04.963Z</time></trkpt><trkpt lat="44.1448354" lon="10.4103508"><ele>464.0</ele><time>2026-04-11T09:01:06.966Z</time></trkpt><trkpt lat="44.1449018" lon="10.4103715"><ele>464.00000000000006</ele><time>2026-04-11T09:01:08.971Z</time></trkpt><trkpt lat="44.1449669" lon="10.4103915"><ele>464.00000000000006</ele><time>2026-04-11T09:01:10.966Z</time></trkpt><trkpt lat="44.145033" lon="10.4104114"><ele>464.0</ele><time>2026-04-11T09:01:12.966Z</time></trkpt><trkpt lat="44.1450948" lon="10.4104317"><ele>464.00000000000006</ele><time>2026-04-11T09:01:14.98Z</time></trkpt><trkpt lat="44.1451854" lon="10.4104615"><ele>464.00000000000006</ele><time>2026-04-11T09:01:17.972Z</time></trkpt><trkpt lat="44.1452758" lon="10.410494"><ele>465.49999999999994</ele><time>2026-04-11T09:01:20.965Z</time></trkpt><trkpt lat="44.1453672" lon="10.4105227"><ele>467.0</ele><time>2026-04-11T09:01:23.986Z</time></trkpt><trkpt lat="44.1454589" lon="10.4105534"><ele>468.5</ele><time>2026-04-11T09:01:26.978Z</time></trkpt><trkpt lat="44.1455255" lon="10.4105763"><ele>470.0</ele><time>2026-04-11T09:01:28.978Z</time></trkpt><trkpt lat="44.1455931" lon="10.4106034"><ele>471.49999999999994</ele><time>2026-04-11T09:01:30.967Z</time></trkpt><trkpt lat="44.1456578" lon="10.4106232"><ele>473.0</ele><time>2026-04-11T09:01:32.984Z</time></trkpt><trkpt lat="44.1457199" lon="10.4106446"><ele>473.28571428571433</ele><time>2026-04-11T09:01:34.978Z</time></trkpt><trkpt lat="44.1457836" lon="10.4106669"><ele>473.57142857142856</ele><time>2026-04-11T09:01:36.979Z</time></trkpt><trkpt lat="44.1458473" lon="10.4106914"><ele>473.8571428571429</ele><time>2026-04-11T09:01:38.979Z</time></trkpt><trkpt lat="44.1459088" lon="10.4107121"><ele>474.14285714285717</ele><time>2026-04-11T09:01:40.968Z</time></trkpt><trkpt lat="44.1460004" lon="10.4107501"><ele>474.42857142857144</ele><time>2026-04-11T09:01:43.96Z</time></trkpt><trkpt lat="44.1460632" lon="10.410773"><ele>474.7142857142857</ele><time>2026-04-11T09:01:45.963Z</time></trkpt><trkpt lat="44.1461532" lon="10.4108051"><ele>475.0</ele><time>2026-04-11T09:01:48.961Z</time></trkpt><trkpt lat="44.1462406" lon="10.4108332"><ele>475.0</ele><time>2026-04-11T09:01:51.962Z</time></trkpt><trkpt lat="44.1463322" lon="10.4108593"><ele>475.00000000000006</ele><time>2026-04-11T09:01:54.962Z</time></trkpt><trkpt lat="44.1464176" lon="10.4108892"><ele>475.0</ele><time>2026-04-11T09:01:57.982Z</time></trkpt><trkpt lat="44.1464778" lon="10.4109216"><ele>475.0</ele><time>2026-04-11T09:01:59.975Z</time></trkpt><trkpt lat="44.1465363" lon="10.4109574"><ele>475.00000000000006</ele><time>2026-04-11T09:02:01.972Z</time></trkpt><trkpt lat="44.1465934" lon="10.4110032"><ele>475.0</ele><time>2026-04-11T09:02:03.968Z</time></trkpt><trkpt lat="44.1466455" lon="10.4110586"><ele>475.0</ele><time>2026-04-11T09:02:05.966Z</time></trkpt><trkpt lat="44.1466921" lon="10.4111258"><ele>475.83333333333337</ele><time>2026-04-11T09:02:07.973Z</time></trkpt><trkpt lat="44.1467359" lon="10.4111909"><ele>476.6666666666667</ele><time>2026-04-11T09:02:09.959Z</time></trkpt><trkpt lat="44.1467797" lon="10.4112557"><ele>477.5</ele><time>2026-04-11T09:02:11.962Z</time></trkpt><trkpt lat="44.1468429" lon="10.4113438"><ele>478.33333333333337</ele><time>2026-04-11T09:02:14.96Z</time></trkpt><trkpt lat="44.1469008" lon="10.4114292"><ele>479.1666666666667</ele><time>2026-04-11T09:02:17.996Z</time></trkpt><trkpt lat="44.1469606" lon="10.4115131"><ele>480.0</ele><time>2026-04-11T09:02:20.965Z</time></trkpt><trkpt lat="44.1470234" lon="10.4116018"><ele>481.1666666666667</ele><time>2026-04-11T09:02:23.964Z</time></trkpt><trkpt lat="44.1470842" lon="10.4116885"><ele>482.33333333333337</ele><time>2026-04-11T09:02:26.971Z</time></trkpt><trkpt lat="44.1471431" lon="10.4117717"><ele>483.5</ele><time>2026-04-11T09:02:29.964Z</time></trkpt><trkpt lat="44.1472023" lon="10.411857"><ele>484.6666666666667</ele><time>2026-04-11T09:02:32.972Z</time></trkpt><trkpt lat="44.1472641" lon="10.4119454"><ele>485.83333333333337</ele><time>2026-04-11T09:02:35.976Z</time></trkpt><trkpt lat="44.1473233" lon="10.412038"><ele>487.0</ele><time>2026-04-11T09:02:38.962Z</time></trkpt><trkpt lat="44.1473861" lon="10.4121303"><ele>487.6666666666667</ele><time>2026-04-11T09:02:41.973Z</time></trkpt><trkpt lat="44.1474483" lon="10.4122184"><ele>488.33333333333337</ele><time>2026-04-11T09:02:44.965Z</time></trkpt><trkpt lat="44.1474972" lon="10.4122894"><ele>489.0</ele><time>2026-04-11T09:02:46.967Z</time></trkpt><trkpt lat="44.147559" lon="10.4123796"><ele>489.66666666666663</ele><time>2026-04-11T09:02:49.919Z</time></trkpt><trkpt lat="44.1476208" lon="10.4124728"><ele>490.3333333333333</ele><time>2026-04-11T09:02:52.977Z</time></trkpt><trkpt lat="44.1476847" lon="10.4125661"><ele>491.0</ele><time>2026-04-11T09:02:55.914Z</time></trkpt><trkpt lat="44.1477488" lon="10.4126579"><ele>490.99999999999994</ele><time>2026-04-11T09:02:58.964Z</time></trkpt><trkpt lat="44.1478125" lon="10.412748"><ele>491.0</ele><time>2026-04-11T09:03:01.966Z</time></trkpt><trkpt lat="44.1478778" lon="10.4128334"><ele>491.0</ele><time>2026-04-11T09:03:04.97Z</time></trkpt><trkpt lat="44.1479373" lon="10.412909"><ele>491.0</ele><time>2026-04-11T09:03:07.967Z</time></trkpt><trkpt lat="44.1479984" lon="10.412996"><ele>490.99999999999994</ele><time>2026-04-11T09:03:10.962Z</time></trkpt><trkpt lat="44.1480541" lon="10.4130884"><ele>491.0</ele><time>2026-04-11T09:03:13.978Z</time></trkpt><trkpt lat="44.148129" lon="10.4131482"><ele>491.0</ele><time>2026-04-11T09:03:16.963Z</time></trkpt><trkpt lat="44.1481916" lon="10.4131309"><ele>490.99999999999994</ele><time>2026-04-11T09:03:18.964Z</time></trkpt><trkpt lat="44.1482202" lon="10.4130514"><ele>491.0</ele><time>2026-04-11T09:03:20.969Z</time></trkpt><trkpt lat="44.1482143" lon="10.4129259"><ele>491.0</ele><time>2026-04-11T09:03:23.965Z</time></trkpt><trkpt lat="44.1481986" lon="10.412839"><ele>490.99999999999994</ele><time>2026-04-11T09:03:25.996Z</time></trkpt><trkpt lat="44.14818" lon="10.4127518"><ele>491.0</ele><time>2026-04-11T09:03:27.988Z</time></trkpt><trkpt lat="44.1481632" lon="10.4126632"><ele>491.0</ele><time>2026-04-11T09:03:29.968Z</time></trkpt><trkpt lat="44.1481461" lon="10.412577"><ele>491.0</ele><time>2026-04-11T09:03:31.972Z</time></trkpt><trkpt lat="44.1481241" lon="10.4124913"><ele>490.99999999999994</ele><time>2026-04-11T09:03:33.987Z</time></trkpt><trkpt lat="44.1481072" lon="10.4124009"><ele>491.0</ele><time>2026-04-11T09:03:35.971Z</time></trkpt><trkpt lat="44.1480876" lon="10.4122819"><ele>491.0</ele><time>2026-04-11T09:03:38.968Z</time></trkpt><trkpt lat="44.1480753" lon="10.412195"><ele>490.99999999999994</ele><time>2026-04-11T09:03:40.97Z</time></trkpt><trkpt lat="44.1480636" lon="10.4121008"><ele>491.0</ele><time>2026-04-11T09:03:42.978Z</time></trkpt><trkpt lat="44.1480442" lon="10.4120109"><ele>491.0</ele><time>2026-04-11T09:03:44.983Z</time></trkpt><trkpt lat="44.1480299" lon="10.4119191"><ele>490.85714285714283</ele><time>2026-04-11T09:03:46.963Z</time></trkpt><trkpt lat="44.1480181" lon="10.4118262"><ele>490.71428571428567</ele><time>2026-04-11T09:03:48.985Z</time></trkpt><trkpt lat="44.1480046" lon="10.4117341"><ele>490.57142857142856</ele><time>2026-04-11T09:03:50.987Z</time></trkpt><trkpt lat="44.147987" lon="10.4116453"><ele>490.42857142857144</ele><time>2026-04-11T09:03:52.978Z</time></trkpt><trkpt lat="44.1479684" lon="10.4115568"><ele>490.2857142857143</ele><time>2026-04-11T09:03:54.967Z</time></trkpt><trkpt lat="44.147947" lon="10.4114603"><ele>490.1428571428571</ele><time>2026-04-11T09:03:56.967Z</time></trkpt><trkpt lat="44.1479231" lon="10.4113721"><ele>490.0</ele><time>2026-04-11T09:03:58.981Z</time></trkpt><trkpt lat="44.1479083" lon="10.4112816"><ele>490.6666666666667</ele><time>2026-04-11T09:04:00.962Z</time></trkpt><trkpt lat="44.1478948" lon="10.4111881"><ele>491.33333333333337</ele><time>2026-04-11T09:04:02.976Z</time></trkpt><trkpt lat="44.1478784" lon="10.4110963"><ele>492.0</ele><time>2026-04-11T09:04:04.966Z</time></trkpt><trkpt lat="44.1478647" lon="10.4109731"><ele>492.66666666666663</ele><time>2026-04-11T09:04:07.971Z</time></trkpt><trkpt lat="44.1478475" lon="10.410879"><ele>493.3333333333333</ele><time>2026-04-11T09:04:10.97Z</time></trkpt><trkpt lat="44.1478086" lon="10.410766"><ele>494.0</ele><time>2026-04-11T09:04:13.967Z</time></trkpt><trkpt lat="44.1477891" lon="10.4106706"><ele>494.0</ele><time>2026-04-11T09:04:15.962Z</time></trkpt><trkpt lat="44.1477838" lon="10.4105707"><ele>494.0</ele><time>2026-04-11T09:04:17.96Z</time></trkpt><trkpt lat="44.1477649" lon="10.4104754"><ele>494.0</ele><time>2026-04-11T09:04:19.974Z</time></trkpt><trkpt lat="44.1477499" lon="10.4103797"><ele>494.0</ele><time>2026-04-11T09:04:21.964Z</time></trkpt><trkpt lat="44.1477373" lon="10.4102829"><ele>494.0</ele><time>2026-04-11T09:04:23.983Z</time></trkpt><trkpt lat="44.1477212" lon="10.4101863"><ele>494.0</ele><time>2026-04-11T09:04:25.988Z</time></trkpt><trkpt lat="44.1477056" lon="10.4100883"><ele>494.0</ele><time>2026-04-11T09:04:27.985Z</time></trkpt><trkpt lat="44.1476876" lon="10.409991"><ele>494.8333333333333</ele><time>2026-04-11T09:04:29.964Z</time></trkpt><trkpt lat="44.1476718" lon="10.4098936"><ele>495.66666666666663</ele><time>2026-04-11T09:04:31.965Z</time></trkpt><trkpt lat="44.1476554" lon="10.4097977"><ele>496.5</ele><time>2026-04-11T09:04:33.974Z</time></trkpt><trkpt lat="44.1476373" lon="10.409675"><ele>497.33333333333337</ele><time>2026-04-11T09:04:36.983Z</time></trkpt><trkpt lat="44.1476296" lon="10.4095423"><ele>498.1666666666667</ele><time>2026-04-11T09:04:39.974Z</time></trkpt><trkpt lat="44.1476093" lon="10.4094165"><ele>499.0</ele><time>2026-04-11T09:04:42.965Z</time></trkpt><trkpt lat="44.1475968" lon="10.4092948"><ele>500.6666666666667</ele><time>2026-04-11T09:04:45.979Z</time></trkpt><trkpt lat="44.1475817" lon="10.409174"><ele>502.33333333333337</ele><time>2026-04-11T09:04:48.972Z</time></trkpt><trkpt lat="44.1475713" lon="10.4090459"><ele>504.0</ele><time>2026-04-11T09:04:51.977Z</time></trkpt><trkpt lat="44.1475571" lon="10.4089591"><ele>505.66666666666663</ele><time>2026-04-11T09:04:53.976Z</time></trkpt><trkpt lat="44.1475413" lon="10.4088324"><ele>507.3333333333333</ele><time>2026-04-11T09:04:56.969Z</time></trkpt><trkpt lat="44.1475203" lon="10.4087074"><ele>509.0</ele><time>2026-04-11T09:04:59.968Z</time></trkpt><trkpt lat="44.1474952" lon="10.4085895"><ele>510.16666666666663</ele><time>2026-04-11T09:05:02.963Z</time></trkpt><trkpt lat="44.1474604" lon="10.4084713"><ele>511.3333333333333</ele><time>2026-04-11T09:05:05.989Z</time></trkpt><trkpt lat="44.1474288" lon="10.4083552"><ele>512.5</ele><time>2026-04-11T09:05:08.968Z</time></trkpt><trkpt lat="44.1473707" lon="10.408252"><ele>513.6666666666666</ele><time>2026-04-11T09:05:11.963Z</time></trkpt><trkpt lat="44.1473282" lon="10.4081861"><ele>514.8333333333334</ele><time>2026-04-11T09:05:13.982Z</time></trkpt><trkpt lat="44.1472819" lon="10.4081252"><ele>516.0</ele><time>2026-04-11T09:05:15.969Z</time></trkpt><trkpt lat="44.147221" lon="10.4080382"><ele>514.8571428571428</ele><time>2026-04-11T09:05:18.97Z</time></trkpt><trkpt lat="44.1472029" lon="10.4079267"><ele>513.7142857142857</ele><time>2026-04-11T09:05:21.984Z</time></trkpt><trkpt lat="44.1472488" lon="10.4078619"><ele>512.5714285714286</ele><time>2026-04-11T09:05:23.97Z</time></trkpt><trkpt lat="44.147307" lon="10.4078172"><ele>511.4285714285714</ele><time>2026-04-11T09:05:25.973Z</time></trkpt><trkpt lat="44.1473666" lon="10.4077773"><ele>510.2857142857142</ele><time>2026-04-11T09:05:27.979Z</time></trkpt><trkpt lat="44.1474295" lon="10.4077583"><ele>509.14285714285717</ele><time>2026-04-11T09:05:29.974Z</time></trkpt><trkpt lat="44.1474943" lon="10.4077561"><ele>508.0</ele><time>2026-04-11T09:05:31.971Z</time></trkpt><trkpt lat="44.1475576" lon="10.4077646"><ele>508.0</ele><time>2026-04-11T09:05:33.967Z</time></trkpt><trkpt lat="44.1476227" lon="10.4077798"><ele>508.0</ele><time>2026-04-11T09:05:35.978Z</time></trkpt><trkpt lat="44.147687" lon="10.4077996"><ele>508.0</ele><time>2026-04-11T09:05:37.985Z</time></trkpt><trkpt lat="44.1477516" lon="10.4078159"><ele>508.0</ele><time>2026-04-11T09:05:39.976Z</time></trkpt><trkpt lat="44.1478163" lon="10.4078331"><ele>508.0</ele><time>2026-04-11T09:05:41.981Z</time></trkpt><trkpt lat="44.1478801" lon="10.4078574"><ele>508.0</ele><time>2026-04-11T09:05:43.968Z</time></trkpt><trkpt lat="44.1479312" lon="10.4079145"><ele>508.0</ele><time>2026-04-11T09:05:45.969Z</time></trkpt><trkpt lat="44.1479679" lon="10.4079912"><ele>509.59999999999997</ele><time>2026-04-11T09:05:47.973Z</time></trkpt><trkpt lat="44.1479896" lon="10.4081207"><ele>511.19999999999993</ele><time>2026-04-11T09:05:50.972Z</time></trkpt><trkpt lat="44.1480004" lon="10.4082504"><ele>512.8</ele><time>2026-04-11T09:05:53.986Z</time></trkpt><trkpt lat="44.1480091" lon="10.4083756"><ele>514.4</ele><time>2026-04-11T09:05:56.967Z</time></trkpt><trkpt lat="44.1480234" lon="10.4084922"><ele>516.0</ele><time>2026-04-11T09:05:59.976Z</time></trkpt><trkpt lat="44.1480359" lon="10.4086104"><ele>516.0</ele><time>2026-04-11T09:06:02.99Z</time></trkpt><trkpt lat="44.1480423" lon="10.40873"><ele>516.0</ele><time>2026-04-11T09:06:05.976Z</time></trkpt><trkpt lat="44.1480532" lon="10.4088514"><ele>516.0</ele><time>2026-04-11T09:06:08.985Z</time></trkpt><trkpt lat="44.1480678" lon="10.4089754"><ele>516.0</ele><time>2026-04-11T09:06:11.971Z</time></trkpt><trkpt lat="44.1480823" lon="10.4090994"><ele>516.0</ele><time>2026-04-11T09:06:14.969Z</time></trkpt><trkpt lat="44.1480999" lon="10.4092287"><ele>516.0</ele><time>2026-04-11T09:06:17.965Z</time></trkpt><trkpt lat="44.1481061" lon="10.4093183"><ele>514.8333333333334</ele><time>2026-04-11T09:06:19.98Z</time></trkpt><trkpt lat="44.1481189" lon="10.4094443"><ele>513.6666666666666</ele><time>2026-04-11T09:06:22.974Z</time></trkpt><trkpt lat="44.148133" lon="10.4095718"><ele>512.5</ele><time>2026-04-11T09:06:25.985Z</time></trkpt><trkpt lat="44.1481459" lon="10.4096601"><ele>511.3333333333333</ele><time>2026-04-11T09:06:27.971Z</time></trkpt><trkpt lat="44.1481629" lon="10.409788"><ele>510.16666666666663</ele><time>2026-04-11T09:06:30.974Z</time></trkpt><trkpt lat="44.1481833" lon="10.409908"><ele>509.0</ele><time>2026-04-11T09:06:33.97Z</time></trkpt><trkpt lat="44.1482088" lon="10.4100235"><ele>511.2857142857142</ele><time>2026-04-11T09:06:36.977Z</time></trkpt><trkpt lat="44.1482264" lon="10.4101089"><ele>513.5714285714286</ele><time>2026-04-11T09:06:38.956Z</time></trkpt><trkpt lat="44.1482569" lon="10.410231"><ele>515.8571428571429</ele><time>2026-04-11T09:06:41.965Z</time></trkpt><trkpt lat="44.1482792" lon="10.4103168"><ele>518.1428571428571</ele><time>2026-04-11T09:06:43.961Z</time></trkpt><trkpt lat="44.1483012" lon="10.4104122"><ele>520.4285714285714</ele><time>2026-04-11T09:06:45.972Z</time></trkpt><trkpt lat="44.148321" lon="10.4105024"><ele>522.7142857142857</ele><time>2026-04-11T09:06:47.967Z</time></trkpt><trkpt lat="44.1483452" lon="10.4106184"><ele>525.0</ele><time>2026-04-11T09:06:50.961Z</time></trkpt><trkpt lat="44.1483846" lon="10.4107288"><ele>525.0</ele><time>2026-04-11T09:06:53.959Z</time></trkpt><trkpt lat="44.1484254" lon="10.4108439"><ele>525.0</ele><time>2026-04-11T09:06:56.959Z</time></trkpt><trkpt lat="44.1484493" lon="10.4109253"><ele>525.0</ele><time>2026-04-11T09:06:58.963Z</time></trkpt><trkpt lat="44.1484727" lon="10.4110097"><ele>525.0</ele><time>2026-04-11T09:07:00.967Z</time></trkpt><trkpt lat="44.1485024" lon="10.4110876"><ele>525.0</ele><time>2026-04-11T09:07:02.969Z</time></trkpt><trkpt lat="44.1485404" lon="10.4111604"><ele>525.0</ele><time>2026-04-11T09:07:04.978Z</time></trkpt><trkpt lat="44.1485812" lon="10.4112289"><ele>525.0</ele><time>2026-04-11T09:07:06.967Z</time></trkpt><trkpt lat="44.1486216" lon="10.4112986"><ele>525.0</ele><time>2026-04-11T09:07:08.969Z</time></trkpt><trkpt lat="44.1486834" lon="10.4113736"><ele>525.0</ele><time>2026-04-11T09:07:11.967Z</time></trkpt><trkpt lat="44.1487626" lon="10.411426"><ele>525.0</ele><time>2026-04-11T09:07:14.995Z</time></trkpt><trkpt lat="44.1488425" lon="10.4114437"><ele>525.0</ele><time>2026-04-11T09:07:17.957Z</time></trkpt><trkpt lat="44.1489192" lon="10.4113806"><ele>525.0</ele><time>2026-04-11T09:07:20.963Z</time></trkpt><trkpt lat="44.1489878" lon="10.411295"><ele>525.0</ele><time>2026-04-11T09:07:23.97Z</time></trkpt><trkpt lat="44.1490388" lon="10.4112351"><ele>526.5714285714286</ele><time>2026-04-11T09:07:25.985Z</time></trkpt><trkpt lat="44.1490945" lon="10.4111796"><ele>528.1428571428571</ele><time>2026-04-11T09:07:27.979Z</time></trkpt><trkpt lat="44.1491547" lon="10.411138"><ele>529.7142857142858</ele><time>2026-04-11T09:07:29.972Z</time></trkpt><trkpt lat="44.1492315" lon="10.4111213"><ele>531.2857142857142</ele><time>2026-04-11T09:07:32.984Z</time></trkpt><trkpt lat="44.1492978" lon="10.4111486"><ele>532.8571428571429</ele><time>2026-04-11T09:07:34.983Z</time></trkpt><trkpt lat="44.1493559" lon="10.4111859"><ele>534.4285714285714</ele><time>2026-04-11T09:07:36.986Z</time></trkpt><trkpt lat="44.1494408" lon="10.4112456"><ele>536.0</ele><time>2026-04-11T09:07:39.976Z</time></trkpt><trkpt lat="44.1495048" lon="10.411283"><ele>536.0</ele><time>2026-04-11T09:07:41.975Z</time></trkpt><trkpt lat="44.1495682" lon="10.4113167"><ele>536.0</ele><time>2026-04-11T09:07:43.971Z</time></trkpt><trkpt lat="44.1496296" lon="10.411351"><ele>536.0</ele><time>2026-04-11T09:07:45.976Z</time></trkpt><trkpt lat="44.1496883" lon="10.4113847"><ele>536.0</ele><time>2026-04-11T09:07:47.965Z</time></trkpt><trkpt lat="44.1497735" lon="10.411431"><ele>536.0</ele><time>2026-04-11T09:07:50.966Z</time></trkpt><trkpt lat="44.1498581" lon="10.4114662"><ele>536.0</ele><time>2026-04-11T09:07:53.968Z</time></trkpt><trkpt lat="44.149924" lon="10.4114967"><ele>536.0</ele><time>2026-04-11T09:07:56.958Z</time></trkpt><trkpt lat="44.1499828" lon="10.4115308"><ele>535.1428571428571</ele><time>2026-04-11T09:07:59.987Z</time></trkpt><trkpt lat="44.1500517" lon="10.4115677"><ele>534.2857142857142</ele><time>2026-04-11T09:08:02.988Z</time></trkpt><trkpt lat="44.1501216" lon="10.4116045"><ele>533.4285714285713</ele><time>2026-04-11T09:08:05.961Z</time></trkpt><trkpt lat="44.1501886" lon="10.4116383"><ele>532.5714285714286</ele><time>2026-04-11T09:08:08.963Z</time></trkpt><trkpt lat="44.1502584" lon="10.4116783"><ele>531.7142857142857</ele><time>2026-04-11T09:08:12.981Z</time></trkpt><trkpt lat="44.1503199" lon="10.411713"><ele>530.8571428571428</ele><time>2026-04-11T09:08:15.974Z</time></trkpt><trkpt lat="44.1503864" lon="10.4117459"><ele>530.0</ele><time>2026-04-11T09:08:18.975Z</time></trkpt><trkpt lat="44.1504509" lon="10.4117701"><ele>529.9999999999999</ele><time>2026-04-11T09:08:21.964Z</time></trkpt><trkpt lat="44.1505172" lon="10.411801"><ele>530.0</ele><time>2026-04-11T09:08:24.976Z</time></trkpt><trkpt lat="44.1505946" lon="10.4118256"><ele>530.0</ele><time>2026-04-11T09:08:28.966Z</time></trkpt><trkpt lat="44.1506601" lon="10.4118521"><ele>530.0</ele><time>2026-04-11T09:08:33.965Z</time></trkpt><trkpt lat="44.1507233" lon="10.4118384"><ele>530.0</ele><time>2026-04-11T09:08:37.967Z</time></trkpt><trkpt lat="44.1508017" lon="10.4118174"><ele>529.9999999999999</ele><time>2026-04-11T09:08:41.977Z</time></trkpt><trkpt lat="44.1508731" lon="10.4118399"><ele>530.0</ele><time>2026-04-11T09:08:45.98Z</time></trkpt><trkpt lat="44.1509393" lon="10.411874"><ele>530.1428571428571</ele><time>2026-04-11T09:08:49.981Z</time></trkpt><trkpt lat="44.1510081" lon="10.4119242"><ele>530.2857142857142</ele><time>2026-04-11T09:08:53.969Z</time></trkpt><trkpt lat="44.1510724" lon="10.4119876"><ele>530.4285714285714</ele><time>2026-04-11T09:08:57.976Z</time></trkpt><trkpt lat="44.1510547" lon="10.4120874"><ele>530.5714285714286</ele><time>2026-04-11T09:09:01.978Z</time></trkpt><trkpt lat="44.1509907" lon="10.4121218"><ele>530.7142857142858</ele><time>2026-04-11T09:09:05.973Z</time></trkpt><trkpt lat="44.1509241" lon="10.4121339"><ele>530.8571428571429</ele><time>2026-04-11T09:09:09.972Z</time></trkpt><trkpt lat="44.1508558" lon="10.4121717"><ele>531.0</ele><time>2026-04-11T09:09:13.971Z</time></trkpt><trkpt lat="44.1508114" lon="10.4122384"><ele>546.0</ele><time>2026-04-11T09:09:18.981Z</time></trkpt><trkpt lat="44.1507909" lon="10.4123241"><ele>546.0</ele><time>2026-04-11T09:09:23.971Z</time></trkpt><trkpt lat="44.1507777" lon="10.4124217"><ele>546.0</ele><time>2026-04-11T09:09:28.969Z</time></trkpt><trkpt lat="44.1507496" lon="10.4125084"><ele>546.0</ele><time>2026-04-11T09:09:32.964Z</time></trkpt></trkseg></trk></gpx>